<?xml version='1.0' encoding='UTF-8'?><gpx version="1.1" creator="JPX - https://github.com/jenetics/jpx" xmlns="http://www.topografix.com/GPX/1/1"><trk><trkseg><trkpt lat="45.4088283" lon="10.538995"><ele>129.0</ele><time>2026-03-22T09:54:06.645Z</time></trkpt><trkpt lat="45.4088733" lon="10.5390917"><ele>129.0</ele><time>2026-03-22T09:54:07.646Z</time></trkpt><trkpt lat="45.4089367" lon="10.5390233"><ele>129.0</ele><time>2026-03-22T09:54:09.652Z</time></trkpt><trkpt lat="45.40902" lon="10.5391033"><ele>129.0</ele><time>2026-03-22T09:54:12.645Z</time></trkpt><trkpt lat="45.40909" lon="10.5391117"><ele>129.0</ele><time>2026-03-22T09:54:14.739Z</time></trkpt><trkpt lat="45.4091667" lon="10.53913"><ele>129.0</ele><time>2026-03-22T09:54:16.736Z</time></trkpt><trkpt lat="45.4092317" lon="10.5391517"><ele>129.0</ele><time>2026-03-22T09:54:18.739Z</time></trkpt><trkpt lat="45.409305" lon="10.5391667"><ele>129.0</ele><time>2026-03-22T09:54:20.742Z</time></trkpt><trkpt lat="45.409415" lon="10.539205"><ele>129.0</ele><time>2026-03-22T09:54:23.737Z</time></trkpt><trkpt lat="45.4094783" lon="10.5392167"><ele>129.0</ele><time>2026-03-22T09:54:25.748Z</time></trkpt><trkpt lat="45.4095417" lon="10.5392217"><ele>129.0</ele><time>2026-03-22T09:54:27.751Z</time></trkpt><trkpt lat="45.4096367" lon="10.5392333"><ele>129.0</ele><time>2026-03-22T09:54:30.743Z</time></trkpt><trkpt lat="45.4097067" lon="10.539245"><ele>129.66666666666666</ele><time>2026-03-22T09:54:32.748Z</time></trkpt><trkpt lat="45.4097833" lon="10.5392617"><ele>130.33333333333334</ele><time>2026-03-22T09:54:34.744Z</time></trkpt><trkpt lat="45.4098533" lon="10.53928"><ele>131.0</ele><time>2026-03-22T09:54:36.739Z</time></trkpt><trkpt lat="45.4099367" lon="10.5392983"><ele>131.66666666666669</ele><time>2026-03-22T09:54:38.74Z</time></trkpt><trkpt lat="45.4100183" lon="10.539315"><ele>132.33333333333334</ele><time>2026-03-22T09:54:40.745Z</time></trkpt><trkpt lat="45.4100917" lon="10.5393233"><ele>133.0</ele><time>2026-03-22T09:54:42.742Z</time></trkpt><trkpt lat="45.4101683" lon="10.5393383"><ele>133.0</ele><time>2026-03-22T09:54:44.74Z</time></trkpt><trkpt lat="45.41025" lon="10.539355"><ele>133.0</ele><time>2026-03-22T09:54:46.744Z</time></trkpt><trkpt lat="45.4103183" lon="10.5393717"><ele>133.0</ele><time>2026-03-22T09:54:48.747Z</time></trkpt><trkpt lat="45.41039" lon="10.5393917"><ele>133.0</ele><time>2026-03-22T09:54:50.748Z</time></trkpt><trkpt lat="45.4104767" lon="10.5394167"><ele>133.0</ele><time>2026-03-22T09:54:52.744Z</time></trkpt><trkpt lat="45.410575" lon="10.53945"><ele>133.0</ele><time>2026-03-22T09:54:54.74Z</time></trkpt><trkpt lat="45.4106883" lon="10.5394933"><ele>133.20000000000002</ele><time>2026-03-22T09:54:56.748Z</time></trkpt><trkpt lat="45.41075" lon="10.539515"><ele>133.4</ele><time>2026-03-22T09:54:57.748Z</time></trkpt><trkpt lat="45.4108667" lon="10.5395583"><ele>133.60000000000002</ele><time>2026-03-22T09:54:59.742Z</time></trkpt><trkpt lat="45.4109883" lon="10.5396033"><ele>133.8</ele><time>2026-03-22T09:55:01.744Z</time></trkpt><trkpt lat="45.4111083" lon="10.53965"><ele>134.0</ele><time>2026-03-22T09:55:03.749Z</time></trkpt><trkpt lat="45.4111683" lon="10.5396783"><ele>134.0</ele><time>2026-03-22T09:55:04.75Z</time></trkpt><trkpt lat="45.4112867" lon="10.5397367"><ele>134.0</ele><time>2026-03-22T09:55:06.753Z</time></trkpt><trkpt lat="45.4113933" lon="10.5398267"><ele>134.0</ele><time>2026-03-22T09:55:08.741Z</time></trkpt><trkpt lat="45.411445" lon="10.5398983"><ele>134.0</ele><time>2026-03-22T09:55:09.749Z</time></trkpt><trkpt lat="45.4114883" lon="10.5399833"><ele>134.0</ele><time>2026-03-22T09:55:10.747Z</time></trkpt><trkpt lat="45.411535" lon="10.5400667"><ele>133.16666666666666</ele><time>2026-03-22T09:55:11.751Z</time></trkpt><trkpt lat="45.4115733" lon="10.54015"><ele>132.33333333333331</ele><time>2026-03-22T09:55:12.753Z</time></trkpt><trkpt lat="45.4116117" lon="10.540235"><ele>131.5</ele><time>2026-03-22T09:55:13.749Z</time></trkpt><trkpt lat="45.4116433" lon="10.540315"><ele>130.66666666666666</ele><time>2026-03-22T09:55:14.744Z</time></trkpt><trkpt lat="45.4116717" lon="10.5403967"><ele>129.83333333333334</ele><time>2026-03-22T09:55:15.746Z</time></trkpt><trkpt lat="45.4117033" lon="10.540475"><ele>129.0</ele><time>2026-03-22T09:55:16.746Z</time></trkpt><trkpt lat="45.4117733" lon="10.5406217"><ele>129.0</ele><time>2026-03-22T09:55:18.748Z</time></trkpt><trkpt lat="45.4118183" lon="10.54069"><ele>129.0</ele><time>2026-03-22T09:55:19.746Z</time></trkpt><trkpt lat="45.4118817" lon="10.5408133"><ele>129.0</ele><time>2026-03-22T09:55:21.746Z</time></trkpt><trkpt lat="45.4119483" lon="10.5409233"><ele>129.0</ele><time>2026-03-22T09:55:23.747Z</time></trkpt><trkpt lat="45.4120117" lon="10.5410233"><ele>129.0</ele><time>2026-03-22T09:55:25.744Z</time></trkpt><trkpt lat="45.412075" lon="10.541115"><ele>129.0</ele><time>2026-03-22T09:55:27.751Z</time></trkpt><trkpt lat="45.41215" lon="10.5411967"><ele>129.0</ele><time>2026-03-22T09:55:29.743Z</time></trkpt><trkpt lat="45.4121933" lon="10.5412717"><ele>129.0</ele><time>2026-03-22T09:55:31.743Z</time></trkpt><trkpt lat="45.4121567" lon="10.5413567"><ele>129.0</ele><time>2026-03-22T09:55:33.743Z</time></trkpt><trkpt lat="45.4121017" lon="10.541445"><ele>129.0</ele><time>2026-03-22T09:55:35.745Z</time></trkpt><trkpt lat="45.4120333" lon="10.5415467"><ele>129.0</ele><time>2026-03-22T09:55:37.743Z</time></trkpt><trkpt lat="45.41196" lon="10.5416633"><ele>128.6</ele><time>2026-03-22T09:55:39.747Z</time></trkpt><trkpt lat="45.4118667" lon="10.5417817"><ele>128.2</ele><time>2026-03-22T09:55:41.74Z</time></trkpt><trkpt lat="45.4117833" lon="10.5419117"><ele>127.79999999999998</ele><time>2026-03-22T09:55:43.742Z</time></trkpt><trkpt lat="45.4117483" lon="10.5419867"><ele>127.39999999999999</ele><time>2026-03-22T09:55:44.744Z</time></trkpt><trkpt lat="45.4117117" lon="10.5420683"><ele>127.0</ele><time>2026-03-22T09:55:45.747Z</time></trkpt><trkpt lat="45.4116717" lon="10.5421517"><ele>126.85714285714286</ele><time>2026-03-22T09:55:46.745Z</time></trkpt><trkpt lat="45.4116283" lon="10.5422333"><ele>126.71428571428571</ele><time>2026-03-22T09:55:47.746Z</time></trkpt><trkpt lat="45.4115883" lon="10.5423067"><ele>126.57142857142857</ele><time>2026-03-22T09:55:48.75Z</time></trkpt><trkpt lat="45.4115483" lon="10.54238"><ele>126.42857142857143</ele><time>2026-03-22T09:55:49.746Z</time></trkpt><trkpt lat="45.4115083" lon="10.542465"><ele>126.28571428571428</ele><time>2026-03-22T09:55:50.746Z</time></trkpt><trkpt lat="45.41147" lon="10.5425567"><ele>126.14285714285714</ele><time>2026-03-22T09:55:51.75Z</time></trkpt><trkpt lat="45.41143" lon="10.5426383"><ele>126.0</ele><time>2026-03-22T09:55:52.745Z</time></trkpt><trkpt lat="45.4113883" lon="10.5427217"><ele>126.0</ele><time>2026-03-22T09:55:53.749Z</time></trkpt><trkpt lat="45.4113483" lon="10.542805"><ele>126.0</ele><time>2026-03-22T09:55:54.746Z</time></trkpt><trkpt lat="45.4113117" lon="10.54289"><ele>126.0</ele><time>2026-03-22T09:55:55.75Z</time></trkpt><trkpt lat="45.41128" lon="10.5429867"><ele>126.0</ele><time>2026-03-22T09:55:56.745Z</time></trkpt><trkpt lat="45.4112467" lon="10.5430783"><ele>126.0</ele><time>2026-03-22T09:55:57.749Z</time></trkpt><trkpt lat="45.4112167" lon="10.5431767"><ele>126.0</ele><time>2026-03-22T09:55:58.752Z</time></trkpt><trkpt lat="45.4111833" lon="10.5432883"><ele>126.0</ele><time>2026-03-22T09:55:59.752Z</time></trkpt><trkpt lat="45.4111583" lon="10.5433817"><ele>125.42857142857143</ele><time>2026-03-22T09:56:00.751Z</time></trkpt><trkpt lat="45.411135" lon="10.5434717"><ele>124.85714285714286</ele><time>2026-03-22T09:56:01.733Z</time></trkpt><trkpt lat="45.4111117" lon="10.5435617"><ele>124.28571428571428</ele><time>2026-03-22T09:56:02.745Z</time></trkpt><trkpt lat="45.41109" lon="10.5436667"><ele>123.71428571428571</ele><time>2026-03-22T09:56:03.747Z</time></trkpt><trkpt lat="45.411075" lon="10.5437633"><ele>123.14285714285714</ele><time>2026-03-22T09:56:04.749Z</time></trkpt><trkpt lat="45.4110733" lon="10.5438533"><ele>122.57142857142856</ele><time>2026-03-22T09:56:05.745Z</time></trkpt><trkpt lat="45.41109" lon="10.54395"><ele>121.99999999999999</ele><time>2026-03-22T09:56:06.748Z</time></trkpt><trkpt lat="45.4111633" lon="10.54407"><ele>122.0</ele><time>2026-03-22T09:56:08.746Z</time></trkpt><trkpt lat="45.4112583" lon="10.5441033"><ele>121.99999999999999</ele><time>2026-03-22T09:56:10.75Z</time></trkpt><trkpt lat="45.41137" lon="10.544115"><ele>121.99999999999999</ele><time>2026-03-22T09:56:12.743Z</time></trkpt><trkpt lat="45.4114717" lon="10.5441433"><ele>122.0</ele><time>2026-03-22T09:56:14.748Z</time></trkpt><trkpt lat="45.41158" lon="10.54417"><ele>122.0</ele><time>2026-03-22T09:56:16.745Z</time></trkpt><trkpt lat="45.41165" lon="10.544185"><ele>122.19999999999999</ele><time>2026-03-22T09:56:17.75Z</time></trkpt><trkpt lat="45.411765" lon="10.5442217"><ele>122.39999999999999</ele><time>2026-03-22T09:56:19.742Z</time></trkpt><trkpt lat="45.4118717" lon="10.5442733"><ele>122.60000000000001</ele><time>2026-03-22T09:56:21.75Z</time></trkpt><trkpt lat="45.4119717" lon="10.5443233"><ele>122.80000000000001</ele><time>2026-03-22T09:56:23.747Z</time></trkpt><trkpt lat="45.412065" lon="10.5443717"><ele>123.0</ele><time>2026-03-22T09:56:25.751Z</time></trkpt><trkpt lat="45.41216" lon="10.5444233"><ele>124.0</ele><time>2026-03-22T09:56:27.744Z</time></trkpt><trkpt lat="45.412255" lon="10.54446"><ele>125.00000000000001</ele><time>2026-03-22T09:56:29.746Z</time></trkpt><trkpt lat="45.4123433" lon="10.5444717"><ele>126.00000000000001</ele><time>2026-03-22T09:56:31.746Z</time></trkpt><trkpt lat="45.412435" lon="10.5444733"><ele>127.0</ele><time>2026-03-22T09:56:33.744Z</time></trkpt><trkpt lat="45.412525" lon="10.5444583"><ele>128.0</ele><time>2026-03-22T09:56:35.744Z</time></trkpt><trkpt lat="45.4126133" lon="10.54443"><ele>128.0</ele><time>2026-03-22T09:56:37.743Z</time></trkpt><trkpt lat="45.4127017" lon="10.5444033"><ele>128.0</ele><time>2026-03-22T09:56:39.748Z</time></trkpt><trkpt lat="45.41279" lon="10.544385"><ele>128.0</ele><time>2026-03-22T09:56:41.742Z</time></trkpt><trkpt lat="45.412885" lon="10.5443683"><ele>128.0</ele><time>2026-03-22T09:56:43.742Z</time></trkpt><trkpt lat="45.4129833" lon="10.5443617"><ele>128.0</ele><time>2026-03-22T09:56:45.748Z</time></trkpt><trkpt lat="45.413075" lon="10.54435"><ele>127.83333333333333</ele><time>2026-03-22T09:56:47.747Z</time></trkpt><trkpt lat="45.41317" lon="10.5443433"><ele>127.66666666666666</ele><time>2026-03-22T09:56:49.743Z</time></trkpt><trkpt lat="45.413245" lon="10.5443367"><ele>127.5</ele><time>2026-03-22T09:56:51.743Z</time></trkpt><trkpt lat="45.413315" lon="10.5443333"><ele>127.33333333333334</ele><time>2026-03-22T09:56:53.75Z</time></trkpt><trkpt lat="45.4133967" lon="10.54433"><ele>127.16666666666667</ele><time>2026-03-22T09:56:55.763Z</time></trkpt><trkpt lat="45.4134833" lon="10.54433"><ele>127.0</ele><time>2026-03-22T09:56:57.744Z</time></trkpt><trkpt lat="45.4135917" lon="10.5443333"><ele>127.0</ele><time>2026-03-22T09:56:59.745Z</time></trkpt><trkpt lat="45.4137" lon="10.5443367"><ele>127.0</ele><time>2026-03-22T09:57:01.752Z</time></trkpt><trkpt lat="45.4138117" lon="10.54434"><ele>127.0</ele><time>2026-03-22T09:57:03.753Z</time></trkpt><trkpt lat="45.41393" lon="10.544345"><ele>127.0</ele><time>2026-03-22T09:57:05.743Z</time></trkpt><trkpt lat="45.4140483" lon="10.5443517"><ele>126.50000000000001</ele><time>2026-03-22T09:57:07.742Z</time></trkpt><trkpt lat="45.4141733" lon="10.5443533"><ele>126.0</ele><time>2026-03-22T09:57:09.75Z</time></trkpt><trkpt lat="45.4142417" lon="10.5443467"><ele>125.5</ele><time>2026-03-22T09:57:10.752Z</time></trkpt><trkpt lat="45.4143117" lon="10.544335"><ele>125.0</ele><time>2026-03-22T09:57:11.752Z</time></trkpt><trkpt lat="45.41438" lon="10.544325"><ele>124.50000000000001</ele><time>2026-03-22T09:57:12.752Z</time></trkpt><trkpt lat="45.4144533" lon="10.544315"><ele>124.0</ele><time>2026-03-22T09:57:13.747Z</time></trkpt><trkpt lat="45.41453" lon="10.5443083"><ele>124.00000000000001</ele><time>2026-03-22T09:57:14.756Z</time></trkpt><trkpt lat="45.4146067" lon="10.5443017"><ele>124.0</ele><time>2026-03-22T09:57:15.753Z</time></trkpt><trkpt lat="45.4146817" lon="10.5442967"><ele>124.0</ele><time>2026-03-22T09:57:16.741Z</time></trkpt><trkpt lat="45.41476" lon="10.54429"><ele>124.0</ele><time>2026-03-22T09:57:17.75Z</time></trkpt><trkpt lat="45.4148367" lon="10.54428"><ele>124.00000000000001</ele><time>2026-03-22T09:57:18.751Z</time></trkpt><trkpt lat="45.4149117" lon="10.54427"><ele>124.0</ele><time>2026-03-22T09:57:19.75Z</time></trkpt><trkpt lat="45.4149933" lon="10.544265"><ele>123.42857142857143</ele><time>2026-03-22T09:57:20.755Z</time></trkpt><trkpt lat="45.4150717" lon="10.5442633"><ele>122.85714285714286</ele><time>2026-03-22T09:57:21.753Z</time></trkpt><trkpt lat="45.4151417" lon="10.5442683"><ele>122.28571428571429</ele><time>2026-03-22T09:57:22.751Z</time></trkpt><trkpt lat="45.415215" lon="10.5442883"><ele>121.71428571428572</ele><time>2026-03-22T09:57:23.752Z</time></trkpt><trkpt lat="45.415285" lon="10.544315"><ele>121.14285714285714</ele><time>2026-03-22T09:57:24.754Z</time></trkpt><trkpt lat="45.415355" lon="10.544335"><ele>120.57142857142858</ele><time>2026-03-22T09:57:25.748Z</time></trkpt><trkpt lat="45.415425" lon="10.544345"><ele>120.0</ele><time>2026-03-22T09:57:26.752Z</time></trkpt><trkpt lat="45.415495" lon="10.544345"><ele>119.0</ele><time>2026-03-22T09:57:27.752Z</time></trkpt><trkpt lat="45.4155667" lon="10.5443283"><ele>118.0</ele><time>2026-03-22T09:57:28.753Z</time></trkpt><trkpt lat="45.41564" lon="10.5443"><ele>117.0</ele><time>2026-03-22T09:57:29.758Z</time></trkpt><trkpt lat="45.4157167" lon="10.544275"><ele>116.0</ele><time>2026-03-22T09:57:30.752Z</time></trkpt><trkpt lat="45.41579" lon="10.544255"><ele>115.0</ele><time>2026-03-22T09:57:31.752Z</time></trkpt><trkpt lat="45.4158667" lon="10.544235"><ele>114.0</ele><time>2026-03-22T09:57:32.746Z</time></trkpt><trkpt lat="45.4159367" lon="10.5442117"><ele>114.0</ele><time>2026-03-22T09:57:33.754Z</time></trkpt><trkpt lat="45.416005" lon="10.544185"><ele>114.0</ele><time>2026-03-22T09:57:34.745Z</time></trkpt><trkpt lat="45.41607" lon="10.5441633"><ele>114.0</ele><time>2026-03-22T09:57:35.746Z</time></trkpt><trkpt lat="45.4161333" lon="10.5441433"><ele>114.0</ele><time>2026-03-22T09:57:36.745Z</time></trkpt><trkpt lat="45.41626" lon="10.5441217"><ele>114.0</ele><time>2026-03-22T09:57:38.745Z</time></trkpt><trkpt lat="45.4163233" lon="10.5441083"><ele>114.0</ele><time>2026-03-22T09:57:39.745Z</time></trkpt><trkpt lat="45.41644" lon="10.5440883"><ele>113.0</ele><time>2026-03-22T09:57:41.75Z</time></trkpt><trkpt lat="45.4165517" lon="10.544055"><ele>112.0</ele><time>2026-03-22T09:57:43.751Z</time></trkpt><trkpt lat="45.416655" lon="10.544"><ele>111.0</ele><time>2026-03-22T09:57:45.751Z</time></trkpt><trkpt lat="45.4167683" lon="10.54394"><ele>110.0</ele><time>2026-03-22T09:57:47.753Z</time></trkpt><trkpt lat="45.4168333" lon="10.5439117"><ele>109.0</ele><time>2026-03-22T09:57:48.744Z</time></trkpt><trkpt lat="45.41689" lon="10.5438683"><ele>109.0</ele><time>2026-03-22T09:57:49.746Z</time></trkpt><trkpt lat="45.4169983" lon="10.5437767"><ele>109.0</ele><time>2026-03-22T09:57:51.747Z</time></trkpt><trkpt lat="45.4170933" lon="10.543675"><ele>109.0</ele><time>2026-03-22T09:57:53.748Z</time></trkpt><trkpt lat="45.41718" lon="10.5435567"><ele>109.0</ele><time>2026-03-22T09:57:55.748Z</time></trkpt><trkpt lat="45.4172533" lon="10.54343"><ele>108.75</ele><time>2026-03-22T09:57:57.746Z</time></trkpt><trkpt lat="45.4173267" lon="10.5432983"><ele>108.5</ele><time>2026-03-22T09:57:59.751Z</time></trkpt><trkpt lat="45.417395" lon="10.543165"><ele>108.25</ele><time>2026-03-22T09:58:01.747Z</time></trkpt><trkpt lat="45.41746" lon="10.5430317"><ele>108.0</ele><time>2026-03-22T09:58:03.753Z</time></trkpt><trkpt lat="45.417525" lon="10.5428967"><ele>108.25</ele><time>2026-03-22T09:58:05.748Z</time></trkpt><trkpt lat="45.4175933" lon="10.5427617"><ele>108.5</ele><time>2026-03-22T09:58:07.75Z</time></trkpt><trkpt lat="45.41766" lon="10.54263"><ele>108.75</ele><time>2026-03-22T09:58:09.747Z</time></trkpt><trkpt lat="45.4177267" lon="10.5425"><ele>109.0</ele><time>2026-03-22T09:58:11.752Z</time></trkpt><trkpt lat="45.4177933" lon="10.5423667"><ele>109.0</ele><time>2026-03-22T09:58:13.745Z</time></trkpt><trkpt lat="45.4178583" lon="10.5422317"><ele>109.0</ele><time>2026-03-22T09:58:15.753Z</time></trkpt><trkpt lat="45.4179167" lon="10.5420983"><ele>109.0</ele><time>2026-03-22T09:58:17.753Z</time></trkpt><trkpt lat="45.4179767" lon="10.5419567"><ele>109.0</ele><time>2026-03-22T09:58:19.752Z</time></trkpt><trkpt lat="45.4180417" lon="10.5418133"><ele>109.0</ele><time>2026-03-22T09:58:21.744Z</time></trkpt><trkpt lat="45.4181133" lon="10.5416783"><ele>109.0</ele><time>2026-03-22T09:58:23.746Z</time></trkpt><trkpt lat="45.41819" lon="10.5415467"><ele>109.0</ele><time>2026-03-22T09:58:25.749Z</time></trkpt><trkpt lat="45.4182667" lon="10.54142"><ele>109.0</ele><time>2026-03-22T09:58:27.753Z</time></trkpt><trkpt lat="45.4183533" lon="10.5413117"><ele>109.0</ele><time>2026-03-22T09:58:29.751Z</time></trkpt><trkpt lat="45.4184467" lon="10.5412167"><ele>109.0</ele><time>2026-03-22T09:58:31.75Z</time></trkpt><trkpt lat="45.4185417" lon="10.5411267"><ele>109.0</ele><time>2026-03-22T09:58:33.75Z</time></trkpt><trkpt lat="45.4186383" lon="10.54104"><ele>109.0</ele><time>2026-03-22T09:58:35.751Z</time></trkpt><trkpt lat="45.4187383" lon="10.54096"><ele>110.0</ele><time>2026-03-22T09:58:37.748Z</time></trkpt><trkpt lat="45.418835" lon="10.5408717"><ele>111.0</ele><time>2026-03-22T09:58:39.75Z</time></trkpt><trkpt lat="45.418935" lon="10.54078"><ele>112.0</ele><time>2026-03-22T09:58:41.751Z</time></trkpt><trkpt lat="45.4190317" lon="10.5406883"><ele>113.0</ele><time>2026-03-22T09:58:43.745Z</time></trkpt><trkpt lat="45.4191283" lon="10.5406033"><ele>113.0</ele><time>2026-03-22T09:58:45.752Z</time></trkpt><trkpt lat="45.4192267" lon="10.5405367"><ele>113.00000000000001</ele><time>2026-03-22T09:58:47.746Z</time></trkpt><trkpt lat="45.419315" lon="10.54048"><ele>113.00000000000001</ele><time>2026-03-22T09:58:49.752Z</time></trkpt><trkpt lat="45.4194033" lon="10.5404333"><ele>113.0</ele><time>2026-03-22T09:58:51.748Z</time></trkpt><trkpt lat="45.4194933" lon="10.54039"><ele>113.0</ele><time>2026-03-22T09:58:53.748Z</time></trkpt><trkpt lat="45.4195867" lon="10.5403417"><ele>113.60000000000001</ele><time>2026-03-22T09:58:55.747Z</time></trkpt><trkpt lat="45.419685" lon="10.5402883"><ele>114.20000000000002</ele><time>2026-03-22T09:58:57.752Z</time></trkpt><trkpt lat="45.4197767" lon="10.5402317"><ele>114.8</ele><time>2026-03-22T09:58:59.748Z</time></trkpt><trkpt lat="45.41986" lon="10.54017"><ele>115.4</ele><time>2026-03-22T09:59:01.747Z</time></trkpt><trkpt lat="45.4199533" lon="10.5401017"><ele>116.0</ele><time>2026-03-22T09:59:03.748Z</time></trkpt><trkpt lat="45.4200417" lon="10.540035"><ele>115.99999999999999</ele><time>2026-03-22T09:59:05.747Z</time></trkpt><trkpt lat="45.4201333" lon="10.539965"><ele>116.0</ele><time>2026-03-22T09:59:07.747Z</time></trkpt><trkpt lat="45.42021" lon="10.5398983"><ele>116.0</ele><time>2026-03-22T09:59:09.744Z</time></trkpt><trkpt lat="45.4202733" lon="10.5398383"><ele>116.0</ele><time>2026-03-22T09:59:11.748Z</time></trkpt><trkpt lat="45.4203317" lon="10.53978"><ele>115.99999999999999</ele><time>2026-03-22T09:59:13.75Z</time></trkpt><trkpt lat="45.42038" lon="10.53971"><ele>116.0</ele><time>2026-03-22T09:59:15.75Z</time></trkpt><trkpt lat="45.4204317" lon="10.5396283"><ele>116.83333333333333</ele><time>2026-03-22T09:59:17.743Z</time></trkpt><trkpt lat="45.4204817" lon="10.539545"><ele>117.66666666666666</ele><time>2026-03-22T09:59:19.745Z</time></trkpt><trkpt lat="45.4205383" lon="10.5394767"><ele>118.5</ele><time>2026-03-22T09:59:21.75Z</time></trkpt><trkpt lat="45.420595" lon="10.5394333"><ele>119.33333333333334</ele><time>2026-03-22T09:59:23.745Z</time></trkpt><trkpt lat="45.420665" lon="10.539385"><ele>120.16666666666667</ele><time>2026-03-22T09:59:25.744Z</time></trkpt><trkpt lat="45.4207467" lon="10.5393483"><ele>121.0</ele><time>2026-03-22T09:59:27.751Z</time></trkpt><trkpt lat="45.420825" lon="10.5393117"><ele>121.00000000000001</ele><time>2026-03-22T09:59:29.748Z</time></trkpt><trkpt lat="45.4209" lon="10.5392767"><ele>121.0</ele><time>2026-03-22T09:59:31.746Z</time></trkpt><trkpt lat="45.4209783" lon="10.53924"><ele>121.0</ele><time>2026-03-22T09:59:33.742Z</time></trkpt><trkpt lat="45.4210583" lon="10.5392167"><ele>121.0</ele><time>2026-03-22T09:59:35.749Z</time></trkpt><trkpt lat="45.42114" lon="10.5391867"><ele>121.00000000000001</ele><time>2026-03-22T09:59:37.745Z</time></trkpt><trkpt lat="45.4212267" lon="10.5391533"><ele>121.0</ele><time>2026-03-22T09:59:39.747Z</time></trkpt><trkpt lat="45.42131" lon="10.5391217"><ele>120.66666666666667</ele><time>2026-03-22T09:59:41.74Z</time></trkpt><trkpt lat="45.4213933" lon="10.53909"><ele>120.33333333333334</ele><time>2026-03-22T09:59:43.745Z</time></trkpt><trkpt lat="45.4214783" lon="10.5390467"><ele>120.0</ele><time>2026-03-22T09:59:45.75Z</time></trkpt><trkpt lat="45.4215617" lon="10.5390033"><ele>119.66666666666666</ele><time>2026-03-22T09:59:47.742Z</time></trkpt><trkpt lat="45.42164" lon="10.5389617"><ele>119.33333333333333</ele><time>2026-03-22T09:59:49.743Z</time></trkpt><trkpt lat="45.4217217" lon="10.5389167"><ele>119.0</ele><time>2026-03-22T09:59:51.747Z</time></trkpt><trkpt lat="45.4218017" lon="10.53888"><ele>118.99999999999999</ele><time>2026-03-22T09:59:53.751Z</time></trkpt><trkpt lat="45.421865" lon="10.5388417"><ele>119.0</ele><time>2026-03-22T09:59:55.752Z</time></trkpt><trkpt lat="45.4219283" lon="10.538795"><ele>119.0</ele><time>2026-03-22T09:59:57.743Z</time></trkpt><trkpt lat="45.4219917" lon="10.5387583"><ele>119.0</ele><time>2026-03-22T09:59:59.747Z</time></trkpt><trkpt lat="45.4220683" lon="10.5387167"><ele>118.99999999999999</ele><time>2026-03-22T10:00:01.745Z</time></trkpt><trkpt lat="45.4221467" lon="10.53867"><ele>119.0</ele><time>2026-03-22T10:00:03.747Z</time></trkpt><trkpt lat="45.422225" lon="10.538625"><ele>120.0</ele><time>2026-03-22T10:00:05.744Z</time></trkpt><trkpt lat="45.42232" lon="10.538575"><ele>121.0</ele><time>2026-03-22T10:00:07.752Z</time></trkpt><trkpt lat="45.4224117" lon="10.53852"><ele>122.0</ele><time>2026-03-22T10:00:09.747Z</time></trkpt><trkpt lat="45.4225017" lon="10.53847"><ele>123.0</ele><time>2026-03-22T10:00:11.753Z</time></trkpt><trkpt lat="45.422585" lon="10.5384317"><ele>124.0</ele><time>2026-03-22T10:00:13.742Z</time></trkpt><trkpt lat="45.4226667" lon="10.5383933"><ele>124.00000000000001</ele><time>2026-03-22T10:00:15.746Z</time></trkpt><trkpt lat="45.422745" lon="10.5383617"><ele>124.0</ele><time>2026-03-22T10:00:17.752Z</time></trkpt><trkpt lat="45.4228167" lon="10.5383267"><ele>124.0</ele><time>2026-03-22T10:00:19.743Z</time></trkpt><trkpt lat="45.4228983" lon="10.5382833"><ele>124.0</ele><time>2026-03-22T10:00:21.744Z</time></trkpt><trkpt lat="45.4229817" lon="10.5382467"><ele>124.00000000000001</ele><time>2026-03-22T10:00:23.747Z</time></trkpt><trkpt lat="45.4230683" lon="10.538215"><ele>124.0</ele><time>2026-03-22T10:00:25.743Z</time></trkpt><trkpt lat="45.423155" lon="10.538185"><ele>124.4</ele><time>2026-03-22T10:00:27.74Z</time></trkpt><trkpt lat="45.423245" lon="10.538165"><ele>124.80000000000001</ele><time>2026-03-22T10:00:29.743Z</time></trkpt><trkpt lat="45.4233467" lon="10.5381367"><ele>125.19999999999999</ele><time>2026-03-22T10:00:31.747Z</time></trkpt><trkpt lat="45.4234467" lon="10.5380967"><ele>125.6</ele><time>2026-03-22T10:00:33.749Z</time></trkpt><trkpt lat="45.42355" lon="10.53806"><ele>126.0</ele><time>2026-03-22T10:00:35.74Z</time></trkpt><trkpt lat="45.423645" lon="10.5380283"><ele>126.0</ele><time>2026-03-22T10:00:37.742Z</time></trkpt><trkpt lat="45.4237417" lon="10.5380033"><ele>126.0</ele><time>2026-03-22T10:00:39.75Z</time></trkpt><trkpt lat="45.4238267" lon="10.5379817"><ele>126.0</ele><time>2026-03-22T10:00:41.744Z</time></trkpt><trkpt lat="45.4239317" lon="10.537975"><ele>126.0</ele><time>2026-03-22T10:00:43.741Z</time></trkpt><trkpt lat="45.4240283" lon="10.5379683"><ele>126.0</ele><time>2026-03-22T10:00:45.742Z</time></trkpt><trkpt lat="45.42412" lon="10.5379633"><ele>125.66666666666667</ele><time>2026-03-22T10:00:47.744Z</time></trkpt><trkpt lat="45.4242083" lon="10.537965"><ele>125.33333333333334</ele><time>2026-03-22T10:00:49.746Z</time></trkpt><trkpt lat="45.42428" lon="10.5379683"><ele>125.0</ele><time>2026-03-22T10:00:51.74Z</time></trkpt><trkpt lat="45.4243517" lon="10.5379783"><ele>124.66666666666667</ele><time>2026-03-22T10:00:53.747Z</time></trkpt><trkpt lat="45.4244167" lon="10.5380033"><ele>124.33333333333334</ele><time>2026-03-22T10:00:55.751Z</time></trkpt><trkpt lat="45.424515" lon="10.5380217"><ele>124.0</ele><time>2026-03-22T10:02:24.749Z</time></trkpt><trkpt lat="45.424585" lon="10.5380367"><ele>123.2</ele><time>2026-03-22T10:02:26.742Z</time></trkpt><trkpt lat="45.42465" lon="10.5380867"><ele>122.4</ele><time>2026-03-22T10:02:28.749Z</time></trkpt><trkpt lat="45.4247283" lon="10.5381567"><ele>121.6</ele><time>2026-03-22T10:02:30.745Z</time></trkpt><trkpt lat="45.4248083" lon="10.5382517"><ele>120.8</ele><time>2026-03-22T10:02:32.745Z</time></trkpt><trkpt lat="45.4248967" lon="10.5383567"><ele>120.0</ele><time>2026-03-22T10:02:34.75Z</time></trkpt><trkpt lat="45.4249967" lon="10.5384517"><ele>120.0</ele><time>2026-03-22T10:02:36.745Z</time></trkpt><trkpt lat="45.4251033" lon="10.53853"><ele>120.0</ele><time>2026-03-22T10:02:38.751Z</time></trkpt><trkpt lat="45.42516" lon="10.53857"><ele>120.0</ele><time>2026-03-22T10:02:39.753Z</time></trkpt><trkpt lat="45.4252767" lon="10.5386417"><ele>120.0</ele><time>2026-03-22T10:02:41.747Z</time></trkpt><trkpt lat="45.4253383" lon="10.5386767"><ele>120.0</ele><time>2026-03-22T10:02:42.747Z</time></trkpt><trkpt lat="45.4254533" lon="10.53873"><ele>118.6</ele><time>2026-03-22T10:02:44.753Z</time></trkpt><trkpt lat="45.425565" lon="10.5387683"><ele>117.2</ele><time>2026-03-22T10:02:46.751Z</time></trkpt><trkpt lat="45.42568" lon="10.5388033"><ele>115.80000000000001</ele><time>2026-03-22T10:02:48.751Z</time></trkpt><trkpt lat="45.4258017" lon="10.53883"><ele>114.4</ele><time>2026-03-22T10:02:50.754Z</time></trkpt><trkpt lat="45.4258667" lon="10.5388433"><ele>113.0</ele><time>2026-03-22T10:02:51.751Z</time></trkpt><trkpt lat="45.4259333" lon="10.5388533"><ele>113.0</ele><time>2026-03-22T10:02:52.749Z</time></trkpt><trkpt lat="45.4260533" lon="10.5388617"><ele>113.00000000000001</ele><time>2026-03-22T10:02:54.753Z</time></trkpt><trkpt lat="45.4261167" lon="10.538855"><ele>113.00000000000001</ele><time>2026-03-22T10:02:55.747Z</time></trkpt><trkpt lat="45.4262333" lon="10.5388317"><ele>113.0</ele><time>2026-03-22T10:02:57.751Z</time></trkpt><trkpt lat="45.42636" lon="10.5388083"><ele>113.0</ele><time>2026-03-22T10:02:59.751Z</time></trkpt><trkpt lat="45.4264767" lon="10.5387933"><ele>113.0</ele><time>2026-03-22T10:03:01.753Z</time></trkpt><trkpt lat="45.42659" lon="10.538795"><ele>113.00000000000001</ele><time>2026-03-22T10:03:03.743Z</time></trkpt><trkpt lat="45.426705" lon="10.5387883"><ele>113.00000000000001</ele><time>2026-03-22T10:03:05.742Z</time></trkpt><trkpt lat="45.4268317" lon="10.5387733"><ele>113.0</ele><time>2026-03-22T10:03:07.751Z</time></trkpt><trkpt lat="45.426895" lon="10.5387617"><ele>113.0</ele><time>2026-03-22T10:03:08.745Z</time></trkpt><trkpt lat="45.4269967" lon="10.5387483"><ele>112.99999999999999</ele><time>2026-03-22T10:03:10.752Z</time></trkpt><trkpt lat="45.4271" lon="10.5387483"><ele>113.0</ele><time>2026-03-22T10:03:12.752Z</time></trkpt><trkpt lat="45.4272033" lon="10.5387317"><ele>113.0</ele><time>2026-03-22T10:03:14.754Z</time></trkpt><trkpt lat="45.4273117" lon="10.5387183"><ele>113.0</ele><time>2026-03-22T10:03:16.753Z</time></trkpt><trkpt lat="45.4273783" lon="10.5387083"><ele>112.99999999999999</ele><time>2026-03-22T10:03:18.743Z</time></trkpt><trkpt lat="45.42744" lon="10.538685"><ele>113.0</ele><time>2026-03-22T10:03:21.746Z</time></trkpt><trkpt lat="45.4275183" lon="10.538635"><ele>113.33333333333333</ele><time>2026-03-22T10:03:24.735Z</time></trkpt><trkpt lat="45.4275817" lon="10.5386217"><ele>113.66666666666666</ele><time>2026-03-22T10:03:26.742Z</time></trkpt><trkpt lat="45.4276633" lon="10.5386233"><ele>114.0</ele><time>2026-03-22T10:03:28.749Z</time></trkpt><trkpt lat="45.42775" lon="10.5386083"><ele>114.33333333333334</ele><time>2026-03-22T10:03:30.752Z</time></trkpt><trkpt lat="45.42784" lon="10.5385867"><ele>114.66666666666667</ele><time>2026-03-22T10:03:32.744Z</time></trkpt><trkpt lat="45.4279417" lon="10.5385667"><ele>115.0</ele><time>2026-03-22T10:03:34.741Z</time></trkpt><trkpt lat="45.42805" lon="10.5385183"><ele>115.0</ele><time>2026-03-22T10:03:36.748Z</time></trkpt><trkpt lat="45.42811" lon="10.5384783"><ele>115.0</ele><time>2026-03-22T10:03:37.751Z</time></trkpt><trkpt lat="45.4282" lon="10.5384017"><ele>115.0</ele><time>2026-03-22T10:03:39.752Z</time></trkpt><trkpt lat="45.4282917" lon="10.538305"><ele>115.0</ele><time>2026-03-22T10:03:41.746Z</time></trkpt><trkpt lat="45.4283733" lon="10.5382167"><ele>115.0</ele><time>2026-03-22T10:03:43.754Z</time></trkpt><trkpt lat="45.42846" lon="10.5381017"><ele>115.0</ele><time>2026-03-22T10:03:45.755Z</time></trkpt><trkpt lat="45.4285483" lon="10.5379967"><ele>115.0</ele><time>2026-03-22T10:03:47.755Z</time></trkpt><trkpt lat="45.4286433" lon="10.5379067"><ele>115.0</ele><time>2026-03-22T10:03:49.752Z</time></trkpt><trkpt lat="45.4287217" lon="10.53781"><ele>115.0</ele><time>2026-03-22T10:03:51.748Z</time></trkpt><trkpt lat="45.4287883" lon="10.5377"><ele>115.0</ele><time>2026-03-22T10:03:53.747Z</time></trkpt><trkpt lat="45.4288683" lon="10.537585"><ele>114.66666666666667</ele><time>2026-03-22T10:03:55.746Z</time></trkpt><trkpt lat="45.42892" lon="10.5375333"><ele>114.33333333333334</ele><time>2026-03-22T10:03:56.75Z</time></trkpt><trkpt lat="45.42897" lon="10.5374783"><ele>114.0</ele><time>2026-03-22T10:03:57.746Z</time></trkpt><trkpt lat="45.4290917" lon="10.5373967"><ele>113.66666666666666</ele><time>2026-03-22T10:03:59.746Z</time></trkpt><trkpt lat="45.4291517" lon="10.5373567"><ele>113.33333333333333</ele><time>2026-03-22T10:04:00.755Z</time></trkpt><trkpt lat="45.429255" lon="10.5372767"><ele>113.0</ele><time>2026-03-22T10:04:02.749Z</time></trkpt><trkpt lat="45.4293533" lon="10.537205"><ele>113.0</ele><time>2026-03-22T10:04:04.748Z</time></trkpt><trkpt lat="45.4294467" lon="10.5371167"><ele>113.00000000000001</ele><time>2026-03-22T10:04:06.753Z</time></trkpt><trkpt lat="45.429555" lon="10.5370233"><ele>113.00000000000001</ele><time>2026-03-22T10:04:08.753Z</time></trkpt><trkpt lat="45.4296167" lon="10.5369733"><ele>113.0</ele><time>2026-03-22T10:04:09.753Z</time></trkpt><trkpt lat="45.4297133" lon="10.5368883"><ele>113.0</ele><time>2026-03-22T10:04:11.747Z</time></trkpt><trkpt lat="45.4298183" lon="10.5368033"><ele>112.4</ele><time>2026-03-22T10:04:13.743Z</time></trkpt><trkpt lat="45.4299117" lon="10.5367067"><ele>111.80000000000001</ele><time>2026-03-22T10:04:15.747Z</time></trkpt><trkpt lat="45.4299983" lon="10.5366117"><ele>111.2</ele><time>2026-03-22T10:04:17.75Z</time></trkpt><trkpt lat="45.43009" lon="10.53654"><ele>110.6</ele><time>2026-03-22T10:04:19.754Z</time></trkpt><trkpt lat="45.4301767" lon="10.5364833"><ele>110.0</ele><time>2026-03-22T10:04:21.759Z</time></trkpt><trkpt lat="45.4302633" lon="10.5364333"><ele>110.0</ele><time>2026-03-22T10:04:23.741Z</time></trkpt><trkpt lat="45.4303517" lon="10.5364033"><ele>110.0</ele><time>2026-03-22T10:04:25.749Z</time></trkpt><trkpt lat="45.4304633" lon="10.5363817"><ele>110.0</ele><time>2026-03-22T10:04:27.746Z</time></trkpt><trkpt lat="45.4305733" lon="10.5363433"><ele>110.0</ele><time>2026-03-22T10:04:29.746Z</time></trkpt><trkpt lat="45.4306883" lon="10.536325"><ele>110.0</ele><time>2026-03-22T10:04:31.75Z</time></trkpt><trkpt lat="45.4307917" lon="10.5363117"><ele>109.25</ele><time>2026-03-22T10:04:33.752Z</time></trkpt><trkpt lat="45.430895" lon="10.53629"><ele>108.5</ele><time>2026-03-22T10:04:35.75Z</time></trkpt><trkpt lat="45.4310167" lon="10.5362833"><ele>107.75</ele><time>2026-03-22T10:04:37.757Z</time></trkpt><trkpt lat="45.43113" lon="10.536315"><ele>107.0</ele><time>2026-03-22T10:04:39.752Z</time></trkpt><trkpt lat="45.43124" lon="10.5363833"><ele>107.5</ele><time>2026-03-22T10:04:41.751Z</time></trkpt><trkpt lat="45.4313383" lon="10.5364817"><ele>108.0</ele><time>2026-03-22T10:04:43.753Z</time></trkpt><trkpt lat="45.43143" lon="10.5365817"><ele>108.5</ele><time>2026-03-22T10:04:45.753Z</time></trkpt><trkpt lat="45.4315333" lon="10.5366633"><ele>109.0</ele><time>2026-03-22T10:04:47.75Z</time></trkpt><trkpt lat="45.4316383" lon="10.5367067"><ele>109.0</ele><time>2026-03-22T10:04:49.751Z</time></trkpt><trkpt lat="45.431745" lon="10.536725"><ele>109.0</ele><time>2026-03-22T10:04:51.753Z</time></trkpt><trkpt lat="45.43186" lon="10.5366983"><ele>109.0</ele><time>2026-03-22T10:04:53.753Z</time></trkpt><trkpt lat="45.4319783" lon="10.5366583"><ele>109.0</ele><time>2026-03-22T10:04:55.751Z</time></trkpt><trkpt lat="45.432045" lon="10.5366367"><ele>109.0</ele><time>2026-03-22T10:04:56.759Z</time></trkpt><trkpt lat="45.4321733" lon="10.5365983"><ele>109.0</ele><time>2026-03-22T10:04:58.753Z</time></trkpt><trkpt lat="45.4322867" lon="10.5365867"><ele>109.0</ele><time>2026-03-22T10:05:00.744Z</time></trkpt><trkpt lat="45.4324017" lon="10.5365983"><ele>109.0</ele><time>2026-03-22T10:05:02.753Z</time></trkpt><trkpt lat="45.43251" lon="10.5366183"><ele>109.0</ele><time>2026-03-22T10:05:04.75Z</time></trkpt><trkpt lat="45.43261" lon="10.5366533"><ele>109.0</ele><time>2026-03-22T10:05:06.749Z</time></trkpt><trkpt lat="45.43271" lon="10.5366733"><ele>109.0</ele><time>2026-03-22T10:05:08.751Z</time></trkpt><trkpt lat="45.4328117" lon="10.5367017"><ele>109.0</ele><time>2026-03-22T10:05:10.75Z</time></trkpt><trkpt lat="45.43291" lon="10.5367133"><ele>109.0</ele><time>2026-03-22T10:05:12.747Z</time></trkpt><trkpt lat="45.433005" lon="10.5367183"><ele>109.0</ele><time>2026-03-22T10:05:14.743Z</time></trkpt><trkpt lat="45.4331" lon="10.5366967"><ele>109.0</ele><time>2026-03-22T10:05:16.741Z</time></trkpt><trkpt lat="45.433175" lon="10.53665"><ele>108.50000000000001</ele><time>2026-03-22T10:05:18.751Z</time></trkpt><trkpt lat="45.4332433" lon="10.5365417"><ele>108.0</ele><time>2026-03-22T10:05:20.743Z</time></trkpt><trkpt lat="45.433285" lon="10.53647"><ele>107.5</ele><time>2026-03-22T10:05:21.744Z</time></trkpt><trkpt lat="45.4333267" lon="10.5363983"><ele>107.0</ele><time>2026-03-22T10:05:22.745Z</time></trkpt><trkpt lat="45.4334183" lon="10.536275"><ele>106.50000000000001</ele><time>2026-03-22T10:05:24.748Z</time></trkpt><trkpt lat="45.4334617" lon="10.53621"><ele>106.0</ele><time>2026-03-22T10:05:25.752Z</time></trkpt><trkpt lat="45.433505" lon="10.5361383"><ele>106.00000000000001</ele><time>2026-03-22T10:05:26.754Z</time></trkpt><trkpt lat="45.4335733" lon="10.5359983"><ele>106.0</ele><time>2026-03-22T10:05:28.743Z</time></trkpt><trkpt lat="45.433615" lon="10.53593"><ele>106.0</ele><time>2026-03-22T10:05:29.742Z</time></trkpt><trkpt lat="45.43366" lon="10.5358633"><ele>106.0</ele><time>2026-03-22T10:05:30.741Z</time></trkpt><trkpt lat="45.4337067" lon="10.5358017"><ele>106.00000000000001</ele><time>2026-03-22T10:05:31.747Z</time></trkpt><trkpt lat="45.4337533" lon="10.5357383"><ele>106.0</ele><time>2026-03-22T10:05:32.745Z</time></trkpt><trkpt lat="45.4338317" lon="10.5356067"><ele>105.50000000000001</ele><time>2026-03-22T10:05:34.748Z</time></trkpt><trkpt lat="45.4339083" lon="10.5354767"><ele>105.0</ele><time>2026-03-22T10:05:36.747Z</time></trkpt><trkpt lat="45.4339533" lon="10.5354117"><ele>104.5</ele><time>2026-03-22T10:05:37.747Z</time></trkpt><trkpt lat="45.4339983" lon="10.5353433"><ele>104.0</ele><time>2026-03-22T10:05:38.753Z</time></trkpt><trkpt lat="45.43404" lon="10.5352733"><ele>103.50000000000001</ele><time>2026-03-22T10:05:39.751Z</time></trkpt><trkpt lat="45.4341133" lon="10.53514"><ele>103.0</ele><time>2026-03-22T10:05:41.745Z</time></trkpt><trkpt lat="45.4341817" lon="10.5349983"><ele>103.0</ele><time>2026-03-22T10:05:43.749Z</time></trkpt><trkpt lat="45.4342517" lon="10.5348583"><ele>103.0</ele><time>2026-03-22T10:05:45.751Z</time></trkpt><trkpt lat="45.4343267" lon="10.5347167"><ele>103.0</ele><time>2026-03-22T10:05:47.748Z</time></trkpt><trkpt lat="45.4344017" lon="10.5345767"><ele>103.0</ele><time>2026-03-22T10:05:49.751Z</time></trkpt><trkpt lat="45.4344767" lon="10.534445"><ele>103.25</ele><time>2026-03-22T10:05:51.75Z</time></trkpt><trkpt lat="45.4345567" lon="10.5343217"><ele>103.5</ele><time>2026-03-22T10:05:53.746Z</time></trkpt><trkpt lat="45.4346433" lon="10.5342133"><ele>103.75</ele><time>2026-03-22T10:05:55.75Z</time></trkpt><trkpt lat="45.4347433" lon="10.53411"><ele>104.0</ele><time>2026-03-22T10:05:57.752Z</time></trkpt><trkpt lat="45.434845" lon="10.5340217"><ele>104.4</ele><time>2026-03-22T10:05:59.753Z</time></trkpt><trkpt lat="45.4349483" lon="10.5339517"><ele>104.80000000000001</ele><time>2026-03-22T10:06:01.743Z</time></trkpt><trkpt lat="45.4350483" lon="10.5339067"><ele>105.19999999999999</ele><time>2026-03-22T10:06:03.744Z</time></trkpt><trkpt lat="45.4351533" lon="10.53386"><ele>105.6</ele><time>2026-03-22T10:06:05.752Z</time></trkpt><trkpt lat="45.435245" lon="10.5338233"><ele>106.0</ele><time>2026-03-22T10:06:07.75Z</time></trkpt><trkpt lat="45.4353417" lon="10.5337817"><ele>106.0</ele><time>2026-03-22T10:06:09.747Z</time></trkpt><trkpt lat="45.435445" lon="10.5337283"><ele>106.0</ele><time>2026-03-22T10:06:11.745Z</time></trkpt><trkpt lat="45.4355533" lon="10.5336717"><ele>106.0</ele><time>2026-03-22T10:06:13.753Z</time></trkpt><trkpt lat="45.4356383" lon="10.5335983"><ele>106.0</ele><time>2026-03-22T10:06:15.752Z</time></trkpt><trkpt lat="45.4357133" lon="10.53352"><ele>106.0</ele><time>2026-03-22T10:06:17.753Z</time></trkpt><trkpt lat="45.435785" lon="10.53344"><ele>106.4</ele><time>2026-03-22T10:06:19.752Z</time></trkpt><trkpt lat="45.43586" lon="10.5333633"><ele>106.8</ele><time>2026-03-22T10:06:21.741Z</time></trkpt><trkpt lat="45.43595" lon="10.5333217"><ele>107.20000000000002</ele><time>2026-03-22T10:06:23.747Z</time></trkpt><trkpt lat="45.4360517" lon="10.5332933"><ele>107.60000000000001</ele><time>2026-03-22T10:06:25.753Z</time></trkpt><trkpt lat="45.4361467" lon="10.5332667"><ele>108.0</ele><time>2026-03-22T10:06:27.752Z</time></trkpt><trkpt lat="45.4362467" lon="10.53324"><ele>107.75</ele><time>2026-03-22T10:06:29.745Z</time></trkpt><trkpt lat="45.4363483" lon="10.5332117"><ele>107.5</ele><time>2026-03-22T10:06:31.75Z</time></trkpt><trkpt lat="45.43646" lon="10.5331783"><ele>107.25</ele><time>2026-03-22T10:06:33.749Z</time></trkpt><trkpt lat="45.436575" lon="10.53314"><ele>107.0</ele><time>2026-03-22T10:06:35.753Z</time></trkpt><trkpt lat="45.4366867" lon="10.5331083"><ele>107.0</ele><time>2026-03-22T10:06:37.754Z</time></trkpt><trkpt lat="45.4367817" lon="10.5330933"><ele>106.99999999999999</ele><time>2026-03-22T10:06:39.75Z</time></trkpt><trkpt lat="45.436875" lon="10.5330767"><ele>106.99999999999999</ele><time>2026-03-22T10:06:41.746Z</time></trkpt><trkpt lat="45.43696" lon="10.5330583"><ele>107.0</ele><time>2026-03-22T10:06:43.748Z</time></trkpt><trkpt lat="45.4370533" lon="10.5330383"><ele>107.0</ele><time>2026-03-22T10:06:45.749Z</time></trkpt><trkpt lat="45.43716" lon="10.533015"><ele>106.99999999999999</ele><time>2026-03-22T10:06:47.754Z</time></trkpt><trkpt lat="45.4372667" lon="10.53299"><ele>107.0</ele><time>2026-03-22T10:06:49.747Z</time></trkpt><trkpt lat="45.43733" lon="10.5329767"><ele>107.0</ele><time>2026-03-22T10:06:50.756Z</time></trkpt><trkpt lat="45.4374233" lon="10.5329533"><ele>107.0</ele><time>2026-03-22T10:06:52.745Z</time></trkpt><trkpt lat="45.4375067" lon="10.5329317"><ele>106.99999999999999</ele><time>2026-03-22T10:06:54.745Z</time></trkpt><trkpt lat="45.43759" lon="10.532905"><ele>107.0</ele><time>2026-03-22T10:06:56.751Z</time></trkpt><trkpt lat="45.43769" lon="10.532885"><ele>107.19999999999999</ele><time>2026-03-22T10:06:58.752Z</time></trkpt><trkpt lat="45.4377917" lon="10.5328683"><ele>107.39999999999999</ele><time>2026-03-22T10:07:00.747Z</time></trkpt><trkpt lat="45.4378917" lon="10.5328533"><ele>107.60000000000001</ele><time>2026-03-22T10:07:02.743Z</time></trkpt><trkpt lat="45.43799" lon="10.5328317"><ele>107.80000000000001</ele><time>2026-03-22T10:07:04.75Z</time></trkpt><trkpt lat="45.43808" lon="10.53281"><ele>108.0</ele><time>2026-03-22T10:07:06.754Z</time></trkpt><trkpt lat="45.4381683" lon="10.5327833"><ele>108.4</ele><time>2026-03-22T10:07:08.756Z</time></trkpt><trkpt lat="45.4382583" lon="10.53275"><ele>108.80000000000001</ele><time>2026-03-22T10:07:10.753Z</time></trkpt><trkpt lat="45.43835" lon="10.5327317"><ele>109.2</ele><time>2026-03-22T10:07:12.752Z</time></trkpt><trkpt lat="45.4384433" lon="10.5327133"><ele>109.6</ele><time>2026-03-22T10:07:14.755Z</time></trkpt><trkpt lat="45.438535" lon="10.5326983"><ele>110.0</ele><time>2026-03-22T10:07:16.754Z</time></trkpt><trkpt lat="45.4386267" lon="10.53268"><ele>110.0</ele><time>2026-03-22T10:07:18.757Z</time></trkpt><trkpt lat="45.4387183" lon="10.53266"><ele>110.0</ele><time>2026-03-22T10:07:20.753Z</time></trkpt><trkpt lat="45.438815" lon="10.532635"><ele>110.0</ele><time>2026-03-22T10:07:22.747Z</time></trkpt><trkpt lat="45.4389117" lon="10.5326033"><ele>110.0</ele><time>2026-03-22T10:07:24.75Z</time></trkpt><trkpt lat="45.439015" lon="10.5325833"><ele>110.0</ele><time>2026-03-22T10:07:26.757Z</time></trkpt><trkpt lat="45.4391133" lon="10.5325517"><ele>110.0</ele><time>2026-03-22T10:07:28.753Z</time></trkpt><trkpt lat="45.43921" lon="10.5325267"><ele>110.0</ele><time>2026-03-22T10:07:30.752Z</time></trkpt><trkpt lat="45.4393083" lon="10.532505"><ele>110.0</ele><time>2026-03-22T10:07:32.751Z</time></trkpt><trkpt lat="45.4394067" lon="10.532485"><ele>110.0</ele><time>2026-03-22T10:07:34.746Z</time></trkpt><trkpt lat="45.439505" lon="10.5324683"><ele>110.0</ele><time>2026-03-22T10:07:36.749Z</time></trkpt><trkpt lat="45.4395967" lon="10.532445"><ele>109.66666666666666</ele><time>2026-03-22T10:07:38.753Z</time></trkpt><trkpt lat="45.4396833" lon="10.5324167"><ele>109.33333333333333</ele><time>2026-03-22T10:07:40.741Z</time></trkpt><trkpt lat="45.4397717" lon="10.5323933"><ele>109.0</ele><time>2026-03-22T10:07:42.747Z</time></trkpt><trkpt lat="45.43986" lon="10.532365"><ele>108.66666666666666</ele><time>2026-03-22T10:07:44.754Z</time></trkpt><trkpt lat="45.43995" lon="10.53234"><ele>108.33333333333333</ele><time>2026-03-22T10:07:46.741Z</time></trkpt><trkpt lat="45.440035" lon="10.532325"><ele>108.0</ele><time>2026-03-22T10:07:48.741Z</time></trkpt><trkpt lat="45.44012" lon="10.5323183"><ele>108.0</ele><time>2026-03-22T10:07:50.75Z</time></trkpt><trkpt lat="45.4401983" lon="10.5323017"><ele>108.0</ele><time>2026-03-22T10:07:52.747Z</time></trkpt><trkpt lat="45.4402733" lon="10.532285"><ele>108.0</ele><time>2026-03-22T10:07:54.752Z</time></trkpt><trkpt lat="45.4403483" lon="10.5322833"><ele>108.0</ele><time>2026-03-22T10:07:56.743Z</time></trkpt><trkpt lat="45.4404317" lon="10.5322767"><ele>108.0</ele><time>2026-03-22T10:07:58.75Z</time></trkpt><trkpt lat="45.440515" lon="10.5322533"><ele>108.0</ele><time>2026-03-22T10:08:00.751Z</time></trkpt><trkpt lat="45.4405883" lon="10.5322217"><ele>108.16666666666667</ele><time>2026-03-22T10:08:02.751Z</time></trkpt><trkpt lat="45.4406617" lon="10.532205"><ele>108.33333333333334</ele><time>2026-03-22T10:08:04.745Z</time></trkpt><trkpt lat="45.4407433" lon="10.532205"><ele>108.5</ele><time>2026-03-22T10:08:06.753Z</time></trkpt><trkpt lat="45.4408283" lon="10.5321983"><ele>108.66666666666667</ele><time>2026-03-22T10:08:08.743Z</time></trkpt><trkpt lat="45.4409" lon="10.532175"><ele>108.83333333333334</ele><time>2026-03-22T10:08:10.743Z</time></trkpt><trkpt lat="45.44097" lon="10.532155"><ele>109.0</ele><time>2026-03-22T10:08:12.743Z</time></trkpt><trkpt lat="45.4410367" lon="10.53213"><ele>109.00000000000001</ele><time>2026-03-22T10:08:14.753Z</time></trkpt><trkpt lat="45.4411117" lon="10.5321067"><ele>109.0</ele><time>2026-03-22T10:08:16.752Z</time></trkpt><trkpt lat="45.4411967" lon="10.5320867"><ele>109.0</ele><time>2026-03-22T10:08:18.745Z</time></trkpt><trkpt lat="45.4412817" lon="10.53207"><ele>109.0</ele><time>2026-03-22T10:08:20.751Z</time></trkpt><trkpt lat="45.4413783" lon="10.5320583"><ele>109.00000000000001</ele><time>2026-03-22T10:08:22.751Z</time></trkpt><trkpt lat="45.44147" lon="10.5320417"><ele>109.0</ele><time>2026-03-22T10:08:24.75Z</time></trkpt><trkpt lat="45.44156" lon="10.5320217"><ele>109.0</ele><time>2026-03-22T10:08:26.753Z</time></trkpt><trkpt lat="45.441645" lon="10.531995"><ele>109.0</ele><time>2026-03-22T10:08:28.742Z</time></trkpt><trkpt lat="45.4417333" lon="10.5319767"><ele>109.0</ele><time>2026-03-22T10:08:30.742Z</time></trkpt><trkpt lat="45.44183" lon="10.53195"><ele>109.0</ele><time>2026-03-22T10:08:32.753Z</time></trkpt><trkpt lat="45.44192" lon="10.5319267"><ele>109.0</ele><time>2026-03-22T10:08:34.744Z</time></trkpt><trkpt lat="45.4420083" lon="10.5319017"><ele>109.00000000000001</ele><time>2026-03-22T10:08:36.744Z</time></trkpt><trkpt lat="45.4420933" lon="10.5318817"><ele>109.0</ele><time>2026-03-22T10:08:38.751Z</time></trkpt><trkpt lat="45.442185" lon="10.5318617"><ele>109.0</ele><time>2026-03-22T10:08:40.753Z</time></trkpt><trkpt lat="45.4422683" lon="10.531845"><ele>109.0</ele><time>2026-03-22T10:08:42.745Z</time></trkpt><trkpt lat="45.4423533" lon="10.531825"><ele>109.00000000000001</ele><time>2026-03-22T10:08:44.745Z</time></trkpt><trkpt lat="45.44244" lon="10.5318"><ele>109.0</ele><time>2026-03-22T10:08:46.747Z</time></trkpt><trkpt lat="45.4425267" lon="10.5317733"><ele>109.33333333333334</ele><time>2026-03-22T10:08:48.754Z</time></trkpt><trkpt lat="45.4426133" lon="10.5317517"><ele>109.66666666666667</ele><time>2026-03-22T10:08:50.751Z</time></trkpt><trkpt lat="45.442695" lon="10.5317283"><ele>110.0</ele><time>2026-03-22T10:08:52.745Z</time></trkpt><trkpt lat="45.4427783" lon="10.5316983"><ele>110.33333333333334</ele><time>2026-03-22T10:08:54.756Z</time></trkpt><trkpt lat="45.4428633" lon="10.53167"><ele>110.66666666666667</ele><time>2026-03-22T10:08:56.753Z</time></trkpt><trkpt lat="45.4429483" lon="10.5316517"><ele>111.0</ele><time>2026-03-22T10:08:58.756Z</time></trkpt><trkpt lat="45.4430333" lon="10.5316417"><ele>111.0</ele><time>2026-03-22T10:09:00.745Z</time></trkpt><trkpt lat="45.44312" lon="10.5316267"><ele>111.0</ele><time>2026-03-22T10:09:02.752Z</time></trkpt><trkpt lat="45.443205" lon="10.531605"><ele>111.0</ele><time>2026-03-22T10:09:04.749Z</time></trkpt><trkpt lat="45.44329" lon="10.5315917"><ele>111.0</ele><time>2026-03-22T10:09:06.747Z</time></trkpt><trkpt lat="45.44337" lon="10.5315767"><ele>111.0</ele><time>2026-03-22T10:09:08.745Z</time></trkpt><trkpt lat="45.4434583" lon="10.5315467"><ele>111.0</ele><time>2026-03-22T10:09:10.747Z</time></trkpt><trkpt lat="45.4435517" lon="10.5315183"><ele>111.0</ele><time>2026-03-22T10:09:12.745Z</time></trkpt><trkpt lat="45.4436383" lon="10.5314933"><ele>111.0</ele><time>2026-03-22T10:09:14.744Z</time></trkpt><trkpt lat="45.44373" lon="10.53148"><ele>111.0</ele><time>2026-03-22T10:09:16.742Z</time></trkpt><trkpt lat="45.4438133" lon="10.5314717"><ele>111.0</ele><time>2026-03-22T10:09:18.75Z</time></trkpt><trkpt lat="45.4439017" lon="10.5314633"><ele>111.0</ele><time>2026-03-22T10:09:20.75Z</time></trkpt><trkpt lat="45.4439967" lon="10.5314483"><ele>111.0</ele><time>2026-03-22T10:09:22.744Z</time></trkpt><trkpt lat="45.444095" lon="10.5314483"><ele>110.8</ele><time>2026-03-22T10:09:24.745Z</time></trkpt><trkpt lat="45.4441967" lon="10.5314533"><ele>110.6</ele><time>2026-03-22T10:09:26.755Z</time></trkpt><trkpt lat="45.4442967" lon="10.53145"><ele>110.4</ele><time>2026-03-22T10:09:28.75Z</time></trkpt><trkpt lat="45.4443983" lon="10.531435"><ele>110.2</ele><time>2026-03-22T10:09:30.744Z</time></trkpt><trkpt lat="45.4445083" lon="10.5314233"><ele>110.0</ele><time>2026-03-22T10:09:32.743Z</time></trkpt><trkpt lat="45.44461" lon="10.5314133"><ele>110.0</ele><time>2026-03-22T10:09:34.75Z</time></trkpt><trkpt lat="45.4447183" lon="10.531405"><ele>110.0</ele><time>2026-03-22T10:09:36.748Z</time></trkpt><trkpt lat="45.444825" lon="10.5313967"><ele>110.0</ele><time>2026-03-22T10:09:38.751Z</time></trkpt><trkpt lat="45.44492" lon="10.531395"><ele>110.0</ele><time>2026-03-22T10:09:40.749Z</time></trkpt><trkpt lat="45.4450167" lon="10.5313983"><ele>110.0</ele><time>2026-03-22T10:09:42.755Z</time></trkpt><trkpt lat="45.44511" lon="10.531405"><ele>110.0</ele><time>2026-03-22T10:09:44.751Z</time></trkpt><trkpt lat="45.4452017" lon="10.5314033"><ele>110.0</ele><time>2026-03-22T10:09:46.741Z</time></trkpt><trkpt lat="45.445295" lon="10.5314033"><ele>110.0</ele><time>2026-03-22T10:09:48.75Z</time></trkpt><trkpt lat="45.4453917" lon="10.53141"><ele>110.0</ele><time>2026-03-22T10:09:50.752Z</time></trkpt><trkpt lat="45.4454833" lon="10.53142"><ele>110.0</ele><time>2026-03-22T10:09:52.751Z</time></trkpt><trkpt lat="45.445565" lon="10.5314067"><ele>110.49999999999999</ele><time>2026-03-22T10:09:54.744Z</time></trkpt><trkpt lat="45.44564" lon="10.5313733"><ele>111.0</ele><time>2026-03-22T10:09:56.752Z</time></trkpt><trkpt lat="45.4457217" lon="10.5313483"><ele>111.5</ele><time>2026-03-22T10:09:58.748Z</time></trkpt><trkpt lat="45.4458067" lon="10.5313233"><ele>112.0</ele><time>2026-03-22T10:10:00.747Z</time></trkpt><trkpt lat="45.4458917" lon="10.5313167"><ele>112.49999999999999</ele><time>2026-03-22T10:10:02.744Z</time></trkpt><trkpt lat="45.44597" lon="10.5313033"><ele>113.0</ele><time>2026-03-22T10:10:04.74Z</time></trkpt><trkpt lat="45.4460367" lon="10.531285"><ele>112.99999999999999</ele><time>2026-03-22T10:10:06.746Z</time></trkpt><trkpt lat="45.4461183" lon="10.531265"><ele>113.0</ele><time>2026-03-22T10:10:09.742Z</time></trkpt><trkpt lat="45.446185" lon="10.531235"><ele>113.0</ele><time>2026-03-22T10:10:12.746Z</time></trkpt><trkpt lat="45.4462617" lon="10.5312167"><ele>113.0</ele><time>2026-03-22T10:10:15.746Z</time></trkpt><trkpt lat="45.4463267" lon="10.5312217"><ele>112.99999999999999</ele><time>2026-03-22T10:10:18.743Z</time></trkpt><trkpt lat="45.4464083" lon="10.53122"><ele>113.0</ele><time>2026-03-22T10:10:21.75Z</time></trkpt><trkpt lat="45.4465017" lon="10.5311983"><ele>112.99999999999999</ele><time>2026-03-22T10:10:24.743Z</time></trkpt><trkpt lat="45.44657" lon="10.53118"><ele>113.0</ele><time>2026-03-22T10:10:26.745Z</time></trkpt><trkpt lat="45.446635" lon="10.5311617"><ele>113.0</ele><time>2026-03-22T10:10:28.75Z</time></trkpt><trkpt lat="45.4467233" lon="10.5311333"><ele>113.0</ele><time>2026-03-22T10:10:31.75Z</time></trkpt><trkpt lat="45.4468067" lon="10.5311117"><ele>112.99999999999999</ele><time>2026-03-22T10:10:34.751Z</time></trkpt><trkpt lat="45.4468733" lon="10.5310867"><ele>113.0</ele><time>2026-03-22T10:10:36.744Z</time></trkpt><trkpt lat="45.446955" lon="10.53107"><ele>112.99999999999999</ele><time>2026-03-22T10:10:39.741Z</time></trkpt><trkpt lat="45.44704" lon="10.531055"><ele>113.0</ele><time>2026-03-22T10:10:42.753Z</time></trkpt><trkpt lat="45.4471267" lon="10.5310433"><ele>113.0</ele><time>2026-03-22T10:10:45.749Z</time></trkpt><trkpt lat="45.4471983" lon="10.5310433"><ele>113.0</ele><time>2026-03-22T10:10:47.742Z</time></trkpt><trkpt lat="45.4472667" lon="10.5310467"><ele>112.99999999999999</ele><time>2026-03-22T10:10:49.744Z</time></trkpt><trkpt lat="45.4473317" lon="10.531065"><ele>113.0</ele><time>2026-03-22T10:10:51.751Z</time></trkpt><trkpt lat="45.447405" lon="10.531085"><ele>113.33333333333333</ele><time>2026-03-22T10:10:53.756Z</time></trkpt><trkpt lat="45.4474667" lon="10.531115"><ele>113.66666666666666</ele><time>2026-03-22T10:10:55.743Z</time></trkpt><trkpt lat="45.4475383" lon="10.531145"><ele>114.0</ele><time>2026-03-22T10:10:57.747Z</time></trkpt><trkpt lat="45.44761" lon="10.5311833"><ele>114.33333333333334</ele><time>2026-03-22T10:10:59.752Z</time></trkpt><trkpt lat="45.4476817" lon="10.5312183"><ele>114.66666666666667</ele><time>2026-03-22T10:11:01.751Z</time></trkpt><trkpt lat="45.44776" lon="10.531255"><ele>115.0</ele><time>2026-03-22T10:11:03.743Z</time></trkpt><trkpt lat="45.4478367" lon="10.53129"><ele>115.00000000000001</ele><time>2026-03-22T10:11:05.746Z</time></trkpt><trkpt lat="45.4479017" lon="10.5313317"><ele>115.0</ele><time>2026-03-22T10:11:07.746Z</time></trkpt><trkpt lat="45.4479883" lon="10.5313833"><ele>115.0</ele><time>2026-03-22T10:11:10.741Z</time></trkpt><trkpt lat="45.4480833" lon="10.5314367"><ele>115.0</ele><time>2026-03-22T10:11:13.746Z</time></trkpt><trkpt lat="45.4481517" lon="10.531475"><ele>115.00000000000001</ele><time>2026-03-22T10:11:15.749Z</time></trkpt><trkpt lat="45.4482233" lon="10.5315117"><ele>115.0</ele><time>2026-03-22T10:11:17.748Z</time></trkpt><trkpt lat="45.448295" lon="10.5315567"><ele>115.16666666666667</ele><time>2026-03-22T10:11:19.744Z</time></trkpt><trkpt lat="45.4483817" lon="10.5315933"><ele>115.33333333333334</ele><time>2026-03-22T10:11:21.746Z</time></trkpt><trkpt lat="45.4484633" lon="10.5316233"><ele>115.5</ele><time>2026-03-22T10:11:23.743Z</time></trkpt><trkpt lat="45.4485433" lon="10.5316483"><ele>115.66666666666666</ele><time>2026-03-22T10:11:25.743Z</time></trkpt><trkpt lat="45.44863" lon="10.53168"><ele>115.83333333333333</ele><time>2026-03-22T10:11:27.74Z</time></trkpt><trkpt lat="45.4487117" lon="10.5317117"><ele>116.0</ele><time>2026-03-22T10:11:29.751Z</time></trkpt><trkpt lat="45.4488033" lon="10.5317533"><ele>116.0</ele><time>2026-03-22T10:11:31.749Z</time></trkpt><trkpt lat="45.448895" lon="10.531795"><ele>116.0</ele><time>2026-03-22T10:11:33.745Z</time></trkpt><trkpt lat="45.449" lon="10.53184"><ele>116.0</ele><time>2026-03-22T10:11:35.744Z</time></trkpt><trkpt lat="45.4490983" lon="10.5318833"><ele>116.0</ele><time>2026-03-22T10:11:37.746Z</time></trkpt><trkpt lat="45.4491917" lon="10.5319433"><ele>116.0</ele><time>2026-03-22T10:11:39.745Z</time></trkpt><trkpt lat="45.44928" lon="10.5319733"><ele>115.99999999999999</ele><time>2026-03-22T10:11:41.751Z</time></trkpt><trkpt lat="45.4493383" lon="10.5319017"><ele>116.0</ele><time>2026-03-22T10:11:44.749Z</time></trkpt><trkpt lat="45.4493033" lon="10.5318167"><ele>116.0</ele><time>2026-03-22T10:11:46.748Z</time></trkpt><trkpt lat="45.44924" lon="10.5317433"><ele>116.0</ele><time>2026-03-22T10:11:48.746Z</time></trkpt><trkpt lat="45.4491783" lon="10.5316867"><ele>115.99999999999999</ele><time>2026-03-22T10:11:50.744Z</time></trkpt><trkpt lat="45.449105" lon="10.531635"><ele>116.0</ele><time>2026-03-22T10:11:52.744Z</time></trkpt><trkpt lat="45.4490133" lon="10.5315717"><ele>115.99999999999999</ele><time>2026-03-22T10:11:54.746Z</time></trkpt><trkpt lat="45.4489267" lon="10.5315383"><ele>116.0</ele><time>2026-03-22T10:11:56.752Z</time></trkpt><trkpt lat="45.448955" lon="10.5314533"><ele>116.0</ele><time>2026-03-22T10:12:00.738Z</time></trkpt><trkpt lat="45.4490117" lon="10.5313833"><ele>116.0</ele><time>2026-03-22T10:12:03.738Z</time></trkpt><trkpt lat="45.4490867" lon="10.5313233"><ele>115.99999999999999</ele><time>2026-03-22T10:12:06.745Z</time></trkpt><trkpt lat="45.4491667" lon="10.531265"><ele>116.0</ele><time>2026-03-22T10:12:08.754Z</time></trkpt><trkpt lat="45.4492767" lon="10.5312083"><ele>115.8</ele><time>2026-03-22T10:12:10.743Z</time></trkpt><trkpt lat="45.4493733" lon="10.5311483"><ele>115.6</ele><time>2026-03-22T10:12:12.741Z</time></trkpt><trkpt lat="45.44947" lon="10.5310983"><ele>115.4</ele><time>2026-03-22T10:12:14.751Z</time></trkpt><trkpt lat="45.4495717" lon="10.531055"><ele>115.2</ele><time>2026-03-22T10:12:16.744Z</time></trkpt><trkpt lat="45.449675" lon="10.5310033"><ele>115.0</ele><time>2026-03-22T10:12:18.751Z</time></trkpt><trkpt lat="45.4497783" lon="10.5309583"><ele>115.5</ele><time>2026-03-22T10:12:20.752Z</time></trkpt><trkpt lat="45.4498883" lon="10.530895"><ele>116.0</ele><time>2026-03-22T10:12:22.749Z</time></trkpt><trkpt lat="45.4499917" lon="10.5308183"><ele>116.5</ele><time>2026-03-22T10:12:24.751Z</time></trkpt><trkpt lat="45.45009" lon="10.5307533"><ele>117.0</ele><time>2026-03-22T10:12:26.751Z</time></trkpt><trkpt lat="45.4501983" lon="10.530685"><ele>117.0</ele><time>2026-03-22T10:12:28.75Z</time></trkpt><trkpt lat="45.4503" lon="10.5306283"><ele>117.0</ele><time>2026-03-22T10:12:30.757Z</time></trkpt><trkpt lat="45.4503967" lon="10.5305433"><ele>117.0</ele><time>2026-03-22T10:12:32.753Z</time></trkpt><trkpt lat="45.4504917" lon="10.5304367"><ele>117.0</ele><time>2026-03-22T10:12:34.742Z</time></trkpt><trkpt lat="45.4506083" lon="10.5303533"><ele>117.25</ele><time>2026-03-22T10:12:36.74Z</time></trkpt><trkpt lat="45.450725" lon="10.5302917"><ele>117.5</ele><time>2026-03-22T10:12:38.74Z</time></trkpt><trkpt lat="45.450835" lon="10.530245"><ele>117.75</ele><time>2026-03-22T10:12:40.745Z</time></trkpt><trkpt lat="45.4509317" lon="10.5302017"><ele>118.0</ele><time>2026-03-22T10:12:42.75Z</time></trkpt><trkpt lat="45.4510383" lon="10.5301517"><ele>118.00000000000001</ele><time>2026-03-22T10:12:44.743Z</time></trkpt><trkpt lat="45.451125" lon="10.5300867"><ele>118.0</ele><time>2026-03-22T10:12:46.744Z</time></trkpt><trkpt lat="45.4512217" lon="10.5299983"><ele>118.0</ele><time>2026-03-22T10:12:48.749Z</time></trkpt><trkpt lat="45.4512783" lon="10.52995"><ele>118.0</ele><time>2026-03-22T10:12:49.754Z</time></trkpt><trkpt lat="45.4513333" lon="10.5299"><ele>118.00000000000001</ele><time>2026-03-22T10:12:50.752Z</time></trkpt><trkpt lat="45.4513883" lon="10.52985"><ele>118.0</ele><time>2026-03-22T10:12:51.749Z</time></trkpt><trkpt lat="45.4514433" lon="10.5298033"><ele>117.80000000000001</ele><time>2026-03-22T10:12:52.75Z</time></trkpt><trkpt lat="45.451545" lon="10.5297117"><ele>117.60000000000001</ele><time>2026-03-22T10:12:54.752Z</time></trkpt><trkpt lat="45.4516367" lon="10.5296217"><ele>117.39999999999999</ele><time>2026-03-22T10:12:56.743Z</time></trkpt><trkpt lat="45.4517217" lon="10.5295383"><ele>117.19999999999999</ele><time>2026-03-22T10:12:58.749Z</time></trkpt><trkpt lat="45.4518117" lon="10.5294583"><ele>117.0</ele><time>2026-03-22T10:13:00.751Z</time></trkpt><trkpt lat="45.4519017" lon="10.5293767"><ele>116.6</ele><time>2026-03-22T10:13:02.752Z</time></trkpt><trkpt lat="45.4519917" lon="10.5292983"><ele>116.19999999999999</ele><time>2026-03-22T10:13:04.748Z</time></trkpt><trkpt lat="45.4520817" lon="10.5292267"><ele>115.8</ele><time>2026-03-22T10:13:06.752Z</time></trkpt><trkpt lat="45.4521717" lon="10.5291617"><ele>115.4</ele><time>2026-03-22T10:13:08.749Z</time></trkpt><trkpt lat="45.4522583" lon="10.5291"><ele>115.0</ele><time>2026-03-22T10:13:10.75Z</time></trkpt><trkpt lat="45.4523433" lon="10.52904"><ele>114.4</ele><time>2026-03-22T10:13:12.752Z</time></trkpt><trkpt lat="45.4524367" lon="10.52898"><ele>113.8</ele><time>2026-03-22T10:13:14.752Z</time></trkpt><trkpt lat="45.4525217" lon="10.52893"><ele>113.19999999999999</ele><time>2026-03-22T10:13:16.743Z</time></trkpt><trkpt lat="45.4526133" lon="10.5288817"><ele>112.6</ele><time>2026-03-22T10:13:18.747Z</time></trkpt><trkpt lat="45.4527133" lon="10.5288283"><ele>112.0</ele><time>2026-03-22T10:13:20.755Z</time></trkpt><trkpt lat="45.4528067" lon="10.52879"><ele>112.0</ele><time>2026-03-22T10:13:22.749Z</time></trkpt><trkpt lat="45.4528967" lon="10.528755"><ele>111.99999999999999</ele><time>2026-03-22T10:13:24.747Z</time></trkpt><trkpt lat="45.45299" lon="10.5287167"><ele>111.99999999999999</ele><time>2026-03-22T10:13:26.754Z</time></trkpt><trkpt lat="45.4530883" lon="10.5286833"><ele>112.0</ele><time>2026-03-22T10:13:28.751Z</time></trkpt><trkpt lat="45.4531783" lon="10.5286517"><ele>112.0</ele><time>2026-03-22T10:13:30.752Z</time></trkpt><trkpt lat="45.4532683" lon="10.528615"><ele>113.50000000000001</ele><time>2026-03-22T10:13:32.743Z</time></trkpt><trkpt lat="45.4533417" lon="10.5285733"><ele>115.0</ele><time>2026-03-22T10:13:34.744Z</time></trkpt><trkpt lat="45.4534033" lon="10.528545"><ele>116.5</ele><time>2026-03-22T10:13:36.752Z</time></trkpt><trkpt lat="45.45347" lon="10.5285367"><ele>118.0</ele><time>2026-03-22T10:13:39.74Z</time></trkpt><trkpt lat="45.4535367" lon="10.528535"><ele>119.50000000000001</ele><time>2026-03-22T10:13:43.75Z</time></trkpt><trkpt lat="45.4536317" lon="10.52854"><ele>121.0</ele><time>2026-03-22T10:13:46.744Z</time></trkpt><trkpt lat="45.4537083" lon="10.5285117"><ele>121.00000000000001</ele><time>2026-03-22T10:13:48.74Z</time></trkpt><trkpt lat="45.4537867" lon="10.5284967"><ele>121.0</ele><time>2026-03-22T10:13:50.739Z</time></trkpt><trkpt lat="45.4538517" lon="10.5284767"><ele>121.0</ele><time>2026-03-22T10:13:52.748Z</time></trkpt><trkpt lat="45.4539433" lon="10.5284317"><ele>121.0</ele><time>2026-03-22T10:13:55.74Z</time></trkpt><trkpt lat="45.4540233" lon="10.5283883"><ele>121.00000000000001</ele><time>2026-03-22T10:13:57.742Z</time></trkpt><trkpt lat="45.45411" lon="10.5283383"><ele>121.0</ele><time>2026-03-22T10:13:59.745Z</time></trkpt><trkpt lat="45.454205" lon="10.5282783"><ele>121.19999999999999</ele><time>2026-03-22T10:14:01.752Z</time></trkpt><trkpt lat="45.4542917" lon="10.5282233"><ele>121.39999999999999</ele><time>2026-03-22T10:14:03.741Z</time></trkpt><trkpt lat="45.4543767" lon="10.52819"><ele>121.6</ele><time>2026-03-22T10:14:05.743Z</time></trkpt><trkpt lat="45.4544767" lon="10.528145"><ele>121.8</ele><time>2026-03-22T10:14:07.746Z</time></trkpt><trkpt lat="45.454585" lon="10.5280917"><ele>122.0</ele><time>2026-03-22T10:14:09.744Z</time></trkpt><trkpt lat="45.4547067" lon="10.5280533"><ele>121.0</ele><time>2026-03-22T10:14:11.752Z</time></trkpt><trkpt lat="45.4548117" lon="10.52803"><ele>119.99999999999999</ele><time>2026-03-22T10:14:13.751Z</time></trkpt><trkpt lat="45.45491" lon="10.52801"><ele>118.99999999999999</ele><time>2026-03-22T10:14:15.741Z</time></trkpt><trkpt lat="45.4550017" lon="10.5279817"><ele>118.0</ele><time>2026-03-22T10:14:17.748Z</time></trkpt><trkpt lat="45.4551" lon="10.5279533"><ele>117.0</ele><time>2026-03-22T10:14:19.752Z</time></trkpt><trkpt lat="45.4551917" lon="10.5278967"><ele>117.0</ele><time>2026-03-22T10:14:21.742Z</time></trkpt><trkpt lat="45.45528" lon="10.5278183"><ele>116.99999999999999</ele><time>2026-03-22T10:14:23.744Z</time></trkpt><trkpt lat="45.455355" lon="10.5277267"><ele>116.99999999999999</ele><time>2026-03-22T10:14:25.745Z</time></trkpt><trkpt lat="45.45541" lon="10.52764"><ele>117.0</ele><time>2026-03-22T10:14:27.745Z</time></trkpt><trkpt lat="45.4554683" lon="10.5275517"><ele>117.0</ele><time>2026-03-22T10:14:29.741Z</time></trkpt><trkpt lat="45.4555367" lon="10.5274567"><ele>116.19999999999999</ele><time>2026-03-22T10:14:31.742Z</time></trkpt><trkpt lat="45.45562" lon="10.5273817"><ele>115.39999999999999</ele><time>2026-03-22T10:14:33.747Z</time></trkpt><trkpt lat="45.4557117" lon="10.5273067"><ele>114.60000000000001</ele><time>2026-03-22T10:14:35.745Z</time></trkpt><trkpt lat="45.4558083" lon="10.5272267"><ele>113.80000000000001</ele><time>2026-03-22T10:14:37.745Z</time></trkpt><trkpt lat="45.455865" lon="10.5271717"><ele>113.0</ele><time>2026-03-22T10:14:38.754Z</time></trkpt><trkpt lat="45.4559283" lon="10.5271183"><ele>112.99999999999999</ele><time>2026-03-22T10:14:39.744Z</time></trkpt><trkpt lat="45.4559933" lon="10.5270733"><ele>113.0</ele><time>2026-03-22T10:14:40.743Z</time></trkpt><trkpt lat="45.45607" lon="10.5270333"><ele>113.0</ele><time>2026-03-22T10:14:41.739Z</time></trkpt><trkpt lat="45.4561583" lon="10.5269783"><ele>113.0</ele><time>2026-03-22T10:14:42.75Z</time></trkpt><trkpt lat="45.4562383" lon="10.5269117"><ele>112.99999999999999</ele><time>2026-03-22T10:14:43.752Z</time></trkpt><trkpt lat="45.456315" lon="10.52684"><ele>113.0</ele><time>2026-03-22T10:14:44.752Z</time></trkpt><trkpt lat="45.456395" lon="10.5267667"><ele>112.16666666666666</ele><time>2026-03-22T10:14:45.748Z</time></trkpt><trkpt lat="45.4564733" lon="10.5266883"><ele>111.33333333333333</ele><time>2026-03-22T10:14:46.751Z</time></trkpt><trkpt lat="45.45654" lon="10.52661"><ele>110.5</ele><time>2026-03-22T10:14:47.746Z</time></trkpt><trkpt lat="45.4566083" lon="10.52653"><ele>109.66666666666666</ele><time>2026-03-22T10:14:48.745Z</time></trkpt><trkpt lat="45.4566667" lon="10.5264533"><ele>108.83333333333333</ele><time>2026-03-22T10:14:49.749Z</time></trkpt><trkpt lat="45.4567233" lon="10.5263817"><ele>108.0</ele><time>2026-03-22T10:14:50.75Z</time></trkpt><trkpt lat="45.4567767" lon="10.5263133"><ele>108.0</ele><time>2026-03-22T10:14:51.751Z</time></trkpt><trkpt lat="45.4568333" lon="10.5262517"><ele>108.0</ele><time>2026-03-22T10:14:52.745Z</time></trkpt><trkpt lat="45.456895" lon="10.5261867"><ele>108.0</ele><time>2026-03-22T10:14:53.753Z</time></trkpt><trkpt lat="45.4569433" lon="10.5261267"><ele>108.0</ele><time>2026-03-22T10:14:54.747Z</time></trkpt><trkpt lat="45.4569883" lon="10.52606"><ele>108.0</ele><time>2026-03-22T10:14:55.745Z</time></trkpt><trkpt lat="45.45705" lon="10.5259317"><ele>108.0</ele><time>2026-03-22T10:14:57.746Z</time></trkpt><trkpt lat="45.45711" lon="10.525805"><ele>109.2</ele><time>2026-03-22T10:14:59.751Z</time></trkpt><trkpt lat="45.4571567" lon="10.5256783"><ele>110.4</ele><time>2026-03-22T10:15:01.753Z</time></trkpt><trkpt lat="45.4572133" lon="10.5255583"><ele>111.60000000000001</ele><time>2026-03-22T10:15:03.752Z</time></trkpt><trkpt lat="45.4572617" lon="10.5254533"><ele>112.80000000000001</ele><time>2026-03-22T10:15:05.742Z</time></trkpt><trkpt lat="45.4573067" lon="10.5253583"><ele>114.0</ele><time>2026-03-22T10:15:07.75Z</time></trkpt><trkpt lat="45.4573617" lon="10.525245"><ele>115.25</ele><time>2026-03-22T10:15:09.746Z</time></trkpt><trkpt lat="45.4574083" lon="10.5251183"><ele>116.5</ele><time>2026-03-22T10:15:11.736Z</time></trkpt><trkpt lat="45.45748" lon="10.5249867"><ele>117.75</ele><time>2026-03-22T10:15:13.742Z</time></trkpt><trkpt lat="45.457555" lon="10.5248567"><ele>119.0</ele><time>2026-03-22T10:15:15.753Z</time></trkpt><trkpt lat="45.457645" lon="10.52475"><ele>118.99999999999999</ele><time>2026-03-22T10:15:17.753Z</time></trkpt><trkpt lat="45.4577133" lon="10.5246533"><ele>119.0</ele><time>2026-03-22T10:15:19.745Z</time></trkpt><trkpt lat="45.4577567" lon="10.5245633"><ele>119.0</ele><time>2026-03-22T10:15:21.742Z</time></trkpt><trkpt lat="45.4577617" lon="10.52443"><ele>119.0</ele><time>2026-03-22T10:15:24.743Z</time></trkpt><trkpt lat="45.4577783" lon="10.524305"><ele>118.99999999999999</ele><time>2026-03-22T10:15:27.741Z</time></trkpt><trkpt lat="45.4578217" lon="10.5242367"><ele>119.0</ele><time>2026-03-22T10:15:29.743Z</time></trkpt><trkpt lat="45.457895" lon="10.5242367"><ele>118.83333333333333</ele><time>2026-03-22T10:15:31.745Z</time></trkpt><trkpt lat="45.457975" lon="10.5242717"><ele>118.66666666666666</ele><time>2026-03-22T10:15:33.745Z</time></trkpt><trkpt lat="45.4580483" lon="10.5243"><ele>118.5</ele><time>2026-03-22T10:15:35.742Z</time></trkpt><trkpt lat="45.4581267" lon="10.5243367"><ele>118.33333333333334</ele><time>2026-03-22T10:15:37.743Z</time></trkpt><trkpt lat="45.4582167" lon="10.5243933"><ele>118.16666666666667</ele><time>2026-03-22T10:15:39.745Z</time></trkpt><trkpt lat="45.4583133" lon="10.5244617"><ele>118.0</ele><time>2026-03-22T10:15:41.744Z</time></trkpt><trkpt lat="45.4584067" lon="10.524525"><ele>117.80000000000001</ele><time>2026-03-22T10:15:43.753Z</time></trkpt><trkpt lat="45.4585117" lon="10.524575"><ele>117.60000000000001</ele><time>2026-03-22T10:15:45.748Z</time></trkpt><trkpt lat="45.4586183" lon="10.5246267"><ele>117.39999999999999</ele><time>2026-03-22T10:15:47.753Z</time></trkpt><trkpt lat="45.4587183" lon="10.5246733"><ele>117.19999999999999</ele><time>2026-03-22T10:15:49.752Z</time></trkpt><trkpt lat="45.458825" lon="10.5247167"><ele>117.0</ele><time>2026-03-22T10:15:51.751Z</time></trkpt><trkpt lat="45.4589283" lon="10.5247517"><ele>117.0</ele><time>2026-03-22T10:15:53.744Z</time></trkpt><trkpt lat="45.45904" lon="10.5247833"><ele>117.0</ele><time>2026-03-22T10:15:55.748Z</time></trkpt><trkpt lat="45.4591533" lon="10.5248167"><ele>117.0</ele><time>2026-03-22T10:15:57.747Z</time></trkpt><trkpt lat="45.4592733" lon="10.52485"><ele>117.0</ele><time>2026-03-22T10:15:59.746Z</time></trkpt><trkpt lat="45.4593933" lon="10.52487"><ele>117.0</ele><time>2026-03-22T10:16:01.746Z</time></trkpt><trkpt lat="45.4594567" lon="10.52488"><ele>117.00000000000001</ele><time>2026-03-22T10:16:02.75Z</time></trkpt><trkpt lat="45.4595217" lon="10.5248917"><ele>117.0</ele><time>2026-03-22T10:16:03.747Z</time></trkpt><trkpt lat="45.4595867" lon="10.5248983"><ele>117.0</ele><time>2026-03-22T10:16:04.753Z</time></trkpt><trkpt lat="45.4597083" lon="10.5249117"><ele>117.00000000000001</ele><time>2026-03-22T10:16:06.747Z</time></trkpt><trkpt lat="45.4597717" lon="10.5249167"><ele>117.0</ele><time>2026-03-22T10:16:07.751Z</time></trkpt><trkpt lat="45.459835" lon="10.5249283"><ele>117.0</ele><time>2026-03-22T10:16:08.752Z</time></trkpt><trkpt lat="45.4599017" lon="10.5249383"><ele>116.71428571428572</ele><time>2026-03-22T10:16:09.747Z</time></trkpt><trkpt lat="45.4599667" lon="10.5249517"><ele>116.42857142857144</ele><time>2026-03-22T10:16:10.748Z</time></trkpt><trkpt lat="45.4600367" lon="10.5249683"><ele>116.14285714285714</ele><time>2026-03-22T10:16:11.75Z</time></trkpt><trkpt lat="45.4601067" lon="10.52499"><ele>115.85714285714286</ele><time>2026-03-22T10:16:12.748Z</time></trkpt><trkpt lat="45.4601817" lon="10.5250067"><ele>115.57142857142857</ele><time>2026-03-22T10:16:13.742Z</time></trkpt><trkpt lat="45.460255" lon="10.525025"><ele>115.28571428571428</ele><time>2026-03-22T10:16:14.744Z</time></trkpt><trkpt lat="45.4603317" lon="10.52504"><ele>114.99999999999999</ele><time>2026-03-22T10:16:15.745Z</time></trkpt><trkpt lat="45.4604033" lon="10.5250533"><ele>115.00000000000001</ele><time>2026-03-22T10:16:16.75Z</time></trkpt><trkpt lat="45.46047" lon="10.525065"><ele>115.0</ele><time>2026-03-22T10:16:17.748Z</time></trkpt><trkpt lat="45.4605367" lon="10.5250767"><ele>115.0</ele><time>2026-03-22T10:16:18.757Z</time></trkpt><trkpt lat="45.4606033" lon="10.5250817"><ele>115.0</ele><time>2026-03-22T10:16:19.746Z</time></trkpt><trkpt lat="45.4606683" lon="10.5250867"><ele>115.00000000000001</ele><time>2026-03-22T10:16:20.755Z</time></trkpt><trkpt lat="45.4607333" lon="10.5250883"><ele>115.0</ele><time>2026-03-22T10:16:21.753Z</time></trkpt><trkpt lat="45.4608583" lon="10.5251033"><ele>115.0</ele><time>2026-03-22T10:16:23.754Z</time></trkpt><trkpt lat="45.4609733" lon="10.52513"><ele>115.0</ele><time>2026-03-22T10:16:25.751Z</time></trkpt><trkpt lat="45.4610367" lon="10.525145"><ele>115.0</ele><time>2026-03-22T10:16:26.745Z</time></trkpt><trkpt lat="45.4611533" lon="10.52518"><ele>115.0</ele><time>2026-03-22T10:16:28.744Z</time></trkpt><trkpt lat="45.4612617" lon="10.5252167"><ele>115.0</ele><time>2026-03-22T10:16:30.748Z</time></trkpt><trkpt lat="45.4613817" lon="10.525285"><ele>114.66666666666667</ele><time>2026-03-22T10:16:32.753Z</time></trkpt><trkpt lat="45.4614433" lon="10.525315"><ele>114.33333333333334</ele><time>2026-03-22T10:16:33.747Z</time></trkpt><trkpt lat="45.4615067" lon="10.5253433"><ele>114.0</ele><time>2026-03-22T10:16:34.746Z</time></trkpt><trkpt lat="45.461575" lon="10.5253717"><ele>113.66666666666666</ele><time>2026-03-22T10:16:35.747Z</time></trkpt><trkpt lat="45.4616383" lon="10.5254017"><ele>113.33333333333333</ele><time>2026-03-22T10:16:36.747Z</time></trkpt><trkpt lat="45.46175" lon="10.5254583"><ele>113.0</ele><time>2026-03-22T10:16:38.754Z</time></trkpt><trkpt lat="45.461865" lon="10.5255017"><ele>111.66666666666666</ele><time>2026-03-22T10:16:40.75Z</time></trkpt><trkpt lat="45.4619317" lon="10.5255267"><ele>110.33333333333333</ele><time>2026-03-22T10:16:41.75Z</time></trkpt><trkpt lat="45.462005" lon="10.5255567"><ele>109.0</ele><time>2026-03-22T10:16:42.75Z</time></trkpt><trkpt lat="45.4620817" lon="10.5255933"><ele>107.66666666666666</ele><time>2026-03-22T10:16:43.753Z</time></trkpt><trkpt lat="45.4621567" lon="10.525635"><ele>106.33333333333333</ele><time>2026-03-22T10:16:44.752Z</time></trkpt><trkpt lat="45.4622367" lon="10.5256783"><ele>105.0</ele><time>2026-03-22T10:16:45.752Z</time></trkpt><trkpt lat="45.4623033" lon="10.52573"><ele>105.0</ele><time>2026-03-22T10:16:46.75Z</time></trkpt><trkpt lat="45.4623867" lon="10.5258567"><ele>105.0</ele><time>2026-03-22T10:16:48.751Z</time></trkpt><trkpt lat="45.46243" lon="10.5260083"><ele>105.0</ele><time>2026-03-22T10:16:50.75Z</time></trkpt><trkpt lat="45.4624317" lon="10.52615"><ele>105.0</ele><time>2026-03-22T10:16:51.747Z</time></trkpt><trkpt lat="45.4624583" lon="10.5262717"><ele>105.0</ele><time>2026-03-22T10:16:52.747Z</time></trkpt><trkpt lat="45.4624883" lon="10.5263717"><ele>104.0</ele><time>2026-03-22T10:16:53.744Z</time></trkpt><trkpt lat="45.4625233" lon="10.5264767"><ele>103.0</ele><time>2026-03-22T10:16:54.754Z</time></trkpt><trkpt lat="45.4625667" lon="10.5265667"><ele>102.0</ele><time>2026-03-22T10:16:55.75Z</time></trkpt><trkpt lat="45.462605" lon="10.5266567"><ele>101.0</ele><time>2026-03-22T10:16:56.748Z</time></trkpt><trkpt lat="45.4626517" lon="10.52674"><ele>100.0</ele><time>2026-03-22T10:16:57.749Z</time></trkpt><trkpt lat="45.46271" lon="10.5268217"><ele>99.0</ele><time>2026-03-22T10:16:58.745Z</time></trkpt><trkpt lat="45.4627667" lon="10.526905"><ele>99.0</ele><time>2026-03-22T10:16:59.745Z</time></trkpt><trkpt lat="45.46282" lon="10.52699"><ele>99.0</ele><time>2026-03-22T10:17:00.74Z</time></trkpt><trkpt lat="45.4628733" lon="10.5270817"><ele>99.0</ele><time>2026-03-22T10:17:01.747Z</time></trkpt><trkpt lat="45.4629067" lon="10.5271783"><ele>99.0</ele><time>2026-03-22T10:17:02.749Z</time></trkpt><trkpt lat="45.462925" lon="10.5272767"><ele>99.0</ele><time>2026-03-22T10:17:03.744Z</time></trkpt><trkpt lat="45.4629267" lon="10.5273817"><ele>99.0</ele><time>2026-03-22T10:17:04.746Z</time></trkpt><trkpt lat="45.4629333" lon="10.5274867"><ele>98.0</ele><time>2026-03-22T10:17:05.752Z</time></trkpt><trkpt lat="45.4629517" lon="10.5275933"><ele>97.0</ele><time>2026-03-22T10:17:06.748Z</time></trkpt><trkpt lat="45.4630517" lon="10.527695"><ele>96.0</ele><time>2026-03-22T10:17:08.753Z</time></trkpt><trkpt lat="45.46312" lon="10.5277017"><ele>95.0</ele><time>2026-03-22T10:17:09.757Z</time></trkpt><trkpt lat="45.4631967" lon="10.5277033"><ele>94.0</ele><time>2026-03-22T10:17:10.751Z</time></trkpt><trkpt lat="45.4633133" lon="10.52772"><ele>94.0</ele><time>2026-03-22T10:17:12.751Z</time></trkpt><trkpt lat="45.4633767" lon="10.5277267"><ele>94.0</ele><time>2026-03-22T10:17:13.749Z</time></trkpt><trkpt lat="45.4634967" lon="10.52773"><ele>94.0</ele><time>2026-03-22T10:17:15.751Z</time></trkpt><trkpt lat="45.4635983" lon="10.5277467"><ele>94.0</ele><time>2026-03-22T10:17:17.743Z</time></trkpt><trkpt lat="45.4636983" lon="10.52776"><ele>94.0</ele><time>2026-03-22T10:17:19.751Z</time></trkpt><trkpt lat="45.4638067" lon="10.5277683"><ele>94.4</ele><time>2026-03-22T10:17:21.757Z</time></trkpt><trkpt lat="45.46387" lon="10.5277767"><ele>94.80000000000001</ele><time>2026-03-22T10:17:22.748Z</time></trkpt><trkpt lat="45.4639367" lon="10.5277867"><ele>95.19999999999999</ele><time>2026-03-22T10:17:23.751Z</time></trkpt><trkpt lat="45.4640583" lon="10.5277967"><ele>95.6</ele><time>2026-03-22T10:17:25.751Z</time></trkpt><trkpt lat="45.46418" lon="10.5278117"><ele>96.0</ele><time>2026-03-22T10:17:27.753Z</time></trkpt><trkpt lat="45.464295" lon="10.5278317"><ele>96.0</ele><time>2026-03-22T10:17:29.745Z</time></trkpt><trkpt lat="45.4644183" lon="10.5278583"><ele>96.0</ele><time>2026-03-22T10:17:31.748Z</time></trkpt><trkpt lat="45.4644867" lon="10.5278683"><ele>96.0</ele><time>2026-03-22T10:17:32.746Z</time></trkpt><trkpt lat="45.464555" lon="10.52788"><ele>96.0</ele><time>2026-03-22T10:17:33.752Z</time></trkpt><trkpt lat="45.4646183" lon="10.5278917"><ele>96.0</ele><time>2026-03-22T10:17:34.749Z</time></trkpt><trkpt lat="45.4646867" lon="10.5278983"><ele>96.0</ele><time>2026-03-22T10:17:35.751Z</time></trkpt><trkpt lat="45.46475" lon="10.5279067"><ele>95.6</ele><time>2026-03-22T10:17:36.747Z</time></trkpt><trkpt lat="45.464815" lon="10.5279183"><ele>95.19999999999999</ele><time>2026-03-22T10:17:37.748Z</time></trkpt><trkpt lat="45.4649383" lon="10.5279417"><ele>94.80000000000001</ele><time>2026-03-22T10:17:39.746Z</time></trkpt><trkpt lat="45.465055" lon="10.5279667"><ele>94.4</ele><time>2026-03-22T10:17:41.747Z</time></trkpt><trkpt lat="45.4651717" lon="10.5280117"><ele>94.0</ele><time>2026-03-22T10:17:43.75Z</time></trkpt><trkpt lat="45.4652317" lon="10.5280417"><ele>94.0</ele><time>2026-03-22T10:17:44.753Z</time></trkpt><trkpt lat="45.465345" lon="10.528095"><ele>94.0</ele><time>2026-03-22T10:17:46.746Z</time></trkpt><trkpt lat="45.46545" lon="10.5281333"><ele>94.0</ele><time>2026-03-22T10:17:48.753Z</time></trkpt><trkpt lat="45.4655533" lon="10.5281533"><ele>94.0</ele><time>2026-03-22T10:17:50.75Z</time></trkpt><trkpt lat="45.465655" lon="10.5281633"><ele>94.0</ele><time>2026-03-22T10:17:52.748Z</time></trkpt><trkpt lat="45.4657667" lon="10.5281917"><ele>94.2</ele><time>2026-03-22T10:17:54.747Z</time></trkpt><trkpt lat="45.46587" lon="10.5282133"><ele>94.4</ele><time>2026-03-22T10:17:56.754Z</time></trkpt><trkpt lat="45.4659683" lon="10.5282417"><ele>94.6</ele><time>2026-03-22T10:17:58.749Z</time></trkpt><trkpt lat="45.4660567" lon="10.528235"><ele>94.8</ele><time>2026-03-22T10:18:00.75Z</time></trkpt><trkpt lat="45.4661467" lon="10.5281683"><ele>95.0</ele><time>2026-03-22T10:18:02.751Z</time></trkpt><trkpt lat="45.4662217" lon="10.5280383"><ele>95.2</ele><time>2026-03-22T10:18:04.741Z</time></trkpt><trkpt lat="45.4662717" lon="10.5278933"><ele>95.4</ele><time>2026-03-22T10:18:06.751Z</time></trkpt><trkpt lat="45.466295" lon="10.5277483"><ele>95.6</ele><time>2026-03-22T10:18:08.749Z</time></trkpt><trkpt lat="45.4663" lon="10.5276017"><ele>95.8</ele><time>2026-03-22T10:18:10.746Z</time></trkpt><trkpt lat="45.4663117" lon="10.5274317"><ele>96.0</ele><time>2026-03-22T10:18:12.749Z</time></trkpt><trkpt lat="45.4663067" lon="10.5273417"><ele>96.0</ele><time>2026-03-22T10:18:13.753Z</time></trkpt><trkpt lat="45.466275" lon="10.5271783"><ele>96.0</ele><time>2026-03-22T10:18:15.75Z</time></trkpt><trkpt lat="45.4662233" lon="10.5270433"><ele>96.0</ele><time>2026-03-22T10:18:17.75Z</time></trkpt><trkpt lat="45.46618" lon="10.5269517"><ele>96.0</ele><time>2026-03-22T10:18:19.744Z</time></trkpt><trkpt lat="45.4661417" lon="10.526845"><ele>96.0</ele><time>2026-03-22T10:18:21.744Z</time></trkpt><trkpt lat="45.4661217" lon="10.526745"><ele>96.4</ele><time>2026-03-22T10:18:23.75Z</time></trkpt><trkpt lat="45.4661233" lon="10.5266417"><ele>96.8</ele><time>2026-03-22T10:18:25.746Z</time></trkpt><trkpt lat="45.466145" lon="10.526525"><ele>97.2</ele><time>2026-03-22T10:18:27.742Z</time></trkpt><trkpt lat="45.466155" lon="10.5263883"><ele>97.60000000000001</ele><time>2026-03-22T10:18:29.744Z</time></trkpt><trkpt lat="45.46611" lon="10.5262483"><ele>98.0</ele><time>2026-03-22T10:18:31.751Z</time></trkpt><trkpt lat="45.4660483" lon="10.52612"><ele>98.2</ele><time>2026-03-22T10:18:33.745Z</time></trkpt><trkpt lat="45.4660117" lon="10.5259833"><ele>98.4</ele><time>2026-03-22T10:18:35.748Z</time></trkpt><trkpt lat="45.4660583" lon="10.52589"><ele>98.60000000000001</ele><time>2026-03-22T10:18:37.744Z</time></trkpt><trkpt lat="45.4661183" lon="10.525945"><ele>98.80000000000001</ele><time>2026-03-22T10:18:39.74Z</time></trkpt><trkpt lat="45.4661783" lon="10.5260533"><ele>99.0</ele><time>2026-03-22T10:18:41.751Z</time></trkpt><trkpt lat="45.4662367" lon="10.5261717"><ele>100.5</ele><time>2026-03-22T10:18:43.743Z</time></trkpt><trkpt lat="45.4663017" lon="10.5262817"><ele>102.0</ele><time>2026-03-22T10:18:45.741Z</time></trkpt><trkpt lat="45.4663667" lon="10.5263883"><ele>103.5</ele><time>2026-03-22T10:18:47.742Z</time></trkpt><trkpt lat="45.466425" lon="10.526455"><ele>105.0</ele><time>2026-03-22T10:18:49.746Z</time></trkpt><trkpt lat="45.4664883" lon="10.526465"><ele>106.5</ele><time>2026-03-22T10:18:51.747Z</time></trkpt><trkpt lat="45.4665617" lon="10.52641"><ele>108.0</ele><time>2026-03-22T10:18:53.744Z</time></trkpt><trkpt lat="45.46662" lon="10.52631"><ele>107.4</ele><time>2026-03-22T10:18:55.748Z</time></trkpt><trkpt lat="45.4666783" lon="10.52619"><ele>106.80000000000001</ele><time>2026-03-22T10:18:57.745Z</time></trkpt><trkpt lat="45.4667333" lon="10.52609"><ele>106.2</ele><time>2026-03-22T10:18:59.748Z</time></trkpt><trkpt lat="45.4667883" lon="10.525975"><ele>105.6</ele><time>2026-03-22T10:19:01.744Z</time></trkpt><trkpt lat="45.466845" lon="10.5258783"><ele>105.0</ele><time>2026-03-22T10:19:03.748Z</time></trkpt><trkpt lat="45.4669" lon="10.5257783"><ele>105.0</ele><time>2026-03-22T10:19:05.746Z</time></trkpt><trkpt lat="45.4669433" lon="10.5256667"><ele>105.0</ele><time>2026-03-22T10:19:07.755Z</time></trkpt><trkpt lat="45.4669833" lon="10.5255667"><ele>105.0</ele><time>2026-03-22T10:19:09.742Z</time></trkpt><trkpt lat="45.4670317" lon="10.52546"><ele>105.0</ele><time>2026-03-22T10:19:11.745Z</time></trkpt><trkpt lat="45.4670683" lon="10.5253717"><ele>105.0</ele><time>2026-03-22T10:19:13.752Z</time></trkpt><trkpt lat="45.467115" lon="10.5253017"><ele>105.0</ele><time>2026-03-22T10:19:15.742Z</time></trkpt><trkpt lat="45.4671533" lon="10.52521"><ele>106.5</ele><time>2026-03-22T10:19:17.744Z</time></trkpt><trkpt lat="45.4671933" lon="10.5251283"><ele>108.0</ele><time>2026-03-22T10:19:19.747Z</time></trkpt><trkpt lat="45.4672267" lon="10.5250383"><ele>109.5</ele><time>2026-03-22T10:19:21.752Z</time></trkpt><trkpt lat="45.4672533" lon="10.5249367"><ele>111.0</ele><time>2026-03-22T10:19:23.742Z</time></trkpt><trkpt lat="45.4672933" lon="10.52483"><ele>112.5</ele><time>2026-03-22T10:19:25.745Z</time></trkpt><trkpt lat="45.46733" lon="10.52472"><ele>114.0</ele><time>2026-03-22T10:19:27.75Z</time></trkpt><trkpt lat="45.467365" lon="10.524645"><ele>113.66666666666667</ele><time>2026-03-22T10:19:29.751Z</time></trkpt><trkpt lat="45.4674117" lon="10.5245183"><ele>113.33333333333334</ele><time>2026-03-22T10:19:32.745Z</time></trkpt><trkpt lat="45.4674467" lon="10.5244217"><ele>113.0</ele><time>2026-03-22T10:19:34.75Z</time></trkpt><trkpt lat="45.4674767" lon="10.5243417"><ele>112.66666666666667</ele><time>2026-03-22T10:19:36.747Z</time></trkpt><trkpt lat="45.4675183" lon="10.5242367"><ele>112.33333333333334</ele><time>2026-03-22T10:19:39.743Z</time></trkpt><trkpt lat="45.4675583" lon="10.5241267"><ele>112.0</ele><time>2026-03-22T10:19:42.753Z</time></trkpt><trkpt lat="45.4676033" lon="10.5240233"><ele>112.00000000000001</ele><time>2026-03-22T10:19:45.751Z</time></trkpt><trkpt lat="45.4676417" lon="10.523915"><ele>112.0</ele><time>2026-03-22T10:19:48.742Z</time></trkpt><trkpt lat="45.4676667" lon="10.5238317"><ele>112.0</ele><time>2026-03-22T10:19:50.752Z</time></trkpt><trkpt lat="45.4676967" lon="10.5237383"><ele>112.0</ele><time>2026-03-22T10:19:52.749Z</time></trkpt><trkpt lat="45.46773" lon="10.5236567"><ele>112.00000000000001</ele><time>2026-03-22T10:19:54.743Z</time></trkpt><trkpt lat="45.4677733" lon="10.52351"><ele>112.0</ele><time>2026-03-22T10:19:57.746Z</time></trkpt><trkpt lat="45.4677967" lon="10.5233933"><ele>113.00000000000001</ele><time>2026-03-22T10:19:59.746Z</time></trkpt><trkpt lat="45.467815" lon="10.5232917"><ele>114.0</ele><time>2026-03-22T10:20:01.745Z</time></trkpt><trkpt lat="45.4678333" lon="10.523185"><ele>115.0</ele><time>2026-03-22T10:20:03.744Z</time></trkpt><trkpt lat="45.46785" lon="10.52307"><ele>116.0</ele><time>2026-03-22T10:20:05.746Z</time></trkpt><trkpt lat="45.4678633" lon="10.5229633"><ele>117.00000000000001</ele><time>2026-03-22T10:20:07.744Z</time></trkpt><trkpt lat="45.4678817" lon="10.52286"><ele>118.0</ele><time>2026-03-22T10:20:09.743Z</time></trkpt><trkpt lat="45.4678983" lon="10.5227417"><ele>119.66666666666667</ele><time>2026-03-22T10:20:11.744Z</time></trkpt><trkpt lat="45.4679067" lon="10.5226417"><ele>121.33333333333334</ele><time>2026-03-22T10:20:13.752Z</time></trkpt><trkpt lat="45.4679233" lon="10.5225233"><ele>123.0</ele><time>2026-03-22T10:20:27.749Z</time></trkpt><trkpt lat="45.467945" lon="10.5224167"><ele>124.66666666666666</ele><time>2026-03-22T10:20:30.738Z</time></trkpt><trkpt lat="45.46797" lon="10.5222883"><ele>126.33333333333333</ele><time>2026-03-22T10:20:33.744Z</time></trkpt><trkpt lat="45.4679867" lon="10.5221867"><ele>128.0</ele><time>2026-03-22T10:20:35.749Z</time></trkpt><trkpt lat="45.468015" lon="10.5220967"><ele>127.99999999999999</ele><time>2026-03-22T10:20:37.747Z</time></trkpt><trkpt lat="45.468045" lon="10.5220017"><ele>128.0</ele><time>2026-03-22T10:20:40.739Z</time></trkpt><trkpt lat="45.4680174" lon="10.5221228"><ele>128.0</ele><time>2026-03-22T10:21:58.741Z</time></trkpt><trkpt lat="45.4680019" lon="10.5222259"><ele>128.0</ele><time>2026-03-22T10:22:00.749Z</time></trkpt><trkpt lat="45.4679824" lon="10.5223407"><ele>127.99999999999999</ele><time>2026-03-22T10:22:02.757Z</time></trkpt><trkpt lat="45.4679533" lon="10.522477"><ele>128.0</ele><time>2026-03-22T10:22:04.749Z</time></trkpt><trkpt lat="45.4679229" lon="10.5226342"><ele>128.0</ele><time>2026-03-22T10:22:06.744Z</time></trkpt><trkpt lat="45.4679063" lon="10.522724"><ele>127.99999999999999</ele><time>2026-03-22T10:22:07.753Z</time></trkpt><trkpt lat="45.467887" lon="10.5228163"><ele>128.0</ele><time>2026-03-22T10:22:08.752Z</time></trkpt><trkpt lat="45.4678669" lon="10.5229141"><ele>128.0</ele><time>2026-03-22T10:22:09.749Z</time></trkpt><trkpt lat="45.4678479" lon="10.5230134"><ele>127.99999999999999</ele><time>2026-03-22T10:22:10.751Z</time></trkpt><trkpt lat="45.4678253" lon="10.5231167"><ele>128.0</ele><time>2026-03-22T10:22:11.757Z</time></trkpt><trkpt lat="45.4677995" lon="10.5232292"><ele>128.0</ele><time>2026-03-22T10:22:12.749Z</time></trkpt><trkpt lat="45.4677687" lon="10.5233513"><ele>126.0</ele><time>2026-03-22T10:22:13.752Z</time></trkpt><trkpt lat="45.4677368" lon="10.5234766"><ele>124.00000000000001</ele><time>2026-03-22T10:22:14.747Z</time></trkpt><trkpt lat="45.4677009" lon="10.523618"><ele>122.00000000000001</ele><time>2026-03-22T10:22:15.749Z</time></trkpt><trkpt lat="45.4676638" lon="10.5237497"><ele>120.0</ele><time>2026-03-22T10:22:16.747Z</time></trkpt><trkpt lat="45.4676302" lon="10.5238847"><ele>118.0</ele><time>2026-03-22T10:22:17.745Z</time></trkpt><trkpt lat="45.4675712" lon="10.5240134"><ele>117.2</ele><time>2026-03-22T10:22:18.752Z</time></trkpt><trkpt lat="45.4675243" lon="10.524142"><ele>116.4</ele><time>2026-03-22T10:22:19.75Z</time></trkpt><trkpt lat="45.4674771" lon="10.5242721"><ele>115.60000000000001</ele><time>2026-03-22T10:22:20.744Z</time></trkpt><trkpt lat="45.4674309" lon="10.5244117"><ele>114.80000000000001</ele><time>2026-03-22T10:22:21.752Z</time></trkpt><trkpt lat="45.4673854" lon="10.5245504"><ele>114.0</ele><time>2026-03-22T10:22:22.75Z</time></trkpt><trkpt lat="45.4673426" lon="10.5246828"><ele>114.0</ele><time>2026-03-22T10:22:23.745Z</time></trkpt><trkpt lat="45.4672991" lon="10.5248151"><ele>114.0</ele><time>2026-03-22T10:22:24.75Z</time></trkpt><trkpt lat="45.4672557" lon="10.5249467"><ele>114.0</ele><time>2026-03-22T10:22:25.746Z</time></trkpt><trkpt lat="45.4672159" lon="10.5250825"><ele>114.0</ele><time>2026-03-22T10:22:26.752Z</time></trkpt><trkpt lat="45.467171" lon="10.5252175"><ele>114.0</ele><time>2026-03-22T10:22:27.751Z</time></trkpt><trkpt lat="45.4671271" lon="10.5253489"><ele>111.75</ele><time>2026-03-22T10:22:28.751Z</time></trkpt><trkpt lat="45.4670521" lon="10.5254939"><ele>109.5</ele><time>2026-03-22T10:22:29.747Z</time></trkpt><trkpt lat="45.4669859" lon="10.525617"><ele>107.25</ele><time>2026-03-22T10:22:30.753Z</time></trkpt><trkpt lat="45.466929" lon="10.5257421"><ele>105.0</ele><time>2026-03-22T10:22:31.751Z</time></trkpt><trkpt lat="45.4668391" lon="10.525878"><ele>105.0</ele><time>2026-03-22T10:22:32.756Z</time></trkpt><trkpt lat="45.4667621" lon="10.5260127"><ele>105.0</ele><time>2026-03-22T10:22:33.75Z</time></trkpt><trkpt lat="45.4667185" lon="10.5261363"><ele>105.0</ele><time>2026-03-22T10:22:34.752Z</time></trkpt><trkpt lat="45.4666758" lon="10.526244"><ele>105.0</ele><time>2026-03-22T10:22:35.751Z</time></trkpt><trkpt lat="45.466642" lon="10.5263508"><ele>105.0</ele><time>2026-03-22T10:22:36.752Z</time></trkpt><trkpt lat="45.4666007" lon="10.5264368"><ele>105.42857142857143</ele><time>2026-03-22T10:22:37.742Z</time></trkpt><trkpt lat="45.4665581" lon="10.5265106"><ele>105.85714285714286</ele><time>2026-03-22T10:22:38.747Z</time></trkpt><trkpt lat="45.4665002" lon="10.5265508"><ele>106.28571428571428</ele><time>2026-03-22T10:22:39.745Z</time></trkpt><trkpt lat="45.4664394" lon="10.5265198"><ele>106.71428571428572</ele><time>2026-03-22T10:22:40.751Z</time></trkpt><trkpt lat="45.4663794" lon="10.5264556"><ele>107.14285714285714</ele><time>2026-03-22T10:22:41.748Z</time></trkpt><trkpt lat="45.4663306" lon="10.5263764"><ele>107.57142857142857</ele><time>2026-03-22T10:22:42.743Z</time></trkpt><trkpt lat="45.4662912" lon="10.5262986"><ele>108.0</ele><time>2026-03-22T10:22:43.745Z</time></trkpt><trkpt lat="45.4662226" lon="10.526167"><ele>106.5</ele><time>2026-03-22T10:22:45.744Z</time></trkpt><trkpt lat="45.4661541" lon="10.5260509"><ele>105.0</ele><time>2026-03-22T10:22:47.753Z</time></trkpt><trkpt lat="45.4660858" lon="10.5259493"><ele>103.5</ele><time>2026-03-22T10:22:49.741Z</time></trkpt><trkpt lat="45.4660217" lon="10.5259107"><ele>102.0</ele><time>2026-03-22T10:22:51.743Z</time></trkpt><trkpt lat="45.4659712" lon="10.5259718"><ele>100.5</ele><time>2026-03-22T10:22:53.75Z</time></trkpt><trkpt lat="45.4659435" lon="10.5260547"><ele>99.0</ele><time>2026-03-22T10:22:55.742Z</time></trkpt><trkpt lat="45.4659117" lon="10.5261564"><ele>98.83333333333333</ele><time>2026-03-22T10:22:57.741Z</time></trkpt><trkpt lat="45.4658827" lon="10.5262554"><ele>98.66666666666666</ele><time>2026-03-22T10:22:59.745Z</time></trkpt><trkpt lat="45.4658518" lon="10.5263604"><ele>98.5</ele><time>2026-03-22T10:23:01.742Z</time></trkpt><trkpt lat="45.4658478" lon="10.5264715"><ele>98.33333333333333</ele><time>2026-03-22T10:23:03.741Z</time></trkpt><trkpt lat="45.4658756" lon="10.5265556"><ele>98.16666666666666</ele><time>2026-03-22T10:23:05.741Z</time></trkpt><trkpt lat="45.4659294" lon="10.5266152"><ele>98.0</ele><time>2026-03-22T10:23:07.743Z</time></trkpt><trkpt lat="45.466011" lon="10.5266429"><ele>98.0</ele><time>2026-03-22T10:23:10.743Z</time></trkpt><trkpt lat="45.4660821" lon="10.5266358"><ele>98.0</ele><time>2026-03-22T10:23:12.742Z</time></trkpt><trkpt lat="45.4661551" lon="10.5266266"><ele>98.0</ele><time>2026-03-22T10:23:14.744Z</time></trkpt><trkpt lat="45.4662355" lon="10.5266253"><ele>98.0</ele><time>2026-03-22T10:23:17.749Z</time></trkpt><trkpt lat="45.4663043" lon="10.5266618"><ele>98.0</ele><time>2026-03-22T10:23:21.746Z</time></trkpt><trkpt lat="45.4663437" lon="10.5267411"><ele>98.0</ele><time>2026-03-22T10:23:24.746Z</time></trkpt><trkpt lat="45.4663761" lon="10.5268221"><ele>98.0</ele><time>2026-03-22T10:23:27.748Z</time></trkpt><trkpt lat="45.46643" lon="10.5269066"><ele>98.16666666666666</ele><time>2026-03-22T10:23:35.747Z</time></trkpt><trkpt lat="45.4664938" lon="10.5269941"><ele>98.33333333333333</ele><time>2026-03-22T10:23:38.745Z</time></trkpt><trkpt lat="45.4665543" lon="10.5270608"><ele>98.5</ele><time>2026-03-22T10:23:41.747Z</time></trkpt><trkpt lat="45.4666402" lon="10.5271181"><ele>98.66666666666666</ele><time>2026-03-22T10:23:44.744Z</time></trkpt><trkpt lat="45.4667106" lon="10.5271718"><ele>98.83333333333333</ele><time>2026-03-22T10:23:46.743Z</time></trkpt><trkpt lat="45.4667842" lon="10.5272328"><ele>99.0</ele><time>2026-03-22T10:23:48.752Z</time></trkpt><trkpt lat="45.4668537" lon="10.5272874"><ele>99.0</ele><time>2026-03-22T10:23:50.754Z</time></trkpt><trkpt lat="45.4669261" lon="10.5273418"><ele>99.0</ele><time>2026-03-22T10:23:52.742Z</time></trkpt><trkpt lat="45.466984" lon="10.5274042"><ele>99.0</ele><time>2026-03-22T10:23:54.742Z</time></trkpt><trkpt lat="45.4670617" lon="10.5274783"><ele>99.0</ele><time>2026-03-22T10:23:56.751Z</time></trkpt><trkpt lat="45.46715" lon="10.5275467"><ele>99.0</ele><time>2026-03-22T10:23:58.742Z</time></trkpt><trkpt lat="45.4672433" lon="10.5276083"><ele>98.75</ele><time>2026-03-22T10:24:00.744Z</time></trkpt><trkpt lat="45.46735" lon="10.5276783"><ele>98.5</ele><time>2026-03-22T10:24:02.753Z</time></trkpt><trkpt lat="45.4674567" lon="10.5277617"><ele>98.25</ele><time>2026-03-22T10:24:04.745Z</time></trkpt><trkpt lat="45.467555" lon="10.5278333"><ele>98.0</ele><time>2026-03-22T10:24:06.756Z</time></trkpt><trkpt lat="45.4676517" lon="10.52791"><ele>97.60000000000001</ele><time>2026-03-22T10:24:08.753Z</time></trkpt><trkpt lat="45.46775" lon="10.527975"><ele>97.2</ele><time>2026-03-22T10:24:10.751Z</time></trkpt><trkpt lat="45.4678417" lon="10.5280533"><ele>96.8</ele><time>2026-03-22T10:24:12.753Z</time></trkpt><trkpt lat="45.467935" lon="10.5281167"><ele>96.4</ele><time>2026-03-22T10:24:14.752Z</time></trkpt><trkpt lat="45.468035" lon="10.5281633"><ele>96.0</ele><time>2026-03-22T10:24:16.75Z</time></trkpt><trkpt lat="45.4681383" lon="10.5282217"><ele>96.0</ele><time>2026-03-22T10:24:18.747Z</time></trkpt><trkpt lat="45.4682367" lon="10.528285"><ele>96.0</ele><time>2026-03-22T10:24:20.756Z</time></trkpt><trkpt lat="45.46834" lon="10.52835"><ele>96.0</ele><time>2026-03-22T10:24:22.75Z</time></trkpt><trkpt lat="45.4684367" lon="10.5284183"><ele>96.0</ele><time>2026-03-22T10:24:24.749Z</time></trkpt><trkpt lat="45.468525" lon="10.5284833"><ele>96.0</ele><time>2026-03-22T10:24:26.754Z</time></trkpt><trkpt lat="45.468605" lon="10.5285417"><ele>96.0</ele><time>2026-03-22T10:24:28.749Z</time></trkpt><trkpt lat="45.46869" lon="10.5285983"><ele>96.0</ele><time>2026-03-22T10:24:30.743Z</time></trkpt><trkpt lat="45.4687817" lon="10.52867"><ele>96.0</ele><time>2026-03-22T10:24:32.751Z</time></trkpt><trkpt lat="45.468865" lon="10.5287383"><ele>96.0</ele><time>2026-03-22T10:24:34.746Z</time></trkpt><trkpt lat="45.4689483" lon="10.5288"><ele>96.0</ele><time>2026-03-22T10:24:36.747Z</time></trkpt><trkpt lat="45.4690333" lon="10.52885"><ele>96.0</ele><time>2026-03-22T10:24:38.744Z</time></trkpt><trkpt lat="45.4691183" lon="10.5289033"><ele>96.0</ele><time>2026-03-22T10:24:40.745Z</time></trkpt><trkpt lat="45.469205" lon="10.5289517"><ele>96.0</ele><time>2026-03-22T10:24:42.748Z</time></trkpt><trkpt lat="45.46927" lon="10.528985"><ele>96.0</ele><time>2026-03-22T10:24:44.754Z</time></trkpt><trkpt lat="45.4693183" lon="10.528865"><ele>96.0</ele><time>2026-03-22T10:24:47.738Z</time></trkpt><trkpt lat="45.46932" lon="10.5287433"><ele>96.0</ele><time>2026-03-22T10:24:49.748Z</time></trkpt><trkpt lat="45.469315" lon="10.5286317"><ele>96.33333333333333</ele><time>2026-03-22T10:24:51.747Z</time></trkpt><trkpt lat="45.4692983" lon="10.5285083"><ele>96.66666666666666</ele><time>2026-03-22T10:24:53.744Z</time></trkpt><trkpt lat="45.4692817" lon="10.528405"><ele>97.0</ele><time>2026-03-22T10:24:55.744Z</time></trkpt><trkpt lat="45.469265" lon="10.52831"><ele>97.33333333333333</ele><time>2026-03-22T10:24:57.752Z</time></trkpt><trkpt lat="45.4692533" lon="10.5282133"><ele>97.66666666666666</ele><time>2026-03-22T10:24:59.753Z</time></trkpt><trkpt lat="45.4692483" lon="10.5281067"><ele>98.0</ele><time>2026-03-22T10:25:01.746Z</time></trkpt><trkpt lat="45.4692383" lon="10.5279883"><ele>98.80000000000001</ele><time>2026-03-22T10:25:03.738Z</time></trkpt><trkpt lat="45.46922" lon="10.5278467"><ele>99.6</ele><time>2026-03-22T10:25:05.748Z</time></trkpt><trkpt lat="45.469195" lon="10.527725"><ele>100.4</ele><time>2026-03-22T10:25:07.748Z</time></trkpt><trkpt lat="45.46918" lon="10.527615"><ele>101.19999999999999</ele><time>2026-03-22T10:25:09.744Z</time></trkpt><trkpt lat="45.46916" lon="10.5274883"><ele>102.0</ele><time>2026-03-22T10:25:11.746Z</time></trkpt><trkpt lat="45.46913" lon="10.5273667"><ele>102.0</ele><time>2026-03-22T10:25:13.748Z</time></trkpt><trkpt lat="45.469105" lon="10.5272467"><ele>102.0</ele><time>2026-03-22T10:25:15.744Z</time></trkpt><trkpt lat="45.4690883" lon="10.5271217"><ele>102.0</ele><time>2026-03-22T10:25:17.744Z</time></trkpt><trkpt lat="45.4690583" lon="10.5269817"><ele>102.0</ele><time>2026-03-22T10:25:19.745Z</time></trkpt><trkpt lat="45.4690317" lon="10.5268333"><ele>102.0</ele><time>2026-03-22T10:25:21.748Z</time></trkpt><trkpt lat="45.46901" lon="10.5266883"><ele>102.6</ele><time>2026-03-22T10:25:23.743Z</time></trkpt><trkpt lat="45.4689817" lon="10.526535"><ele>103.19999999999999</ele><time>2026-03-22T10:25:25.746Z</time></trkpt><trkpt lat="45.4689683" lon="10.52644"><ele>103.8</ele><time>2026-03-22T10:25:26.745Z</time></trkpt><trkpt lat="45.4689533" lon="10.526345"><ele>104.4</ele><time>2026-03-22T10:25:27.743Z</time></trkpt><trkpt lat="45.4689183" lon="10.5261983"><ele>105.0</ele><time>2026-03-22T10:25:29.745Z</time></trkpt><trkpt lat="45.4688983" lon="10.526055"><ele>106.4</ele><time>2026-03-22T10:25:31.756Z</time></trkpt><trkpt lat="45.4688833" lon="10.5259333"><ele>107.8</ele><time>2026-03-22T10:25:33.745Z</time></trkpt><trkpt lat="45.4688633" lon="10.5258"><ele>109.19999999999999</ele><time>2026-03-22T10:25:35.747Z</time></trkpt><trkpt lat="45.4688467" lon="10.52564"><ele>110.6</ele><time>2026-03-22T10:25:37.752Z</time></trkpt><trkpt lat="45.468815" lon="10.5254983"><ele>112.0</ele><time>2026-03-22T10:25:39.747Z</time></trkpt><trkpt lat="45.468795" lon="10.525365"><ele>112.39999999999999</ele><time>2026-03-22T10:25:41.747Z</time></trkpt><trkpt lat="45.46879" lon="10.5252233"><ele>112.79999999999998</ele><time>2026-03-22T10:25:43.749Z</time></trkpt><trkpt lat="45.4687717" lon="10.5251"><ele>113.2</ele><time>2026-03-22T10:25:45.744Z</time></trkpt><trkpt lat="45.4687583" lon="10.5249733"><ele>113.6</ele><time>2026-03-22T10:25:47.748Z</time></trkpt><trkpt lat="45.46874" lon="10.52486"><ele>114.0</ele><time>2026-03-22T10:25:49.748Z</time></trkpt><trkpt lat="45.4687083" lon="10.5247233"><ele>114.0</ele><time>2026-03-22T10:25:51.742Z</time></trkpt><trkpt lat="45.46869" lon="10.5245917"><ele>114.0</ele><time>2026-03-22T10:25:53.744Z</time></trkpt><trkpt lat="45.4686567" lon="10.5244483"><ele>114.0</ele><time>2026-03-22T10:25:55.754Z</time></trkpt><trkpt lat="45.468645" lon="10.5243467"><ele>114.0</ele><time>2026-03-22T10:25:57.745Z</time></trkpt><trkpt lat="45.4686383" lon="10.5242233"><ele>114.0</ele><time>2026-03-22T10:26:00.745Z</time></trkpt><trkpt lat="45.4686567" lon="10.524135"><ele>114.0</ele><time>2026-03-22T10:26:02.75Z</time></trkpt><trkpt lat="45.4686667" lon="10.5240133"><ele>114.5</ele><time>2026-03-22T10:26:05.747Z</time></trkpt><trkpt lat="45.468675" lon="10.523915"><ele>115.0</ele><time>2026-03-22T10:26:08.747Z</time></trkpt><trkpt lat="45.4686833" lon="10.5237833"><ele>115.5</ele><time>2026-03-22T10:26:11.754Z</time></trkpt><trkpt lat="45.468705" lon="10.5236583"><ele>116.0</ele><time>2026-03-22T10:26:14.755Z</time></trkpt><trkpt lat="45.4687117" lon="10.5235683"><ele>116.5</ele><time>2026-03-22T10:26:17.75Z</time></trkpt><trkpt lat="45.4687233" lon="10.523475"><ele>117.0</ele><time>2026-03-22T10:26:19.748Z</time></trkpt><trkpt lat="45.4687567" lon="10.5233583"><ele>117.66666666666667</ele><time>2026-03-22T10:26:22.751Z</time></trkpt><trkpt lat="45.468775" lon="10.523265"><ele>118.33333333333334</ele><time>2026-03-22T10:26:24.743Z</time></trkpt><trkpt lat="45.4687833" lon="10.5231533"><ele>119.0</ele><time>2026-03-22T10:26:26.754Z</time></trkpt><trkpt lat="45.468805" lon="10.52305"><ele>119.66666666666667</ele><time>2026-03-22T10:26:28.753Z</time></trkpt><trkpt lat="45.4688117" lon="10.5229217"><ele>120.33333333333334</ele><time>2026-03-22T10:26:31.744Z</time></trkpt><trkpt lat="45.4688367" lon="10.5227967"><ele>121.0</ele><time>2026-03-22T10:26:34.744Z</time></trkpt><trkpt lat="45.468835" lon="10.5226817"><ele>123.6</ele><time>2026-03-22T10:26:37.752Z</time></trkpt><trkpt lat="45.4688233" lon="10.52257"><ele>126.19999999999999</ele><time>2026-03-22T10:26:39.744Z</time></trkpt><trkpt lat="45.468825" lon="10.5224233"><ele>128.8</ele><time>2026-03-22T10:26:41.742Z</time></trkpt><trkpt lat="45.4688567" lon="10.522235"><ele>131.4</ele><time>2026-03-22T10:26:43.743Z</time></trkpt><trkpt lat="45.4688733" lon="10.52207"><ele>134.0</ele><time>2026-03-22T10:26:45.743Z</time></trkpt><trkpt lat="45.4688833" lon="10.5219167"><ele>134.5</ele><time>2026-03-22T10:26:47.743Z</time></trkpt><trkpt lat="45.4688833" lon="10.5217617"><ele>135.0</ele><time>2026-03-22T10:26:49.749Z</time></trkpt><trkpt lat="45.4688717" lon="10.5216733"><ele>135.5</ele><time>2026-03-22T10:26:50.756Z</time></trkpt><trkpt lat="45.468875" lon="10.521575"><ele>136.0</ele><time>2026-03-22T10:26:51.747Z</time></trkpt><trkpt lat="45.4688667" lon="10.5214567"><ele>136.5</ele><time>2026-03-22T10:26:52.749Z</time></trkpt><trkpt lat="45.4688683" lon="10.52136"><ele>137.0</ele><time>2026-03-22T10:26:53.747Z</time></trkpt><trkpt lat="45.4688733" lon="10.52118"><ele>137.0</ele><time>2026-03-22T10:26:55.743Z</time></trkpt><trkpt lat="45.4688817" lon="10.5210033"><ele>137.0</ele><time>2026-03-22T10:26:57.751Z</time></trkpt><trkpt lat="45.4689233" lon="10.5208617"><ele>137.0</ele><time>2026-03-22T10:26:59.747Z</time></trkpt><trkpt lat="45.4689733" lon="10.5207417"><ele>137.0</ele><time>2026-03-22T10:27:01.748Z</time></trkpt><trkpt lat="45.4689367" lon="10.52009"><ele>135.33333333333331</ele><time>2026-03-22T10:27:02.745Z</time></trkpt><trkpt lat="45.4690033" lon="10.52004"><ele>133.66666666666666</ele><time>2026-03-22T10:27:04.742Z</time></trkpt><trkpt lat="45.46905" lon="10.519965"><ele>132.0</ele><time>2026-03-22T10:27:06.748Z</time></trkpt><trkpt lat="45.46901" lon="10.519845"><ele>130.33333333333334</ele><time>2026-03-22T10:27:09.753Z</time></trkpt><trkpt lat="45.4689517" lon="10.51975"><ele>128.66666666666669</ele><time>2026-03-22T10:27:11.739Z</time></trkpt><trkpt lat="45.4688967" lon="10.5196533"><ele>127.0</ele><time>2026-03-22T10:27:13.749Z</time></trkpt><trkpt lat="45.46888" lon="10.5195617"><ele>126.57142857142858</ele><time>2026-03-22T10:27:15.742Z</time></trkpt><trkpt lat="45.4688967" lon="10.5194583"><ele>126.14285714285714</ele><time>2026-03-22T10:27:50.744Z</time></trkpt><trkpt lat="45.4689" lon="10.51936"><ele>125.71428571428572</ele><time>2026-03-22T10:27:53.749Z</time></trkpt><trkpt lat="45.4689183" lon="10.5192433"><ele>125.28571428571429</ele><time>2026-03-22T10:27:56.746Z</time></trkpt><trkpt lat="45.4689433" lon="10.51916"><ele>124.85714285714286</ele><time>2026-03-22T10:27:58.742Z</time></trkpt><trkpt lat="45.4689433" lon="10.51907"><ele>124.42857142857143</ele><time>2026-03-22T10:28:00.748Z</time></trkpt><trkpt lat="45.4689217" lon="10.5189767"><ele>124.0</ele><time>2026-03-22T10:28:02.753Z</time></trkpt><trkpt lat="45.4689" lon="10.5188717"><ele>124.00000000000001</ele><time>2026-03-22T10:28:04.742Z</time></trkpt><trkpt lat="45.4688767" lon="10.518775"><ele>124.0</ele><time>2026-03-22T10:28:06.753Z</time></trkpt><trkpt lat="45.46885" lon="10.5186783"><ele>124.0</ele><time>2026-03-22T10:28:08.752Z</time></trkpt><trkpt lat="45.4688367" lon="10.518565"><ele>124.0</ele><time>2026-03-22T10:28:10.746Z</time></trkpt><trkpt lat="45.468825" lon="10.5184433"><ele>124.00000000000001</ele><time>2026-03-22T10:28:13.745Z</time></trkpt><trkpt lat="45.4688033" lon="10.5183283"><ele>124.0</ele><time>2026-03-22T10:28:15.75Z</time></trkpt><trkpt lat="45.46877" lon="10.51822"><ele>124.33333333333334</ele><time>2026-03-22T10:28:17.748Z</time></trkpt><trkpt lat="45.4687533" lon="10.518125"><ele>124.66666666666667</ele><time>2026-03-22T10:28:19.744Z</time></trkpt><trkpt lat="45.4687367" lon="10.51801"><ele>125.0</ele><time>2026-03-22T10:28:21.742Z</time></trkpt><trkpt lat="45.4687517" lon="10.517915"><ele>125.33333333333334</ele><time>2026-03-22T10:28:24.748Z</time></trkpt><trkpt lat="45.46882" lon="10.517855"><ele>125.66666666666667</ele><time>2026-03-22T10:28:27.744Z</time></trkpt><trkpt lat="45.4688867" lon="10.51783"><ele>126.0</ele><time>2026-03-22T10:28:29.752Z</time></trkpt><trkpt lat="45.468975" lon="10.517815"><ele>126.66666666666667</ele><time>2026-03-22T10:28:32.751Z</time></trkpt><trkpt lat="45.4690517" lon="10.517805"><ele>127.33333333333334</ele><time>2026-03-22T10:28:35.744Z</time></trkpt><trkpt lat="45.4691367" lon="10.5178033"><ele>128.0</ele><time>2026-03-22T10:28:38.753Z</time></trkpt><trkpt lat="45.4692133" lon="10.5178033"><ele>128.66666666666669</ele><time>2026-03-22T10:28:40.747Z</time></trkpt><trkpt lat="45.469285" lon="10.517805"><ele>129.33333333333334</ele><time>2026-03-22T10:28:42.743Z</time></trkpt><trkpt lat="45.4693617" lon="10.5177983"><ele>130.0</ele><time>2026-03-22T10:28:44.746Z</time></trkpt><trkpt lat="45.4694367" lon="10.5178133"><ele>130.0</ele><time>2026-03-22T10:28:46.754Z</time></trkpt><trkpt lat="45.4695167" lon="10.5178283"><ele>130.0</ele><time>2026-03-22T10:28:48.748Z</time></trkpt><trkpt lat="45.4695983" lon="10.51784"><ele>130.0</ele><time>2026-03-22T10:28:50.748Z</time></trkpt><trkpt lat="45.46969" lon="10.51787"><ele>130.0</ele><time>2026-03-22T10:28:52.746Z</time></trkpt><trkpt lat="45.4697767" lon="10.51791"><ele>130.0</ele><time>2026-03-22T10:28:54.747Z</time></trkpt><trkpt lat="45.4698683" lon="10.51795"><ele>130.0</ele><time>2026-03-22T10:28:56.746Z</time></trkpt><trkpt lat="45.4699733" lon="10.517985"><ele>129.2</ele><time>2026-03-22T10:28:58.755Z</time></trkpt><trkpt lat="45.470035" lon="10.5180067"><ele>128.4</ele><time>2026-03-22T10:28:59.752Z</time></trkpt><trkpt lat="45.47016" lon="10.518035"><ele>127.6</ele><time>2026-03-22T10:29:01.752Z</time></trkpt><trkpt lat="45.4702683" lon="10.5180467"><ele>126.8</ele><time>2026-03-22T10:29:03.747Z</time></trkpt><trkpt lat="45.4703467" lon="10.5179767"><ele>126.0</ele><time>2026-03-22T10:29:05.752Z</time></trkpt><trkpt lat="45.4704433" lon="10.51787"><ele>126.0</ele><time>2026-03-22T10:29:07.754Z</time></trkpt><trkpt lat="45.47049" lon="10.5178083"><ele>126.0</ele><time>2026-03-22T10:29:08.758Z</time></trkpt><trkpt lat="45.47057" lon="10.5176767"><ele>126.0</ele><time>2026-03-22T10:29:10.751Z</time></trkpt><trkpt lat="45.4706467" lon="10.517545"><ele>126.0</ele><time>2026-03-22T10:29:12.754Z</time></trkpt><trkpt lat="45.470725" lon="10.5174133"><ele>126.0</ele><time>2026-03-22T10:29:14.759Z</time></trkpt><trkpt lat="45.4708033" lon="10.51728"><ele>126.0</ele><time>2026-03-22T10:29:16.752Z</time></trkpt><trkpt lat="45.4708417" lon="10.5172083"><ele>126.0</ele><time>2026-03-22T10:29:17.75Z</time></trkpt><trkpt lat="45.47091" lon="10.5170817"><ele>126.0</ele><time>2026-03-22T10:29:19.748Z</time></trkpt><trkpt lat="45.4709733" lon="10.516965"><ele>126.0</ele><time>2026-03-22T10:29:21.754Z</time></trkpt><trkpt lat="45.4710417" lon="10.5168517"><ele>126.0</ele><time>2026-03-22T10:29:23.752Z</time></trkpt><trkpt lat="45.4711033" lon="10.5167517"><ele>126.0</ele><time>2026-03-22T10:29:25.744Z</time></trkpt><trkpt lat="45.4711567" lon="10.516645"><ele>126.0</ele><time>2026-03-22T10:29:27.743Z</time></trkpt><trkpt lat="45.4712017" lon="10.5165383"><ele>126.0</ele><time>2026-03-22T10:29:29.758Z</time></trkpt><trkpt lat="45.4712417" lon="10.5164283"><ele>126.0</ele><time>2026-03-22T10:29:31.753Z</time></trkpt><trkpt lat="45.4712867" lon="10.516305"><ele>126.0</ele><time>2026-03-22T10:29:33.744Z</time></trkpt><trkpt lat="45.4713333" lon="10.51618"><ele>127.19999999999999</ele><time>2026-03-22T10:29:35.749Z</time></trkpt><trkpt lat="45.4713667" lon="10.5160533"><ele>128.39999999999998</ele><time>2026-03-22T10:29:37.753Z</time></trkpt><trkpt lat="45.471405" lon="10.515925"><ele>129.6</ele><time>2026-03-22T10:29:39.753Z</time></trkpt><trkpt lat="45.471445" lon="10.5157933"><ele>130.79999999999998</ele><time>2026-03-22T10:29:41.745Z</time></trkpt><trkpt lat="45.4714783" lon="10.515665"><ele>132.0</ele><time>2026-03-22T10:29:43.752Z</time></trkpt><trkpt lat="45.4715033" lon="10.515535"><ele>132.0</ele><time>2026-03-22T10:29:45.755Z</time></trkpt><trkpt lat="45.4715183" lon="10.5154117"><ele>132.0</ele><time>2026-03-22T10:29:47.745Z</time></trkpt><trkpt lat="45.4715183" lon="10.5153133"><ele>132.0</ele><time>2026-03-22T10:29:49.742Z</time></trkpt><trkpt lat="45.471475" lon="10.51519"><ele>132.0</ele><time>2026-03-22T10:29:52.748Z</time></trkpt><trkpt lat="45.4714267" lon="10.51511"><ele>132.0</ele><time>2026-03-22T10:29:54.752Z</time></trkpt><trkpt lat="45.471375" lon="10.5150417"><ele>132.0</ele><time>2026-03-22T10:29:56.744Z</time></trkpt><trkpt lat="45.471305" lon="10.514955"><ele>132.16666666666666</ele><time>2026-03-22T10:29:58.745Z</time></trkpt><trkpt lat="45.47125" lon="10.514865"><ele>132.33333333333334</ele><time>2026-03-22T10:30:00.754Z</time></trkpt><trkpt lat="45.47119" lon="10.5148"><ele>132.5</ele><time>2026-03-22T10:30:02.754Z</time></trkpt><trkpt lat="45.47112" lon="10.5147033"><ele>132.66666666666669</ele><time>2026-03-22T10:30:04.745Z</time></trkpt><trkpt lat="45.4710683" lon="10.5146117"><ele>132.83333333333334</ele><time>2026-03-22T10:30:06.75Z</time></trkpt><trkpt lat="45.4710217" lon="10.5145033"><ele>133.0</ele><time>2026-03-22T10:30:08.755Z</time></trkpt><trkpt lat="45.4709683" lon="10.5143683"><ele>133.0</ele><time>2026-03-22T10:30:10.749Z</time></trkpt><trkpt lat="45.4709183" lon="10.51422"><ele>133.0</ele><time>2026-03-22T10:30:12.745Z</time></trkpt><trkpt lat="45.4708683" lon="10.5140683"><ele>133.0</ele><time>2026-03-22T10:30:14.756Z</time></trkpt><trkpt lat="45.470845" lon="10.5139833"><ele>133.0</ele><time>2026-03-22T10:30:15.756Z</time></trkpt><trkpt lat="45.4707967" lon="10.5138233"><ele>133.0</ele><time>2026-03-22T10:30:17.756Z</time></trkpt><trkpt lat="45.4707483" lon="10.5136883"><ele>132.83333333333334</ele><time>2026-03-22T10:30:19.746Z</time></trkpt><trkpt lat="45.4707033" lon="10.5135617"><ele>132.66666666666669</ele><time>2026-03-22T10:30:21.746Z</time></trkpt><trkpt lat="45.4706617" lon="10.513435"><ele>132.5</ele><time>2026-03-22T10:30:23.753Z</time></trkpt><trkpt lat="45.4706167" lon="10.5133267"><ele>132.33333333333334</ele><time>2026-03-22T10:30:25.752Z</time></trkpt><trkpt lat="45.470575" lon="10.5132533"><ele>132.16666666666666</ele><time>2026-03-22T10:30:27.746Z</time></trkpt><trkpt lat="45.4705317" lon="10.5131667"><ele>132.0</ele><time>2026-03-22T10:30:29.746Z</time></trkpt><trkpt lat="45.4704767" lon="10.5130733"><ele>132.83333333333334</ele><time>2026-03-22T10:30:31.753Z</time></trkpt><trkpt lat="45.4704283" lon="10.512995"><ele>133.66666666666666</ele><time>2026-03-22T10:30:33.75Z</time></trkpt><trkpt lat="45.4703767" lon="10.5128833"><ele>134.5</ele><time>2026-03-22T10:30:36.745Z</time></trkpt><trkpt lat="45.4703367" lon="10.51279"><ele>135.33333333333331</ele><time>2026-03-22T10:30:38.753Z</time></trkpt><trkpt lat="45.4702883" lon="10.5126733"><ele>136.16666666666666</ele><time>2026-03-22T10:30:40.745Z</time></trkpt><trkpt lat="45.4702283" lon="10.5125833"><ele>137.0</ele><time>2026-03-22T10:30:42.756Z</time></trkpt><trkpt lat="45.4701667" lon="10.51249"><ele>137.0</ele><time>2026-03-22T10:30:44.747Z</time></trkpt><trkpt lat="45.4701017" lon="10.5123917"><ele>137.0</ele><time>2026-03-22T10:30:46.746Z</time></trkpt><trkpt lat="45.4700417" lon="10.512285"><ele>137.0</ele><time>2026-03-22T10:30:48.747Z</time></trkpt><trkpt lat="45.4699933" lon="10.5121867"><ele>137.0</ele><time>2026-03-22T10:30:50.749Z</time></trkpt><trkpt lat="45.4699483" lon="10.512055"><ele>137.0</ele><time>2026-03-22T10:30:52.744Z</time></trkpt><trkpt lat="45.46991" lon="10.5118767"><ele>135.79999999999998</ele><time>2026-03-22T10:30:54.753Z</time></trkpt><trkpt lat="45.46987" lon="10.5117367"><ele>134.6</ele><time>2026-03-22T10:30:56.746Z</time></trkpt><trkpt lat="45.4698383" lon="10.5116017"><ele>133.39999999999998</ele><time>2026-03-22T10:30:58.748Z</time></trkpt><trkpt lat="45.4698083" lon="10.51147"><ele>132.2</ele><time>2026-03-22T10:31:00.753Z</time></trkpt><trkpt lat="45.4697783" lon="10.5113267"><ele>131.0</ele><time>2026-03-22T10:31:02.744Z</time></trkpt><trkpt lat="45.4697483" lon="10.5111883"><ele>130.8</ele><time>2026-03-22T10:31:04.743Z</time></trkpt><trkpt lat="45.46972" lon="10.5110517"><ele>130.6</ele><time>2026-03-22T10:31:06.749Z</time></trkpt><trkpt lat="45.469695" lon="10.5109233"><ele>130.4</ele><time>2026-03-22T10:31:08.745Z</time></trkpt><trkpt lat="45.4696617" lon="10.51078"><ele>130.2</ele><time>2026-03-22T10:31:10.745Z</time></trkpt><trkpt lat="45.469625" lon="10.5106467"><ele>130.0</ele><time>2026-03-22T10:31:12.749Z</time></trkpt><trkpt lat="45.4695917" lon="10.510535"><ele>130.0</ele><time>2026-03-22T10:31:14.754Z</time></trkpt><trkpt lat="45.4695667" lon="10.5104217"><ele>130.0</ele><time>2026-03-22T10:31:16.75Z</time></trkpt><trkpt lat="45.4695233" lon="10.5102983"><ele>130.0</ele><time>2026-03-22T10:31:18.743Z</time></trkpt><trkpt lat="45.4694883" lon="10.51022"><ele>130.0</ele><time>2026-03-22T10:31:19.746Z</time></trkpt><trkpt lat="45.46944" lon="10.510065"><ele>130.0</ele><time>2026-03-22T10:31:21.757Z</time></trkpt><trkpt lat="45.46939" lon="10.5099217"><ele>129.6</ele><time>2026-03-22T10:31:23.754Z</time></trkpt><trkpt lat="45.4693367" lon="10.5097917"><ele>129.2</ele><time>2026-03-22T10:31:25.746Z</time></trkpt><trkpt lat="45.4692867" lon="10.50968"><ele>128.8</ele><time>2026-03-22T10:31:27.746Z</time></trkpt><trkpt lat="45.4692283" lon="10.5095517"><ele>128.4</ele><time>2026-03-22T10:31:29.752Z</time></trkpt><trkpt lat="45.4691817" lon="10.509435"><ele>128.0</ele><time>2026-03-22T10:31:31.749Z</time></trkpt><trkpt lat="45.4691533" lon="10.5092683"><ele>128.0</ele><time>2026-03-22T10:31:32.756Z</time></trkpt><trkpt lat="45.4691183" lon="10.5091583"><ele>127.99999999999999</ele><time>2026-03-22T10:31:33.753Z</time></trkpt><trkpt lat="45.469095" lon="10.5090683"><ele>128.0</ele><time>2026-03-22T10:31:34.749Z</time></trkpt><trkpt lat="45.4690617" lon="10.508965"><ele>128.0</ele><time>2026-03-22T10:31:35.752Z</time></trkpt><trkpt lat="45.469035" lon="10.5088617"><ele>127.99999999999999</ele><time>2026-03-22T10:31:36.755Z</time></trkpt><trkpt lat="45.469015" lon="10.5087667"><ele>128.0</ele><time>2026-03-22T10:31:37.755Z</time></trkpt><trkpt lat="45.4690033" lon="10.5086783"><ele>128.0</ele><time>2026-03-22T10:31:38.753Z</time></trkpt><trkpt lat="45.4689883" lon="10.5085833"><ele>128.20000000000002</ele><time>2026-03-22T10:31:39.752Z</time></trkpt><trkpt lat="45.4689783" lon="10.5084933"><ele>128.4</ele><time>2026-03-22T10:31:40.753Z</time></trkpt><trkpt lat="45.468955" lon="10.5083183"><ele>128.60000000000002</ele><time>2026-03-22T10:31:42.748Z</time></trkpt><trkpt lat="45.468945" lon="10.5081417"><ele>128.8</ele><time>2026-03-22T10:31:44.756Z</time></trkpt><trkpt lat="45.468945" lon="10.50805"><ele>129.0</ele><time>2026-03-22T10:31:45.751Z</time></trkpt><trkpt lat="45.4689483" lon="10.50789"><ele>129.0</ele><time>2026-03-22T10:31:47.751Z</time></trkpt><trkpt lat="45.4689717" lon="10.5077433"><ele>129.0</ele><time>2026-03-22T10:31:49.752Z</time></trkpt><trkpt lat="45.4690017" lon="10.5076367"><ele>129.0</ele><time>2026-03-22T10:31:51.755Z</time></trkpt><trkpt lat="45.4690467" lon="10.5075417"><ele>129.0</ele><time>2026-03-22T10:31:53.744Z</time></trkpt><trkpt lat="45.4690883" lon="10.5074483"><ele>129.0</ele><time>2026-03-22T10:31:55.754Z</time></trkpt><trkpt lat="45.4691183" lon="10.5073067"><ele>129.0</ele><time>2026-03-22T10:31:57.752Z</time></trkpt><trkpt lat="45.46916" lon="10.5071817"><ele>129.2</ele><time>2026-03-22T10:31:59.744Z</time></trkpt><trkpt lat="45.4692133" lon="10.507045"><ele>129.4</ele><time>2026-03-22T10:32:01.747Z</time></trkpt><trkpt lat="45.4692683" lon="10.506915"><ele>129.6</ele><time>2026-03-22T10:32:03.755Z</time></trkpt><trkpt lat="45.4693017" lon="10.5068033"><ele>129.8</ele><time>2026-03-22T10:32:05.746Z</time></trkpt><trkpt lat="45.4693233" lon="10.5066817"><ele>130.0</ele><time>2026-03-22T10:32:07.745Z</time></trkpt><trkpt lat="45.4693483" lon="10.506545"><ele>130.0</ele><time>2026-03-22T10:32:09.747Z</time></trkpt><trkpt lat="45.4693533" lon="10.5064133"><ele>130.0</ele><time>2026-03-22T10:32:11.755Z</time></trkpt><trkpt lat="45.46936" lon="10.506285"><ele>130.0</ele><time>2026-03-22T10:32:13.746Z</time></trkpt><trkpt lat="45.46937" lon="10.5061583"><ele>130.0</ele><time>2026-03-22T10:32:15.746Z</time></trkpt><trkpt lat="45.4693817" lon="10.5060383"><ele>130.0</ele><time>2026-03-22T10:32:17.747Z</time></trkpt><trkpt lat="45.4694017" lon="10.5059267"><ele>130.0</ele><time>2026-03-22T10:32:19.749Z</time></trkpt><trkpt lat="45.4694233" lon="10.5058083"><ele>130.66666666666669</ele><time>2026-03-22T10:32:21.744Z</time></trkpt><trkpt lat="45.469435" lon="10.5056817"><ele>131.33333333333334</ele><time>2026-03-22T10:32:23.746Z</time></trkpt><trkpt lat="45.469455" lon="10.5055567"><ele>132.0</ele><time>2026-03-22T10:32:25.745Z</time></trkpt><trkpt lat="45.469475" lon="10.5054367"><ele>132.66666666666666</ele><time>2026-03-22T10:32:27.754Z</time></trkpt><trkpt lat="45.4695033" lon="10.5053267"><ele>133.33333333333331</ele><time>2026-03-22T10:32:29.749Z</time></trkpt><trkpt lat="45.469525" lon="10.5052217"><ele>134.0</ele><time>2026-03-22T10:32:31.746Z</time></trkpt><trkpt lat="45.4695617" lon="10.505125"><ele>134.5</ele><time>2026-03-22T10:32:33.745Z</time></trkpt><trkpt lat="45.4695967" lon="10.50502"><ele>135.0</ele><time>2026-03-22T10:32:35.75Z</time></trkpt><trkpt lat="45.4696183" lon="10.5049283"><ele>135.5</ele><time>2026-03-22T10:32:37.744Z</time></trkpt><trkpt lat="45.4696183" lon="10.5048317"><ele>136.0</ele><time>2026-03-22T10:32:39.746Z</time></trkpt><trkpt lat="45.4696117" lon="10.5047133"><ele>136.5</ele><time>2026-03-22T10:32:41.748Z</time></trkpt><trkpt lat="45.469605" lon="10.5045967"><ele>137.0</ele><time>2026-03-22T10:32:43.755Z</time></trkpt><trkpt lat="45.4695783" lon="10.5044683"><ele>137.0</ele><time>2026-03-22T10:32:45.753Z</time></trkpt><trkpt lat="45.4695967" lon="10.5043133"><ele>137.0</ele><time>2026-03-22T10:32:47.748Z</time></trkpt><trkpt lat="45.4696" lon="10.5042133"><ele>137.0</ele><time>2026-03-22T10:32:48.749Z</time></trkpt><trkpt lat="45.469605" lon="10.5041133"><ele>137.0</ele><time>2026-03-22T10:32:49.753Z</time></trkpt><trkpt lat="45.469615" lon="10.5040167"><ele>137.0</ele><time>2026-03-22T10:32:50.756Z</time></trkpt><trkpt lat="45.46962" lon="10.50392"><ele>137.0</ele><time>2026-03-22T10:32:51.757Z</time></trkpt><trkpt lat="45.4696383" lon="10.5037517"><ele>135.0</ele><time>2026-03-22T10:32:53.748Z</time></trkpt><trkpt lat="45.4696717" lon="10.5035867"><ele>133.0</ele><time>2026-03-22T10:32:55.745Z</time></trkpt><trkpt lat="45.4697167" lon="10.503445"><ele>131.0</ele><time>2026-03-22T10:32:57.749Z</time></trkpt><trkpt lat="45.4697617" lon="10.5033283"><ele>129.0</ele><time>2026-03-22T10:32:59.748Z</time></trkpt><trkpt lat="45.4698083" lon="10.5032133"><ele>127.0</ele><time>2026-03-22T10:33:01.746Z</time></trkpt><trkpt lat="45.46985" lon="10.503105"><ele>127.0</ele><time>2026-03-22T10:33:03.742Z</time></trkpt><trkpt lat="45.469895" lon="10.5030017"><ele>126.99999999999999</ele><time>2026-03-22T10:33:05.748Z</time></trkpt><trkpt lat="45.469935" lon="10.50289"><ele>126.99999999999999</ele><time>2026-03-22T10:33:07.749Z</time></trkpt><trkpt lat="45.4699867" lon="10.5027783"><ele>127.0</ele><time>2026-03-22T10:33:09.744Z</time></trkpt><trkpt lat="45.4700483" lon="10.5026583"><ele>127.0</ele><time>2026-03-22T10:33:11.753Z</time></trkpt><trkpt lat="45.470105" lon="10.5025467"><ele>128.5</ele><time>2026-03-22T10:33:13.756Z</time></trkpt><trkpt lat="45.4701583" lon="10.5024233"><ele>130.0</ele><time>2026-03-22T10:33:15.746Z</time></trkpt><trkpt lat="45.4702017" lon="10.502305"><ele>131.5</ele><time>2026-03-22T10:33:17.746Z</time></trkpt><trkpt lat="45.470235" lon="10.5021933"><ele>133.0</ele><time>2026-03-22T10:33:20.757Z</time></trkpt><trkpt lat="45.4702533" lon="10.5020983"><ele>134.5</ele><time>2026-03-22T10:33:28.752Z</time></trkpt><trkpt lat="45.47027" lon="10.502005"><ele>136.0</ele><time>2026-03-22T10:33:31.753Z</time></trkpt><trkpt lat="45.4702933" lon="10.501915"><ele>135.83333333333334</ele><time>2026-03-22T10:33:35.748Z</time></trkpt><trkpt lat="45.47032" lon="10.5018117"><ele>135.66666666666669</ele><time>2026-03-22T10:33:38.754Z</time></trkpt><trkpt lat="45.4703467" lon="10.50171"><ele>135.5</ele><time>2026-03-22T10:33:41.746Z</time></trkpt><trkpt lat="45.4703933" lon="10.501595"><ele>135.33333333333334</ele><time>2026-03-22T10:33:44.754Z</time></trkpt><trkpt lat="45.4704717" lon="10.5015417"><ele>135.16666666666666</ele><time>2026-03-22T10:33:47.746Z</time></trkpt><trkpt lat="45.4705367" lon="10.50152"><ele>135.0</ele><time>2026-03-22T10:33:49.746Z</time></trkpt><trkpt lat="45.4706283" lon="10.5014733"><ele>135.0</ele><time>2026-03-22T10:33:51.748Z</time></trkpt><trkpt lat="45.47073" lon="10.5014233"><ele>135.0</ele><time>2026-03-22T10:33:53.748Z</time></trkpt><trkpt lat="45.4708133" lon="10.5013917"><ele>135.0</ele><time>2026-03-22T10:33:55.748Z</time></trkpt><trkpt lat="45.4709017" lon="10.5013717"><ele>135.0</ele><time>2026-03-22T10:33:57.743Z</time></trkpt><trkpt lat="45.470985" lon="10.5013167"><ele>135.0</ele><time>2026-03-22T10:33:59.75Z</time></trkpt><trkpt lat="45.47106" lon="10.5012983"><ele>135.0</ele><time>2026-03-22T10:34:01.747Z</time></trkpt><trkpt lat="45.4711417" lon="10.501265"><ele>135.0</ele><time>2026-03-22T10:34:03.744Z</time></trkpt><trkpt lat="45.471225" lon="10.5012233"><ele>135.0</ele><time>2026-03-22T10:34:04.745Z</time></trkpt><trkpt lat="45.4713267" lon="10.5011117"><ele>135.0</ele><time>2026-03-22T10:34:06.745Z</time></trkpt><trkpt lat="45.4713767" lon="10.5010483"><ele>135.0</ele><time>2026-03-22T10:34:07.756Z</time></trkpt><trkpt lat="45.47147" lon="10.5009367"><ele>134.5</ele><time>2026-03-22T10:34:09.755Z</time></trkpt><trkpt lat="45.4715567" lon="10.50082"><ele>134.0</ele><time>2026-03-22T10:34:11.746Z</time></trkpt><trkpt lat="45.471635" lon="10.500695"><ele>133.5</ele><time>2026-03-22T10:34:13.752Z</time></trkpt><trkpt lat="45.4717083" lon="10.5005667"><ele>133.0</ele><time>2026-03-22T10:34:15.758Z</time></trkpt><trkpt lat="45.4717867" lon="10.5004533"><ele>132.8</ele><time>2026-03-22T10:34:17.754Z</time></trkpt><trkpt lat="45.47187" lon="10.5003517"><ele>132.60000000000002</ele><time>2026-03-22T10:34:19.754Z</time></trkpt><trkpt lat="45.471955" lon="10.500255"><ele>132.39999999999998</ele><time>2026-03-22T10:34:21.755Z</time></trkpt><trkpt lat="45.4720467" lon="10.500155"><ele>132.2</ele><time>2026-03-22T10:34:23.756Z</time></trkpt><trkpt lat="45.4721267" lon="10.5000467"><ele>132.0</ele><time>2026-03-22T10:34:25.756Z</time></trkpt><trkpt lat="45.4721933" lon="10.49993"><ele>132.79999999999998</ele><time>2026-03-22T10:34:27.757Z</time></trkpt><trkpt lat="45.47226" lon="10.49981"><ele>133.6</ele><time>2026-03-22T10:34:29.754Z</time></trkpt><trkpt lat="45.47232" lon="10.4997"><ele>134.39999999999998</ele><time>2026-03-22T10:34:31.753Z</time></trkpt><trkpt lat="45.4723833" lon="10.499605"><ele>135.2</ele><time>2026-03-22T10:34:33.754Z</time></trkpt><trkpt lat="45.4724517" lon="10.4995283"><ele>136.0</ele><time>2026-03-22T10:34:35.746Z</time></trkpt><trkpt lat="45.472525" lon="10.4994617"><ele>136.0</ele><time>2026-03-22T10:34:37.753Z</time></trkpt><trkpt lat="45.4725983" lon="10.4994083"><ele>136.0</ele><time>2026-03-22T10:34:39.755Z</time></trkpt><trkpt lat="45.4726767" lon="10.499335"><ele>136.0</ele><time>2026-03-22T10:34:41.737Z</time></trkpt><trkpt lat="45.4727567" lon="10.4992167"><ele>136.0</ele><time>2026-03-22T10:34:43.747Z</time></trkpt><trkpt lat="45.4728217" lon="10.4990733"><ele>136.0</ele><time>2026-03-22T10:34:45.748Z</time></trkpt><trkpt lat="45.472865" lon="10.4989217"><ele>136.0</ele><time>2026-03-22T10:34:47.757Z</time></trkpt><trkpt lat="45.4728967" lon="10.4987767"><ele>136.0</ele><time>2026-03-22T10:34:49.747Z</time></trkpt><trkpt lat="45.47293" lon="10.4986317"><ele>136.0</ele><time>2026-03-22T10:34:51.747Z</time></trkpt><trkpt lat="45.472985" lon="10.4984983"><ele>136.0</ele><time>2026-03-22T10:34:53.752Z</time></trkpt><trkpt lat="45.4730567" lon="10.4984"><ele>136.0</ele><time>2026-03-22T10:34:55.756Z</time></trkpt><trkpt lat="45.47312" lon="10.4983067"><ele>136.16666666666669</ele><time>2026-03-22T10:34:57.744Z</time></trkpt><trkpt lat="45.4731833" lon="10.4982117"><ele>136.33333333333334</ele><time>2026-03-22T10:34:59.752Z</time></trkpt><trkpt lat="45.47325" lon="10.4981233"><ele>136.5</ele><time>2026-03-22T10:35:01.754Z</time></trkpt><trkpt lat="45.473315" lon="10.4980683"><ele>136.66666666666666</ele><time>2026-03-22T10:35:03.756Z</time></trkpt><trkpt lat="45.473375" lon="10.498015"><ele>136.83333333333331</ele><time>2026-03-22T10:35:05.745Z</time></trkpt><trkpt lat="45.4734417" lon="10.4979433"><ele>137.0</ele><time>2026-03-22T10:35:07.748Z</time></trkpt><trkpt lat="45.4735067" lon="10.49785"><ele>137.0</ele><time>2026-03-22T10:35:09.751Z</time></trkpt><trkpt lat="45.4735617" lon="10.497765"><ele>137.0</ele><time>2026-03-22T10:35:11.753Z</time></trkpt><trkpt lat="45.47363" lon="10.4976833"><ele>137.0</ele><time>2026-03-22T10:35:13.747Z</time></trkpt><trkpt lat="45.4737033" lon="10.4976017"><ele>137.0</ele><time>2026-03-22T10:35:15.753Z</time></trkpt><trkpt lat="45.47378" lon="10.4975267"><ele>137.0</ele><time>2026-03-22T10:35:17.745Z</time></trkpt><trkpt lat="45.47385" lon="10.4974367"><ele>137.0</ele><time>2026-03-22T10:35:19.755Z</time></trkpt><trkpt lat="45.4739317" lon="10.4973433"><ele>137.0</ele><time>2026-03-22T10:35:21.744Z</time></trkpt><trkpt lat="45.4740117" lon="10.4972333"><ele>137.0</ele><time>2026-03-22T10:35:23.755Z</time></trkpt><trkpt lat="45.4740917" lon="10.497125"><ele>137.0</ele><time>2026-03-22T10:35:25.755Z</time></trkpt><trkpt lat="45.47416" lon="10.49702"><ele>137.0</ele><time>2026-03-22T10:35:27.747Z</time></trkpt><trkpt lat="45.474235" lon="10.4969383"><ele>137.0</ele><time>2026-03-22T10:35:29.747Z</time></trkpt><trkpt lat="45.47432" lon="10.49686"><ele>137.0</ele><time>2026-03-22T10:35:31.755Z</time></trkpt><trkpt lat="45.474415" lon="10.496785"><ele>137.0</ele><time>2026-03-22T10:35:33.755Z</time></trkpt><trkpt lat="45.4744933" lon="10.496745"><ele>137.0</ele><time>2026-03-22T10:35:35.755Z</time></trkpt><trkpt lat="45.474555" lon="10.4967"><ele>137.0</ele><time>2026-03-22T10:35:37.748Z</time></trkpt><trkpt lat="45.47462" lon="10.4966783"><ele>137.0</ele><time>2026-03-22T10:35:39.749Z</time></trkpt><trkpt lat="45.4747167" lon="10.4966483"><ele>137.0</ele><time>2026-03-22T10:35:41.75Z</time></trkpt><trkpt lat="45.4747983" lon="10.496625"><ele>137.0</ele><time>2026-03-22T10:35:43.745Z</time></trkpt><trkpt lat="45.4748817" lon="10.496605"><ele>137.0</ele><time>2026-03-22T10:35:45.745Z</time></trkpt><trkpt lat="45.4749733" lon="10.4965917"><ele>137.0</ele><time>2026-03-22T10:35:47.75Z</time></trkpt><trkpt lat="45.4750717" lon="10.4965833"><ele>137.0</ele><time>2026-03-22T10:35:49.75Z</time></trkpt><trkpt lat="45.4751833" lon="10.496555"><ele>137.0</ele><time>2026-03-22T10:35:51.744Z</time></trkpt><trkpt lat="45.47529" lon="10.4965317"><ele>137.0</ele><time>2026-03-22T10:35:53.747Z</time></trkpt><trkpt lat="45.4753833" lon="10.4965133"><ele>137.0</ele><time>2026-03-22T10:35:55.75Z</time></trkpt><trkpt lat="45.47547" lon="10.4964883"><ele>137.0</ele><time>2026-03-22T10:35:57.756Z</time></trkpt><trkpt lat="45.4755617" lon="10.4964583"><ele>137.0</ele><time>2026-03-22T10:35:59.748Z</time></trkpt><trkpt lat="45.4756433" lon="10.4963933"><ele>137.0</ele><time>2026-03-22T10:36:01.746Z</time></trkpt><trkpt lat="45.4757" lon="10.4962967"><ele>137.0</ele><time>2026-03-22T10:36:03.752Z</time></trkpt><trkpt lat="45.47572" lon="10.4962083"><ele>137.0</ele><time>2026-03-22T10:36:05.751Z</time></trkpt><trkpt lat="45.4757283" lon="10.4960767"><ele>137.0</ele><time>2026-03-22T10:36:08.749Z</time></trkpt><trkpt lat="45.475725" lon="10.4959417"><ele>137.0</ele><time>2026-03-22T10:36:11.754Z</time></trkpt><trkpt lat="45.475725" lon="10.4958517"><ele>137.0</ele><time>2026-03-22T10:36:13.752Z</time></trkpt><trkpt lat="45.47573" lon="10.4957617"><ele>137.14285714285717</ele><time>2026-03-22T10:36:15.746Z</time></trkpt><trkpt lat="45.47573" lon="10.4956667"><ele>137.28571428571428</ele><time>2026-03-22T10:36:17.746Z</time></trkpt><trkpt lat="45.4757317" lon="10.495555"><ele>137.42857142857144</ele><time>2026-03-22T10:36:19.752Z</time></trkpt><trkpt lat="45.4757283" lon="10.4954467"><ele>137.57142857142858</ele><time>2026-03-22T10:36:21.751Z</time></trkpt><trkpt lat="45.475725" lon="10.495355"><ele>137.71428571428572</ele><time>2026-03-22T10:36:23.746Z</time></trkpt><trkpt lat="45.47572" lon="10.495265"><ele>137.85714285714286</ele><time>2026-03-22T10:36:25.748Z</time></trkpt><trkpt lat="45.47571" lon="10.4951733"><ele>138.0</ele><time>2026-03-22T10:36:27.749Z</time></trkpt><trkpt lat="45.4757" lon="10.4950833"><ele>138.5</ele><time>2026-03-22T10:36:29.752Z</time></trkpt><trkpt lat="45.4756883" lon="10.4949917"><ele>139.0</ele><time>2026-03-22T10:36:31.745Z</time></trkpt><trkpt lat="45.47567" lon="10.494885"><ele>139.5</ele><time>2026-03-22T10:36:33.752Z</time></trkpt><trkpt lat="45.475665" lon="10.4947733"><ele>140.0</ele><time>2026-03-22T10:36:35.751Z</time></trkpt><trkpt lat="45.4756733" lon="10.4946733"><ele>140.5</ele><time>2026-03-22T10:36:38.748Z</time></trkpt><trkpt lat="45.475665" lon="10.4947867"><ele>141.0</ele><time>2026-03-22T10:36:46.746Z</time></trkpt><trkpt lat="45.4756783" lon="10.4949183"><ele>141.0</ele><time>2026-03-22T10:36:48.749Z</time></trkpt><trkpt lat="45.4757" lon="10.4950483"><ele>141.0</ele><time>2026-03-22T10:36:50.76Z</time></trkpt><trkpt lat="45.4757017" lon="10.4951967"><ele>141.0</ele><time>2026-03-22T10:36:52.748Z</time></trkpt><trkpt lat="45.4757117" lon="10.4953217"><ele>141.0</ele><time>2026-03-22T10:36:54.744Z</time></trkpt><trkpt lat="45.4757217" lon="10.495475"><ele>141.0</ele><time>2026-03-22T10:36:56.754Z</time></trkpt><trkpt lat="45.47572" lon="10.495655"><ele>140.4</ele><time>2026-03-22T10:36:58.754Z</time></trkpt><trkpt lat="45.47573" lon="10.4958083"><ele>139.8</ele><time>2026-03-22T10:37:00.756Z</time></trkpt><trkpt lat="45.4757367" lon="10.49596"><ele>139.20000000000002</ele><time>2026-03-22T10:37:02.757Z</time></trkpt><trkpt lat="45.4757483" lon="10.496095"><ele>138.6</ele><time>2026-03-22T10:37:04.75Z</time></trkpt><trkpt lat="45.47576" lon="10.4962167"><ele>138.0</ele><time>2026-03-22T10:37:06.747Z</time></trkpt><trkpt lat="45.47578" lon="10.4963467"><ele>137.8</ele><time>2026-03-22T10:37:08.753Z</time></trkpt><trkpt lat="45.4758267" lon="10.496475"><ele>137.60000000000002</ele><time>2026-03-22T10:37:10.754Z</time></trkpt><trkpt lat="45.475885" lon="10.49661"><ele>137.39999999999998</ele><time>2026-03-22T10:37:12.749Z</time></trkpt><trkpt lat="45.4759233" lon="10.4967483"><ele>137.2</ele><time>2026-03-22T10:37:14.758Z</time></trkpt><trkpt lat="45.47592" lon="10.4969"><ele>137.0</ele><time>2026-03-22T10:37:16.753Z</time></trkpt><trkpt lat="45.4759017" lon="10.4970167"><ele>137.0</ele><time>2026-03-22T10:37:18.743Z</time></trkpt><trkpt lat="45.4759233" lon="10.4969117"><ele>137.0</ele><time>2026-03-22T10:37:32.752Z</time></trkpt><trkpt lat="45.4759167" lon="10.496785"><ele>137.0</ele><time>2026-03-22T10:37:35.744Z</time></trkpt><trkpt lat="45.475895" lon="10.4966833"><ele>137.0</ele><time>2026-03-22T10:37:37.754Z</time></trkpt><trkpt lat="45.475865" lon="10.49659"><ele>137.0</ele><time>2026-03-22T10:37:39.75Z</time></trkpt><trkpt lat="45.47583" lon="10.496495"><ele>137.0</ele><time>2026-03-22T10:37:41.744Z</time></trkpt><trkpt lat="45.4758" lon="10.4964"><ele>137.0</ele><time>2026-03-22T10:37:43.748Z</time></trkpt><trkpt lat="45.475785" lon="10.4963067"><ele>137.0</ele><time>2026-03-22T10:37:45.749Z</time></trkpt><trkpt lat="45.475785" lon="10.496205"><ele>137.0</ele><time>2026-03-22T10:37:47.753Z</time></trkpt><trkpt lat="45.4757767" lon="10.4961067"><ele>137.0</ele><time>2026-03-22T10:37:49.744Z</time></trkpt><trkpt lat="45.475765" lon="10.4960033"><ele>137.0</ele><time>2026-03-22T10:37:51.753Z</time></trkpt><trkpt lat="45.4757567" lon="10.4958783"><ele>137.0</ele><time>2026-03-22T10:37:53.752Z</time></trkpt><trkpt lat="45.47574" lon="10.4957567"><ele>137.2</ele><time>2026-03-22T10:37:55.754Z</time></trkpt><trkpt lat="45.475735" lon="10.4956183"><ele>137.39999999999998</ele><time>2026-03-22T10:37:57.745Z</time></trkpt><trkpt lat="45.4757267" lon="10.49547"><ele>137.60000000000002</ele><time>2026-03-22T10:37:59.748Z</time></trkpt><trkpt lat="45.4757117" lon="10.4953283"><ele>137.8</ele><time>2026-03-22T10:38:01.748Z</time></trkpt><trkpt lat="45.4757017" lon="10.4952083"><ele>138.0</ele><time>2026-03-22T10:38:03.746Z</time></trkpt><trkpt lat="45.4756917" lon="10.4950833"><ele>138.5</ele><time>2026-03-22T10:38:05.746Z</time></trkpt><trkpt lat="45.475695" lon="10.494965"><ele>139.0</ele><time>2026-03-22T10:38:07.752Z</time></trkpt><trkpt lat="45.4756883" lon="10.49484"><ele>139.5</ele><time>2026-03-22T10:38:09.745Z</time></trkpt><trkpt lat="45.4756817" lon="10.4947217"><ele>140.0</ele><time>2026-03-22T10:38:11.745Z</time></trkpt><trkpt lat="45.4756783" lon="10.4945983"><ele>140.5</ele><time>2026-03-22T10:38:13.745Z</time></trkpt><trkpt lat="45.4756617" lon="10.4944767"><ele>141.0</ele><time>2026-03-22T10:38:15.752Z</time></trkpt><trkpt lat="45.475635" lon="10.49439"><ele>142.0</ele><time>2026-03-22T10:38:17.749Z</time></trkpt><trkpt lat="45.4756167" lon="10.494295"><ele>143.0</ele><time>2026-03-22T10:38:19.745Z</time></trkpt><trkpt lat="45.4756067" lon="10.4941883"><ele>144.0</ele><time>2026-03-22T10:38:21.743Z</time></trkpt><trkpt lat="45.4755683" lon="10.4940967"><ele>145.0</ele><time>2026-03-22T10:38:23.751Z</time></trkpt><trkpt lat="45.47554" lon="10.494015"><ele>146.0</ele><time>2026-03-22T10:38:25.758Z</time></trkpt><trkpt lat="45.475515" lon="10.4939283"><ele>147.0</ele><time>2026-03-22T10:38:27.747Z</time></trkpt><trkpt lat="45.4754967" lon="10.49382"><ele>148.0</ele><time>2026-03-22T10:38:29.747Z</time></trkpt><trkpt lat="45.4754967" lon="10.4937233"><ele>148.28571428571428</ele><time>2026-03-22T10:38:31.749Z</time></trkpt><trkpt lat="45.4755017" lon="10.493625"><ele>148.57142857142856</ele><time>2026-03-22T10:38:33.752Z</time></trkpt><trkpt lat="45.4755133" lon="10.4935283"><ele>148.85714285714283</ele><time>2026-03-22T10:38:35.747Z</time></trkpt><trkpt lat="45.4755233" lon="10.4934167"><ele>149.14285714285714</ele><time>2026-03-22T10:38:38.754Z</time></trkpt><trkpt lat="45.47554" lon="10.4933017"><ele>149.42857142857142</ele><time>2026-03-22T10:38:43.746Z</time></trkpt><trkpt lat="45.475535" lon="10.4932067"><ele>149.7142857142857</ele><time>2026-03-22T10:38:46.749Z</time></trkpt><trkpt lat="45.4755" lon="10.4931217"><ele>150.0</ele><time>2026-03-22T10:38:49.751Z</time></trkpt><trkpt lat="45.4754317" lon="10.4930483"><ele>150.28571428571428</ele><time>2026-03-22T10:38:52.745Z</time></trkpt><trkpt lat="45.4753717" lon="10.4930033"><ele>150.57142857142856</ele><time>2026-03-22T10:38:54.754Z</time></trkpt><trkpt lat="45.4753117" lon="10.4929567"><ele>150.85714285714283</ele><time>2026-03-22T10:38:56.752Z</time></trkpt><trkpt lat="45.4752483" lon="10.4929117"><ele>151.14285714285714</ele><time>2026-03-22T10:38:58.744Z</time></trkpt><trkpt lat="45.47519" lon="10.4928583"><ele>151.42857142857144</ele><time>2026-03-22T10:39:00.746Z</time></trkpt><trkpt lat="45.4751333" lon="10.492805"><ele>151.7142857142857</ele><time>2026-03-22T10:39:02.754Z</time></trkpt><trkpt lat="45.47505" lon="10.492735"><ele>152.0</ele><time>2026-03-22T10:39:05.745Z</time></trkpt><trkpt lat="45.4749783" lon="10.4926883"><ele>152.16666666666666</ele><time>2026-03-22T10:39:07.745Z</time></trkpt><trkpt lat="45.47491" lon="10.4926567"><ele>152.33333333333331</ele><time>2026-03-22T10:39:09.755Z</time></trkpt><trkpt lat="45.4748367" lon="10.49263"><ele>152.5</ele><time>2026-03-22T10:39:11.751Z</time></trkpt><trkpt lat="45.4747483" lon="10.4925667"><ele>152.66666666666666</ele><time>2026-03-22T10:39:14.745Z</time></trkpt><trkpt lat="45.474675" lon="10.4925167"><ele>152.83333333333334</ele><time>2026-03-22T10:39:16.745Z</time></trkpt><trkpt lat="45.4745817" lon="10.4924633"><ele>153.0</ele><time>2026-03-22T10:39:18.756Z</time></trkpt><trkpt lat="45.4744917" lon="10.4924117"><ele>153.0</ele><time>2026-03-22T10:39:20.752Z</time></trkpt><trkpt lat="45.4744133" lon="10.4923617"><ele>153.0</ele><time>2026-03-22T10:39:22.745Z</time></trkpt><trkpt lat="45.47433" lon="10.4923133"><ele>153.0</ele><time>2026-03-22T10:39:24.749Z</time></trkpt><trkpt lat="45.47424" lon="10.4922633"><ele>153.0</ele><time>2026-03-22T10:39:26.758Z</time></trkpt><trkpt lat="45.4741483" lon="10.4922133"><ele>153.0</ele><time>2026-03-22T10:39:28.745Z</time></trkpt><trkpt lat="45.47406" lon="10.4921617"><ele>153.0</ele><time>2026-03-22T10:39:30.746Z</time></trkpt><trkpt lat="45.4739583" lon="10.4921117"><ele>153.0</ele><time>2026-03-22T10:39:32.74Z</time></trkpt><trkpt lat="45.4738633" lon="10.49206"><ele>153.0</ele><time>2026-03-22T10:39:34.746Z</time></trkpt><trkpt lat="45.4737783" lon="10.4920133"><ele>153.0</ele><time>2026-03-22T10:39:36.745Z</time></trkpt><trkpt lat="45.4736933" lon="10.4919683"><ele>153.0</ele><time>2026-03-22T10:39:38.746Z</time></trkpt><trkpt lat="45.4736233" lon="10.4919217"><ele>153.16666666666666</ele><time>2026-03-22T10:39:40.747Z</time></trkpt><trkpt lat="45.47356" lon="10.4918883"><ele>153.33333333333334</ele><time>2026-03-22T10:39:42.754Z</time></trkpt><trkpt lat="45.47348" lon="10.49184"><ele>153.5</ele><time>2026-03-22T10:39:45.746Z</time></trkpt><trkpt lat="45.4733983" lon="10.4918017"><ele>153.66666666666669</ele><time>2026-03-22T10:39:47.746Z</time></trkpt><trkpt lat="45.4733033" lon="10.4917567"><ele>153.83333333333334</ele><time>2026-03-22T10:39:49.751Z</time></trkpt><trkpt lat="45.473215" lon="10.49171"><ele>154.0</ele><time>2026-03-22T10:39:51.755Z</time></trkpt><trkpt lat="45.4731317" lon="10.4916683"><ele>154.0</ele><time>2026-03-22T10:39:53.747Z</time></trkpt><trkpt lat="45.4730267" lon="10.4916333"><ele>154.0</ele><time>2026-03-22T10:39:55.746Z</time></trkpt><trkpt lat="45.472915" lon="10.49159"><ele>154.0</ele><time>2026-03-22T10:39:57.757Z</time></trkpt><trkpt lat="45.4728067" lon="10.4915517"><ele>154.0</ele><time>2026-03-22T10:39:59.75Z</time></trkpt><trkpt lat="45.4727117" lon="10.4915083"><ele>154.0</ele><time>2026-03-22T10:40:01.747Z</time></trkpt><trkpt lat="45.4726133" lon="10.49146"><ele>153.6</ele><time>2026-03-22T10:40:03.746Z</time></trkpt><trkpt lat="45.472505" lon="10.4914083"><ele>153.2</ele><time>2026-03-22T10:40:05.756Z</time></trkpt><trkpt lat="45.4723967" lon="10.49136"><ele>152.79999999999998</ele><time>2026-03-22T10:40:07.754Z</time></trkpt><trkpt lat="45.47233" lon="10.49134"><ele>152.4</ele><time>2026-03-22T10:40:08.759Z</time></trkpt><trkpt lat="45.4722183" lon="10.4912967"><ele>152.0</ele><time>2026-03-22T10:40:10.756Z</time></trkpt><trkpt lat="45.4721067" lon="10.4912483"><ele>152.4</ele><time>2026-03-22T10:40:12.757Z</time></trkpt><trkpt lat="45.4719983" lon="10.4912083"><ele>152.79999999999998</ele><time>2026-03-22T10:40:14.757Z</time></trkpt><trkpt lat="45.4718967" lon="10.49117"><ele>153.2</ele><time>2026-03-22T10:40:16.754Z</time></trkpt><trkpt lat="45.4717917" lon="10.49113"><ele>153.6</ele><time>2026-03-22T10:40:18.755Z</time></trkpt><trkpt lat="45.471685" lon="10.49108"><ele>154.0</ele><time>2026-03-22T10:40:20.755Z</time></trkpt><trkpt lat="45.47158" lon="10.491035"><ele>154.0</ele><time>2026-03-22T10:40:22.754Z</time></trkpt><trkpt lat="45.471475" lon="10.4910017"><ele>154.0</ele><time>2026-03-22T10:40:24.757Z</time></trkpt><trkpt lat="45.4713783" lon="10.490965"><ele>154.0</ele><time>2026-03-22T10:40:26.758Z</time></trkpt><trkpt lat="45.47129" lon="10.4909267"><ele>154.0</ele><time>2026-03-22T10:40:28.752Z</time></trkpt><trkpt lat="45.4711933" lon="10.49088"><ele>154.0</ele><time>2026-03-22T10:40:30.756Z</time></trkpt><trkpt lat="45.47109" lon="10.49083"><ele>154.4</ele><time>2026-03-22T10:40:32.755Z</time></trkpt><trkpt lat="45.4709867" lon="10.4907883"><ele>154.8</ele><time>2026-03-22T10:40:34.748Z</time></trkpt><trkpt lat="45.4708933" lon="10.4907483"><ele>155.2</ele><time>2026-03-22T10:40:36.756Z</time></trkpt><trkpt lat="45.4707967" lon="10.4907"><ele>155.6</ele><time>2026-03-22T10:40:38.754Z</time></trkpt><trkpt lat="45.4707083" lon="10.4906567"><ele>156.0</ele><time>2026-03-22T10:40:40.749Z</time></trkpt><trkpt lat="45.4706167" lon="10.4906167"><ele>156.0</ele><time>2026-03-22T10:40:42.751Z</time></trkpt><trkpt lat="45.4705183" lon="10.4905783"><ele>156.0</ele><time>2026-03-22T10:40:44.759Z</time></trkpt><trkpt lat="45.4704283" lon="10.490535"><ele>156.0</ele><time>2026-03-22T10:40:46.755Z</time></trkpt><trkpt lat="45.4703367" lon="10.4904983"><ele>156.0</ele><time>2026-03-22T10:40:48.755Z</time></trkpt><trkpt lat="45.47025" lon="10.490465"><ele>156.0</ele><time>2026-03-22T10:40:50.751Z</time></trkpt><trkpt lat="45.4701617" lon="10.49042"><ele>156.6</ele><time>2026-03-22T10:40:52.754Z</time></trkpt><trkpt lat="45.4700683" lon="10.4903783"><ele>157.2</ele><time>2026-03-22T10:40:54.758Z</time></trkpt><trkpt lat="45.4699783" lon="10.4903417"><ele>157.8</ele><time>2026-03-22T10:40:56.756Z</time></trkpt><trkpt lat="45.46989" lon="10.490295"><ele>158.4</ele><time>2026-03-22T10:40:58.746Z</time></trkpt><trkpt lat="45.4697883" lon="10.4902517"><ele>159.0</ele><time>2026-03-22T10:41:00.751Z</time></trkpt><trkpt lat="45.469685" lon="10.4902067"><ele>159.4</ele><time>2026-03-22T10:41:02.755Z</time></trkpt><trkpt lat="45.4695767" lon="10.4901833"><ele>159.8</ele><time>2026-03-22T10:41:04.757Z</time></trkpt><trkpt lat="45.4694833" lon="10.490145"><ele>160.20000000000002</ele><time>2026-03-22T10:41:06.747Z</time></trkpt><trkpt lat="45.46939" lon="10.4900933"><ele>160.60000000000002</ele><time>2026-03-22T10:41:08.758Z</time></trkpt><trkpt lat="45.4693067" lon="10.490045"><ele>161.0</ele><time>2026-03-22T10:41:10.755Z</time></trkpt><trkpt lat="45.4692233" lon="10.4899983"><ele>161.0</ele><time>2026-03-22T10:41:12.75Z</time></trkpt><trkpt lat="45.4691417" lon="10.48996"><ele>161.0</ele><time>2026-03-22T10:41:14.748Z</time></trkpt><trkpt lat="45.469055" lon="10.489925"><ele>161.0</ele><time>2026-03-22T10:41:16.751Z</time></trkpt><trkpt lat="45.468985" lon="10.489895"><ele>161.0</ele><time>2026-03-22T10:41:18.759Z</time></trkpt><trkpt lat="45.4689183" lon="10.48985"><ele>161.0</ele><time>2026-03-22T10:41:20.754Z</time></trkpt><trkpt lat="45.4688483" lon="10.48981"><ele>161.0</ele><time>2026-03-22T10:41:22.749Z</time></trkpt><trkpt lat="45.4687667" lon="10.4897767"><ele>161.66666666666666</ele><time>2026-03-22T10:41:24.754Z</time></trkpt><trkpt lat="45.468685" lon="10.4897417"><ele>162.33333333333331</ele><time>2026-03-22T10:41:26.759Z</time></trkpt><trkpt lat="45.468615" lon="10.4897083"><ele>163.0</ele><time>2026-03-22T10:41:28.749Z</time></trkpt><trkpt lat="45.4685433" lon="10.4896667"><ele>163.66666666666666</ele><time>2026-03-22T10:41:30.744Z</time></trkpt><trkpt lat="45.468465" lon="10.4896267"><ele>164.33333333333334</ele><time>2026-03-22T10:41:32.754Z</time></trkpt><trkpt lat="45.4683633" lon="10.489605"><ele>165.0</ele><time>2026-03-22T10:41:34.75Z</time></trkpt><trkpt lat="45.468275" lon="10.4895633"><ele>165.6</ele><time>2026-03-22T10:41:36.749Z</time></trkpt><trkpt lat="45.4681867" lon="10.4895183"><ele>166.2</ele><time>2026-03-22T10:41:38.746Z</time></trkpt><trkpt lat="45.4680983" lon="10.4894683"><ele>166.8</ele><time>2026-03-22T10:41:40.75Z</time></trkpt><trkpt lat="45.4680033" lon="10.4894183"><ele>167.4</ele><time>2026-03-22T10:41:42.749Z</time></trkpt><trkpt lat="45.46791" lon="10.4893717"><ele>168.0</ele><time>2026-03-22T10:41:44.749Z</time></trkpt><trkpt lat="45.4678033" lon="10.48933"><ele>168.0</ele><time>2026-03-22T10:41:46.754Z</time></trkpt><trkpt lat="45.4676967" lon="10.4892867"><ele>168.0</ele><time>2026-03-22T10:41:48.755Z</time></trkpt><trkpt lat="45.4675917" lon="10.4892483"><ele>168.0</ele><time>2026-03-22T10:41:50.758Z</time></trkpt><trkpt lat="45.4674783" lon="10.489205"><ele>168.0</ele><time>2026-03-22T10:41:52.755Z</time></trkpt><trkpt lat="45.4673667" lon="10.4891583"><ele>168.0</ele><time>2026-03-22T10:41:54.757Z</time></trkpt><trkpt lat="45.4672517" lon="10.4891217"><ele>168.0</ele><time>2026-03-22T10:41:56.758Z</time></trkpt><trkpt lat="45.46718" lon="10.48911"><ele>168.0</ele><time>2026-03-22T10:41:57.756Z</time></trkpt><trkpt lat="45.4671117" lon="10.4890967"><ele>168.0</ele><time>2026-03-22T10:41:58.754Z</time></trkpt><trkpt lat="45.4670467" lon="10.4890817"><ele>168.0</ele><time>2026-03-22T10:41:59.757Z</time></trkpt><trkpt lat="45.466985" lon="10.4890617"><ele>168.0</ele><time>2026-03-22T10:42:00.766Z</time></trkpt><trkpt lat="45.4668667" lon="10.4890167"><ele>167.66666666666666</ele><time>2026-03-22T10:42:02.759Z</time></trkpt><trkpt lat="45.466805" lon="10.4889967"><ele>167.33333333333334</ele><time>2026-03-22T10:42:03.752Z</time></trkpt><trkpt lat="45.4666817" lon="10.4889683"><ele>167.0</ele><time>2026-03-22T10:42:05.754Z</time></trkpt><trkpt lat="45.4666167" lon="10.4889567"><ele>166.66666666666669</ele><time>2026-03-22T10:42:06.759Z</time></trkpt><trkpt lat="45.4665483" lon="10.488955"><ele>166.33333333333334</ele><time>2026-03-22T10:42:07.755Z</time></trkpt><trkpt lat="45.4664317" lon="10.4889283"><ele>166.0</ele><time>2026-03-22T10:42:09.758Z</time></trkpt><trkpt lat="45.4663083" lon="10.4889033"><ele>164.60000000000002</ele><time>2026-03-22T10:42:11.756Z</time></trkpt><trkpt lat="45.466185" lon="10.4888867"><ele>163.20000000000002</ele><time>2026-03-22T10:42:13.754Z</time></trkpt><trkpt lat="45.4660617" lon="10.4888567"><ele>161.8</ele><time>2026-03-22T10:42:15.739Z</time></trkpt><trkpt lat="45.4659983" lon="10.48884"><ele>160.4</ele><time>2026-03-22T10:42:16.745Z</time></trkpt><trkpt lat="45.465925" lon="10.4888217"><ele>159.0</ele><time>2026-03-22T10:42:17.747Z</time></trkpt><trkpt lat="45.46586" lon="10.4888033"><ele>159.0</ele><time>2026-03-22T10:42:18.758Z</time></trkpt><trkpt lat="45.46579" lon="10.4887917"><ele>159.0</ele><time>2026-03-22T10:42:19.757Z</time></trkpt><trkpt lat="45.4657233" lon="10.4887833"><ele>159.0</ele><time>2026-03-22T10:42:20.758Z</time></trkpt><trkpt lat="45.4656017" lon="10.4887617"><ele>159.0</ele><time>2026-03-22T10:42:22.758Z</time></trkpt><trkpt lat="45.4654783" lon="10.4887417"><ele>159.0</ele><time>2026-03-22T10:42:24.753Z</time></trkpt><trkpt lat="45.46537" lon="10.48873"><ele>160.2</ele><time>2026-03-22T10:42:26.757Z</time></trkpt><trkpt lat="45.4652567" lon="10.488725"><ele>161.4</ele><time>2026-03-22T10:42:28.75Z</time></trkpt><trkpt lat="45.4651467" lon="10.4887217"><ele>162.6</ele><time>2026-03-22T10:42:30.753Z</time></trkpt><trkpt lat="45.4650517" lon="10.4887283"><ele>163.8</ele><time>2026-03-22T10:42:32.758Z</time></trkpt><trkpt lat="45.4649433" lon="10.4887483"><ele>165.0</ele><time>2026-03-22T10:42:34.748Z</time></trkpt><trkpt lat="45.4648383" lon="10.48877"><ele>165.0</ele><time>2026-03-22T10:42:36.752Z</time></trkpt><trkpt lat="45.4647217" lon="10.4887983"><ele>165.0</ele><time>2026-03-22T10:42:38.746Z</time></trkpt><trkpt lat="45.464605" lon="10.4888367"><ele>165.0</ele><time>2026-03-22T10:42:40.755Z</time></trkpt><trkpt lat="45.464495" lon="10.488885"><ele>165.0</ele><time>2026-03-22T10:42:42.755Z</time></trkpt><trkpt lat="45.4643917" lon="10.4889417"><ele>165.6</ele><time>2026-03-22T10:42:44.76Z</time></trkpt><trkpt lat="45.464285" lon="10.48901"><ele>166.2</ele><time>2026-03-22T10:42:46.752Z</time></trkpt><trkpt lat="45.4641817" lon="10.4890817"><ele>166.8</ele><time>2026-03-22T10:42:48.753Z</time></trkpt><trkpt lat="45.4640817" lon="10.4891467"><ele>167.4</ele><time>2026-03-22T10:42:50.761Z</time></trkpt><trkpt lat="45.4639867" lon="10.4892183"><ele>168.0</ele><time>2026-03-22T10:42:52.756Z</time></trkpt><trkpt lat="45.4638983" lon="10.4892917"><ele>168.0</ele><time>2026-03-22T10:42:54.752Z</time></trkpt><trkpt lat="45.4638" lon="10.4893617"><ele>168.0</ele><time>2026-03-22T10:42:56.758Z</time></trkpt><trkpt lat="45.4637" lon="10.4894417"><ele>168.0</ele><time>2026-03-22T10:42:58.757Z</time></trkpt><trkpt lat="45.463615" lon="10.4895217"><ele>168.0</ele><time>2026-03-22T10:43:00.756Z</time></trkpt><trkpt lat="45.46354" lon="10.4895933"><ele>168.0</ele><time>2026-03-22T10:43:02.757Z</time></trkpt><trkpt lat="45.4634617" lon="10.4896617"><ele>168.0</ele><time>2026-03-22T10:43:04.745Z</time></trkpt><trkpt lat="45.46338" lon="10.4897283"><ele>168.0</ele><time>2026-03-22T10:43:06.751Z</time></trkpt><trkpt lat="45.4632983" lon="10.4897917"><ele>168.0</ele><time>2026-03-22T10:43:08.753Z</time></trkpt><trkpt lat="45.4632183" lon="10.48986"><ele>168.0</ele><time>2026-03-22T10:43:10.746Z</time></trkpt><trkpt lat="45.4631167" lon="10.4899267"><ele>168.0</ele><time>2026-03-22T10:43:12.747Z</time></trkpt><trkpt lat="45.4630117" lon="10.4899983"><ele>168.2</ele><time>2026-03-22T10:43:14.758Z</time></trkpt><trkpt lat="45.46291" lon="10.490045"><ele>168.4</ele><time>2026-03-22T10:43:16.751Z</time></trkpt><trkpt lat="45.4628117" lon="10.4900817"><ele>168.6</ele><time>2026-03-22T10:43:18.755Z</time></trkpt><trkpt lat="45.4627117" lon="10.490105"><ele>168.79999999999998</ele><time>2026-03-22T10:43:20.759Z</time></trkpt><trkpt lat="45.4626283" lon="10.4901133"><ele>169.0</ele><time>2026-03-22T10:43:22.75Z</time></trkpt><trkpt lat="45.462545" lon="10.4900767"><ele>169.0</ele><time>2026-03-22T10:43:24.744Z</time></trkpt><trkpt lat="45.4624417" lon="10.489995"><ele>169.0</ele><time>2026-03-22T10:43:26.757Z</time></trkpt><trkpt lat="45.46236" lon="10.48997"><ele>169.0</ele><time>2026-03-22T10:43:27.748Z</time></trkpt><trkpt lat="45.4622867" lon="10.4899183"><ele>169.0</ele><time>2026-03-22T10:43:28.749Z</time></trkpt><trkpt lat="45.4622317" lon="10.4898667"><ele>169.0</ele><time>2026-03-22T10:43:29.752Z</time></trkpt><trkpt lat="45.4621467" lon="10.4897567"><ele>168.79999999999998</ele><time>2026-03-22T10:43:31.756Z</time></trkpt><trkpt lat="45.46208" lon="10.4896483"><ele>168.6</ele><time>2026-03-22T10:43:33.756Z</time></trkpt><trkpt lat="45.4620017" lon="10.4895633"><ele>168.4</ele><time>2026-03-22T10:43:35.756Z</time></trkpt><trkpt lat="45.4619267" lon="10.4894533"><ele>168.2</ele><time>2026-03-22T10:43:37.754Z</time></trkpt><trkpt lat="45.461855" lon="10.4893083"><ele>168.0</ele><time>2026-03-22T10:43:39.752Z</time></trkpt><trkpt lat="45.46182" lon="10.48923"><ele>168.0</ele><time>2026-03-22T10:43:40.754Z</time></trkpt><trkpt lat="45.4617817" lon="10.4891533"><ele>168.0</ele><time>2026-03-22T10:43:41.755Z</time></trkpt><trkpt lat="45.461745" lon="10.48908"><ele>168.0</ele><time>2026-03-22T10:43:42.755Z</time></trkpt><trkpt lat="45.4617067" lon="10.4890033"><ele>168.0</ele><time>2026-03-22T10:43:43.753Z</time></trkpt><trkpt lat="45.46165" lon="10.4888617"><ele>168.0</ele><time>2026-03-22T10:43:45.761Z</time></trkpt><trkpt lat="45.4616117" lon="10.4887467"><ele>168.0</ele><time>2026-03-22T10:43:47.751Z</time></trkpt><trkpt lat="45.461545" lon="10.4886667"><ele>168.0</ele><time>2026-03-22T10:43:49.753Z</time></trkpt><trkpt lat="45.4614617" lon="10.4886367"><ele>168.0</ele><time>2026-03-22T10:43:51.746Z</time></trkpt><trkpt lat="45.4613417" lon="10.4886183"><ele>168.0</ele><time>2026-03-22T10:43:53.752Z</time></trkpt><trkpt lat="45.461265" lon="10.488595"><ele>168.0</ele><time>2026-03-22T10:43:54.751Z</time></trkpt><trkpt lat="45.4611833" lon="10.4885717"><ele>168.0</ele><time>2026-03-22T10:43:55.751Z</time></trkpt><trkpt lat="45.4611133" lon="10.48854"><ele>168.0</ele><time>2026-03-22T10:43:56.757Z</time></trkpt><trkpt lat="45.4610417" lon="10.48851"><ele>168.0</ele><time>2026-03-22T10:43:57.75Z</time></trkpt><trkpt lat="45.4609633" lon="10.4884867"><ele>168.0</ele><time>2026-03-22T10:43:58.748Z</time></trkpt><trkpt lat="45.4608817" lon="10.4884517"><ele>168.0</ele><time>2026-03-22T10:43:59.749Z</time></trkpt><trkpt lat="45.4608" lon="10.4884283"><ele>168.0</ele><time>2026-03-22T10:44:00.752Z</time></trkpt><trkpt lat="45.4607217" lon="10.48842"><ele>168.0</ele><time>2026-03-22T10:44:01.75Z</time></trkpt><trkpt lat="45.4606467" lon="10.48841"><ele>168.0</ele><time>2026-03-22T10:44:02.756Z</time></trkpt><trkpt lat="45.4605633" lon="10.4884033"><ele>168.0</ele><time>2026-03-22T10:44:03.757Z</time></trkpt><trkpt lat="45.460485" lon="10.4884083"><ele>168.0</ele><time>2026-03-22T10:44:04.757Z</time></trkpt><trkpt lat="45.4604083" lon="10.48842"><ele>168.0</ele><time>2026-03-22T10:44:05.756Z</time></trkpt><trkpt lat="45.4603367" lon="10.4884333"><ele>168.0</ele><time>2026-03-22T10:44:06.758Z</time></trkpt><trkpt lat="45.460265" lon="10.4884433"><ele>168.0</ele><time>2026-03-22T10:44:07.752Z</time></trkpt><trkpt lat="45.4601933" lon="10.4884533"><ele>168.0</ele><time>2026-03-22T10:44:08.757Z</time></trkpt><trkpt lat="45.4601267" lon="10.4884483"><ele>168.0</ele><time>2026-03-22T10:44:09.755Z</time></trkpt><trkpt lat="45.4600583" lon="10.488435"><ele>167.14285714285714</ele><time>2026-03-22T10:44:10.75Z</time></trkpt><trkpt lat="45.45999" lon="10.4884083"><ele>166.28571428571428</ele><time>2026-03-22T10:44:11.755Z</time></trkpt><trkpt lat="45.4599267" lon="10.4883667"><ele>165.42857142857144</ele><time>2026-03-22T10:44:12.752Z</time></trkpt><trkpt lat="45.4598633" lon="10.488325"><ele>164.57142857142856</ele><time>2026-03-22T10:44:13.757Z</time></trkpt><trkpt lat="45.459805" lon="10.48828"><ele>163.71428571428572</ele><time>2026-03-22T10:44:14.758Z</time></trkpt><trkpt lat="45.4597433" lon="10.48824"><ele>162.85714285714286</ele><time>2026-03-22T10:44:15.756Z</time></trkpt><trkpt lat="45.45968" lon="10.4882067"><ele>162.0</ele><time>2026-03-22T10:44:16.755Z</time></trkpt><trkpt lat="45.45962" lon="10.4881733"><ele>161.8</ele><time>2026-03-22T10:44:17.756Z</time></trkpt><trkpt lat="45.4595617" lon="10.4881367"><ele>161.6</ele><time>2026-03-22T10:44:18.756Z</time></trkpt><trkpt lat="45.4594417" lon="10.488075"><ele>161.4</ele><time>2026-03-22T10:44:20.76Z</time></trkpt><trkpt lat="45.4593133" lon="10.4880033"><ele>161.20000000000002</ele><time>2026-03-22T10:44:22.752Z</time></trkpt><trkpt lat="45.4592517" lon="10.48797"><ele>161.0</ele><time>2026-03-22T10:44:23.756Z</time></trkpt><trkpt lat="45.4591917" lon="10.4879383"><ele>161.20000000000002</ele><time>2026-03-22T10:44:24.762Z</time></trkpt><trkpt lat="45.4590883" lon="10.4878733"><ele>161.4</ele><time>2026-03-22T10:44:26.763Z</time></trkpt><trkpt lat="45.45899" lon="10.4877967"><ele>161.6</ele><time>2026-03-22T10:44:28.752Z</time></trkpt><trkpt lat="45.4588983" lon="10.4877417"><ele>161.8</ele><time>2026-03-22T10:44:30.752Z</time></trkpt><trkpt lat="45.4588367" lon="10.4876633"><ele>162.0</ele><time>2026-03-22T10:44:32.747Z</time></trkpt><trkpt lat="45.4587617" lon="10.4876933"><ele>162.0</ele><time>2026-03-22T10:44:37.751Z</time></trkpt><trkpt lat="45.4587017" lon="10.48761"><ele>162.0</ele><time>2026-03-22T10:44:50.747Z</time></trkpt><trkpt lat="45.4586683" lon="10.4875183"><ele>162.0</ele><time>2026-03-22T10:44:52.753Z</time></trkpt><trkpt lat="45.4586083" lon="10.4874317"><ele>162.0</ele><time>2026-03-22T10:44:54.758Z</time></trkpt><trkpt lat="45.4585283" lon="10.4873567"><ele>162.0</ele><time>2026-03-22T10:44:56.747Z</time></trkpt><trkpt lat="45.4584383" lon="10.48728"><ele>162.0</ele><time>2026-03-22T10:44:58.749Z</time></trkpt><trkpt lat="45.4583417" lon="10.4872033"><ele>162.0</ele><time>2026-03-22T10:45:00.746Z</time></trkpt><trkpt lat="45.4582517" lon="10.48712"><ele>162.0</ele><time>2026-03-22T10:45:02.749Z</time></trkpt><trkpt lat="45.45817" lon="10.4870167"><ele>162.0</ele><time>2026-03-22T10:45:04.755Z</time></trkpt><trkpt lat="45.4580683" lon="10.4869583"><ele>162.0</ele><time>2026-03-22T10:45:06.754Z</time></trkpt><trkpt lat="45.4579783" lon="10.486915"><ele>162.0</ele><time>2026-03-22T10:45:08.749Z</time></trkpt><trkpt lat="45.4579317" lon="10.4868483"><ele>162.0</ele><time>2026-03-22T10:45:12.757Z</time></trkpt><trkpt lat="45.4578783" lon="10.48676"><ele>162.0</ele><time>2026-03-22T10:45:15.753Z</time></trkpt><trkpt lat="45.4578083" lon="10.48672"><ele>162.0</ele><time>2026-03-22T10:45:18.75Z</time></trkpt><trkpt lat="45.45775" lon="10.4868083"><ele>162.0</ele><time>2026-03-22T10:45:21.755Z</time></trkpt><trkpt lat="45.4577283" lon="10.4869567"><ele>162.0</ele><time>2026-03-22T10:45:24.748Z</time></trkpt><trkpt lat="45.4577083" lon="10.48712"><ele>161.0</ele><time>2026-03-22T10:45:26.744Z</time></trkpt><trkpt lat="45.4576883" lon="10.4873117"><ele>160.0</ele><time>2026-03-22T10:45:28.756Z</time></trkpt><trkpt lat="45.4576867" lon="10.4874067"><ele>159.0</ele><time>2026-03-22T10:45:29.755Z</time></trkpt><trkpt lat="45.4576917" lon="10.48757"><ele>158.0</ele><time>2026-03-22T10:45:31.748Z</time></trkpt><trkpt lat="45.4577217" lon="10.487705"><ele>157.0</ele><time>2026-03-22T10:45:33.749Z</time></trkpt><trkpt lat="45.4577533" lon="10.4878783"><ele>157.0</ele><time>2026-03-22T10:45:35.757Z</time></trkpt><trkpt lat="45.457795" lon="10.4880283"><ele>157.0</ele><time>2026-03-22T10:45:37.756Z</time></trkpt><trkpt lat="45.4578367" lon="10.4881683"><ele>157.0</ele><time>2026-03-22T10:45:39.747Z</time></trkpt><trkpt lat="45.4578767" lon="10.4883083"><ele>157.0</ele><time>2026-03-22T10:45:41.763Z</time></trkpt><trkpt lat="45.4579233" lon="10.48844"><ele>157.0</ele><time>2026-03-22T10:45:43.756Z</time></trkpt><trkpt lat="45.4579617" lon="10.488585"><ele>157.8</ele><time>2026-03-22T10:45:45.753Z</time></trkpt><trkpt lat="45.457995" lon="10.48872"><ele>158.6</ele><time>2026-03-22T10:45:47.748Z</time></trkpt><trkpt lat="45.458035" lon="10.4888583"><ele>159.4</ele><time>2026-03-22T10:45:49.747Z</time></trkpt><trkpt lat="45.4580733" lon="10.4890017"><ele>160.20000000000002</ele><time>2026-03-22T10:45:51.758Z</time></trkpt><trkpt lat="45.4580917" lon="10.4891367"><ele>161.0</ele><time>2026-03-22T10:45:53.759Z</time></trkpt><trkpt lat="45.4581083" lon="10.4892233"><ele>161.0</ele><time>2026-03-22T10:45:55.747Z</time></trkpt><trkpt lat="45.4580733" lon="10.4893133"><ele>161.0</ele><time>2026-03-22T10:45:58.756Z</time></trkpt><trkpt lat="45.4580117" lon="10.4893733"><ele>161.0</ele><time>2026-03-22T10:46:00.754Z</time></trkpt><trkpt lat="45.4579433" lon="10.489425"><ele>161.0</ele><time>2026-03-22T10:46:02.749Z</time></trkpt><trkpt lat="45.4578733" lon="10.4894767"><ele>161.0</ele><time>2026-03-22T10:46:04.751Z</time></trkpt><trkpt lat="45.4577967" lon="10.48953"><ele>161.0</ele><time>2026-03-22T10:46:06.757Z</time></trkpt><trkpt lat="45.4577217" lon="10.4895767"><ele>161.0</ele><time>2026-03-22T10:46:08.756Z</time></trkpt><trkpt lat="45.457635" lon="10.4896333"><ele>161.0</ele><time>2026-03-22T10:46:10.746Z</time></trkpt><trkpt lat="45.4575417" lon="10.4896683"><ele>161.0</ele><time>2026-03-22T10:46:12.742Z</time></trkpt><trkpt lat="45.4574467" lon="10.4896633"><ele>161.0</ele><time>2026-03-22T10:46:14.761Z</time></trkpt><trkpt lat="45.4573633" lon="10.489595"><ele>161.0</ele><time>2026-03-22T10:46:16.758Z</time></trkpt><trkpt lat="45.4573033" lon="10.48949"><ele>161.0</ele><time>2026-03-22T10:46:18.749Z</time></trkpt><trkpt lat="45.4572417" lon="10.4894433"><ele>161.0</ele><time>2026-03-22T10:46:19.748Z</time></trkpt><trkpt lat="45.4571667" lon="10.489315"><ele>161.0</ele><time>2026-03-22T10:46:21.754Z</time></trkpt><trkpt lat="45.45712" lon="10.4892483"><ele>161.0</ele><time>2026-03-22T10:46:22.758Z</time></trkpt><trkpt lat="45.45703" lon="10.48912"><ele>161.0</ele><time>2026-03-22T10:46:24.756Z</time></trkpt><trkpt lat="45.4569783" lon="10.4890483"><ele>160.83333333333331</ele><time>2026-03-22T10:46:25.756Z</time></trkpt><trkpt lat="45.45693" lon="10.48898"><ele>160.66666666666666</ele><time>2026-03-22T10:46:26.763Z</time></trkpt><trkpt lat="45.4568817" lon="10.488915"><ele>160.5</ele><time>2026-03-22T10:46:27.759Z</time></trkpt><trkpt lat="45.4568417" lon="10.4888417"><ele>160.33333333333334</ele><time>2026-03-22T10:46:28.758Z</time></trkpt><trkpt lat="45.4568117" lon="10.4887583"><ele>160.16666666666669</ele><time>2026-03-22T10:46:29.753Z</time></trkpt><trkpt lat="45.4567583" lon="10.4886117"><ele>160.0</ele><time>2026-03-22T10:46:31.757Z</time></trkpt><trkpt lat="45.4566967" lon="10.48848"><ele>159.75</ele><time>2026-03-22T10:46:33.753Z</time></trkpt><trkpt lat="45.4566317" lon="10.48834"><ele>159.5</ele><time>2026-03-22T10:46:35.757Z</time></trkpt><trkpt lat="45.4565717" lon="10.4881933"><ele>159.25</ele><time>2026-03-22T10:46:37.752Z</time></trkpt><trkpt lat="45.4565117" lon="10.48806"><ele>159.0</ele><time>2026-03-22T10:46:39.758Z</time></trkpt><trkpt lat="45.4564567" lon="10.4879233"><ele>158.33333333333334</ele><time>2026-03-22T10:46:41.751Z</time></trkpt><trkpt lat="45.4563967" lon="10.48777"><ele>157.66666666666666</ele><time>2026-03-22T10:46:43.761Z</time></trkpt><trkpt lat="45.45636" lon="10.4876933"><ele>157.0</ele><time>2026-03-22T10:46:44.757Z</time></trkpt><trkpt lat="45.4563217" lon="10.4876133"><ele>156.33333333333331</ele><time>2026-03-22T10:46:45.759Z</time></trkpt><trkpt lat="45.4562833" lon="10.487535"><ele>155.66666666666666</ele><time>2026-03-22T10:46:46.762Z</time></trkpt><trkpt lat="45.456245" lon="10.4874583"><ele>155.0</ele><time>2026-03-22T10:46:47.753Z</time></trkpt><trkpt lat="45.456205" lon="10.4873833"><ele>155.42857142857144</ele><time>2026-03-22T10:46:48.758Z</time></trkpt><trkpt lat="45.4561567" lon="10.4873133"><ele>155.85714285714286</ele><time>2026-03-22T10:46:49.756Z</time></trkpt><trkpt lat="45.45611" lon="10.48725"><ele>156.28571428571428</ele><time>2026-03-22T10:46:50.753Z</time></trkpt><trkpt lat="45.456065" lon="10.487185"><ele>156.71428571428572</ele><time>2026-03-22T10:46:51.749Z</time></trkpt><trkpt lat="45.4560133" lon="10.4871183"><ele>157.14285714285714</ele><time>2026-03-22T10:46:52.75Z</time></trkpt><trkpt lat="45.4559583" lon="10.487055"><ele>157.57142857142858</ele><time>2026-03-22T10:46:53.756Z</time></trkpt><trkpt lat="45.4558983" lon="10.486995"><ele>158.0</ele><time>2026-03-22T10:46:54.755Z</time></trkpt><trkpt lat="45.455835" lon="10.4869317"><ele>158.00000000000003</ele><time>2026-03-22T10:46:55.758Z</time></trkpt><trkpt lat="45.4557717" lon="10.48688"><ele>158.0</ele><time>2026-03-22T10:46:56.754Z</time></trkpt><trkpt lat="45.45571" lon="10.4868283"><ele>158.0</ele><time>2026-03-22T10:46:57.754Z</time></trkpt><trkpt lat="45.4556483" lon="10.48677"><ele>158.0</ele><time>2026-03-22T10:46:58.75Z</time></trkpt><trkpt lat="45.455585" lon="10.4867183"><ele>158.0</ele><time>2026-03-22T10:46:59.75Z</time></trkpt><trkpt lat="45.4555183" lon="10.4866683"><ele>158.00000000000003</ele><time>2026-03-22T10:47:00.756Z</time></trkpt><trkpt lat="45.455445" lon="10.48662"><ele>158.0</ele><time>2026-03-22T10:47:01.757Z</time></trkpt><trkpt lat="45.455375" lon="10.48657"><ele>157.42857142857144</ele><time>2026-03-22T10:47:02.762Z</time></trkpt><trkpt lat="45.4553083" lon="10.4865217"><ele>156.85714285714286</ele><time>2026-03-22T10:47:03.759Z</time></trkpt><trkpt lat="45.4552417" lon="10.48647"><ele>156.28571428571428</ele><time>2026-03-22T10:47:04.757Z</time></trkpt><trkpt lat="45.455175" lon="10.4864167"><ele>155.71428571428572</ele><time>2026-03-22T10:47:05.756Z</time></trkpt><trkpt lat="45.4551083" lon="10.486365"><ele>155.14285714285714</ele><time>2026-03-22T10:47:06.758Z</time></trkpt><trkpt lat="45.455045" lon="10.48632"><ele>154.57142857142858</ele><time>2026-03-22T10:47:07.756Z</time></trkpt><trkpt lat="45.4549817" lon="10.4862683"><ele>154.0</ele><time>2026-03-22T10:47:08.757Z</time></trkpt><trkpt lat="45.4549167" lon="10.4862133"><ele>154.0</ele><time>2026-03-22T10:47:09.755Z</time></trkpt><trkpt lat="45.4548517" lon="10.486155"><ele>154.0</ele><time>2026-03-22T10:47:10.755Z</time></trkpt><trkpt lat="45.4547817" lon="10.4861017"><ele>154.0</ele><time>2026-03-22T10:47:11.756Z</time></trkpt><trkpt lat="45.4547133" lon="10.4860567"><ele>154.0</ele><time>2026-03-22T10:47:12.758Z</time></trkpt><trkpt lat="45.4546467" lon="10.4860117"><ele>154.0</ele><time>2026-03-22T10:47:13.753Z</time></trkpt><trkpt lat="45.4545817" lon="10.4859633"><ele>154.0</ele><time>2026-03-22T10:47:14.764Z</time></trkpt><trkpt lat="45.45452" lon="10.48591"><ele>154.57142857142858</ele><time>2026-03-22T10:47:15.758Z</time></trkpt><trkpt lat="45.4544633" lon="10.485855"><ele>155.14285714285714</ele><time>2026-03-22T10:47:16.751Z</time></trkpt><trkpt lat="45.4544067" lon="10.4858017"><ele>155.71428571428572</ele><time>2026-03-22T10:47:17.758Z</time></trkpt><trkpt lat="45.4543417" lon="10.4857517"><ele>156.28571428571428</ele><time>2026-03-22T10:47:18.757Z</time></trkpt><trkpt lat="45.4542767" lon="10.4857033"><ele>156.85714285714286</ele><time>2026-03-22T10:47:19.751Z</time></trkpt><trkpt lat="45.45421" lon="10.4856433"><ele>157.42857142857144</ele><time>2026-03-22T10:47:20.757Z</time></trkpt><trkpt lat="45.4541367" lon="10.48559"><ele>158.0</ele><time>2026-03-22T10:47:21.751Z</time></trkpt><trkpt lat="45.4540683" lon="10.4855383"><ele>158.0</ele><time>2026-03-22T10:47:22.756Z</time></trkpt><trkpt lat="45.454" lon="10.485485"><ele>158.0</ele><time>2026-03-22T10:47:23.756Z</time></trkpt><trkpt lat="45.4539217" lon="10.4854217"><ele>158.0</ele><time>2026-03-22T10:47:24.759Z</time></trkpt><trkpt lat="45.4538383" lon="10.48537"><ele>158.0</ele><time>2026-03-22T10:47:25.749Z</time></trkpt><trkpt lat="45.4537683" lon="10.4853167"><ele>158.0</ele><time>2026-03-22T10:47:26.758Z</time></trkpt><trkpt lat="45.4536917" lon="10.485265"><ele>158.0</ele><time>2026-03-22T10:47:27.751Z</time></trkpt><trkpt lat="45.4536167" lon="10.4852167"><ele>157.33333333333331</ele><time>2026-03-22T10:47:28.754Z</time></trkpt><trkpt lat="45.4535433" lon="10.485165"><ele>156.66666666666666</ele><time>2026-03-22T10:47:29.759Z</time></trkpt><trkpt lat="45.4534767" lon="10.4851217"><ele>156.0</ele><time>2026-03-22T10:47:30.758Z</time></trkpt><trkpt lat="45.4534183" lon="10.4850817"><ele>155.33333333333334</ele><time>2026-03-22T10:47:31.757Z</time></trkpt><trkpt lat="45.453325" lon="10.4850167"><ele>154.66666666666669</ele><time>2026-03-22T10:47:33.745Z</time></trkpt><trkpt lat="45.45324" lon="10.4849417"><ele>154.0</ele><time>2026-03-22T10:47:35.752Z</time></trkpt><trkpt lat="45.4531283" lon="10.4849183"><ele>154.0</ele><time>2026-03-22T10:47:38.756Z</time></trkpt><trkpt lat="45.4530483" lon="10.4849033"><ele>154.0</ele><time>2026-03-22T10:47:41.747Z</time></trkpt><trkpt lat="45.4529983" lon="10.4849783"><ele>154.0</ele><time>2026-03-22T10:47:44.756Z</time></trkpt><trkpt lat="45.45294" lon="10.4850283"><ele>154.0</ele><time>2026-03-22T10:47:46.738Z</time></trkpt><trkpt lat="45.4528717" lon="10.485065"><ele>154.0</ele><time>2026-03-22T10:47:48.746Z</time></trkpt><trkpt lat="45.45279" lon="10.48508"><ele>154.0</ele><time>2026-03-22T10:47:50.755Z</time></trkpt><trkpt lat="45.4527033" lon="10.4850833"><ele>154.4</ele><time>2026-03-22T10:47:52.755Z</time></trkpt><trkpt lat="45.452615" lon="10.485095"><ele>154.8</ele><time>2026-03-22T10:47:54.746Z</time></trkpt><trkpt lat="45.45251" lon="10.4850817"><ele>155.2</ele><time>2026-03-22T10:47:56.749Z</time></trkpt><trkpt lat="45.45241" lon="10.4850617"><ele>155.6</ele><time>2026-03-22T10:47:58.756Z</time></trkpt><trkpt lat="45.4523017" lon="10.4850517"><ele>156.0</ele><time>2026-03-22T10:48:00.748Z</time></trkpt><trkpt lat="45.452195" lon="10.4850267"><ele>156.0</ele><time>2026-03-22T10:48:02.759Z</time></trkpt><trkpt lat="45.45213" lon="10.4850217"><ele>156.0</ele><time>2026-03-22T10:48:03.757Z</time></trkpt><trkpt lat="45.4520633" lon="10.4850183"><ele>156.0</ele><time>2026-03-22T10:48:04.757Z</time></trkpt><trkpt lat="45.4519517" lon="10.4850017"><ele>156.0</ele><time>2026-03-22T10:48:06.759Z</time></trkpt><trkpt lat="45.4518383" lon="10.4849817"><ele>156.0</ele><time>2026-03-22T10:48:08.757Z</time></trkpt><trkpt lat="45.4517717" lon="10.48496"><ele>156.0</ele><time>2026-03-22T10:48:09.757Z</time></trkpt><trkpt lat="45.4517017" lon="10.4849367"><ele>156.0</ele><time>2026-03-22T10:48:10.755Z</time></trkpt><trkpt lat="45.4516383" lon="10.484905"><ele>156.0</ele><time>2026-03-22T10:48:11.759Z</time></trkpt><trkpt lat="45.4515767" lon="10.4848733"><ele>156.0</ele><time>2026-03-22T10:48:12.753Z</time></trkpt><trkpt lat="45.4515117" lon="10.484845"><ele>156.0</ele><time>2026-03-22T10:48:13.756Z</time></trkpt><trkpt lat="45.4514517" lon="10.48481"><ele>156.0</ele><time>2026-03-22T10:48:14.759Z</time></trkpt><trkpt lat="45.4513333" lon="10.4847567"><ele>156.0</ele><time>2026-03-22T10:48:16.756Z</time></trkpt><trkpt lat="45.4512717" lon="10.4847333"><ele>156.33333333333334</ele><time>2026-03-22T10:48:17.751Z</time></trkpt><trkpt lat="45.4512083" lon="10.4847217"><ele>156.66666666666666</ele><time>2026-03-22T10:48:18.758Z</time></trkpt><trkpt lat="45.4511383" lon="10.48472"><ele>157.0</ele><time>2026-03-22T10:48:19.759Z</time></trkpt><trkpt lat="45.4510733" lon="10.4847167"><ele>157.33333333333331</ele><time>2026-03-22T10:48:20.76Z</time></trkpt><trkpt lat="45.45096" lon="10.484695"><ele>157.66666666666666</ele><time>2026-03-22T10:48:22.755Z</time></trkpt><trkpt lat="45.45084" lon="10.484675"><ele>158.0</ele><time>2026-03-22T10:48:24.751Z</time></trkpt><trkpt lat="45.4507317" lon="10.484665"><ele>158.0</ele><time>2026-03-22T10:48:26.753Z</time></trkpt><trkpt lat="45.4506233" lon="10.4846167"><ele>158.0</ele><time>2026-03-22T10:48:28.754Z</time></trkpt><trkpt lat="45.45053" lon="10.4845517"><ele>158.0</ele><time>2026-03-22T10:48:30.759Z</time></trkpt><trkpt lat="45.4504333" lon="10.4844983"><ele>158.0</ele><time>2026-03-22T10:48:32.751Z</time></trkpt><trkpt lat="45.450315" lon="10.4844767"><ele>158.0</ele><time>2026-03-22T10:48:34.746Z</time></trkpt><trkpt lat="45.4501883" lon="10.4844533"><ele>156.0</ele><time>2026-03-22T10:48:36.759Z</time></trkpt><trkpt lat="45.4500733" lon="10.4844367"><ele>154.0</ele><time>2026-03-22T10:48:38.758Z</time></trkpt><trkpt lat="45.4499517" lon="10.4844083"><ele>152.0</ele><time>2026-03-22T10:48:40.755Z</time></trkpt><trkpt lat="45.4498267" lon="10.4844167"><ele>150.0</ele><time>2026-03-22T10:48:42.752Z</time></trkpt><trkpt lat="45.4497617" lon="10.4844283"><ele>148.0</ele><time>2026-03-22T10:48:43.752Z</time></trkpt><trkpt lat="45.4496383" lon="10.4844383"><ele>147.6</ele><time>2026-03-22T10:48:45.751Z</time></trkpt><trkpt lat="45.449515" lon="10.48444"><ele>147.20000000000002</ele><time>2026-03-22T10:48:47.76Z</time></trkpt><trkpt lat="45.4493933" lon="10.4844417"><ele>146.8</ele><time>2026-03-22T10:48:49.757Z</time></trkpt><trkpt lat="45.44933" lon="10.4844417"><ele>146.4</ele><time>2026-03-22T10:48:50.76Z</time></trkpt><trkpt lat="45.4492067" lon="10.4844433"><ele>146.0</ele><time>2026-03-22T10:48:52.752Z</time></trkpt><trkpt lat="45.4491433" lon="10.484445"><ele>146.0</ele><time>2026-03-22T10:48:53.755Z</time></trkpt><trkpt lat="45.4490767" lon="10.484445"><ele>146.0</ele><time>2026-03-22T10:48:54.757Z</time></trkpt><trkpt lat="45.4490133" lon="10.484445"><ele>146.0</ele><time>2026-03-22T10:48:55.749Z</time></trkpt><trkpt lat="45.4489067" lon="10.4844417"><ele>146.0</ele><time>2026-03-22T10:48:57.758Z</time></trkpt><trkpt lat="45.4488017" lon="10.48445"><ele>146.0</ele><time>2026-03-22T10:48:59.759Z</time></trkpt><trkpt lat="45.4486967" lon="10.4844533"><ele>146.0</ele><time>2026-03-22T10:49:01.757Z</time></trkpt><trkpt lat="45.4485917" lon="10.48445"><ele>146.2</ele><time>2026-03-22T10:49:03.759Z</time></trkpt><trkpt lat="45.4484833" lon="10.484435"><ele>146.39999999999998</ele><time>2026-03-22T10:49:05.761Z</time></trkpt><trkpt lat="45.448375" lon="10.48443"><ele>146.6</ele><time>2026-03-22T10:49:07.759Z</time></trkpt><trkpt lat="45.4482567" lon="10.48443"><ele>146.79999999999998</ele><time>2026-03-22T10:49:09.753Z</time></trkpt><trkpt lat="45.4481917" lon="10.484435"><ele>147.0</ele><time>2026-03-22T10:49:10.753Z</time></trkpt><trkpt lat="45.4481267" lon="10.4844417"><ele>147.0</ele><time>2026-03-22T10:49:11.755Z</time></trkpt><trkpt lat="45.4480133" lon="10.48447"><ele>147.0</ele><time>2026-03-22T10:49:13.756Z</time></trkpt><trkpt lat="45.4478933" lon="10.484435"><ele>147.0</ele><time>2026-03-22T10:49:15.756Z</time></trkpt><trkpt lat="45.4477817" lon="10.4843733"><ele>147.0</ele><time>2026-03-22T10:49:17.756Z</time></trkpt><trkpt lat="45.44772" lon="10.4843433"><ele>147.0</ele><time>2026-03-22T10:49:18.757Z</time></trkpt><trkpt lat="45.447615" lon="10.4842417"><ele>147.66666666666666</ele><time>2026-03-22T10:49:20.758Z</time></trkpt><trkpt lat="45.4475567" lon="10.484175"><ele>148.33333333333334</ele><time>2026-03-22T10:49:21.752Z</time></trkpt><trkpt lat="45.447495" lon="10.4841117"><ele>149.0</ele><time>2026-03-22T10:49:22.761Z</time></trkpt><trkpt lat="45.4474233" lon="10.48405"><ele>149.66666666666669</ele><time>2026-03-22T10:49:23.754Z</time></trkpt><trkpt lat="45.4473517" lon="10.4840167"><ele>150.33333333333334</ele><time>2026-03-22T10:49:24.759Z</time></trkpt><trkpt lat="45.4472833" lon="10.4839883"><ele>151.0</ele><time>2026-03-22T10:49:25.755Z</time></trkpt><trkpt lat="45.44721" lon="10.48396"><ele>151.00000000000003</ele><time>2026-03-22T10:49:26.763Z</time></trkpt><trkpt lat="45.44714" lon="10.4839317"><ele>151.0</ele><time>2026-03-22T10:49:27.751Z</time></trkpt><trkpt lat="45.44707" lon="10.4839067"><ele>151.0</ele><time>2026-03-22T10:49:28.755Z</time></trkpt><trkpt lat="45.4470017" lon="10.4838867"><ele>151.0</ele><time>2026-03-22T10:49:29.757Z</time></trkpt><trkpt lat="45.4469367" lon="10.4838667"><ele>151.0</ele><time>2026-03-22T10:49:30.758Z</time></trkpt><trkpt lat="45.4468683" lon="10.4838567"><ele>151.00000000000003</ele><time>2026-03-22T10:49:31.76Z</time></trkpt><trkpt lat="45.446805" lon="10.483845"><ele>151.0</ele><time>2026-03-22T10:49:32.76Z</time></trkpt><trkpt lat="45.44674" lon="10.4838317"><ele>151.4</ele><time>2026-03-22T10:49:33.756Z</time></trkpt><trkpt lat="45.4466783" lon="10.4838133"><ele>151.8</ele><time>2026-03-22T10:49:34.755Z</time></trkpt><trkpt lat="45.4465617" lon="10.4837767"><ele>152.20000000000002</ele><time>2026-03-22T10:49:36.749Z</time></trkpt><trkpt lat="45.4464383" lon="10.4837367"><ele>152.6</ele><time>2026-03-22T10:49:38.757Z</time></trkpt><trkpt lat="45.4463217" lon="10.4837067"><ele>153.0</ele><time>2026-03-22T10:49:40.754Z</time></trkpt><trkpt lat="45.4462583" lon="10.483695"><ele>151.0</ele><time>2026-03-22T10:49:41.751Z</time></trkpt><trkpt lat="45.4461433" lon="10.483675"><ele>149.0</ele><time>2026-03-22T10:49:43.75Z</time></trkpt><trkpt lat="45.4460233" lon="10.4836417"><ele>147.0</ele><time>2026-03-22T10:49:45.751Z</time></trkpt><trkpt lat="45.4459017" lon="10.4836117"><ele>145.0</ele><time>2026-03-22T10:49:47.75Z</time></trkpt><trkpt lat="45.4458383" lon="10.4835983"><ele>143.0</ele><time>2026-03-22T10:49:48.756Z</time></trkpt><trkpt lat="45.44572" lon="10.4835683"><ele>143.0</ele><time>2026-03-22T10:49:50.756Z</time></trkpt><trkpt lat="45.4456567" lon="10.483555"><ele>143.0</ele><time>2026-03-22T10:49:51.757Z</time></trkpt><trkpt lat="45.4455317" lon="10.4835267"><ele>143.0</ele><time>2026-03-22T10:49:53.755Z</time></trkpt><trkpt lat="45.4454183" lon="10.483505"><ele>143.0</ele><time>2026-03-22T10:49:55.756Z</time></trkpt><trkpt lat="45.4453067" lon="10.4834717"><ele>143.0</ele><time>2026-03-22T10:49:57.759Z</time></trkpt><trkpt lat="45.4451933" lon="10.4834433"><ele>143.20000000000002</ele><time>2026-03-22T10:49:59.757Z</time></trkpt><trkpt lat="45.44507" lon="10.4834083"><ele>143.4</ele><time>2026-03-22T10:50:01.757Z</time></trkpt><trkpt lat="45.4449517" lon="10.483385"><ele>143.60000000000002</ele><time>2026-03-22T10:50:03.758Z</time></trkpt><trkpt lat="45.44489" lon="10.4833583"><ele>143.8</ele><time>2026-03-22T10:50:04.752Z</time></trkpt><trkpt lat="45.4447717" lon="10.4833183"><ele>144.0</ele><time>2026-03-22T10:50:06.758Z</time></trkpt><trkpt lat="45.44465" lon="10.4833083"><ele>144.0</ele><time>2026-03-22T10:50:08.759Z</time></trkpt><trkpt lat="45.44453" lon="10.4832983"><ele>144.0</ele><time>2026-03-22T10:50:10.756Z</time></trkpt><trkpt lat="45.4444183" lon="10.4832767"><ele>144.0</ele><time>2026-03-22T10:50:12.755Z</time></trkpt><trkpt lat="45.444305" lon="10.483275"><ele>144.0</ele><time>2026-03-22T10:50:14.761Z</time></trkpt><trkpt lat="45.4441883" lon="10.4832567"><ele>144.0</ele><time>2026-03-22T10:50:16.754Z</time></trkpt><trkpt lat="45.4440683" lon="10.4832217"><ele>144.0</ele><time>2026-03-22T10:50:18.76Z</time></trkpt><trkpt lat="45.44395" lon="10.483175"><ele>144.0</ele><time>2026-03-22T10:50:20.761Z</time></trkpt><trkpt lat="45.4438367" lon="10.48314"><ele>144.0</ele><time>2026-03-22T10:50:22.756Z</time></trkpt><trkpt lat="45.4437183" lon="10.4831"><ele>144.2</ele><time>2026-03-22T10:50:24.756Z</time></trkpt><trkpt lat="45.4435983" lon="10.4830667"><ele>144.4</ele><time>2026-03-22T10:50:26.756Z</time></trkpt><trkpt lat="45.44349" lon="10.4830583"><ele>144.6</ele><time>2026-03-22T10:50:28.756Z</time></trkpt><trkpt lat="45.4433883" lon="10.4830583"><ele>144.8</ele><time>2026-03-22T10:50:30.758Z</time></trkpt><trkpt lat="45.4432767" lon="10.4830433"><ele>145.0</ele><time>2026-03-22T10:50:32.761Z</time></trkpt><trkpt lat="45.4431767" lon="10.4830067"><ele>145.0</ele><time>2026-03-22T10:50:34.751Z</time></trkpt><trkpt lat="45.4430667" lon="10.4829667"><ele>145.0</ele><time>2026-03-22T10:50:36.748Z</time></trkpt><trkpt lat="45.443005" lon="10.4829483"><ele>145.0</ele><time>2026-03-22T10:50:37.757Z</time></trkpt><trkpt lat="45.442885" lon="10.482915"><ele>145.0</ele><time>2026-03-22T10:50:39.757Z</time></trkpt><trkpt lat="45.442775" lon="10.48286"><ele>145.0</ele><time>2026-03-22T10:50:41.755Z</time></trkpt><trkpt lat="45.4426883" lon="10.4827967"><ele>144.2</ele><time>2026-03-22T10:50:43.75Z</time></trkpt><trkpt lat="45.4426217" lon="10.4827283"><ele>143.4</ele><time>2026-03-22T10:50:45.751Z</time></trkpt><trkpt lat="45.44254" lon="10.4826483"><ele>142.6</ele><time>2026-03-22T10:50:47.748Z</time></trkpt><trkpt lat="45.44243" lon="10.48257"><ele>141.8</ele><time>2026-03-22T10:50:49.756Z</time></trkpt><trkpt lat="45.4423267" lon="10.482505"><ele>141.0</ele><time>2026-03-22T10:50:51.758Z</time></trkpt><trkpt lat="45.4422367" lon="10.482445"><ele>141.0</ele><time>2026-03-22T10:50:53.747Z</time></trkpt><trkpt lat="45.4421567" lon="10.4823917"><ele>141.0</ele><time>2026-03-22T10:50:55.748Z</time></trkpt><trkpt lat="45.4420717" lon="10.4823317"><ele>141.0</ele><time>2026-03-22T10:50:57.75Z</time></trkpt><trkpt lat="45.441995" lon="10.4822767"><ele>141.0</ele><time>2026-03-22T10:50:59.745Z</time></trkpt><trkpt lat="45.44192" lon="10.4822367"><ele>141.0</ele><time>2026-03-22T10:51:01.746Z</time></trkpt><trkpt lat="45.4418317" lon="10.4822217"><ele>141.0</ele><time>2026-03-22T10:51:03.746Z</time></trkpt><trkpt lat="45.441745" lon="10.4822317"><ele>141.0</ele><time>2026-03-22T10:51:05.751Z</time></trkpt><trkpt lat="45.44163" lon="10.4822233"><ele>141.0</ele><time>2026-03-22T10:51:07.747Z</time></trkpt><trkpt lat="45.4415667" lon="10.4822083"><ele>141.0</ele><time>2026-03-22T10:51:08.749Z</time></trkpt><trkpt lat="45.4415033" lon="10.4821967"><ele>141.0</ele><time>2026-03-22T10:51:09.754Z</time></trkpt><trkpt lat="45.44144" lon="10.4821867"><ele>141.0</ele><time>2026-03-22T10:51:10.755Z</time></trkpt><trkpt lat="45.4413183" lon="10.482165"><ele>141.0</ele><time>2026-03-22T10:51:12.757Z</time></trkpt><trkpt lat="45.4412017" lon="10.4821367"><ele>141.0</ele><time>2026-03-22T10:51:14.753Z</time></trkpt><trkpt lat="45.44109" lon="10.4821133"><ele>141.0</ele><time>2026-03-22T10:51:16.757Z</time></trkpt><trkpt lat="45.4409683" lon="10.4820883"><ele>141.0</ele><time>2026-03-22T10:51:18.752Z</time></trkpt><trkpt lat="45.44085" lon="10.4820567"><ele>141.0</ele><time>2026-03-22T10:51:20.759Z</time></trkpt><trkpt lat="45.4407267" lon="10.48203"><ele>140.4</ele><time>2026-03-22T10:51:22.756Z</time></trkpt><trkpt lat="45.4406617" lon="10.48202"><ele>139.8</ele><time>2026-03-22T10:51:23.753Z</time></trkpt><trkpt lat="45.4405433" lon="10.4819967"><ele>139.20000000000002</ele><time>2026-03-22T10:51:25.756Z</time></trkpt><trkpt lat="45.4404217" lon="10.481985"><ele>138.6</ele><time>2026-03-22T10:51:27.754Z</time></trkpt><trkpt lat="45.4403017" lon="10.4819767"><ele>138.0</ele><time>2026-03-22T10:51:29.754Z</time></trkpt><trkpt lat="45.4402383" lon="10.481975"><ele>137.5</ele><time>2026-03-22T10:51:30.757Z</time></trkpt><trkpt lat="45.44012" lon="10.48197"><ele>137.0</ele><time>2026-03-22T10:51:32.756Z</time></trkpt><trkpt lat="45.4400033" lon="10.4819667"><ele>136.5</ele><time>2026-03-22T10:51:34.757Z</time></trkpt><trkpt lat="45.4398867" lon="10.4819633"><ele>136.0</ele><time>2026-03-22T10:51:36.753Z</time></trkpt><trkpt lat="45.43977" lon="10.4819533"><ele>136.0</ele><time>2026-03-22T10:51:38.756Z</time></trkpt><trkpt lat="45.4396533" lon="10.4819483"><ele>136.0</ele><time>2026-03-22T10:51:40.749Z</time></trkpt><trkpt lat="45.439535" lon="10.481955"><ele>136.0</ele><time>2026-03-22T10:51:42.747Z</time></trkpt><trkpt lat="45.439425" lon="10.4819683"><ele>136.0</ele><time>2026-03-22T10:51:44.757Z</time></trkpt><trkpt lat="45.43932" lon="10.4820183"><ele>136.4</ele><time>2026-03-22T10:51:46.759Z</time></trkpt><trkpt lat="45.4392233" lon="10.4820783"><ele>136.8</ele><time>2026-03-22T10:51:48.752Z</time></trkpt><trkpt lat="45.4391183" lon="10.48214"><ele>137.20000000000002</ele><time>2026-03-22T10:51:50.758Z</time></trkpt><trkpt lat="45.4390233" lon="10.4822217"><ele>137.6</ele><time>2026-03-22T10:51:52.755Z</time></trkpt><trkpt lat="45.4389383" lon="10.48231"><ele>138.0</ele><time>2026-03-22T10:51:54.748Z</time></trkpt><trkpt lat="45.4388533" lon="10.4824"><ele>138.20000000000002</ele><time>2026-03-22T10:51:56.758Z</time></trkpt><trkpt lat="45.4387667" lon="10.4824867"><ele>138.4</ele><time>2026-03-22T10:51:58.748Z</time></trkpt><trkpt lat="45.4386833" lon="10.482575"><ele>138.60000000000002</ele><time>2026-03-22T10:52:00.755Z</time></trkpt><trkpt lat="45.4386033" lon="10.482665"><ele>138.8</ele><time>2026-03-22T10:52:02.757Z</time></trkpt><trkpt lat="45.438525" lon="10.4827483"><ele>139.0</ele><time>2026-03-22T10:52:04.756Z</time></trkpt><trkpt lat="45.4384533" lon="10.482835"><ele>139.33333333333334</ele><time>2026-03-22T10:52:06.757Z</time></trkpt><trkpt lat="45.4383883" lon="10.482935"><ele>139.66666666666669</ele><time>2026-03-22T10:52:08.754Z</time></trkpt><trkpt lat="45.438335" lon="10.4830433"><ele>140.0</ele><time>2026-03-22T10:52:10.751Z</time></trkpt><trkpt lat="45.4382917" lon="10.4831583"><ele>140.33333333333334</ele><time>2026-03-22T10:52:12.747Z</time></trkpt><trkpt lat="45.4382567" lon="10.4832683"><ele>140.66666666666666</ele><time>2026-03-22T10:52:14.753Z</time></trkpt><trkpt lat="45.438225" lon="10.483375"><ele>141.0</ele><time>2026-03-22T10:52:16.755Z</time></trkpt><trkpt lat="45.4381967" lon="10.48347"><ele>141.0</ele><time>2026-03-22T10:52:18.755Z</time></trkpt><trkpt lat="45.4381567" lon="10.4835883"><ele>141.0</ele><time>2026-03-22T10:52:21.747Z</time></trkpt><trkpt lat="45.43812" lon="10.4836667"><ele>141.0</ele><time>2026-03-22T10:52:23.753Z</time></trkpt><trkpt lat="45.4380617" lon="10.48375"><ele>141.0</ele><time>2026-03-22T10:52:26.75Z</time></trkpt><trkpt lat="45.4379917" lon="10.4837767"><ele>141.0</ele><time>2026-03-22T10:52:29.746Z</time></trkpt><trkpt lat="45.43792" lon="10.4837917"><ele>141.0</ele><time>2026-03-22T10:52:31.75Z</time></trkpt><trkpt lat="45.4378383" lon="10.4838183"><ele>140.5</ele><time>2026-03-22T10:52:33.751Z</time></trkpt><trkpt lat="45.437765" lon="10.4838683"><ele>140.0</ele><time>2026-03-22T10:52:35.747Z</time></trkpt><trkpt lat="45.4376933" lon="10.4839433"><ele>139.5</ele><time>2026-03-22T10:52:37.747Z</time></trkpt><trkpt lat="45.4376217" lon="10.48402"><ele>139.0</ele><time>2026-03-22T10:52:39.753Z</time></trkpt><trkpt lat="45.4375483" lon="10.4840983"><ele>138.5</ele><time>2026-03-22T10:52:41.749Z</time></trkpt><trkpt lat="45.4374833" lon="10.4841933"><ele>138.0</ele><time>2026-03-22T10:52:43.757Z</time></trkpt><trkpt lat="45.43741" lon="10.4843083"><ele>138.0</ele><time>2026-03-22T10:52:45.756Z</time></trkpt><trkpt lat="45.437345" lon="10.4844067"><ele>138.0</ele><time>2026-03-22T10:52:47.757Z</time></trkpt><trkpt lat="45.4372783" lon="10.4845"><ele>138.0</ele><time>2026-03-22T10:52:49.749Z</time></trkpt><trkpt lat="45.4372067" lon="10.4846033"><ele>138.0</ele><time>2026-03-22T10:52:51.755Z</time></trkpt><trkpt lat="45.43713" lon="10.4846967"><ele>138.0</ele><time>2026-03-22T10:52:53.747Z</time></trkpt><trkpt lat="45.4370433" lon="10.4847883"><ele>138.20000000000002</ele><time>2026-03-22T10:52:55.755Z</time></trkpt><trkpt lat="45.43695" lon="10.484865"><ele>138.4</ele><time>2026-03-22T10:52:57.755Z</time></trkpt><trkpt lat="45.4368533" lon="10.484935"><ele>138.60000000000002</ele><time>2026-03-22T10:52:59.756Z</time></trkpt><trkpt lat="45.4367533" lon="10.4850033"><ele>138.8</ele><time>2026-03-22T10:53:01.752Z</time></trkpt><trkpt lat="45.4366533" lon="10.4850683"><ele>139.0</ele><time>2026-03-22T10:53:03.755Z</time></trkpt><trkpt lat="45.436545" lon="10.4851333"><ele>139.0</ele><time>2026-03-22T10:53:05.757Z</time></trkpt><trkpt lat="45.4364367" lon="10.4851933"><ele>139.0</ele><time>2026-03-22T10:53:07.756Z</time></trkpt><trkpt lat="45.43633" lon="10.4852417"><ele>139.0</ele><time>2026-03-22T10:53:09.747Z</time></trkpt><trkpt lat="45.4362283" lon="10.48529"><ele>139.0</ele><time>2026-03-22T10:53:11.747Z</time></trkpt><trkpt lat="45.4361283" lon="10.4853383"><ele>139.0</ele><time>2026-03-22T10:53:13.755Z</time></trkpt><trkpt lat="45.4360317" lon="10.4853717"><ele>138.6</ele><time>2026-03-22T10:53:15.756Z</time></trkpt><trkpt lat="45.4359367" lon="10.4853867"><ele>138.2</ele><time>2026-03-22T10:53:17.752Z</time></trkpt><trkpt lat="45.4358383" lon="10.4853983"><ele>137.79999999999998</ele><time>2026-03-22T10:53:19.747Z</time></trkpt><trkpt lat="45.4357367" lon="10.485405"><ele>137.4</ele><time>2026-03-22T10:53:21.755Z</time></trkpt><trkpt lat="45.435635" lon="10.48542"><ele>137.0</ele><time>2026-03-22T10:53:23.758Z</time></trkpt><trkpt lat="45.4355367" lon="10.485435"><ele>137.79999999999998</ele><time>2026-03-22T10:53:25.749Z</time></trkpt><trkpt lat="45.43543" lon="10.4854367"><ele>138.6</ele><time>2026-03-22T10:53:27.747Z</time></trkpt><trkpt lat="45.4353183" lon="10.4854433"><ele>139.39999999999998</ele><time>2026-03-22T10:53:29.756Z</time></trkpt><trkpt lat="45.4352133" lon="10.48545"><ele>140.2</ele><time>2026-03-22T10:53:31.755Z</time></trkpt><trkpt lat="45.4351167" lon="10.485455"><ele>141.0</ele><time>2026-03-22T10:53:33.758Z</time></trkpt><trkpt lat="45.4350183" lon="10.48546"><ele>141.0</ele><time>2026-03-22T10:53:35.746Z</time></trkpt><trkpt lat="45.4349183" lon="10.48546"><ele>141.0</ele><time>2026-03-22T10:53:37.751Z</time></trkpt><trkpt lat="45.43482" lon="10.4854583"><ele>141.0</ele><time>2026-03-22T10:53:39.757Z</time></trkpt><trkpt lat="45.4347267" lon="10.4854617"><ele>141.0</ele><time>2026-03-22T10:53:41.752Z</time></trkpt><trkpt lat="45.4346383" lon="10.485465"><ele>141.0</ele><time>2026-03-22T10:53:43.749Z</time></trkpt><trkpt lat="45.4345483" lon="10.4854583"><ele>141.2</ele><time>2026-03-22T10:53:45.75Z</time></trkpt><trkpt lat="45.4344517" lon="10.4854567"><ele>141.39999999999998</ele><time>2026-03-22T10:53:47.746Z</time></trkpt><trkpt lat="45.4343633" lon="10.4854483"><ele>141.6</ele><time>2026-03-22T10:53:49.747Z</time></trkpt><trkpt lat="45.4342733" lon="10.4854517"><ele>141.79999999999998</ele><time>2026-03-22T10:53:51.749Z</time></trkpt><trkpt lat="45.43418" lon="10.4854667"><ele>142.0</ele><time>2026-03-22T10:53:53.755Z</time></trkpt><trkpt lat="45.4340833" lon="10.4854783"><ele>142.0</ele><time>2026-03-22T10:53:55.758Z</time></trkpt><trkpt lat="45.433985" lon="10.485475"><ele>142.0</ele><time>2026-03-22T10:53:57.749Z</time></trkpt><trkpt lat="45.433895" lon="10.4854467"><ele>142.0</ele><time>2026-03-22T10:53:59.746Z</time></trkpt><trkpt lat="45.4338067" lon="10.4854033"><ele>142.0</ele><time>2026-03-22T10:54:01.748Z</time></trkpt><trkpt lat="45.4337083" lon="10.4853583"><ele>142.0</ele><time>2026-03-22T10:54:03.749Z</time></trkpt><trkpt lat="45.4336183" lon="10.4853083"><ele>141.83333333333334</ele><time>2026-03-22T10:54:05.749Z</time></trkpt><trkpt lat="45.433535" lon="10.485245"><ele>141.66666666666669</ele><time>2026-03-22T10:54:07.76Z</time></trkpt><trkpt lat="45.4334533" lon="10.485165"><ele>141.5</ele><time>2026-03-22T10:54:09.758Z</time></trkpt><trkpt lat="45.4333867" lon="10.4850783"><ele>141.33333333333334</ele><time>2026-03-22T10:54:11.749Z</time></trkpt><trkpt lat="45.433325" lon="10.4849883"><ele>141.16666666666666</ele><time>2026-03-22T10:54:13.748Z</time></trkpt><trkpt lat="45.4332867" lon="10.4849033"><ele>141.0</ele><time>2026-03-22T10:54:15.751Z</time></trkpt><trkpt lat="45.433235" lon="10.4848467"><ele>141.0</ele><time>2026-03-22T10:54:18.747Z</time></trkpt><trkpt lat="45.4331733" lon="10.4849"><ele>141.0</ele><time>2026-03-22T10:54:21.743Z</time></trkpt><trkpt lat="45.433115" lon="10.485"><ele>141.0</ele><time>2026-03-22T10:54:24.756Z</time></trkpt><trkpt lat="45.4330617" lon="10.4851117"><ele>141.0</ele><time>2026-03-22T10:54:27.746Z</time></trkpt><trkpt lat="45.4330283" lon="10.4852067"><ele>141.0</ele><time>2026-03-22T10:54:29.75Z</time></trkpt><trkpt lat="45.433" lon="10.4853017"><ele>141.0</ele><time>2026-03-22T10:54:31.756Z</time></trkpt><trkpt lat="45.4329767" lon="10.4853867"><ele>142.66666666666666</ele><time>2026-03-22T10:54:33.753Z</time></trkpt><trkpt lat="45.43295" lon="10.4854733"><ele>144.33333333333334</ele><time>2026-03-22T10:54:35.749Z</time></trkpt><trkpt lat="45.4329167" lon="10.48557"><ele>146.0</ele><time>2026-03-22T10:54:37.753Z</time></trkpt><trkpt lat="45.432885" lon="10.4856767"><ele>147.66666666666669</ele><time>2026-03-22T10:54:39.754Z</time></trkpt><trkpt lat="45.4328617" lon="10.48577"><ele>149.33333333333334</ele><time>2026-03-22T10:54:41.756Z</time></trkpt><trkpt lat="45.4328333" lon="10.4858883"><ele>151.0</ele><time>2026-03-22T10:54:44.755Z</time></trkpt><trkpt lat="45.4328217" lon="10.4860017"><ele>151.0</ele><time>2026-03-22T10:54:47.747Z</time></trkpt><trkpt lat="45.4327367" lon="10.4860733"><ele>151.0</ele><time>2026-03-22T10:54:53.755Z</time></trkpt><trkpt lat="45.4326633" lon="10.48608"><ele>151.0</ele><time>2026-03-22T10:54:57.747Z</time></trkpt><trkpt lat="45.4325883" lon="10.4860533"><ele>151.0</ele><time>2026-03-22T10:55:00.754Z</time></trkpt><trkpt lat="45.4325083" lon="10.48603"><ele>151.0</ele><time>2026-03-22T10:55:03.747Z</time></trkpt><trkpt lat="45.4324317" lon="10.4860017"><ele>151.0</ele><time>2026-03-22T10:55:06.747Z</time></trkpt><trkpt lat="45.4323433" lon="10.4859783"><ele>151.0</ele><time>2026-03-22T10:55:09.752Z</time></trkpt><trkpt lat="45.4322617" lon="10.48596"><ele>151.0</ele><time>2026-03-22T10:55:12.756Z</time></trkpt><trkpt lat="45.4321783" lon="10.4859617"><ele>151.0</ele><time>2026-03-22T10:55:15.753Z</time></trkpt><trkpt lat="45.4320983" lon="10.4859483"><ele>151.0</ele><time>2026-03-22T10:55:18.757Z</time></trkpt><trkpt lat="45.43203" lon="10.4859633"><ele>151.0</ele><time>2026-03-22T10:55:21.746Z</time></trkpt><trkpt lat="45.4319617" lon="10.4859833"><ele>151.0</ele><time>2026-03-22T10:55:24.752Z</time></trkpt><trkpt lat="45.4318933" lon="10.48602"><ele>151.8</ele><time>2026-03-22T10:55:28.745Z</time></trkpt><trkpt lat="45.43183" lon="10.486035"><ele>152.6</ele><time>2026-03-22T10:55:31.756Z</time></trkpt><trkpt lat="45.4317533" lon="10.4860533"><ele>153.4</ele><time>2026-03-22T10:55:35.756Z</time></trkpt><trkpt lat="45.4316567" lon="10.4860567"><ele>154.2</ele><time>2026-03-22T10:55:38.747Z</time></trkpt><trkpt lat="45.4315183" lon="10.4861517"><ele>155.0</ele><time>2026-03-22T10:55:44.75Z</time></trkpt><trkpt lat="45.431455" lon="10.4861917"><ele>155.0</ele><time>2026-03-22T10:55:46.747Z</time></trkpt><trkpt lat="45.4314" lon="10.486245"><ele>155.0</ele><time>2026-03-22T10:55:49.749Z</time></trkpt><trkpt lat="45.4313467" lon="10.48632"><ele>155.0</ele><time>2026-03-22T10:55:52.748Z</time></trkpt><trkpt lat="45.43131" lon="10.4864017"><ele>155.0</ele><time>2026-03-22T10:55:56.752Z</time></trkpt><trkpt lat="45.431245" lon="10.4864667"><ele>155.0</ele><time>2026-03-22T10:55:58.75Z</time></trkpt><trkpt lat="45.4311967" lon="10.48655"><ele>155.0</ele><time>2026-03-22T10:56:01.745Z</time></trkpt><trkpt lat="45.4311617" lon="10.4866367"><ele>155.0</ele><time>2026-03-22T10:56:04.755Z</time></trkpt><trkpt lat="45.4310417" lon="10.486905"><ele>155.66666666666666</ele><time>2026-03-22T10:56:15.746Z</time></trkpt><trkpt lat="45.4310367" lon="10.4870717"><ele>156.33333333333331</ele><time>2026-03-22T10:56:19.751Z</time></trkpt><trkpt lat="45.43106" lon="10.487175"><ele>157.0</ele><time>2026-03-22T10:56:22.749Z</time></trkpt><trkpt lat="45.43108" lon="10.487285"><ele>157.66666666666666</ele><time>2026-03-22T10:56:25.753Z</time></trkpt><trkpt lat="45.4311117" lon="10.4873817"><ele>158.33333333333334</ele><time>2026-03-22T10:56:28.753Z</time></trkpt><trkpt lat="45.4311383" lon="10.4874717"><ele>159.0</ele><time>2026-03-22T10:56:31.746Z</time></trkpt><trkpt lat="45.4311783" lon="10.487575"><ele>160.0</ele><time>2026-03-22T10:56:34.755Z</time></trkpt><trkpt lat="45.4312117" lon="10.487685"><ele>161.0</ele><time>2026-03-22T10:56:37.753Z</time></trkpt><trkpt lat="45.4312317" lon="10.48782"><ele>162.0</ele><time>2026-03-22T10:56:40.75Z</time></trkpt><trkpt lat="45.4312483" lon="10.4879067"><ele>163.0</ele><time>2026-03-22T10:56:42.754Z</time></trkpt><trkpt lat="45.4312767" lon="10.48799"><ele>164.0</ele><time>2026-03-22T10:56:44.747Z</time></trkpt><trkpt lat="45.4313167" lon="10.4881217"><ele>165.0</ele><time>2026-03-22T10:56:47.748Z</time></trkpt><trkpt lat="45.4313517" lon="10.488215"><ele>166.57142857142858</ele><time>2026-03-22T10:56:50.757Z</time></trkpt><trkpt lat="45.43139" lon="10.4882983"><ele>168.14285714285714</ele><time>2026-03-22T10:56:53.747Z</time></trkpt><trkpt lat="45.431425" lon="10.48838"><ele>169.71428571428572</ele><time>2026-03-22T10:56:56.756Z</time></trkpt><trkpt lat="45.4314533" lon="10.488475"><ele>171.28571428571428</ele><time>2026-03-22T10:56:59.75Z</time></trkpt><trkpt lat="45.4314917" lon="10.48856"><ele>172.85714285714286</ele><time>2026-03-22T10:57:02.749Z</time></trkpt><trkpt lat="45.431535" lon="10.4886417"><ele>174.42857142857144</ele><time>2026-03-22T10:57:06.753Z</time></trkpt><trkpt lat="45.4316167" lon="10.4886683"><ele>176.0</ele><time>2026-03-22T10:57:11.755Z</time></trkpt><trkpt lat="45.4317167" lon="10.4886417"><ele>176.0</ele><time>2026-03-22T10:57:14.748Z</time></trkpt><trkpt lat="45.4317917" lon="10.4886517"><ele>176.0</ele><time>2026-03-22T10:57:17.748Z</time></trkpt><trkpt lat="45.4318467" lon="10.4887217"><ele>176.0</ele><time>2026-03-22T10:57:20.758Z</time></trkpt><trkpt lat="45.43188" lon="10.48882"><ele>176.0</ele><time>2026-03-22T10:57:26.749Z</time></trkpt><trkpt lat="45.4318867" lon="10.488915"><ele>176.0</ele><time>2026-03-22T10:57:29.751Z</time></trkpt><trkpt lat="45.4318817" lon="10.4890617"><ele>176.0</ele><time>2026-03-22T10:57:35.75Z</time></trkpt><trkpt lat="45.43187" lon="10.4891667"><ele>177.0</ele><time>2026-03-22T10:57:38.758Z</time></trkpt><trkpt lat="45.4318467" lon="10.48927"><ele>178.0</ele><time>2026-03-22T10:57:42.743Z</time></trkpt><trkpt lat="45.4318283" lon="10.4893683"><ele>179.0</ele><time>2026-03-22T10:57:45.747Z</time></trkpt><trkpt lat="45.4317817" lon="10.4894983"><ele>180.0</ele><time>2026-03-22T10:57:52.756Z</time></trkpt><trkpt lat="45.4317517" lon="10.4895833"><ele>181.0</ele><time>2026-03-22T10:57:54.756Z</time></trkpt><trkpt lat="45.43175" lon="10.4897767"><ele>182.83333333333334</ele><time>2026-03-22T10:58:01.752Z</time></trkpt><trkpt lat="45.4317733" lon="10.4898633"><ele>184.66666666666669</ele><time>2026-03-22T10:58:04.747Z</time></trkpt><trkpt lat="45.4318133" lon="10.4899733"><ele>186.5</ele><time>2026-03-22T10:58:07.753Z</time></trkpt><trkpt lat="45.4318783" lon="10.49005"><ele>188.33333333333334</ele><time>2026-03-22T10:58:10.747Z</time></trkpt><trkpt lat="45.431935" lon="10.4901017"><ele>190.16666666666666</ele><time>2026-03-22T10:58:14.757Z</time></trkpt><trkpt lat="45.4320067" lon="10.4901467"><ele>192.0</ele><time>2026-03-22T10:58:18.748Z</time></trkpt><trkpt lat="45.4320717" lon="10.490195"><ele>192.83333333333334</ele><time>2026-03-22T10:58:20.748Z</time></trkpt><trkpt lat="45.4321583" lon="10.4902483"><ele>193.66666666666669</ele><time>2026-03-22T10:58:23.757Z</time></trkpt><trkpt lat="45.432225" lon="10.4903033"><ele>194.5</ele><time>2026-03-22T10:58:26.749Z</time></trkpt><trkpt lat="45.432295" lon="10.4903417"><ele>195.33333333333334</ele><time>2026-03-22T10:58:28.75Z</time></trkpt><trkpt lat="45.4323583" lon="10.4903683"><ele>196.16666666666669</ele><time>2026-03-22T10:58:30.753Z</time></trkpt><trkpt lat="45.4324233" lon="10.4904017"><ele>197.0</ele><time>2026-03-22T10:58:32.756Z</time></trkpt><trkpt lat="45.4324983" lon="10.490465"><ele>197.0</ele><time>2026-03-22T10:58:35.746Z</time></trkpt><trkpt lat="45.4325533" lon="10.4905283"><ele>197.0</ele><time>2026-03-22T10:58:37.759Z</time></trkpt><trkpt lat="45.4326067" lon="10.4905983"><ele>197.0</ele><time>2026-03-22T10:58:40.755Z</time></trkpt><trkpt lat="45.43266" lon="10.4906667"><ele>197.0</ele><time>2026-03-22T10:58:43.746Z</time></trkpt><trkpt lat="45.4327217" lon="10.4907267"><ele>197.0</ele><time>2026-03-22T10:58:46.755Z</time></trkpt><trkpt lat="45.4327833" lon="10.490785"><ele>197.0</ele><time>2026-03-22T10:58:49.747Z</time></trkpt><trkpt lat="45.432845" lon="10.4908183"><ele>197.0</ele><time>2026-03-22T10:58:51.747Z</time></trkpt><trkpt lat="45.43292" lon="10.4908817"><ele>195.16666666666669</ele><time>2026-03-22T10:58:54.757Z</time></trkpt><trkpt lat="45.4330017" lon="10.4909283"><ele>193.33333333333334</ele><time>2026-03-22T10:58:56.756Z</time></trkpt><trkpt lat="45.4330667" lon="10.49096"><ele>191.5</ele><time>2026-03-22T10:58:58.748Z</time></trkpt><trkpt lat="45.4331467" lon="10.4910267"><ele>189.66666666666669</ele><time>2026-03-22T10:59:01.757Z</time></trkpt><trkpt lat="45.4332083" lon="10.4910833"><ele>187.83333333333334</ele><time>2026-03-22T10:59:03.752Z</time></trkpt><trkpt lat="45.43328" lon="10.4911617"><ele>186.0</ele><time>2026-03-22T10:59:06.747Z</time></trkpt><trkpt lat="45.433335" lon="10.4912083"><ele>188.0</ele><time>2026-03-22T10:59:08.753Z</time></trkpt><trkpt lat="45.4334083" lon="10.4912933"><ele>190.0</ele><time>2026-03-22T10:59:11.755Z</time></trkpt><trkpt lat="45.4334617" lon="10.4913517"><ele>192.0</ele><time>2026-03-22T10:59:13.749Z</time></trkpt><trkpt lat="45.433515" lon="10.491425"><ele>194.0</ele><time>2026-03-22T10:59:16.755Z</time></trkpt><trkpt lat="45.4335733" lon="10.4914733"><ele>196.0</ele><time>2026-03-22T10:59:18.752Z</time></trkpt><trkpt lat="45.4336317" lon="10.4915233"><ele>198.0</ele><time>2026-03-22T10:59:20.75Z</time></trkpt><trkpt lat="45.4337067" lon="10.49159"><ele>198.0</ele><time>2026-03-22T10:59:23.75Z</time></trkpt><trkpt lat="45.4337533" lon="10.49166"><ele>198.0</ele><time>2026-03-22T10:59:26.758Z</time></trkpt><trkpt lat="45.43381" lon="10.4917317"><ele>198.0</ele><time>2026-03-22T10:59:28.748Z</time></trkpt><trkpt lat="45.433895" lon="10.4918"><ele>198.0</ele><time>2026-03-22T10:59:30.754Z</time></trkpt><trkpt lat="45.433995" lon="10.4918633"><ele>198.0</ele><time>2026-03-22T10:59:32.755Z</time></trkpt><trkpt lat="45.43406" lon="10.49191"><ele>198.0</ele><time>2026-03-22T10:59:34.752Z</time></trkpt><trkpt lat="45.434125" lon="10.4919517"><ele>198.5</ele><time>2026-03-22T10:59:36.748Z</time></trkpt><trkpt lat="45.4342017" lon="10.4920133"><ele>199.0</ele><time>2026-03-22T10:59:39.754Z</time></trkpt><trkpt lat="45.4342667" lon="10.4920817"><ele>199.5</ele><time>2026-03-22T10:59:42.756Z</time></trkpt><trkpt lat="45.434325" lon="10.4921667"><ele>200.0</ele><time>2026-03-22T10:59:45.748Z</time></trkpt><trkpt lat="45.43438" lon="10.4922567"><ele>200.5</ele><time>2026-03-22T10:59:48.753Z</time></trkpt><trkpt lat="45.4344483" lon="10.492325"><ele>201.0</ele><time>2026-03-22T10:59:50.759Z</time></trkpt><trkpt lat="45.4345" lon="10.4923917"><ele>201.0</ele><time>2026-03-22T10:59:52.748Z</time></trkpt><trkpt lat="45.4345717" lon="10.4924617"><ele>201.0</ele><time>2026-03-22T10:59:55.758Z</time></trkpt><trkpt lat="45.4346567" lon="10.4924817"><ele>201.0</ele><time>2026-03-22T10:59:57.754Z</time></trkpt><trkpt lat="45.4347233" lon="10.492495"><ele>201.0</ele><time>2026-03-22T10:59:59.745Z</time></trkpt><trkpt lat="45.4348133" lon="10.4925183"><ele>201.0</ele><time>2026-03-22T11:00:02.754Z</time></trkpt><trkpt lat="45.4348867" lon="10.492575"><ele>201.0</ele><time>2026-03-22T11:00:04.751Z</time></trkpt><trkpt lat="45.4350017" lon="10.4926317"><ele>199.60000000000002</ele><time>2026-03-22T11:00:06.745Z</time></trkpt><trkpt lat="45.4350967" lon="10.492645"><ele>198.2</ele><time>2026-03-22T11:00:08.748Z</time></trkpt><trkpt lat="45.435165" lon="10.4926567"><ele>196.8</ele><time>2026-03-22T11:00:09.754Z</time></trkpt><trkpt lat="45.43528" lon="10.4926467"><ele>195.39999999999998</ele><time>2026-03-22T11:00:11.757Z</time></trkpt><trkpt lat="45.4353883" lon="10.4926383"><ele>194.0</ele><time>2026-03-22T11:00:14.75Z</time></trkpt><trkpt lat="45.4354717" lon="10.4926633"><ele>194.00000000000003</ele><time>2026-03-22T11:00:17.751Z</time></trkpt><trkpt lat="45.4355267" lon="10.4927367"><ele>194.0</ele><time>2026-03-22T11:00:21.747Z</time></trkpt><trkpt lat="45.4355483" lon="10.4928417"><ele>194.0</ele><time>2026-03-22T11:00:25.752Z</time></trkpt><trkpt lat="45.435555" lon="10.4929317"><ele>194.0</ele><time>2026-03-22T11:00:27.756Z</time></trkpt><trkpt lat="45.4356083" lon="10.4930133"><ele>194.00000000000003</ele><time>2026-03-22T11:00:29.755Z</time></trkpt><trkpt lat="45.435625" lon="10.49315"><ele>194.0</ele><time>2026-03-22T11:00:32.756Z</time></trkpt><trkpt lat="45.4356383" lon="10.493245"><ele>195.0</ele><time>2026-03-22T11:00:34.757Z</time></trkpt><trkpt lat="45.4356633" lon="10.493335"><ele>196.0</ele><time>2026-03-22T11:00:36.753Z</time></trkpt><trkpt lat="45.4356833" lon="10.493425"><ele>197.0</ele><time>2026-03-22T11:00:38.748Z</time></trkpt><trkpt lat="45.4357033" lon="10.4935117"><ele>198.0</ele><time>2026-03-22T11:00:40.754Z</time></trkpt><trkpt lat="45.4357333" lon="10.4935917"><ele>199.0</ele><time>2026-03-22T11:00:42.757Z</time></trkpt><trkpt lat="45.435775" lon="10.4936917"><ele>200.0</ele><time>2026-03-22T11:00:45.748Z</time></trkpt><trkpt lat="45.4358267" lon="10.4937867"><ele>201.0</ele><time>2026-03-22T11:00:48.752Z</time></trkpt><trkpt lat="45.435855" lon="10.4938767"><ele>203.0</ele><time>2026-03-22T11:00:51.755Z</time></trkpt><trkpt lat="45.435915" lon="10.4939483"><ele>205.0</ele><time>2026-03-22T11:00:54.747Z</time></trkpt><trkpt lat="45.43595" lon="10.4940333"><ele>207.0</ele><time>2026-03-22T11:00:57.751Z</time></trkpt><trkpt lat="45.43601" lon="10.4941017"><ele>209.0</ele><time>2026-03-22T11:01:00.751Z</time></trkpt><trkpt lat="45.43608" lon="10.4941733"><ele>211.0</ele><time>2026-03-22T11:01:04.751Z</time></trkpt><trkpt lat="45.436155" lon="10.4943017"><ele>213.0</ele><time>2026-03-22T11:01:36.76Z</time></trkpt><trkpt lat="45.4361933" lon="10.4943883"><ele>212.99999999999997</ele><time>2026-03-22T11:01:39.747Z</time></trkpt><trkpt lat="45.43623" lon="10.49448"><ele>213.0</ele><time>2026-03-22T11:01:42.752Z</time></trkpt><trkpt lat="45.4362733" lon="10.49457"><ele>213.0</ele><time>2026-03-22T11:01:45.757Z</time></trkpt><trkpt lat="45.4363133" lon="10.4946533"><ele>213.0</ele><time>2026-03-22T11:01:48.746Z</time></trkpt><trkpt lat="45.4363317" lon="10.4947417"><ele>213.0</ele><time>2026-03-22T11:01:51.757Z</time></trkpt><trkpt lat="45.4363533" lon="10.4948317"><ele>212.99999999999997</ele><time>2026-03-22T11:01:54.739Z</time></trkpt><trkpt lat="45.436375" lon="10.4949217"><ele>213.0</ele><time>2026-03-22T11:01:57.752Z</time></trkpt><trkpt lat="45.43642" lon="10.495025"><ele>214.57142857142856</ele><time>2026-03-22T11:02:00.759Z</time></trkpt><trkpt lat="45.4364767" lon="10.4950767"><ele>216.14285714285714</ele><time>2026-03-22T11:02:03.746Z</time></trkpt><trkpt lat="45.4364167" lon="10.4951067"><ele>217.71428571428572</ele><time>2026-03-22T11:02:09.755Z</time></trkpt><trkpt lat="45.436345" lon="10.4950833"><ele>219.28571428571428</ele><time>2026-03-22T11:02:13.752Z</time></trkpt><trkpt lat="45.4362667" lon="10.49508"><ele>220.85714285714286</ele><time>2026-03-22T11:02:17.747Z</time></trkpt><trkpt lat="45.4361967" lon="10.4950817"><ele>222.42857142857142</ele><time>2026-03-22T11:02:21.751Z</time></trkpt><trkpt lat="45.43611" lon="10.4951183"><ele>224.0</ele><time>2026-03-22T11:02:24.758Z</time></trkpt><trkpt lat="45.4360433" lon="10.4951533"><ele>224.00000000000003</ele><time>2026-03-22T11:02:26.751Z</time></trkpt><trkpt lat="45.4359817" lon="10.4951983"><ele>224.0</ele><time>2026-03-22T11:02:28.748Z</time></trkpt><trkpt lat="45.4359083" lon="10.49526"><ele>224.0</ele><time>2026-03-22T11:02:31.748Z</time></trkpt><trkpt lat="45.4358467" lon="10.4952883"><ele>224.0</ele><time>2026-03-22T11:02:33.748Z</time></trkpt><trkpt lat="45.4357567" lon="10.4953033"><ele>224.00000000000003</ele><time>2026-03-22T11:02:36.752Z</time></trkpt><trkpt lat="45.4356917" lon="10.4953067"><ele>224.0</ele><time>2026-03-22T11:02:38.76Z</time></trkpt><trkpt lat="45.435605" lon="10.4953167"><ele>224.00000000000003</ele><time>2026-03-22T11:02:42.747Z</time></trkpt><trkpt lat="45.4355267" lon="10.49533"><ele>224.0</ele><time>2026-03-22T11:02:45.757Z</time></trkpt><trkpt lat="45.4354267" lon="10.4953383"><ele>224.0</ele><time>2026-03-22T11:02:48.747Z</time></trkpt><trkpt lat="45.4353467" lon="10.4953067"><ele>224.0</ele><time>2026-03-22T11:02:51.753Z</time></trkpt><trkpt lat="45.4352933" lon="10.49524"><ele>224.00000000000003</ele><time>2026-03-22T11:02:53.751Z</time></trkpt><trkpt lat="45.4352267" lon="10.495155"><ele>224.0</ele><time>2026-03-22T11:02:56.749Z</time></trkpt><trkpt lat="45.4351467" lon="10.4951017"><ele>224.33333333333334</ele><time>2026-03-22T11:02:59.752Z</time></trkpt><trkpt lat="45.435075" lon="10.495045"><ele>224.66666666666669</ele><time>2026-03-22T11:03:02.756Z</time></trkpt><trkpt lat="45.435" lon="10.4949783"><ele>225.0</ele><time>2026-03-22T11:03:05.747Z</time></trkpt><trkpt lat="45.4349383" lon="10.494885"><ele>225.33333333333331</ele><time>2026-03-22T11:03:08.758Z</time></trkpt><trkpt lat="45.4349033" lon="10.4947833"><ele>225.66666666666666</ele><time>2026-03-22T11:03:11.745Z</time></trkpt><trkpt lat="45.4348483" lon="10.4947017"><ele>226.0</ele><time>2026-03-22T11:03:14.758Z</time></trkpt><trkpt lat="45.434785" lon="10.49466"><ele>225.99999999999997</ele><time>2026-03-22T11:03:18.753Z</time></trkpt><trkpt lat="45.4346967" lon="10.49463"><ele>226.0</ele><time>2026-03-22T11:03:29.757Z</time></trkpt><trkpt lat="45.43463" lon="10.4946017"><ele>226.0</ele><time>2026-03-22T11:03:32.759Z</time></trkpt><trkpt lat="45.434565" lon="10.4945533"><ele>226.0</ele><time>2026-03-22T11:03:36.75Z</time></trkpt><trkpt lat="45.4344933" lon="10.49451"><ele>225.99999999999997</ele><time>2026-03-22T11:03:40.755Z</time></trkpt><trkpt lat="45.43444" lon="10.49445"><ele>226.0</ele><time>2026-03-22T11:03:44.748Z</time></trkpt><trkpt lat="45.4343717" lon="10.4944"><ele>224.66666666666666</ele><time>2026-03-22T11:03:47.753Z</time></trkpt><trkpt lat="45.4342917" lon="10.4943433"><ele>223.33333333333331</ele><time>2026-03-22T11:03:50.751Z</time></trkpt><trkpt lat="45.434225" lon="10.4942983"><ele>222.0</ele><time>2026-03-22T11:03:52.747Z</time></trkpt><trkpt lat="45.4341267" lon="10.4942"><ele>220.66666666666669</ele><time>2026-03-22T11:03:54.754Z</time></trkpt><trkpt lat="45.43406" lon="10.4941283"><ele>219.33333333333334</ele><time>2026-03-22T11:03:56.753Z</time></trkpt><trkpt lat="45.4339883" lon="10.4940717"><ele>218.0</ele><time>2026-03-22T11:03:59.748Z</time></trkpt><trkpt lat="45.4339167" lon="10.4939967"><ele>218.00000000000003</ele><time>2026-03-22T11:04:02.756Z</time></trkpt><trkpt lat="45.43385" lon="10.4939267"><ele>218.0</ele><time>2026-03-22T11:04:05.741Z</time></trkpt><trkpt lat="45.43378" lon="10.4938717"><ele>218.0</ele><time>2026-03-22T11:04:08.755Z</time></trkpt><trkpt lat="45.4337033" lon="10.4938233"><ele>218.0</ele><time>2026-03-22T11:04:10.751Z</time></trkpt><trkpt lat="45.4336133" lon="10.4937617"><ele>218.00000000000003</ele><time>2026-03-22T11:04:15.746Z</time></trkpt><trkpt lat="45.4335417" lon="10.4936933"><ele>218.0</ele><time>2026-03-22T11:04:17.757Z</time></trkpt><trkpt lat="45.4335" lon="10.493615"><ele>218.8</ele><time>2026-03-22T11:04:19.763Z</time></trkpt><trkpt lat="45.4334517" lon="10.49349"><ele>219.60000000000002</ele><time>2026-03-22T11:04:21.746Z</time></trkpt><trkpt lat="45.4333983" lon="10.493385"><ele>220.39999999999998</ele><time>2026-03-22T11:04:23.747Z</time></trkpt><trkpt lat="45.4333417" lon="10.4932883"><ele>221.2</ele><time>2026-03-22T11:04:25.751Z</time></trkpt><trkpt lat="45.4332783" lon="10.4932067"><ele>222.0</ele><time>2026-03-22T11:04:27.753Z</time></trkpt><trkpt lat="45.4332083" lon="10.4931067"><ele>222.0</ele><time>2026-03-22T11:04:29.749Z</time></trkpt><trkpt lat="45.433165" lon="10.4930133"><ele>222.0</ele><time>2026-03-22T11:04:31.749Z</time></trkpt><trkpt lat="45.43312" lon="10.4929117"><ele>222.0</ele><time>2026-03-22T11:04:34.752Z</time></trkpt><trkpt lat="45.4330617" lon="10.4928767"><ele>222.0</ele><time>2026-03-22T11:04:35.753Z</time></trkpt><trkpt lat="45.432995" lon="10.492805"><ele>222.0</ele><time>2026-03-22T11:04:38.749Z</time></trkpt><trkpt lat="45.43294" lon="10.492745"><ele>222.0</ele><time>2026-03-22T11:04:41.748Z</time></trkpt><trkpt lat="45.43288" lon="10.49265"><ele>220.8</ele><time>2026-03-22T11:04:45.747Z</time></trkpt><trkpt lat="45.4328183" lon="10.492575"><ele>219.6</ele><time>2026-03-22T11:04:47.759Z</time></trkpt><trkpt lat="45.43279" lon="10.4924733"><ele>218.40000000000003</ele><time>2026-03-22T11:04:48.767Z</time></trkpt><trkpt lat="45.432725" lon="10.49237"><ele>217.20000000000002</ele><time>2026-03-22T11:04:50.757Z</time></trkpt><trkpt lat="45.43266" lon="10.4922583"><ele>216.0</ele><time>2026-03-22T11:04:52.748Z</time></trkpt><trkpt lat="45.432565" lon="10.49214"><ele>215.16666666666666</ele><time>2026-03-22T11:04:54.749Z</time></trkpt><trkpt lat="45.4324917" lon="10.4920817"><ele>214.33333333333331</ele><time>2026-03-22T11:04:56.755Z</time></trkpt><trkpt lat="45.4324167" lon="10.492015"><ele>213.5</ele><time>2026-03-22T11:04:58.751Z</time></trkpt><trkpt lat="45.432365" lon="10.4919083"><ele>212.66666666666666</ele><time>2026-03-22T11:05:00.749Z</time></trkpt><trkpt lat="45.432285" lon="10.4918417"><ele>211.83333333333331</ele><time>2026-03-22T11:05:02.75Z</time></trkpt><trkpt lat="45.4322083" lon="10.4917817"><ele>211.0</ele><time>2026-03-22T11:05:04.754Z</time></trkpt><trkpt lat="45.4321433" lon="10.4917233"><ele>211.33333333333331</ele><time>2026-03-22T11:05:06.758Z</time></trkpt><trkpt lat="45.4320383" lon="10.491665"><ele>211.66666666666666</ele><time>2026-03-22T11:05:08.748Z</time></trkpt><trkpt lat="45.4319633" lon="10.4916233"><ele>212.0</ele><time>2026-03-22T11:05:10.75Z</time></trkpt><trkpt lat="45.4318917" lon="10.4915183"><ele>212.33333333333331</ele><time>2026-03-22T11:05:12.758Z</time></trkpt><trkpt lat="45.43182" lon="10.4914483"><ele>212.66666666666666</ele><time>2026-03-22T11:05:15.748Z</time></trkpt><trkpt lat="45.4317683" lon="10.491395"><ele>213.0</ele><time>2026-03-22T11:05:18.757Z</time></trkpt><trkpt lat="45.4316867" lon="10.4913333"><ele>213.0</ele><time>2026-03-22T11:05:21.752Z</time></trkpt><trkpt lat="45.431635" lon="10.4912683"><ele>213.0</ele><time>2026-03-22T11:05:24.747Z</time></trkpt><trkpt lat="45.4315133" lon="10.49113"><ele>213.0</ele><time>2026-03-22T11:05:41.749Z</time></trkpt><trkpt lat="45.4314667" lon="10.4910467"><ele>213.0</ele><time>2026-03-22T11:05:43.752Z</time></trkpt><trkpt lat="45.4314183" lon="10.49095"><ele>213.0</ele><time>2026-03-22T11:05:46.748Z</time></trkpt><trkpt lat="45.431365" lon="10.490855"><ele>212.28571428571428</ele><time>2026-03-22T11:05:49.758Z</time></trkpt><trkpt lat="45.431315" lon="10.490775"><ele>211.57142857142856</ele><time>2026-03-22T11:05:51.748Z</time></trkpt><trkpt lat="45.4312433" lon="10.4907417"><ele>210.85714285714283</ele><time>2026-03-22T11:05:52.745Z</time></trkpt><trkpt lat="45.4311933" lon="10.490645"><ele>210.14285714285714</ele><time>2026-03-22T11:05:55.748Z</time></trkpt><trkpt lat="45.4311417" lon="10.4905733"><ele>209.42857142857144</ele><time>2026-03-22T11:05:57.756Z</time></trkpt><trkpt lat="45.4311" lon="10.4905"><ele>208.7142857142857</ele><time>2026-03-22T11:06:00.743Z</time></trkpt><trkpt lat="45.431065" lon="10.4904233"><ele>208.0</ele><time>2026-03-22T11:06:03.748Z</time></trkpt><trkpt lat="45.4310183" lon="10.4903383"><ele>206.57142857142856</ele><time>2026-03-22T11:06:05.752Z</time></trkpt><trkpt lat="45.4309683" lon="10.4902683"><ele>205.14285714285717</ele><time>2026-03-22T11:06:07.765Z</time></trkpt><trkpt lat="45.430925" lon="10.4901833"><ele>203.71428571428572</ele><time>2026-03-22T11:06:09.747Z</time></trkpt><trkpt lat="45.430885" lon="10.4901083"><ele>202.28571428571428</ele><time>2026-03-22T11:06:12.756Z</time></trkpt><trkpt lat="45.4308283" lon="10.490015"><ele>200.85714285714283</ele><time>2026-03-22T11:06:17.748Z</time></trkpt><trkpt lat="45.4307817" lon="10.4899517"><ele>199.42857142857144</ele><time>2026-03-22T11:06:19.759Z</time></trkpt><trkpt lat="45.4307233" lon="10.4898633"><ele>198.0</ele><time>2026-03-22T11:06:22.757Z</time></trkpt><trkpt lat="45.4306667" lon="10.48977"><ele>198.0</ele><time>2026-03-22T11:06:25.754Z</time></trkpt><trkpt lat="45.4306117" lon="10.4896967"><ele>198.0</ele><time>2026-03-22T11:06:27.754Z</time></trkpt><trkpt lat="45.4304683" lon="10.48963"><ele>198.0</ele><time>2026-03-22T11:06:43.753Z</time></trkpt><trkpt lat="45.43045" lon="10.489465"><ele>198.0</ele><time>2026-03-22T11:07:35.357Z</time></trkpt><trkpt lat="45.4304067" lon="10.489335"><ele>198.0</ele><time>2026-03-22T11:07:43.356Z</time></trkpt><trkpt lat="45.4303417" lon="10.4891633"><ele>195.8</ele><time>2026-03-22T11:07:52.357Z</time></trkpt><trkpt lat="45.43029" lon="10.48905"><ele>193.60000000000002</ele><time>2026-03-22T11:07:55.352Z</time></trkpt><trkpt lat="45.4302417" lon="10.4889483"><ele>191.39999999999998</ele><time>2026-03-22T11:07:57.345Z</time></trkpt><trkpt lat="45.4301817" lon="10.48886"><ele>189.2</ele><time>2026-03-22T11:07:59.345Z</time></trkpt><trkpt lat="45.4301483" lon="10.4886867"><ele>187.0</ele><time>2026-03-22T11:08:12.348Z</time></trkpt><trkpt lat="45.4301283" lon="10.488505"><ele>185.16666666666669</ele><time>2026-03-22T11:08:34.345Z</time></trkpt><trkpt lat="45.43008" lon="10.4884067"><ele>183.33333333333334</ele><time>2026-03-22T11:08:37.354Z</time></trkpt><trkpt lat="45.4300483" lon="10.4882933"><ele>181.5</ele><time>2026-03-22T11:08:39.358Z</time></trkpt><trkpt lat="45.43003" lon="10.488155"><ele>179.66666666666666</ele><time>2026-03-22T11:08:41.353Z</time></trkpt><trkpt lat="45.4300133" lon="10.4880467"><ele>177.83333333333331</ele><time>2026-03-22T11:08:43.344Z</time></trkpt><trkpt lat="45.43" lon="10.487945"><ele>176.0</ele><time>2026-03-22T11:08:45.36Z</time></trkpt><trkpt lat="45.42999" lon="10.4878367"><ele>174.5</ele><time>2026-03-22T11:08:47.351Z</time></trkpt><trkpt lat="45.4299817" lon="10.4877383"><ele>173.0</ele><time>2026-03-22T11:08:49.352Z</time></trkpt><trkpt lat="45.42998" lon="10.487635"><ele>171.5</ele><time>2026-03-22T11:08:51.347Z</time></trkpt><trkpt lat="45.4299767" lon="10.487525"><ele>170.0</ele><time>2026-03-22T11:08:53.348Z</time></trkpt><trkpt lat="45.4299733" lon="10.4874333"><ele>168.5</ele><time>2026-03-22T11:08:55.351Z</time></trkpt><trkpt lat="45.4299417" lon="10.4872917"><ele>167.0</ele><time>2026-03-22T11:08:58.344Z</time></trkpt><trkpt lat="45.4298933" lon="10.4872217"><ele>167.0</ele><time>2026-03-22T11:09:01.351Z</time></trkpt><trkpt lat="45.429835" lon="10.48716"><ele>167.0</ele><time>2026-03-22T11:09:03.351Z</time></trkpt><trkpt lat="45.4297567" lon="10.4871383"><ele>167.0</ele><time>2026-03-22T11:09:06.349Z</time></trkpt><trkpt lat="45.4296833" lon="10.487125"><ele>167.0</ele><time>2026-03-22T11:09:08.354Z</time></trkpt><trkpt lat="45.4296117" lon="10.4871367"><ele>167.0</ele><time>2026-03-22T11:09:10.35Z</time></trkpt><trkpt lat="45.4295283" lon="10.4871567"><ele>167.0</ele><time>2026-03-22T11:09:13.345Z</time></trkpt><trkpt lat="45.429455" lon="10.4871733"><ele>167.83333333333331</ele><time>2026-03-22T11:09:16.349Z</time></trkpt><trkpt lat="45.429365" lon="10.4871867"><ele>168.66666666666666</ele><time>2026-03-22T11:09:19.352Z</time></trkpt><trkpt lat="45.4292933" lon="10.48721"><ele>169.5</ele><time>2026-03-22T11:09:21.345Z</time></trkpt><trkpt lat="45.4292117" lon="10.4872333"><ele>170.33333333333334</ele><time>2026-03-22T11:09:23.347Z</time></trkpt><trkpt lat="45.42913" lon="10.48724"><ele>171.16666666666669</ele><time>2026-03-22T11:09:25.348Z</time></trkpt><trkpt lat="45.42906" lon="10.4872733"><ele>172.0</ele><time>2026-03-22T11:09:27.356Z</time></trkpt><trkpt lat="45.4289867" lon="10.4872867"><ele>172.0</ele><time>2026-03-22T11:09:29.348Z</time></trkpt><trkpt lat="45.4289033" lon="10.48731"><ele>172.0</ele><time>2026-03-22T11:09:31.355Z</time></trkpt><trkpt lat="45.4288183" lon="10.487335"><ele>172.0</ele><time>2026-03-22T11:09:33.35Z</time></trkpt><trkpt lat="45.4287467" lon="10.4873567"><ele>172.0</ele><time>2026-03-22T11:09:35.354Z</time></trkpt><trkpt lat="45.4286817" lon="10.48736"><ele>172.0</ele><time>2026-03-22T11:09:37.346Z</time></trkpt><trkpt lat="45.4285983" lon="10.48737"><ele>172.0</ele><time>2026-03-22T11:09:39.351Z</time></trkpt><trkpt lat="45.4285117" lon="10.48737"><ele>173.5</ele><time>2026-03-22T11:09:41.353Z</time></trkpt><trkpt lat="45.4284467" lon="10.4873767"><ele>175.0</ele><time>2026-03-22T11:09:43.356Z</time></trkpt><trkpt lat="45.4283517" lon="10.487395"><ele>176.5</ele><time>2026-03-22T11:09:46.346Z</time></trkpt><trkpt lat="45.4282617" lon="10.4874017"><ele>178.0</ele><time>2026-03-22T11:09:49.356Z</time></trkpt><trkpt lat="45.4281933" lon="10.4874067"><ele>179.5</ele><time>2026-03-22T11:09:51.352Z</time></trkpt><trkpt lat="45.4281067" lon="10.48742"><ele>181.0</ele><time>2026-03-22T11:09:54.346Z</time></trkpt><trkpt lat="45.4280283" lon="10.4874433"><ele>181.33333333333334</ele><time>2026-03-22T11:09:57.352Z</time></trkpt><trkpt lat="45.4279517" lon="10.4874733"><ele>181.66666666666669</ele><time>2026-03-22T11:10:00.351Z</time></trkpt><trkpt lat="45.4278783" lon="10.48751"><ele>182.0</ele><time>2026-03-22T11:10:03.35Z</time></trkpt><trkpt lat="45.4278033" lon="10.4875567"><ele>182.33333333333334</ele><time>2026-03-22T11:10:07.336Z</time></trkpt><trkpt lat="45.4277217" lon="10.48761"><ele>182.66666666666666</ele><time>2026-03-22T11:10:10.352Z</time></trkpt><trkpt lat="45.4276567" lon="10.4876683"><ele>183.0</ele><time>2026-03-22T11:10:13.352Z</time></trkpt><trkpt lat="45.4276033" lon="10.4877783"><ele>183.0</ele><time>2026-03-22T11:10:16.348Z</time></trkpt><trkpt lat="45.4275567" lon="10.48789"><ele>183.0</ele><time>2026-03-22T11:10:19.356Z</time></trkpt><trkpt lat="45.4275267" lon="10.48798"><ele>183.0</ele><time>2026-03-22T11:10:21.351Z</time></trkpt><trkpt lat="45.4275083" lon="10.48809"><ele>183.0</ele><time>2026-03-22T11:10:23.346Z</time></trkpt><trkpt lat="45.42749" lon="10.4882283"><ele>183.0</ele><time>2026-03-22T11:10:25.349Z</time></trkpt><trkpt lat="45.4274817" lon="10.4883833"><ele>183.0</ele><time>2026-03-22T11:10:27.356Z</time></trkpt><trkpt lat="45.42748" lon="10.4885133"><ele>183.0</ele><time>2026-03-22T11:10:29.35Z</time></trkpt><trkpt lat="45.4274767" lon="10.4886433"><ele>183.0</ele><time>2026-03-22T11:10:31.348Z</time></trkpt><trkpt lat="45.4274733" lon="10.4887867"><ele>183.0</ele><time>2026-03-22T11:10:33.344Z</time></trkpt><trkpt lat="45.4274583" lon="10.4889283"><ele>183.0</ele><time>2026-03-22T11:10:35.352Z</time></trkpt><trkpt lat="45.42745" lon="10.4890367"><ele>183.0</ele><time>2026-03-22T11:10:37.352Z</time></trkpt><trkpt lat="45.4274333" lon="10.489135"><ele>183.0</ele><time>2026-03-22T11:10:39.349Z</time></trkpt><trkpt lat="45.4274017" lon="10.4892517"><ele>182.66666666666666</ele><time>2026-03-22T11:10:41.353Z</time></trkpt><trkpt lat="45.4273783" lon="10.4893683"><ele>182.33333333333334</ele><time>2026-03-22T11:10:43.353Z</time></trkpt><trkpt lat="45.4273417" lon="10.4894483"><ele>182.0</ele><time>2026-03-22T11:10:45.355Z</time></trkpt><trkpt lat="45.4273017" lon="10.4895367"><ele>181.66666666666669</ele><time>2026-03-22T11:10:47.347Z</time></trkpt><trkpt lat="45.4272533" lon="10.489645"><ele>181.33333333333334</ele><time>2026-03-22T11:10:49.354Z</time></trkpt><trkpt lat="45.4272133" lon="10.489755"><ele>181.0</ele><time>2026-03-22T11:10:51.351Z</time></trkpt><trkpt lat="45.4271817" lon="10.4898433"><ele>181.0</ele><time>2026-03-22T11:10:53.348Z</time></trkpt><trkpt lat="45.427145" lon="10.4899183"><ele>181.0</ele><time>2026-03-22T11:10:55.346Z</time></trkpt><trkpt lat="45.42709" lon="10.4899917"><ele>181.0</ele><time>2026-03-22T11:10:58.354Z</time></trkpt><trkpt lat="45.4270083" lon="10.4900067"><ele>181.0</ele><time>2026-03-22T11:11:02.349Z</time></trkpt><trkpt lat="45.4269367" lon="10.4900567"><ele>181.0</ele><time>2026-03-22T11:11:06.351Z</time></trkpt><trkpt lat="45.4268617" lon="10.4901383"><ele>181.0</ele><time>2026-03-22T11:11:09.342Z</time></trkpt><trkpt lat="45.4267883" lon="10.4901933"><ele>180.33333333333334</ele><time>2026-03-22T11:11:11.351Z</time></trkpt><trkpt lat="45.426715" lon="10.4902383"><ele>179.66666666666669</ele><time>2026-03-22T11:11:13.354Z</time></trkpt><trkpt lat="45.4266283" lon="10.4902717"><ele>179.0</ele><time>2026-03-22T11:11:15.352Z</time></trkpt><trkpt lat="45.4265367" lon="10.490285"><ele>178.33333333333334</ele><time>2026-03-22T11:11:18.348Z</time></trkpt><trkpt lat="45.4264467" lon="10.4902617"><ele>177.66666666666666</ele><time>2026-03-22T11:11:21.351Z</time></trkpt><trkpt lat="45.4263717" lon="10.490245"><ele>177.0</ele><time>2026-03-22T11:11:24.348Z</time></trkpt><trkpt lat="45.4262833" lon="10.4902367"><ele>176.16666666666666</ele><time>2026-03-22T11:11:27.373Z</time></trkpt><trkpt lat="45.4261483" lon="10.4902317"><ele>175.33333333333334</ele><time>2026-03-22T11:11:29.352Z</time></trkpt><trkpt lat="45.4260883" lon="10.4901967"><ele>174.5</ele><time>2026-03-22T11:11:31.352Z</time></trkpt><trkpt lat="45.4260133" lon="10.4901567"><ele>173.66666666666669</ele><time>2026-03-22T11:11:34.352Z</time></trkpt><trkpt lat="45.4259417" lon="10.4901017"><ele>172.83333333333334</ele><time>2026-03-22T11:11:37.355Z</time></trkpt><trkpt lat="45.4258933" lon="10.4900267"><ele>172.0</ele><time>2026-03-22T11:11:41.348Z</time></trkpt><trkpt lat="45.4258317" lon="10.489985"><ele>172.00000000000003</ele><time>2026-03-22T11:11:43.355Z</time></trkpt><trkpt lat="45.4258" lon="10.4898933"><ele>172.0</ele><time>2026-03-22T11:11:46.354Z</time></trkpt><trkpt lat="45.425735" lon="10.4898167"><ele>172.0</ele><time>2026-03-22T11:11:49.35Z</time></trkpt><trkpt lat="45.4256683" lon="10.4897483"><ele>172.0</ele><time>2026-03-22T11:11:52.354Z</time></trkpt><trkpt lat="45.4256" lon="10.489715"><ele>172.0</ele><time>2026-03-22T11:11:57.348Z</time></trkpt><trkpt lat="45.4255367" lon="10.489705"><ele>172.00000000000003</ele><time>2026-03-22T11:12:00.356Z</time></trkpt><trkpt lat="45.425465" lon="10.4897167"><ele>172.0</ele><time>2026-03-22T11:12:05.345Z</time></trkpt><trkpt lat="45.4253883" lon="10.4897083"><ele>170.5</ele><time>2026-03-22T11:12:08.355Z</time></trkpt><trkpt lat="45.425325" lon="10.48968"><ele>169.0</ele><time>2026-03-22T11:12:11.347Z</time></trkpt><trkpt lat="45.4252467" lon="10.4896783"><ele>167.5</ele><time>2026-03-22T11:12:13.356Z</time></trkpt><trkpt lat="45.42517" lon="10.489675"><ele>166.0</ele><time>2026-03-22T11:12:15.352Z</time></trkpt><trkpt lat="45.425105" lon="10.4896517"><ele>164.5</ele><time>2026-03-22T11:12:17.356Z</time></trkpt><trkpt lat="45.4250483" lon="10.4896"><ele>163.0</ele><time>2026-03-22T11:12:21.344Z</time></trkpt><trkpt lat="45.424945" lon="10.48958"><ele>163.0</ele><time>2026-03-22T11:12:38.348Z</time></trkpt><trkpt lat="45.424855" lon="10.4895583"><ele>163.0</ele><time>2026-03-22T11:12:41.345Z</time></trkpt><trkpt lat="45.42477" lon="10.4895333"><ele>163.0</ele><time>2026-03-22T11:12:44.358Z</time></trkpt><trkpt lat="45.4246917" lon="10.48951"><ele>163.0</ele><time>2026-03-22T11:12:48.35Z</time></trkpt><trkpt lat="45.42463" lon="10.48947"><ele>163.0</ele><time>2026-03-22T11:12:52.349Z</time></trkpt><trkpt lat="45.4244883" lon="10.4894083"><ele>161.0</ele><time>2026-03-22T11:13:05.347Z</time></trkpt><trkpt lat="45.4243983" lon="10.4893717"><ele>159.0</ele><time>2026-03-22T11:13:07.35Z</time></trkpt><trkpt lat="45.4243233" lon="10.4893433"><ele>157.0</ele><time>2026-03-22T11:13:10.347Z</time></trkpt><trkpt lat="45.4241617" lon="10.4892733"><ele>155.0</ele><time>2026-03-22T11:13:20.351Z</time></trkpt><trkpt lat="45.4240783" lon="10.4891983"><ele>153.0</ele><time>2026-03-22T11:13:23.351Z</time></trkpt><trkpt lat="45.4240167" lon="10.4891533"><ele>153.0</ele><time>2026-03-22T11:13:25.35Z</time></trkpt><trkpt lat="45.423865" lon="10.4889983"><ele>153.0</ele><time>2026-03-22T11:13:37.352Z</time></trkpt><trkpt lat="45.4237333" lon="10.4889383"><ele>153.0</ele><time>2026-03-22T11:13:41.352Z</time></trkpt><trkpt lat="45.423615" lon="10.4888483"><ele>153.0</ele><time>2026-03-22T11:13:43.341Z</time></trkpt><trkpt lat="45.42345" lon="10.48881"><ele>153.0</ele><time>2026-03-22T11:14:30.751Z</time></trkpt><trkpt lat="45.42337" lon="10.4887667"><ele>153.0</ele><time>2026-03-22T11:14:33.751Z</time></trkpt><trkpt lat="45.4233017" lon="10.4887283"><ele>153.0</ele><time>2026-03-22T11:14:36.746Z</time></trkpt><trkpt lat="45.4232267" lon="10.4886817"><ele>153.0</ele><time>2026-03-22T11:14:39.751Z</time></trkpt><trkpt lat="45.42317" lon="10.4886417"><ele>152.5</ele><time>2026-03-22T11:14:41.754Z</time></trkpt><trkpt lat="45.423115" lon="10.48857"><ele>152.0</ele><time>2026-03-22T11:14:44.748Z</time></trkpt><trkpt lat="45.4230367" lon="10.488515"><ele>151.5</ele><time>2026-03-22T11:14:47.753Z</time></trkpt><trkpt lat="45.4229767" lon="10.488455"><ele>151.0</ele><time>2026-03-22T11:14:50.75Z</time></trkpt><trkpt lat="45.4229083" lon="10.4883967"><ele>150.5</ele><time>2026-03-22T11:14:53.75Z</time></trkpt><trkpt lat="45.4228417" lon="10.4883167"><ele>150.0</ele><time>2026-03-22T11:14:56.759Z</time></trkpt><trkpt lat="45.4227817" lon="10.4882333"><ele>149.99999999999997</ele><time>2026-03-22T11:14:59.744Z</time></trkpt><trkpt lat="45.4227317" lon="10.4881717"><ele>150.0</ele><time>2026-03-22T11:15:01.756Z</time></trkpt><trkpt lat="45.4226783" lon="10.4881167"><ele>150.0</ele><time>2026-03-22T11:15:03.758Z</time></trkpt><trkpt lat="45.4226267" lon="10.488065"><ele>150.0</ele><time>2026-03-22T11:15:05.749Z</time></trkpt><trkpt lat="45.4225717" lon="10.48799"><ele>150.0</ele><time>2026-03-22T11:15:07.749Z</time></trkpt><trkpt lat="45.4225283" lon="10.4879217"><ele>149.99999999999997</ele><time>2026-03-22T11:15:09.754Z</time></trkpt><trkpt lat="45.42247" lon="10.4878567"><ele>150.0</ele><time>2026-03-22T11:15:11.752Z</time></trkpt><trkpt lat="45.4224567" lon="10.4877667"><ele>149.57142857142856</ele><time>2026-03-22T11:15:13.746Z</time></trkpt><trkpt lat="45.4224483" lon="10.487665"><ele>149.14285714285714</ele><time>2026-03-22T11:15:15.744Z</time></trkpt><trkpt lat="45.4224433" lon="10.4875683"><ele>148.71428571428572</ele><time>2026-03-22T11:15:17.745Z</time></trkpt><trkpt lat="45.4224483" lon="10.487475"><ele>148.28571428571428</ele><time>2026-03-22T11:15:19.747Z</time></trkpt><trkpt lat="45.422445" lon="10.4873767"><ele>147.85714285714286</ele><time>2026-03-22T11:15:22.743Z</time></trkpt><trkpt lat="45.42245" lon="10.4872683"><ele>147.42857142857142</ele><time>2026-03-22T11:15:25.748Z</time></trkpt><trkpt lat="45.4224817" lon="10.48715"><ele>147.0</ele><time>2026-03-22T11:15:28.754Z</time></trkpt><trkpt lat="45.42249" lon="10.48703"><ele>146.5</ele><time>2026-03-22T11:15:31.751Z</time></trkpt><trkpt lat="45.422495" lon="10.48693"><ele>146.0</ele><time>2026-03-22T11:15:33.75Z</time></trkpt><trkpt lat="45.4225" lon="10.4868367"><ele>145.5</ele><time>2026-03-22T11:15:35.754Z</time></trkpt><trkpt lat="45.4224933" lon="10.4867467"><ele>145.0</ele><time>2026-03-22T11:15:37.744Z</time></trkpt><trkpt lat="45.4224717" lon="10.4866383"><ele>144.5</ele><time>2026-03-22T11:15:39.754Z</time></trkpt><trkpt lat="45.42244" lon="10.4865333"><ele>144.0</ele><time>2026-03-22T11:15:41.75Z</time></trkpt><trkpt lat="45.4224" lon="10.4864017"><ele>144.0</ele><time>2026-03-22T11:15:43.75Z</time></trkpt><trkpt lat="45.4223583" lon="10.4863067"><ele>144.0</ele><time>2026-03-22T11:15:44.749Z</time></trkpt><trkpt lat="45.4222983" lon="10.4861833"><ele>144.0</ele><time>2026-03-22T11:15:46.31Z</time></trkpt><trkpt lat="45.4222517" lon="10.4860667"><ele>144.0</ele><time>2026-03-22T11:15:48.309Z</time></trkpt><trkpt lat="45.4222083" lon="10.4859783"><ele>144.0</ele><time>2026-03-22T11:15:50.308Z</time></trkpt><trkpt lat="45.42215" lon="10.485905"><ele>144.0</ele><time>2026-03-22T11:15:52.3Z</time></trkpt><trkpt lat="45.4220617" lon="10.485865"><ele>143.33333333333334</ele><time>2026-03-22T11:15:54.307Z</time></trkpt><trkpt lat="45.421985" lon="10.4858217"><ele>142.66666666666666</ele><time>2026-03-22T11:15:56.313Z</time></trkpt><trkpt lat="45.42192" lon="10.48581"><ele>142.0</ele><time>2026-03-22T11:15:58.31Z</time></trkpt><trkpt lat="45.4218517" lon="10.485795"><ele>141.33333333333331</ele><time>2026-03-22T11:16:01.298Z</time></trkpt><trkpt lat="45.4217783" lon="10.485785"><ele>140.66666666666666</ele><time>2026-03-22T11:16:03.306Z</time></trkpt><trkpt lat="45.4217017" lon="10.48577"><ele>140.0</ele><time>2026-03-22T11:16:05.302Z</time></trkpt><trkpt lat="45.4215983" lon="10.48578"><ele>140.0</ele><time>2026-03-22T11:16:07.3Z</time></trkpt><trkpt lat="45.421485" lon="10.48578"><ele>140.0</ele><time>2026-03-22T11:16:09.3Z</time></trkpt><trkpt lat="45.421375" lon="10.4857567"><ele>140.0</ele><time>2026-03-22T11:16:11.305Z</time></trkpt><trkpt lat="45.4212967" lon="10.4857117"><ele>140.0</ele><time>2026-03-22T11:16:13.3Z</time></trkpt><trkpt lat="45.4212283" lon="10.4857183"><ele>140.0</ele><time>2026-03-22T11:16:15.303Z</time></trkpt><trkpt lat="45.421165" lon="10.4857117"><ele>140.0</ele><time>2026-03-22T11:16:17.307Z</time></trkpt><trkpt lat="45.42109" lon="10.4857017"><ele>139.85714285714286</ele><time>2026-03-22T11:16:19.309Z</time></trkpt><trkpt lat="45.4210183" lon="10.4857317"><ele>139.71428571428572</ele><time>2026-03-22T11:16:21.3Z</time></trkpt><trkpt lat="45.42096" lon="10.4858083"><ele>139.57142857142856</ele><time>2026-03-22T11:16:22.302Z</time></trkpt><trkpt lat="45.4209233" lon="10.4858883"><ele>139.42857142857144</ele><time>2026-03-22T11:16:27.306Z</time></trkpt><trkpt lat="45.420995" lon="10.4858983"><ele>139.28571428571428</ele><time>2026-03-22T11:16:36.306Z</time></trkpt><trkpt lat="45.421065" lon="10.4858367"><ele>139.14285714285714</ele><time>2026-03-22T11:16:39.3Z</time></trkpt><trkpt lat="45.4211267" lon="10.48586"><ele>139.0</ele><time>2026-03-22T11:16:41.304Z</time></trkpt><trkpt lat="45.4211583" lon="10.48594"><ele>139.0</ele><time>2026-03-22T11:16:45.301Z</time></trkpt><trkpt lat="45.4211383" lon="10.4860383"><ele>139.0</ele><time>2026-03-22T11:16:50.312Z</time></trkpt><trkpt lat="45.42113" lon="10.4861367"><ele>139.0</ele><time>2026-03-22T11:16:53.299Z</time></trkpt><trkpt lat="45.4211233" lon="10.4862283"><ele>139.0</ele><time>2026-03-22T11:16:55.313Z</time></trkpt><trkpt lat="45.4211583" lon="10.486335"><ele>139.0</ele><time>2026-03-22T11:16:57.306Z</time></trkpt><trkpt lat="45.4212083" lon="10.4864183"><ele>139.0</ele><time>2026-03-22T11:17:00.302Z</time></trkpt><trkpt lat="45.42122" lon="10.4865383"><ele>140.83333333333334</ele><time>2026-03-22T11:17:04.305Z</time></trkpt><trkpt lat="45.4211483" lon="10.48656"><ele>142.66666666666669</ele><time>2026-03-22T11:17:07.307Z</time></trkpt><trkpt lat="45.4210583" lon="10.4865733"><ele>144.5</ele><time>2026-03-22T11:17:10.3Z</time></trkpt><trkpt lat="45.4209833" lon="10.48657"><ele>146.33333333333334</ele><time>2026-03-22T11:17:13.306Z</time></trkpt><trkpt lat="45.42091" lon="10.48656"><ele>148.16666666666666</ele><time>2026-03-22T11:17:16.299Z</time></trkpt><trkpt lat="45.4208167" lon="10.486555"><ele>150.0</ele><time>2026-03-22T11:17:19.305Z</time></trkpt><trkpt lat="45.4207267" lon="10.4865533"><ele>150.0</ele><time>2026-03-22T11:17:22.304Z</time></trkpt><trkpt lat="45.4206367" lon="10.48654"><ele>150.0</ele><time>2026-03-22T11:17:25.302Z</time></trkpt><trkpt lat="45.4205517" lon="10.486525"><ele>150.0</ele><time>2026-03-22T11:17:28.311Z</time></trkpt><trkpt lat="45.4204683" lon="10.4865133"><ele>150.0</ele><time>2026-03-22T11:17:32.305Z</time></trkpt><trkpt lat="45.4204033" lon="10.4865317"><ele>150.0</ele><time>2026-03-22T11:17:35.31Z</time></trkpt><trkpt lat="45.420375" lon="10.4866233"><ele>150.0</ele><time>2026-03-22T11:17:38.31Z</time></trkpt><trkpt lat="45.420365" lon="10.486715"><ele>150.5</ele><time>2026-03-22T11:17:40.301Z</time></trkpt><trkpt lat="45.4203617" lon="10.48683"><ele>151.0</ele><time>2026-03-22T11:17:42.312Z</time></trkpt><trkpt lat="45.4203533" lon="10.4869317"><ele>151.5</ele><time>2026-03-22T11:17:44.308Z</time></trkpt><trkpt lat="45.42035" lon="10.487045"><ele>152.0</ele><time>2026-03-22T11:17:47.301Z</time></trkpt><trkpt lat="45.4203617" lon="10.4871783"><ele>152.5</ele><time>2026-03-22T11:17:50.307Z</time></trkpt><trkpt lat="45.420365" lon="10.487275"><ele>153.0</ele><time>2026-03-22T11:17:52.304Z</time></trkpt><trkpt lat="45.4203817" lon="10.487405"><ele>153.42857142857142</ele><time>2026-03-22T11:17:55.302Z</time></trkpt><trkpt lat="45.4204067" lon="10.4874967"><ele>153.85714285714286</ele><time>2026-03-22T11:17:57.302Z</time></trkpt><trkpt lat="45.4204433" lon="10.4875983"><ele>154.28571428571428</ele><time>2026-03-22T11:18:00.305Z</time></trkpt><trkpt lat="45.420485" lon="10.4876767"><ele>154.71428571428572</ele><time>2026-03-22T11:18:03.301Z</time></trkpt><trkpt lat="45.4205533" lon="10.4877333"><ele>155.14285714285714</ele><time>2026-03-22T11:18:06.306Z</time></trkpt><trkpt lat="45.4206133" lon="10.4877783"><ele>155.57142857142858</ele><time>2026-03-22T11:18:09.305Z</time></trkpt><trkpt lat="45.4206783" lon="10.48781"><ele>156.0</ele><time>2026-03-22T11:18:12.306Z</time></trkpt><trkpt lat="45.4207533" lon="10.48783"><ele>156.0</ele><time>2026-03-22T11:18:15.309Z</time></trkpt><trkpt lat="45.42083" lon="10.487855"><ele>156.0</ele><time>2026-03-22T11:18:18.3Z</time></trkpt><trkpt lat="45.4209033" lon="10.48786"><ele>156.0</ele><time>2026-03-22T11:18:21.303Z</time></trkpt><trkpt lat="45.42097" lon="10.4878567"><ele>156.0</ele><time>2026-03-22T11:18:23.299Z</time></trkpt><trkpt lat="45.4210583" lon="10.4878617"><ele>156.0</ele><time>2026-03-22T11:18:26.303Z</time></trkpt><trkpt lat="45.4211267" lon="10.4878633"><ele>156.0</ele><time>2026-03-22T11:18:29.301Z</time></trkpt><trkpt lat="45.4212133" lon="10.4878667"><ele>156.0</ele><time>2026-03-22T11:18:32.31Z</time></trkpt><trkpt lat="45.4212917" lon="10.4878467"><ele>156.0</ele><time>2026-03-22T11:18:35.305Z</time></trkpt><trkpt lat="45.42133" lon="10.487765"><ele>156.0</ele><time>2026-03-22T11:18:39.295Z</time></trkpt><trkpt lat="45.42133" lon="10.4876483"><ele>156.0</ele><time>2026-03-22T11:18:42.174Z</time></trkpt><trkpt lat="45.421315" lon="10.487535"><ele>156.0</ele><time>2026-03-22T11:18:45.621Z</time></trkpt><trkpt lat="45.4213033" lon="10.48743"><ele>156.0</ele><time>2026-03-22T11:18:48.621Z</time></trkpt><trkpt lat="45.4212933" lon="10.487325"><ele>156.0</ele><time>2026-03-22T11:18:51.627Z</time></trkpt><trkpt lat="45.4212783" lon="10.4871933"><ele>156.0</ele><time>2026-03-22T11:18:54.627Z</time></trkpt><trkpt lat="45.4212567" lon="10.4870733"><ele>156.0</ele><time>2026-03-22T11:18:57.622Z</time></trkpt><trkpt lat="45.42123" lon="10.4869867"><ele>156.0</ele><time>2026-03-22T11:18:59.629Z</time></trkpt><trkpt lat="45.4212083" lon="10.4869017"><ele>156.0</ele><time>2026-03-22T11:19:01.621Z</time></trkpt><trkpt lat="45.4211867" lon="10.4867833"><ele>156.0</ele><time>2026-03-22T11:19:04.622Z</time></trkpt><trkpt lat="45.4211883" lon="10.486665"><ele>155.0</ele><time>2026-03-22T11:19:07.628Z</time></trkpt><trkpt lat="45.4212233" lon="10.4865783"><ele>154.0</ele><time>2026-03-22T11:19:14.634Z</time></trkpt><trkpt lat="45.4213283" lon="10.48656"><ele>153.0</ele><time>2026-03-22T11:19:20.625Z</time></trkpt><trkpt lat="45.42139" lon="10.4866017"><ele>152.0</ele><time>2026-03-22T11:19:23.629Z</time></trkpt><trkpt lat="45.4214567" lon="10.4866383"><ele>151.0</ele><time>2026-03-22T11:19:26.622Z</time></trkpt><trkpt lat="45.4215317" lon="10.48669"><ele>150.0</ele><time>2026-03-22T11:19:29.631Z</time></trkpt><trkpt lat="45.42161" lon="10.486755"><ele>149.8</ele><time>2026-03-22T11:19:32.633Z</time></trkpt><trkpt lat="45.42168" lon="10.48683"><ele>149.6</ele><time>2026-03-22T11:19:35.625Z</time></trkpt><trkpt lat="45.4217433" lon="10.4868817"><ele>149.4</ele><time>2026-03-22T11:19:38.633Z</time></trkpt><trkpt lat="45.4217867" lon="10.4869833"><ele>149.2</ele><time>2026-03-22T11:19:42.624Z</time></trkpt><trkpt lat="45.42185" lon="10.4870483"><ele>149.0</ele><time>2026-03-22T11:19:46.632Z</time></trkpt><trkpt lat="45.4219067" lon="10.4872117"><ele>149.83333333333331</ele><time>2026-03-22T11:20:57.932Z</time></trkpt><trkpt lat="45.4219" lon="10.4873483"><ele>150.66666666666666</ele><time>2026-03-22T11:21:02.93Z</time></trkpt><trkpt lat="45.4219017" lon="10.4874583"><ele>151.5</ele><time>2026-03-22T11:21:05.926Z</time></trkpt><trkpt lat="45.4218933" lon="10.4875683"><ele>152.33333333333334</ele><time>2026-03-22T11:21:08.929Z</time></trkpt><trkpt lat="45.4218783" lon="10.4876883"><ele>153.16666666666669</ele><time>2026-03-22T11:21:11.941Z</time></trkpt><trkpt lat="45.4218583" lon="10.487815"><ele>154.0</ele><time>2026-03-22T11:21:14.93Z</time></trkpt><trkpt lat="45.42186" lon="10.4879183"><ele>156.2</ele><time>2026-03-22T11:21:17.94Z</time></trkpt><trkpt lat="45.42176" lon="10.48813"><ele>158.4</ele><time>2026-03-22T11:21:47.143Z</time></trkpt><trkpt lat="45.4216883" lon="10.4881633"><ele>160.6</ele><time>2026-03-22T11:21:51.143Z</time></trkpt><trkpt lat="45.4216167" lon="10.4882"><ele>162.8</ele><time>2026-03-22T11:21:54.592Z</time></trkpt><trkpt lat="45.4215533" lon="10.4882183"><ele>165.0</ele><time>2026-03-22T11:21:57.596Z</time></trkpt><trkpt lat="45.42149" lon="10.4882483"><ele>165.0</ele><time>2026-03-22T11:22:00.589Z</time></trkpt><trkpt lat="45.42135" lon="10.48826"><ele>165.0</ele><time>2026-03-22T11:22:20.94Z</time></trkpt><trkpt lat="45.4212867" lon="10.488205"><ele>165.0</ele><time>2026-03-22T11:22:22.936Z</time></trkpt><trkpt lat="45.42122" lon="10.488155"><ele>165.0</ele><time>2026-03-22T11:22:24.931Z</time></trkpt><trkpt lat="45.4211583" lon="10.4881217"><ele>165.0</ele><time>2026-03-22T11:22:26.861Z</time></trkpt><trkpt lat="45.42109" lon="10.488115"><ele>165.0</ele><time>2026-03-22T11:22:29.85Z</time></trkpt><trkpt lat="45.4209117" lon="10.4881483"><ele>165.16666666666666</ele><time>2026-03-22T11:22:46.817Z</time></trkpt><trkpt lat="45.4208333" lon="10.48814"><ele>165.33333333333334</ele><time>2026-03-22T11:22:50.821Z</time></trkpt><trkpt lat="45.42072" lon="10.488145"><ele>165.5</ele><time>2026-03-22T11:22:55.817Z</time></trkpt><trkpt lat="45.4206467" lon="10.4881167"><ele>165.66666666666669</ele><time>2026-03-22T11:22:58.821Z</time></trkpt><trkpt lat="45.4205783" lon="10.4881167"><ele>165.83333333333334</ele><time>2026-03-22T11:23:01.818Z</time></trkpt><trkpt lat="45.42049" lon="10.4880433"><ele>166.0</ele><time>2026-03-22T11:23:36.827Z</time></trkpt><trkpt lat="45.4204633" lon="10.4878967"><ele>164.7142857142857</ele><time>2026-03-22T11:24:18.827Z</time></trkpt><trkpt lat="45.4204417" lon="10.4878117"><ele>163.42857142857144</ele><time>2026-03-22T11:24:20.82Z</time></trkpt><trkpt lat="45.4204233" lon="10.4877"><ele>162.14285714285714</ele><time>2026-03-22T11:24:22.819Z</time></trkpt><trkpt lat="45.4204167" lon="10.4876083"><ele>160.85714285714283</ele><time>2026-03-22T11:24:23.821Z</time></trkpt><trkpt lat="45.4204067" lon="10.4875167"><ele>159.57142857142856</ele><time>2026-03-22T11:24:25.822Z</time></trkpt><trkpt lat="45.42039" lon="10.4873933"><ele>158.28571428571428</ele><time>2026-03-22T11:24:28.818Z</time></trkpt><trkpt lat="45.4203733" lon="10.48728"><ele>157.0</ele><time>2026-03-22T11:24:31.822Z</time></trkpt><trkpt lat="45.42037" lon="10.4871483"><ele>156.42857142857142</ele><time>2026-03-22T11:24:34.825Z</time></trkpt><trkpt lat="45.4203717" lon="10.4870383"><ele>155.85714285714286</ele><time>2026-03-22T11:24:36.821Z</time></trkpt><trkpt lat="45.42037" lon="10.4869333"><ele>155.28571428571428</ele><time>2026-03-22T11:24:38.826Z</time></trkpt><trkpt lat="45.4203633" lon="10.4868117"><ele>154.71428571428572</ele><time>2026-03-22T11:24:40.826Z</time></trkpt><trkpt lat="45.42037" lon="10.4867217"><ele>154.14285714285714</ele><time>2026-03-22T11:24:42.82Z</time></trkpt><trkpt lat="45.42042" lon="10.486635"><ele>153.57142857142856</ele><time>2026-03-22T11:24:45.827Z</time></trkpt><trkpt lat="45.4204767" lon="10.4865767"><ele>153.0</ele><time>2026-03-22T11:24:48.825Z</time></trkpt><trkpt lat="45.420555" lon="10.4865733"><ele>152.5</ele><time>2026-03-22T11:24:52.825Z</time></trkpt><trkpt lat="45.42063" lon="10.4865917"><ele>152.0</ele><time>2026-03-22T11:24:55.825Z</time></trkpt><trkpt lat="45.4207083" lon="10.486605"><ele>151.5</ele><time>2026-03-22T11:24:58.818Z</time></trkpt><trkpt lat="45.420785" lon="10.4866167"><ele>151.0</ele><time>2026-03-22T11:25:00.828Z</time></trkpt><trkpt lat="45.4208783" lon="10.4866383"><ele>150.5</ele><time>2026-03-22T11:25:02.827Z</time></trkpt><trkpt lat="45.420975" lon="10.4866483"><ele>150.0</ele><time>2026-03-22T11:25:04.821Z</time></trkpt><trkpt lat="45.4210733" lon="10.4866567"><ele>150.0</ele><time>2026-03-22T11:25:06.826Z</time></trkpt><trkpt lat="45.4211467" lon="10.48664"><ele>150.0</ele><time>2026-03-22T11:25:08.818Z</time></trkpt><trkpt lat="45.4211983" lon="10.4865533"><ele>150.0</ele><time>2026-03-22T11:25:11.821Z</time></trkpt><trkpt lat="45.4211783" lon="10.4864217"><ele>150.0</ele><time>2026-03-22T11:25:14.825Z</time></trkpt><trkpt lat="45.4211883" lon="10.4862983"><ele>150.0</ele><time>2026-03-22T11:25:17.817Z</time></trkpt><trkpt lat="45.4212083" lon="10.4862067"><ele>150.0</ele><time>2026-03-22T11:25:19.82Z</time></trkpt><trkpt lat="45.42122" lon="10.486115"><ele>148.16666666666666</ele><time>2026-03-22T11:25:21.823Z</time></trkpt><trkpt lat="45.4212017" lon="10.4860217"><ele>146.33333333333334</ele><time>2026-03-22T11:25:24.818Z</time></trkpt><trkpt lat="45.42113" lon="10.4859583"><ele>144.5</ele><time>2026-03-22T11:25:28.826Z</time></trkpt><trkpt lat="45.4210417" lon="10.4859217"><ele>142.66666666666669</ele><time>2026-03-22T11:25:31.817Z</time></trkpt><trkpt lat="45.4209217" lon="10.4858883"><ele>140.83333333333334</ele><time>2026-03-22T11:25:33.823Z</time></trkpt><trkpt lat="45.42086" lon="10.48587"><ele>139.0</ele><time>2026-03-22T11:25:34.827Z</time></trkpt><trkpt lat="45.420745" lon="10.48582"><ele>139.0</ele><time>2026-03-22T11:25:36.82Z</time></trkpt><trkpt lat="45.42063" lon="10.4858"><ele>139.0</ele><time>2026-03-22T11:25:38.828Z</time></trkpt><trkpt lat="45.4205217" lon="10.4857917"><ele>139.0</ele><time>2026-03-22T11:25:40.826Z</time></trkpt><trkpt lat="45.42046" lon="10.48577"><ele>139.0</ele><time>2026-03-22T11:25:41.826Z</time></trkpt><trkpt lat="45.4203433" lon="10.4857517"><ele>139.0</ele><time>2026-03-22T11:25:43.822Z</time></trkpt><trkpt lat="45.4202317" lon="10.4856983"><ele>139.6</ele><time>2026-03-22T11:25:45.818Z</time></trkpt><trkpt lat="45.4201283" lon="10.4856067"><ele>140.2</ele><time>2026-03-22T11:25:47.825Z</time></trkpt><trkpt lat="45.4200217" lon="10.4855233"><ele>140.79999999999998</ele><time>2026-03-22T11:25:49.821Z</time></trkpt><trkpt lat="45.4199667" lon="10.4854483"><ele>141.4</ele><time>2026-03-22T11:25:50.826Z</time></trkpt><trkpt lat="45.4199167" lon="10.48538"><ele>142.0</ele><time>2026-03-22T11:25:51.827Z</time></trkpt><trkpt lat="45.41984" lon="10.4852867"><ele>140.66666666666669</ele><time>2026-03-22T11:25:53.819Z</time></trkpt><trkpt lat="45.4197683" lon="10.4851933"><ele>139.33333333333334</ele><time>2026-03-22T11:25:55.826Z</time></trkpt><trkpt lat="45.4197" lon="10.4851083"><ele>138.0</ele><time>2026-03-22T11:25:57.818Z</time></trkpt><trkpt lat="45.4196367" lon="10.4850417"><ele>136.66666666666666</ele><time>2026-03-22T11:25:59.821Z</time></trkpt><trkpt lat="45.4195867" lon="10.4849483"><ele>135.33333333333331</ele><time>2026-03-22T11:26:01.818Z</time></trkpt><trkpt lat="45.4195367" lon="10.4848567"><ele>134.0</ele><time>2026-03-22T11:26:03.824Z</time></trkpt><trkpt lat="45.419485" lon="10.4847767"><ele>134.0</ele><time>2026-03-22T11:26:05.827Z</time></trkpt><trkpt lat="45.4194283" lon="10.4846933"><ele>134.0</ele><time>2026-03-22T11:26:08.819Z</time></trkpt><trkpt lat="45.419385" lon="10.48461"><ele>134.0</ele><time>2026-03-22T11:26:13.823Z</time></trkpt><trkpt lat="45.4193833" lon="10.4845067"><ele>134.0</ele><time>2026-03-22T11:26:16.818Z</time></trkpt><trkpt lat="45.4193733" lon="10.4843867"><ele>134.0</ele><time>2026-03-22T11:26:19.821Z</time></trkpt><trkpt lat="45.4193733" lon="10.48429"><ele>134.0</ele><time>2026-03-22T11:26:21.821Z</time></trkpt><trkpt lat="45.41939" lon="10.4841617"><ele>133.0</ele><time>2026-03-22T11:26:24.817Z</time></trkpt><trkpt lat="45.4194067" lon="10.4840283"><ele>132.0</ele><time>2026-03-22T11:26:27.827Z</time></trkpt><trkpt lat="45.419415" lon="10.483925"><ele>131.0</ele><time>2026-03-22T11:26:29.817Z</time></trkpt><trkpt lat="45.4194267" lon="10.4838233"><ele>130.0</ele><time>2026-03-22T11:26:31.819Z</time></trkpt><trkpt lat="45.4193783" lon="10.483695"><ele>129.0</ele><time>2026-03-22T11:26:34.818Z</time></trkpt><trkpt lat="45.4193317" lon="10.4836"><ele>128.0</ele><time>2026-03-22T11:26:36.822Z</time></trkpt><trkpt lat="45.419275" lon="10.4835283"><ele>127.49999999999999</ele><time>2026-03-22T11:26:38.828Z</time></trkpt><trkpt lat="45.4192083" lon="10.4834683"><ele>127.0</ele><time>2026-03-22T11:26:40.816Z</time></trkpt><trkpt lat="45.4191367" lon="10.4833817"><ele>126.5</ele><time>2026-03-22T11:26:42.828Z</time></trkpt><trkpt lat="45.4190617" lon="10.4833"><ele>126.0</ele><time>2026-03-22T11:26:44.818Z</time></trkpt><trkpt lat="45.4189833" lon="10.4832333"><ele>125.49999999999999</ele><time>2026-03-22T11:26:46.816Z</time></trkpt><trkpt lat="45.41892" lon="10.483155"><ele>125.0</ele><time>2026-03-22T11:26:48.818Z</time></trkpt><trkpt lat="45.418875" lon="10.4830467"><ele>125.0</ele><time>2026-03-22T11:26:50.829Z</time></trkpt><trkpt lat="45.4188867" lon="10.482955"><ele>125.0</ele><time>2026-03-22T11:26:51.828Z</time></trkpt><trkpt lat="45.4188867" lon="10.4828633"><ele>125.0</ele><time>2026-03-22T11:26:52.819Z</time></trkpt><trkpt lat="45.4188883" lon="10.4827667"><ele>125.0</ele><time>2026-03-22T11:26:53.817Z</time></trkpt><trkpt lat="45.4188867" lon="10.4826733"><ele>125.0</ele><time>2026-03-22T11:26:54.823Z</time></trkpt><trkpt lat="45.4188833" lon="10.4825617"><ele>125.0</ele><time>2026-03-22T11:26:55.827Z</time></trkpt><trkpt lat="45.418885" lon="10.4824633"><ele>125.0</ele><time>2026-03-22T11:26:56.833Z</time></trkpt><trkpt lat="45.4188767" lon="10.4823683"><ele>124.8</ele><time>2026-03-22T11:26:57.827Z</time></trkpt><trkpt lat="45.4188417" lon="10.482205"><ele>124.6</ele><time>2026-03-22T11:26:59.821Z</time></trkpt><trkpt lat="45.41879" lon="10.4820767"><ele>124.4</ele><time>2026-03-22T11:27:01.823Z</time></trkpt><trkpt lat="45.418705" lon="10.4820083"><ele>124.2</ele><time>2026-03-22T11:27:03.824Z</time></trkpt><trkpt lat="45.4186033" lon="10.48198"><ele>124.0</ele><time>2026-03-22T11:27:05.82Z</time></trkpt><trkpt lat="45.4185" lon="10.48194"><ele>124.0</ele><time>2026-03-22T11:27:07.814Z</time></trkpt><trkpt lat="45.4184017" lon="10.4818783"><ele>124.0</ele><time>2026-03-22T11:27:09.822Z</time></trkpt><trkpt lat="45.4182983" lon="10.4818133"><ele>124.0</ele><time>2026-03-22T11:27:11.826Z</time></trkpt><trkpt lat="45.4182" lon="10.481775"><ele>124.0</ele><time>2026-03-22T11:27:13.818Z</time></trkpt><trkpt lat="45.4181033" lon="10.481745"><ele>124.0</ele><time>2026-03-22T11:27:15.815Z</time></trkpt><trkpt lat="45.41801" lon="10.48172"><ele>124.4</ele><time>2026-03-22T11:27:17.821Z</time></trkpt><trkpt lat="45.4179167" lon="10.4816783"><ele>124.80000000000001</ele><time>2026-03-22T11:27:19.826Z</time></trkpt><trkpt lat="45.4178233" lon="10.4816517"><ele>125.19999999999999</ele><time>2026-03-22T11:27:21.82Z</time></trkpt><trkpt lat="45.417735" lon="10.4816483"><ele>125.6</ele><time>2026-03-22T11:27:23.825Z</time></trkpt><trkpt lat="45.4176317" lon="10.4815917"><ele>126.0</ele><time>2026-03-22T11:27:25.827Z</time></trkpt><trkpt lat="45.4175767" lon="10.481545"><ele>126.0</ele><time>2026-03-22T11:27:26.83Z</time></trkpt><trkpt lat="45.41748" lon="10.4814883"><ele>126.0</ele><time>2026-03-22T11:27:28.825Z</time></trkpt><trkpt lat="45.4173983" lon="10.4814283"><ele>126.0</ele><time>2026-03-22T11:27:30.827Z</time></trkpt><trkpt lat="45.4173183" lon="10.4813633"><ele>126.0</ele><time>2026-03-22T11:27:32.83Z</time></trkpt><trkpt lat="45.4172283" lon="10.4812983"><ele>126.0</ele><time>2026-03-22T11:27:34.817Z</time></trkpt><trkpt lat="45.4171417" lon="10.4812433"><ele>125.19999999999999</ele><time>2026-03-22T11:27:36.821Z</time></trkpt><trkpt lat="45.4170483" lon="10.4811683"><ele>124.39999999999999</ele><time>2026-03-22T11:27:38.831Z</time></trkpt><trkpt lat="45.41697" lon="10.4810767"><ele>123.6</ele><time>2026-03-22T11:27:40.819Z</time></trkpt><trkpt lat="45.41691" lon="10.4809967"><ele>122.8</ele><time>2026-03-22T11:27:42.818Z</time></trkpt><trkpt lat="45.41684" lon="10.48089"><ele>122.0</ele><time>2026-03-22T11:27:44.827Z</time></trkpt><trkpt lat="45.4167717" lon="10.4807833"><ele>121.99999999999999</ele><time>2026-03-22T11:27:46.824Z</time></trkpt><trkpt lat="45.4167133" lon="10.4806883"><ele>122.0</ele><time>2026-03-22T11:27:48.823Z</time></trkpt><trkpt lat="45.4166483" lon="10.4805783"><ele>122.0</ele><time>2026-03-22T11:27:50.821Z</time></trkpt><trkpt lat="45.4165683" lon="10.48047"><ele>122.0</ele><time>2026-03-22T11:27:52.818Z</time></trkpt><trkpt lat="45.41651" lon="10.4804033"><ele>121.99999999999999</ele><time>2026-03-22T11:27:54.82Z</time></trkpt><trkpt lat="45.41646" lon="10.4803333"><ele>122.0</ele><time>2026-03-22T11:27:56.818Z</time></trkpt><trkpt lat="45.4163967" lon="10.4803083"><ele>122.19999999999999</ele><time>2026-03-22T11:27:58.816Z</time></trkpt><trkpt lat="45.4163133" lon="10.48024"><ele>122.39999999999999</ele><time>2026-03-22T11:28:00.817Z</time></trkpt><trkpt lat="45.41622" lon="10.48018"><ele>122.60000000000001</ele><time>2026-03-22T11:28:02.825Z</time></trkpt><trkpt lat="45.4161283" lon="10.48009"><ele>122.80000000000001</ele><time>2026-03-22T11:28:04.816Z</time></trkpt><trkpt lat="45.4160383" lon="10.480005"><ele>123.0</ele><time>2026-03-22T11:28:06.822Z</time></trkpt><trkpt lat="45.4159483" lon="10.479995"><ele>123.0</ele><time>2026-03-22T11:28:07.829Z</time></trkpt><trkpt lat="45.415865" lon="10.4799717"><ele>123.0</ele><time>2026-03-22T11:28:08.828Z</time></trkpt><trkpt lat="45.4157883" lon="10.4799333"><ele>123.0</ele><time>2026-03-22T11:28:09.823Z</time></trkpt><trkpt lat="45.4157067" lon="10.4798917"><ele>123.0</ele><time>2026-03-22T11:28:10.826Z</time></trkpt><trkpt lat="45.415635" lon="10.47987"><ele>123.0</ele><time>2026-03-22T11:28:11.823Z</time></trkpt><trkpt lat="45.4155633" lon="10.4798417"><ele>123.0</ele><time>2026-03-22T11:28:12.826Z</time></trkpt><trkpt lat="45.4154983" lon="10.47981"><ele>122.16666666666667</ele><time>2026-03-22T11:28:13.828Z</time></trkpt><trkpt lat="45.4154333" lon="10.4797817"><ele>121.33333333333334</ele><time>2026-03-22T11:28:14.83Z</time></trkpt><trkpt lat="45.4153483" lon="10.4796967"><ele>120.5</ele><time>2026-03-22T11:28:15.823Z</time></trkpt><trkpt lat="45.4152867" lon="10.4796483"><ele>119.66666666666667</ele><time>2026-03-22T11:28:16.82Z</time></trkpt><trkpt lat="45.415225" lon="10.479605"><ele>118.83333333333334</ele><time>2026-03-22T11:28:17.826Z</time></trkpt><trkpt lat="45.4151067" lon="10.47955"><ele>118.0</ele><time>2026-03-22T11:28:19.826Z</time></trkpt><trkpt lat="45.4150033" lon="10.4795033"><ele>118.00000000000001</ele><time>2026-03-22T11:28:21.827Z</time></trkpt><trkpt lat="45.41491" lon="10.47948"><ele>118.0</ele><time>2026-03-22T11:28:23.829Z</time></trkpt><trkpt lat="45.4148467" lon="10.47947"><ele>118.0</ele><time>2026-03-22T11:28:25.821Z</time></trkpt><trkpt lat="45.4148267" lon="10.4795817"><ele>118.0</ele><time>2026-03-22T11:28:29.827Z</time></trkpt><trkpt lat="45.4148083" lon="10.4797067"><ele>118.00000000000001</ele><time>2026-03-22T11:28:32.824Z</time></trkpt><trkpt lat="45.4148117" lon="10.4798067"><ele>118.0</ele><time>2026-03-22T11:28:34.814Z</time></trkpt><trkpt lat="45.4147983" lon="10.4799117"><ele>118.0</ele><time>2026-03-22T11:28:36.822Z</time></trkpt><trkpt lat="45.4147483" lon="10.479985"><ele>118.0</ele><time>2026-03-22T11:28:38.816Z</time></trkpt><trkpt lat="45.4146633" lon="10.480015"><ele>118.0</ele><time>2026-03-22T11:28:40.815Z</time></trkpt><trkpt lat="45.4145883" lon="10.4800517"><ele>118.0</ele><time>2026-03-22T11:28:42.819Z</time></trkpt><trkpt lat="45.4145283" lon="10.4801"><ele>118.0</ele><time>2026-03-22T11:28:44.828Z</time></trkpt><trkpt lat="45.4144667" lon="10.4801517"><ele>118.0</ele><time>2026-03-22T11:28:46.821Z</time></trkpt><trkpt lat="45.4144033" lon="10.4801917"><ele>118.0</ele><time>2026-03-22T11:28:48.82Z</time></trkpt><trkpt lat="45.4143283" lon="10.4802333"><ele>117.80000000000001</ele><time>2026-03-22T11:28:50.82Z</time></trkpt><trkpt lat="45.414265" lon="10.4803017"><ele>117.60000000000001</ele><time>2026-03-22T11:28:52.813Z</time></trkpt><trkpt lat="45.414205" lon="10.4803767"><ele>117.39999999999999</ele><time>2026-03-22T11:28:54.816Z</time></trkpt><trkpt lat="45.4141517" lon="10.4804583"><ele>117.19999999999999</ele><time>2026-03-22T11:28:56.82Z</time></trkpt><trkpt lat="45.41407" lon="10.480615"><ele>117.0</ele><time>2026-03-22T11:29:00.822Z</time></trkpt><trkpt lat="45.41402" lon="10.4807033"><ele>117.0</ele><time>2026-03-22T11:29:02.824Z</time></trkpt><trkpt lat="45.4139717" lon="10.4807783"><ele>117.00000000000001</ele><time>2026-03-22T11:29:04.818Z</time></trkpt><trkpt lat="45.4139133" lon="10.4808533"><ele>117.0</ele><time>2026-03-22T11:29:06.818Z</time></trkpt><trkpt lat="45.4138633" lon="10.4809283"><ele>117.0</ele><time>2026-03-22T11:29:08.83Z</time></trkpt><trkpt lat="45.4138183" lon="10.481005"><ele>117.00000000000001</ele><time>2026-03-22T11:29:10.826Z</time></trkpt><trkpt lat="45.4137667" lon="10.4810767"><ele>117.0</ele><time>2026-03-22T11:29:12.819Z</time></trkpt><trkpt lat="45.413705" lon="10.48115"><ele>117.0</ele><time>2026-03-22T11:29:14.82Z</time></trkpt><trkpt lat="45.4136483" lon="10.4812267"><ele>116.71428571428572</ele><time>2026-03-22T11:29:16.82Z</time></trkpt><trkpt lat="45.4135983" lon="10.481305"><ele>116.42857142857144</ele><time>2026-03-22T11:29:18.821Z</time></trkpt><trkpt lat="45.4135417" lon="10.48137"><ele>116.14285714285714</ele><time>2026-03-22T11:29:20.819Z</time></trkpt><trkpt lat="45.4134867" lon="10.4814217"><ele>115.85714285714286</ele><time>2026-03-22T11:29:22.826Z</time></trkpt><trkpt lat="45.41343" lon="10.4814733"><ele>115.57142857142857</ele><time>2026-03-22T11:29:24.827Z</time></trkpt><trkpt lat="45.4133667" lon="10.481525"><ele>115.28571428571428</ele><time>2026-03-22T11:29:26.831Z</time></trkpt><trkpt lat="45.4132967" lon="10.4815583"><ele>114.99999999999999</ele><time>2026-03-22T11:29:28.819Z</time></trkpt><trkpt lat="45.4132233" lon="10.4815867"><ele>114.99999999999999</ele><time>2026-03-22T11:29:30.816Z</time></trkpt><trkpt lat="45.4131533" lon="10.481625"><ele>115.0</ele><time>2026-03-22T11:29:32.822Z</time></trkpt><trkpt lat="45.4130933" lon="10.4816533"><ele>114.99999999999999</ele><time>2026-03-22T11:29:34.826Z</time></trkpt><trkpt lat="45.41302" lon="10.4816933"><ele>114.99999999999999</ele><time>2026-03-22T11:29:36.82Z</time></trkpt><trkpt lat="45.41295" lon="10.481735"><ele>115.0</ele><time>2026-03-22T11:29:38.827Z</time></trkpt><trkpt lat="45.4128833" lon="10.4817767"><ele>114.99999999999999</ele><time>2026-03-22T11:29:40.824Z</time></trkpt><trkpt lat="45.4128217" lon="10.481815"><ele>114.99999999999999</ele><time>2026-03-22T11:29:43.818Z</time></trkpt><trkpt lat="45.41275" lon="10.4818633"><ele>115.33333333333334</ele><time>2026-03-22T11:29:47.824Z</time></trkpt><trkpt lat="45.4126767" lon="10.4818983"><ele>115.66666666666667</ele><time>2026-03-22T11:29:50.827Z</time></trkpt><trkpt lat="45.4126333" lon="10.4819917"><ele>116.0</ele><time>2026-03-22T11:29:54.826Z</time></trkpt><trkpt lat="45.4126" lon="10.4820817"><ele>116.33333333333334</ele><time>2026-03-22T11:29:57.818Z</time></trkpt><trkpt lat="45.4125933" lon="10.4821983"><ele>116.66666666666667</ele><time>2026-03-22T11:30:00.817Z</time></trkpt><trkpt lat="45.4126033" lon="10.4823083"><ele>117.0</ele><time>2026-03-22T11:30:03.826Z</time></trkpt><trkpt lat="45.41263" lon="10.4824033"><ele>117.0</ele><time>2026-03-22T11:30:06.813Z</time></trkpt><trkpt lat="45.4126583" lon="10.482515"><ele>117.0</ele><time>2026-03-22T11:30:09.821Z</time></trkpt><trkpt lat="45.41269" lon="10.48262"><ele>117.0</ele><time>2026-03-22T11:30:12.825Z</time></trkpt><trkpt lat="45.4127383" lon="10.4827267"><ele>117.0</ele><time>2026-03-22T11:30:15.819Z</time></trkpt><trkpt lat="45.41277" lon="10.4828083"><ele>117.0</ele><time>2026-03-22T11:30:17.825Z</time></trkpt><trkpt lat="45.4127967" lon="10.4828983"><ele>117.0</ele><time>2026-03-22T11:30:19.826Z</time></trkpt><trkpt lat="45.4128267" lon="10.4829817"><ele>116.83333333333333</ele><time>2026-03-22T11:30:21.828Z</time></trkpt><trkpt lat="45.412865" lon="10.4830667"><ele>116.66666666666666</ele><time>2026-03-22T11:30:23.821Z</time></trkpt><trkpt lat="45.4128967" lon="10.4831683"><ele>116.5</ele><time>2026-03-22T11:30:25.825Z</time></trkpt><trkpt lat="45.4129317" lon="10.483275"><ele>116.33333333333333</ele><time>2026-03-22T11:30:27.821Z</time></trkpt><trkpt lat="45.412965" lon="10.483365"><ele>116.16666666666666</ele><time>2026-03-22T11:30:29.82Z</time></trkpt><trkpt lat="45.4130017" lon="10.4834533"><ele>116.0</ele><time>2026-03-22T11:30:31.818Z</time></trkpt><trkpt lat="45.4130317" lon="10.4835517"><ele>116.14285714285717</ele><time>2026-03-22T11:30:33.821Z</time></trkpt><trkpt lat="45.4130617" lon="10.4836567"><ele>116.28571428571429</ele><time>2026-03-22T11:30:35.821Z</time></trkpt><trkpt lat="45.4130967" lon="10.4837517"><ele>116.42857142857144</ele><time>2026-03-22T11:30:37.827Z</time></trkpt><trkpt lat="45.4131217" lon="10.4838483"><ele>116.57142857142858</ele><time>2026-03-22T11:30:39.818Z</time></trkpt><trkpt lat="45.4131517" lon="10.4839417"><ele>116.71428571428572</ele><time>2026-03-22T11:30:41.826Z</time></trkpt><trkpt lat="45.4131867" lon="10.4840317"><ele>116.85714285714286</ele><time>2026-03-22T11:30:43.826Z</time></trkpt><trkpt lat="45.41322" lon="10.4841217"><ele>117.0</ele><time>2026-03-22T11:30:45.817Z</time></trkpt><trkpt lat="45.4132433" lon="10.4842233"><ele>117.0</ele><time>2026-03-22T11:30:47.82Z</time></trkpt><trkpt lat="45.413265" lon="10.48433"><ele>117.0</ele><time>2026-03-22T11:30:49.827Z</time></trkpt><trkpt lat="45.4133" lon="10.4844367"><ele>117.0</ele><time>2026-03-22T11:30:51.822Z</time></trkpt><trkpt lat="45.4133267" lon="10.4845367"><ele>117.0</ele><time>2026-03-22T11:30:53.821Z</time></trkpt><trkpt lat="45.4133467" lon="10.4846333"><ele>117.0</ele><time>2026-03-22T11:30:55.819Z</time></trkpt><trkpt lat="45.4133717" lon="10.4847383"><ele>117.0</ele><time>2026-03-22T11:30:57.822Z</time></trkpt><trkpt lat="45.41338" lon="10.4848383"><ele>117.85714285714286</ele><time>2026-03-22T11:30:59.825Z</time></trkpt><trkpt lat="45.4134067" lon="10.4849533"><ele>118.71428571428572</ele><time>2026-03-22T11:31:02.819Z</time></trkpt><trkpt lat="45.4134283" lon="10.48505"><ele>119.57142857142858</ele><time>2026-03-22T11:31:04.823Z</time></trkpt><trkpt lat="45.41345" lon="10.4851467"><ele>120.42857142857144</ele><time>2026-03-22T11:31:06.827Z</time></trkpt><trkpt lat="45.413475" lon="10.485245"><ele>121.28571428571429</ele><time>2026-03-22T11:31:08.824Z</time></trkpt><trkpt lat="45.413495" lon="10.4853467"><ele>122.14285714285717</ele><time>2026-03-22T11:31:10.821Z</time></trkpt><trkpt lat="45.4135133" lon="10.4854367"><ele>123.00000000000001</ele><time>2026-03-22T11:31:12.822Z</time></trkpt><trkpt lat="45.4135283" lon="10.4855317"><ele>123.5</ele><time>2026-03-22T11:31:14.821Z</time></trkpt><trkpt lat="45.4135433" lon="10.4856667"><ele>124.0</ele><time>2026-03-22T11:31:17.816Z</time></trkpt><trkpt lat="45.4135633" lon="10.485765"><ele>124.5</ele><time>2026-03-22T11:31:19.821Z</time></trkpt><trkpt lat="45.41358" lon="10.4858567"><ele>125.0</ele><time>2026-03-22T11:31:21.825Z</time></trkpt><trkpt lat="45.4136167" lon="10.4859433"><ele>125.5</ele><time>2026-03-22T11:31:23.827Z</time></trkpt><trkpt lat="45.4136233" lon="10.4860433"><ele>126.0</ele><time>2026-03-22T11:31:25.819Z</time></trkpt><trkpt lat="45.4136283" lon="10.486155"><ele>126.33333333333333</ele><time>2026-03-22T11:31:27.821Z</time></trkpt><trkpt lat="45.4136367" lon="10.4862767"><ele>126.66666666666666</ele><time>2026-03-22T11:31:30.817Z</time></trkpt><trkpt lat="45.4136483" lon="10.486405"><ele>127.0</ele><time>2026-03-22T11:31:33.819Z</time></trkpt><trkpt lat="45.4136567" lon="10.4865033"><ele>127.33333333333333</ele><time>2026-03-22T11:31:35.829Z</time></trkpt><trkpt lat="45.413695" lon="10.486635"><ele>127.66666666666666</ele><time>2026-03-22T11:31:38.827Z</time></trkpt><trkpt lat="45.4137083" lon="10.48674"><ele>128.0</ele><time>2026-03-22T11:31:40.816Z</time></trkpt><trkpt lat="45.4137167" lon="10.4868417"><ele>128.0</ele><time>2026-03-22T11:31:42.824Z</time></trkpt><trkpt lat="45.4137233" lon="10.4869667"><ele>127.99999999999999</ele><time>2026-03-22T11:31:44.825Z</time></trkpt><trkpt lat="45.4137433" lon="10.487075"><ele>128.0</ele><time>2026-03-22T11:31:46.82Z</time></trkpt><trkpt lat="45.4137683" lon="10.487165"><ele>128.0</ele><time>2026-03-22T11:31:48.819Z</time></trkpt><trkpt lat="45.4137783" lon="10.4872633"><ele>127.99999999999999</ele><time>2026-03-22T11:31:50.827Z</time></trkpt><trkpt lat="45.4137933" lon="10.4873517"><ele>128.0</ele><time>2026-03-22T11:31:52.821Z</time></trkpt><trkpt lat="45.4138017" lon="10.4874467"><ele>128.0</ele><time>2026-03-22T11:31:54.826Z</time></trkpt><trkpt lat="45.41381" lon="10.4875717"><ele>127.66666666666666</ele><time>2026-03-22T11:31:56.82Z</time></trkpt><trkpt lat="45.4138217" lon="10.4877067"><ele>127.33333333333333</ele><time>2026-03-22T11:31:58.821Z</time></trkpt><trkpt lat="45.4138233" lon="10.4878367"><ele>127.0</ele><time>2026-03-22T11:32:00.822Z</time></trkpt><trkpt lat="45.4138233" lon="10.487945"><ele>126.66666666666666</ele><time>2026-03-22T11:32:02.828Z</time></trkpt><trkpt lat="45.4138283" lon="10.488045"><ele>126.33333333333333</ele><time>2026-03-22T11:32:04.818Z</time></trkpt><trkpt lat="45.4138317" lon="10.4881633"><ele>126.0</ele><time>2026-03-22T11:32:06.823Z</time></trkpt><trkpt lat="45.4138367" lon="10.488285"><ele>126.0</ele><time>2026-03-22T11:32:08.828Z</time></trkpt><trkpt lat="45.4138433" lon="10.4883917"><ele>126.0</ele><time>2026-03-22T11:32:10.825Z</time></trkpt><trkpt lat="45.4138467" lon="10.48849"><ele>126.0</ele><time>2026-03-22T11:32:12.818Z</time></trkpt><trkpt lat="45.4138483" lon="10.4886167"><ele>126.0</ele><time>2026-03-22T11:32:14.827Z</time></trkpt><trkpt lat="45.4138517" lon="10.4887467"><ele>126.0</ele><time>2026-03-22T11:32:16.822Z</time></trkpt><trkpt lat="45.4138633" lon="10.4888633"><ele>126.0</ele><time>2026-03-22T11:32:18.819Z</time></trkpt><trkpt lat="45.4138683" lon="10.4889767"><ele>125.57142857142857</ele><time>2026-03-22T11:32:20.822Z</time></trkpt><trkpt lat="45.413865" lon="10.489095"><ele>125.14285714285714</ele><time>2026-03-22T11:32:22.826Z</time></trkpt><trkpt lat="45.41387" lon="10.4891917"><ele>124.71428571428572</ele><time>2026-03-22T11:32:24.823Z</time></trkpt><trkpt lat="45.4138767" lon="10.4892933"><ele>124.28571428571429</ele><time>2026-03-22T11:32:26.82Z</time></trkpt><trkpt lat="45.4138783" lon="10.489395"><ele>123.85714285714286</ele><time>2026-03-22T11:32:28.817Z</time></trkpt><trkpt lat="45.4138767" lon="10.4894967"><ele>123.42857142857144</ele><time>2026-03-22T11:32:30.822Z</time></trkpt><trkpt lat="45.4138767" lon="10.48959"><ele>123.00000000000001</ele><time>2026-03-22T11:32:32.826Z</time></trkpt><trkpt lat="45.4138733" lon="10.4896933"><ele>122.85714285714288</ele><time>2026-03-22T11:32:34.818Z</time></trkpt><trkpt lat="45.4138633" lon="10.4897833"><ele>122.71428571428572</ele><time>2026-03-22T11:32:36.822Z</time></trkpt><trkpt lat="45.4138567" lon="10.489875"><ele>122.57142857142857</ele><time>2026-03-22T11:32:38.827Z</time></trkpt><trkpt lat="45.4138433" lon="10.490005"><ele>122.42857142857143</ele><time>2026-03-22T11:32:41.816Z</time></trkpt><trkpt lat="45.4138383" lon="10.4901017"><ele>122.28571428571428</ele><time>2026-03-22T11:32:43.818Z</time></trkpt><trkpt lat="45.413835" lon="10.490205"><ele>122.14285714285712</ele><time>2026-03-22T11:32:45.825Z</time></trkpt><trkpt lat="45.41384" lon="10.4903083"><ele>121.99999999999999</ele><time>2026-03-22T11:32:47.823Z</time></trkpt><trkpt lat="45.4138467" lon="10.4904017"><ele>122.14285714285712</ele><time>2026-03-22T11:32:49.818Z</time></trkpt><trkpt lat="45.41385" lon="10.4904917"><ele>122.28571428571428</ele><time>2026-03-22T11:32:51.817Z</time></trkpt><trkpt lat="45.4138567" lon="10.4905817"><ele>122.42857142857143</ele><time>2026-03-22T11:32:53.823Z</time></trkpt><trkpt lat="45.413865" lon="10.49068"><ele>122.57142857142857</ele><time>2026-03-22T11:32:55.836Z</time></trkpt><trkpt lat="45.4138733" lon="10.4907767"><ele>122.71428571428572</ele><time>2026-03-22T11:32:57.82Z</time></trkpt><trkpt lat="45.41388" lon="10.4908717"><ele>122.85714285714288</ele><time>2026-03-22T11:32:59.819Z</time></trkpt><trkpt lat="45.4138833" lon="10.490975"><ele>123.00000000000001</ele><time>2026-03-22T11:33:01.826Z</time></trkpt><trkpt lat="45.41389" lon="10.4910833"><ele>123.00000000000001</ele><time>2026-03-22T11:33:03.822Z</time></trkpt><trkpt lat="45.4138983" lon="10.491185"><ele>123.0</ele><time>2026-03-22T11:33:05.818Z</time></trkpt><trkpt lat="45.4139133" lon="10.4912883"><ele>123.00000000000001</ele><time>2026-03-22T11:33:07.819Z</time></trkpt><trkpt lat="45.4139283" lon="10.4913967"><ele>123.00000000000001</ele><time>2026-03-22T11:33:09.827Z</time></trkpt><trkpt lat="45.4139433" lon="10.4915017"><ele>123.0</ele><time>2026-03-22T11:33:11.826Z</time></trkpt><trkpt lat="45.41396" lon="10.4915967"><ele>123.00000000000001</ele><time>2026-03-22T11:33:13.819Z</time></trkpt><trkpt lat="45.41398" lon="10.4917"><ele>123.00000000000001</ele><time>2026-03-22T11:33:15.822Z</time></trkpt><trkpt lat="45.4139967" lon="10.4917983"><ele>123.00000000000001</ele><time>2026-03-22T11:33:17.827Z</time></trkpt><trkpt lat="45.4140183" lon="10.4918867"><ele>123.0</ele><time>2026-03-22T11:33:19.827Z</time></trkpt><trkpt lat="45.4140417" lon="10.4919833"><ele>123.00000000000001</ele><time>2026-03-22T11:33:21.82Z</time></trkpt><trkpt lat="45.414065" lon="10.492085"><ele>123.00000000000001</ele><time>2026-03-22T11:33:23.822Z</time></trkpt><trkpt lat="45.41409" lon="10.4921867"><ele>123.0</ele><time>2026-03-22T11:33:25.82Z</time></trkpt><trkpt lat="45.4141217" lon="10.4922817"><ele>123.00000000000001</ele><time>2026-03-22T11:33:27.823Z</time></trkpt><trkpt lat="45.41415" lon="10.4923733"><ele>123.00000000000001</ele><time>2026-03-22T11:33:29.819Z</time></trkpt><trkpt lat="45.4141783" lon="10.4924767"><ele>123.00000000000001</ele><time>2026-03-22T11:33:31.826Z</time></trkpt><trkpt lat="45.4142017" lon="10.4925683"><ele>123.0</ele><time>2026-03-22T11:33:33.824Z</time></trkpt><trkpt lat="45.4142433" lon="10.49267"><ele>123.00000000000001</ele><time>2026-03-22T11:33:36.818Z</time></trkpt><trkpt lat="45.4142083" lon="10.4927683"><ele>123.00000000000001</ele><time>2026-03-22T11:33:39.829Z</time></trkpt><trkpt lat="45.4141467" lon="10.4927933"><ele>123.0</ele><time>2026-03-22T11:33:41.822Z</time></trkpt><trkpt lat="45.4140733" lon="10.49281"><ele>123.00000000000001</ele><time>2026-03-22T11:33:43.82Z</time></trkpt><trkpt lat="45.414005" lon="10.4928583"><ele>123.00000000000001</ele><time>2026-03-22T11:33:45.819Z</time></trkpt><trkpt lat="45.4139483" lon="10.4929317"><ele>122.85714285714288</ele><time>2026-03-22T11:33:47.833Z</time></trkpt><trkpt lat="45.4138967" lon="10.4930183"><ele>122.71428571428572</ele><time>2026-03-22T11:33:49.823Z</time></trkpt><trkpt lat="45.413855" lon="10.4931083"><ele>122.57142857142857</ele><time>2026-03-22T11:33:51.82Z</time></trkpt><trkpt lat="45.4138133" lon="10.4931917"><ele>122.42857142857143</ele><time>2026-03-22T11:33:53.825Z</time></trkpt><trkpt lat="45.4137667" lon="10.4932767"><ele>122.28571428571428</ele><time>2026-03-22T11:33:55.827Z</time></trkpt><trkpt lat="45.4137283" lon="10.493355"><ele>122.14285714285712</ele><time>2026-03-22T11:33:57.821Z</time></trkpt><trkpt lat="45.413685" lon="10.4934267"><ele>121.99999999999999</ele><time>2026-03-22T11:33:59.82Z</time></trkpt><trkpt lat="45.4136333" lon="10.4935067"><ele>121.99999999999999</ele><time>2026-03-22T11:34:01.827Z</time></trkpt><trkpt lat="45.41358" lon="10.4935767"><ele>122.0</ele><time>2026-03-22T11:34:03.829Z</time></trkpt><trkpt lat="45.4135267" lon="10.4936517"><ele>122.0</ele><time>2026-03-22T11:34:05.827Z</time></trkpt><trkpt lat="45.41347" lon="10.493725"><ele>122.0</ele><time>2026-03-22T11:34:07.82Z</time></trkpt><trkpt lat="45.41341" lon="10.493795"><ele>121.99999999999999</ele><time>2026-03-22T11:34:09.827Z</time></trkpt><trkpt lat="45.4133467" lon="10.49386"><ele>122.0</ele><time>2026-03-22T11:34:11.827Z</time></trkpt><trkpt lat="45.413285" lon="10.49392"><ele>122.42857142857142</ele><time>2026-03-22T11:34:13.826Z</time></trkpt><trkpt lat="45.4132333" lon="10.4939767"><ele>122.85714285714286</ele><time>2026-03-22T11:34:15.826Z</time></trkpt><trkpt lat="45.4131783" lon="10.494025"><ele>123.28571428571428</ele><time>2026-03-22T11:34:17.826Z</time></trkpt><trkpt lat="45.4131117" lon="10.4940867"><ele>123.71428571428571</ele><time>2026-03-22T11:34:19.825Z</time></trkpt><trkpt lat="45.4130517" lon="10.49414"><ele>124.14285714285714</ele><time>2026-03-22T11:34:21.822Z</time></trkpt><trkpt lat="45.4129933" lon="10.4941917"><ele>124.57142857142857</ele><time>2026-03-22T11:34:23.82Z</time></trkpt><trkpt lat="45.4129367" lon="10.4942383"><ele>125.0</ele><time>2026-03-22T11:34:25.834Z</time></trkpt><trkpt lat="45.412855" lon="10.4943"><ele>125.49999999999999</ele><time>2026-03-22T11:34:28.822Z</time></trkpt><trkpt lat="45.4127967" lon="10.49434"><ele>126.0</ele><time>2026-03-22T11:34:30.818Z</time></trkpt><trkpt lat="45.4127367" lon="10.494385"><ele>126.5</ele><time>2026-03-22T11:34:32.826Z</time></trkpt><trkpt lat="45.412685" lon="10.4944417"><ele>127.0</ele><time>2026-03-22T11:34:34.822Z</time></trkpt><trkpt lat="45.4126133" lon="10.494515"><ele>127.49999999999999</ele><time>2026-03-22T11:34:37.818Z</time></trkpt><trkpt lat="45.4125467" lon="10.4945983"><ele>128.0</ele><time>2026-03-22T11:34:40.821Z</time></trkpt><trkpt lat="45.4124817" lon="10.494675"><ele>128.42857142857142</ele><time>2026-03-22T11:34:43.821Z</time></trkpt><trkpt lat="45.412435" lon="10.4947533"><ele>128.85714285714283</ele><time>2026-03-22T11:34:46.816Z</time></trkpt><trkpt lat="45.41241" lon="10.49484"><ele>129.28571428571428</ele><time>2026-03-22T11:34:49.822Z</time></trkpt><trkpt lat="45.4124117" lon="10.4949433"><ele>129.71428571428572</ele><time>2026-03-22T11:34:52.818Z</time></trkpt><trkpt lat="45.4124217" lon="10.4950483"><ele>130.14285714285717</ele><time>2026-03-22T11:34:55.826Z</time></trkpt><trkpt lat="45.4124133" lon="10.4951633"><ele>130.57142857142858</ele><time>2026-03-22T11:34:58.821Z</time></trkpt><trkpt lat="45.4123817" lon="10.49527"><ele>131.0</ele><time>2026-03-22T11:35:01.818Z</time></trkpt><trkpt lat="45.4123233" lon="10.4953717"><ele>131.16666666666666</ele><time>2026-03-22T11:35:04.824Z</time></trkpt><trkpt lat="45.4122667" lon="10.4954733"><ele>131.33333333333331</ele><time>2026-03-22T11:35:07.822Z</time></trkpt><trkpt lat="45.412205" lon="10.4955733"><ele>131.5</ele><time>2026-03-22T11:35:10.817Z</time></trkpt><trkpt lat="45.4121633" lon="10.4956417"><ele>131.66666666666666</ele><time>2026-03-22T11:35:12.823Z</time></trkpt><trkpt lat="45.412105" lon="10.4957333"><ele>131.83333333333334</ele><time>2026-03-22T11:35:15.822Z</time></trkpt><trkpt lat="45.4120583" lon="10.4958033"><ele>132.0</ele><time>2026-03-22T11:35:17.818Z</time></trkpt><trkpt lat="45.4120133" lon="10.49588"><ele>132.0</ele><time>2026-03-22T11:35:19.821Z</time></trkpt><trkpt lat="45.4119683" lon="10.4959583"><ele>132.0</ele><time>2026-03-22T11:35:21.821Z</time></trkpt><trkpt lat="45.4119233" lon="10.4960317"><ele>132.0</ele><time>2026-03-22T11:35:23.818Z</time></trkpt><trkpt lat="45.4118733" lon="10.4961"><ele>132.0</ele><time>2026-03-22T11:35:25.818Z</time></trkpt><trkpt lat="45.4118183" lon="10.4961817"><ele>132.0</ele><time>2026-03-22T11:35:27.821Z</time></trkpt><trkpt lat="45.4117617" lon="10.4962667"><ele>132.0</ele><time>2026-03-22T11:35:29.822Z</time></trkpt><trkpt lat="45.41171" lon="10.49634"><ele>132.0</ele><time>2026-03-22T11:35:31.819Z</time></trkpt><trkpt lat="45.411655" lon="10.4964083"><ele>132.83333333333334</ele><time>2026-03-22T11:35:33.816Z</time></trkpt><trkpt lat="45.4116017" lon="10.4964817"><ele>133.66666666666666</ele><time>2026-03-22T11:35:35.827Z</time></trkpt><trkpt lat="45.411545" lon="10.4965567"><ele>134.5</ele><time>2026-03-22T11:35:37.822Z</time></trkpt><trkpt lat="45.4114917" lon="10.4966333"><ele>135.33333333333331</ele><time>2026-03-22T11:35:39.818Z</time></trkpt><trkpt lat="45.4114367" lon="10.49671"><ele>136.16666666666666</ele><time>2026-03-22T11:35:41.818Z</time></trkpt><trkpt lat="45.4113833" lon="10.496785"><ele>137.0</ele><time>2026-03-22T11:35:43.821Z</time></trkpt><trkpt lat="45.4113267" lon="10.496855"><ele>137.57142857142858</ele><time>2026-03-22T11:35:45.827Z</time></trkpt><trkpt lat="45.411275" lon="10.4969317"><ele>138.14285714285714</ele><time>2026-03-22T11:35:47.819Z</time></trkpt><trkpt lat="45.4112267" lon="10.4970083"><ele>138.71428571428572</ele><time>2026-03-22T11:35:49.823Z</time></trkpt><trkpt lat="45.4111767" lon="10.4970967"><ele>139.28571428571428</ele><time>2026-03-22T11:35:51.822Z</time></trkpt><trkpt lat="45.41113" lon="10.4971733"><ele>139.85714285714286</ele><time>2026-03-22T11:35:53.822Z</time></trkpt><trkpt lat="45.41108" lon="10.4972467"><ele>140.42857142857144</ele><time>2026-03-22T11:35:55.816Z</time></trkpt><trkpt lat="45.41103" lon="10.4973067"><ele>141.0</ele><time>2026-03-22T11:35:57.825Z</time></trkpt><trkpt lat="45.41098" lon="10.4973617"><ele>141.28571428571428</ele><time>2026-03-22T11:35:59.826Z</time></trkpt><trkpt lat="45.4109283" lon="10.497415"><ele>141.57142857142856</ele><time>2026-03-22T11:36:01.823Z</time></trkpt><trkpt lat="45.4108683" lon="10.4974717"><ele>141.85714285714283</ele><time>2026-03-22T11:36:04.819Z</time></trkpt><trkpt lat="45.410865" lon="10.49758"><ele>142.14285714285714</ele><time>2026-03-22T11:36:09.824Z</time></trkpt><trkpt lat="45.4108883" lon="10.4976917"><ele>142.42857142857142</ele><time>2026-03-22T11:36:12.818Z</time></trkpt><trkpt lat="45.4108933" lon="10.4977833"><ele>142.7142857142857</ele><time>2026-03-22T11:36:14.828Z</time></trkpt><trkpt lat="45.4108767" lon="10.4978717"><ele>143.0</ele><time>2026-03-22T11:36:16.82Z</time></trkpt><trkpt lat="45.410815" lon="10.4979567"><ele>143.0</ele><time>2026-03-22T11:36:19.82Z</time></trkpt><trkpt lat="45.410735" lon="10.498005"><ele>143.0</ele><time>2026-03-22T11:36:22.822Z</time></trkpt><trkpt lat="45.41067" lon="10.4980417"><ele>143.0</ele><time>2026-03-22T11:36:25.811Z</time></trkpt><trkpt lat="45.4106017" lon="10.4980833"><ele>143.0</ele><time>2026-03-22T11:36:29.826Z</time></trkpt><trkpt lat="45.41054" lon="10.498125"><ele>143.0</ele><time>2026-03-22T11:36:32.828Z</time></trkpt><trkpt lat="45.41047" lon="10.4981933"><ele>143.0</ele><time>2026-03-22T11:36:35.817Z</time></trkpt><trkpt lat="45.41039" lon="10.49824"><ele>142.66666666666666</ele><time>2026-03-22T11:36:38.826Z</time></trkpt><trkpt lat="45.4103283" lon="10.498275"><ele>142.33333333333331</ele><time>2026-03-22T11:36:40.827Z</time></trkpt><trkpt lat="45.4102483" lon="10.49832"><ele>142.0</ele><time>2026-03-22T11:36:43.826Z</time></trkpt><trkpt lat="45.4101733" lon="10.4983583"><ele>141.66666666666666</ele><time>2026-03-22T11:36:46.826Z</time></trkpt><trkpt lat="45.410095" lon="10.49841"><ele>141.33333333333334</ele><time>2026-03-22T11:36:49.82Z</time></trkpt><trkpt lat="45.41001" lon="10.4984533"><ele>141.0</ele><time>2026-03-22T11:36:52.827Z</time></trkpt><trkpt lat="45.4099333" lon="10.498495"><ele>141.0</ele><time>2026-03-22T11:36:55.826Z</time></trkpt><trkpt lat="45.4098683" lon="10.4985217"><ele>141.0</ele><time>2026-03-22T11:36:58.816Z</time></trkpt><trkpt lat="45.4098017" lon="10.4984483"><ele>141.0</ele><time>2026-03-22T11:37:01.822Z</time></trkpt><trkpt lat="45.4097583" lon="10.4983717"><ele>141.0</ele><time>2026-03-22T11:37:03.827Z</time></trkpt><trkpt lat="45.4096983" lon="10.4983067"><ele>141.0</ele><time>2026-03-22T11:37:05.82Z</time></trkpt><trkpt lat="45.4096267" lon="10.4983117"><ele>141.0</ele><time>2026-03-22T11:37:07.825Z</time></trkpt><trkpt lat="45.4095583" lon="10.4983767"><ele>140.4</ele><time>2026-03-22T11:37:09.82Z</time></trkpt><trkpt lat="45.40949" lon="10.498465"><ele>139.8</ele><time>2026-03-22T11:37:11.822Z</time></trkpt><trkpt lat="45.4094283" lon="10.4985667"><ele>139.20000000000002</ele><time>2026-03-22T11:37:13.817Z</time></trkpt><trkpt lat="45.4093617" lon="10.4986583"><ele>138.6</ele><time>2026-03-22T11:37:15.83Z</time></trkpt><trkpt lat="45.4092817" lon="10.4987267"><ele>138.0</ele><time>2026-03-22T11:37:17.826Z</time></trkpt><trkpt lat="45.409195" lon="10.49874"><ele>138.0</ele><time>2026-03-22T11:37:19.818Z</time></trkpt><trkpt lat="45.40911" lon="10.4986733"><ele>138.0</ele><time>2026-03-22T11:37:21.817Z</time></trkpt><trkpt lat="45.40904" lon="10.4985483"><ele>138.0</ele><time>2026-03-22T11:37:23.82Z</time></trkpt><trkpt lat="45.4089633" lon="10.4984283"><ele>138.0</ele><time>2026-03-22T11:37:25.827Z</time></trkpt><trkpt lat="45.4088617" lon="10.4983767"><ele>138.0</ele><time>2026-03-22T11:37:27.82Z</time></trkpt><trkpt lat="45.40877" lon="10.4984283"><ele>138.16666666666666</ele><time>2026-03-22T11:37:29.821Z</time></trkpt><trkpt lat="45.4087117" lon="10.4985133"><ele>138.33333333333334</ele><time>2026-03-22T11:37:31.819Z</time></trkpt><trkpt lat="45.4086583" lon="10.498585"><ele>138.5</ele><time>2026-03-22T11:37:33.823Z</time></trkpt><trkpt lat="45.408595" lon="10.49867"><ele>138.66666666666669</ele><time>2026-03-22T11:37:36.827Z</time></trkpt><trkpt lat="45.40853" lon="10.4987583"><ele>138.83333333333334</ele><time>2026-03-22T11:37:39.825Z</time></trkpt><trkpt lat="45.40847" lon="10.4988517"><ele>139.0</ele><time>2026-03-22T11:37:42.823Z</time></trkpt><trkpt lat="45.40841" lon="10.498935"><ele>139.16666666666669</ele><time>2026-03-22T11:37:45.821Z</time></trkpt><trkpt lat="45.4083533" lon="10.499025"><ele>139.33333333333334</ele><time>2026-03-22T11:37:48.819Z</time></trkpt><trkpt lat="45.40831" lon="10.4990933"><ele>139.5</ele><time>2026-03-22T11:37:50.828Z</time></trkpt><trkpt lat="45.408255" lon="10.4991667"><ele>139.66666666666666</ele><time>2026-03-22T11:37:52.822Z</time></trkpt><trkpt lat="45.4081933" lon="10.4992517"><ele>139.83333333333331</ele><time>2026-03-22T11:37:54.82Z</time></trkpt><trkpt lat="45.4081467" lon="10.4993383"><ele>140.0</ele><time>2026-03-22T11:37:56.826Z</time></trkpt><trkpt lat="45.4081" lon="10.4994067"><ele>140.0</ele><time>2026-03-22T11:37:58.826Z</time></trkpt><trkpt lat="45.4080483" lon="10.4994817"><ele>140.0</ele><time>2026-03-22T11:38:00.823Z</time></trkpt><trkpt lat="45.4080017" lon="10.4995533"><ele>140.0</ele><time>2026-03-22T11:38:02.821Z</time></trkpt><trkpt lat="45.4079567" lon="10.4996283"><ele>140.0</ele><time>2026-03-22T11:38:04.821Z</time></trkpt><trkpt lat="45.40791" lon="10.4997133"><ele>140.0</ele><time>2026-03-22T11:38:06.822Z</time></trkpt><trkpt lat="45.407865" lon="10.4997967"><ele>140.0</ele><time>2026-03-22T11:38:08.821Z</time></trkpt><trkpt lat="45.4078267" lon="10.49988"><ele>140.0</ele><time>2026-03-22T11:38:10.817Z</time></trkpt><trkpt lat="45.4077783" lon="10.4999633"><ele>140.66666666666666</ele><time>2026-03-22T11:38:12.815Z</time></trkpt><trkpt lat="45.4077333" lon="10.5000383"><ele>141.33333333333331</ele><time>2026-03-22T11:38:14.829Z</time></trkpt><trkpt lat="45.4076683" lon="10.50011"><ele>142.0</ele><time>2026-03-22T11:38:17.817Z</time></trkpt><trkpt lat="45.4076017" lon="10.500175"><ele>142.66666666666666</ele><time>2026-03-22T11:38:20.824Z</time></trkpt><trkpt lat="45.407525" lon="10.5002367"><ele>143.33333333333334</ele><time>2026-03-22T11:38:23.827Z</time></trkpt><trkpt lat="45.4074617" lon="10.5002833"><ele>144.0</ele><time>2026-03-22T11:38:25.818Z</time></trkpt><trkpt lat="45.40739" lon="10.5003367"><ele>144.0</ele><time>2026-03-22T11:38:27.822Z</time></trkpt><trkpt lat="45.40731" lon="10.5003883"><ele>144.0</ele><time>2026-03-22T11:38:29.832Z</time></trkpt><trkpt lat="45.4072383" lon="10.5004283"><ele>144.0</ele><time>2026-03-22T11:38:31.836Z</time></trkpt><trkpt lat="45.40717" lon="10.5004567"><ele>144.0</ele><time>2026-03-22T11:38:33.82Z</time></trkpt><trkpt lat="45.407095" lon="10.500495"><ele>144.0</ele><time>2026-03-22T11:38:35.829Z</time></trkpt><trkpt lat="45.4070233" lon="10.5005333"><ele>144.0</ele><time>2026-03-22T11:38:37.826Z</time></trkpt><trkpt lat="45.406955" lon="10.500575"><ele>143.85714285714286</ele><time>2026-03-22T11:38:39.822Z</time></trkpt><trkpt lat="45.406885" lon="10.5006317"><ele>143.71428571428572</ele><time>2026-03-22T11:38:41.811Z</time></trkpt><trkpt lat="45.40683" lon="10.5006917"><ele>143.57142857142856</ele><time>2026-03-22T11:38:43.827Z</time></trkpt><trkpt lat="45.4067783" lon="10.500795"><ele>143.42857142857144</ele><time>2026-03-22T11:38:46.822Z</time></trkpt><trkpt lat="45.4067467" lon="10.500875"><ele>143.28571428571428</ele><time>2026-03-22T11:38:48.818Z</time></trkpt><trkpt lat="45.40671" lon="10.5009733"><ele>143.14285714285714</ele><time>2026-03-22T11:38:50.818Z</time></trkpt><trkpt lat="45.4066767" lon="10.5010567"><ele>143.0</ele><time>2026-03-22T11:38:52.822Z</time></trkpt><trkpt lat="45.4066467" lon="10.5011417"><ele>142.83333333333331</ele><time>2026-03-22T11:38:54.829Z</time></trkpt><trkpt lat="45.406605" lon="10.5012567"><ele>142.66666666666666</ele><time>2026-03-22T11:38:57.82Z</time></trkpt><trkpt lat="45.4065617" lon="10.501375"><ele>142.5</ele><time>2026-03-22T11:39:00.827Z</time></trkpt><trkpt lat="45.406535" lon="10.5014967"><ele>142.33333333333334</ele><time>2026-03-22T11:39:03.818Z</time></trkpt><trkpt lat="45.4065433" lon="10.5016317"><ele>142.16666666666669</ele><time>2026-03-22T11:39:05.82Z</time></trkpt><trkpt lat="45.406565" lon="10.5017217"><ele>142.0</ele><time>2026-03-22T11:39:07.825Z</time></trkpt><trkpt lat="45.4066017" lon="10.5018017"><ele>142.0</ele><time>2026-03-22T11:39:09.82Z</time></trkpt><trkpt lat="45.4066633" lon="10.5018817"><ele>142.0</ele><time>2026-03-22T11:39:12.82Z</time></trkpt><trkpt lat="45.4067417" lon="10.5019533"><ele>142.0</ele><time>2026-03-22T11:39:15.822Z</time></trkpt><trkpt lat="45.4067917" lon="10.5020117"><ele>142.0</ele><time>2026-03-22T11:39:17.821Z</time></trkpt><trkpt lat="45.4068583" lon="10.502105"><ele>142.0</ele><time>2026-03-22T11:39:20.821Z</time></trkpt><trkpt lat="45.4069117" lon="10.50216"><ele>142.0</ele><time>2026-03-22T11:39:22.82Z</time></trkpt><trkpt lat="45.4069667" lon="10.5022167"><ele>142.28571428571428</ele><time>2026-03-22T11:39:24.822Z</time></trkpt><trkpt lat="45.407055" lon="10.50226"><ele>142.57142857142856</ele><time>2026-03-22T11:39:27.826Z</time></trkpt><trkpt lat="45.4071183" lon="10.5022867"><ele>142.85714285714286</ele><time>2026-03-22T11:39:29.821Z</time></trkpt><trkpt lat="45.4071833" lon="10.5022917"><ele>143.14285714285714</ele><time>2026-03-22T11:39:31.823Z</time></trkpt><trkpt lat="45.4072483" lon="10.5022833"><ele>143.42857142857144</ele><time>2026-03-22T11:39:34.818Z</time></trkpt><trkpt lat="45.4073133" lon="10.5022633"><ele>143.71428571428572</ele><time>2026-03-22T11:39:37.825Z</time></trkpt><trkpt lat="45.4073933" lon="10.50228"><ele>144.0</ele><time>2026-03-22T11:39:40.822Z</time></trkpt><trkpt lat="45.4074667" lon="10.50231"><ele>144.0</ele><time>2026-03-22T11:39:43.82Z</time></trkpt><trkpt lat="45.4075483" lon="10.5023183"><ele>144.0</ele><time>2026-03-22T11:39:46.821Z</time></trkpt><trkpt lat="45.4076183" lon="10.5023367"><ele>144.0</ele><time>2026-03-22T11:39:49.818Z</time></trkpt><trkpt lat="45.40769" lon="10.5023383"><ele>144.0</ele><time>2026-03-22T11:39:52.82Z</time></trkpt><trkpt lat="45.4077867" lon="10.5023483"><ele>144.0</ele><time>2026-03-22T11:39:55.827Z</time></trkpt><trkpt lat="45.4078683" lon="10.5023667"><ele>144.0</ele><time>2026-03-22T11:39:57.825Z</time></trkpt><trkpt lat="45.4079417" lon="10.5024083"><ele>143.4</ele><time>2026-03-22T11:39:59.819Z</time></trkpt><trkpt lat="45.408005" lon="10.5024633"><ele>142.8</ele><time>2026-03-22T11:40:01.826Z</time></trkpt><trkpt lat="45.4080867" lon="10.5025333"><ele>142.2</ele><time>2026-03-22T11:40:03.823Z</time></trkpt><trkpt lat="45.4081717" lon="10.50262"><ele>141.6</ele><time>2026-03-22T11:40:05.834Z</time></trkpt><trkpt lat="45.4082767" lon="10.5026883"><ele>141.0</ele><time>2026-03-22T11:40:07.818Z</time></trkpt><trkpt lat="45.4083783" lon="10.5027233"><ele>141.0</ele><time>2026-03-22T11:40:09.823Z</time></trkpt><trkpt lat="45.4084433" lon="10.5027317"><ele>141.0</ele><time>2026-03-22T11:40:10.827Z</time></trkpt><trkpt lat="45.408555" lon="10.5027617"><ele>141.0</ele><time>2026-03-22T11:40:12.825Z</time></trkpt><trkpt lat="45.4086233" lon="10.502805"><ele>141.0</ele><time>2026-03-22T11:40:13.82Z</time></trkpt><trkpt lat="45.4086817" lon="10.50285"><ele>141.0</ele><time>2026-03-22T11:40:14.821Z</time></trkpt><trkpt lat="45.40875" lon="10.5029033"><ele>141.0</ele><time>2026-03-22T11:40:15.82Z</time></trkpt><trkpt lat="45.408825" lon="10.5029633"><ele>139.83333333333334</ele><time>2026-03-22T11:40:16.827Z</time></trkpt><trkpt lat="45.408905" lon="10.503025"><ele>138.66666666666666</ele><time>2026-03-22T11:40:17.827Z</time></trkpt><trkpt lat="45.4089717" lon="10.5030983"><ele>137.5</ele><time>2026-03-22T11:40:18.815Z</time></trkpt><trkpt lat="45.4090483" lon="10.5031633"><ele>136.33333333333331</ele><time>2026-03-22T11:40:19.828Z</time></trkpt><trkpt lat="45.409105" lon="10.5032217"><ele>135.16666666666666</ele><time>2026-03-22T11:40:20.83Z</time></trkpt><trkpt lat="45.40916" lon="10.5032783"><ele>134.0</ele><time>2026-03-22T11:40:21.821Z</time></trkpt><trkpt lat="45.40921" lon="10.5033433"><ele>134.0</ele><time>2026-03-22T11:40:22.826Z</time></trkpt><trkpt lat="45.4092817" lon="10.5034083"><ele>134.0</ele><time>2026-03-22T11:40:23.833Z</time></trkpt><trkpt lat="45.4093317" lon="10.5034867"><ele>134.0</ele><time>2026-03-22T11:40:24.828Z</time></trkpt><trkpt lat="45.409385" lon="10.5036267"><ele>134.0</ele><time>2026-03-22T11:40:26.83Z</time></trkpt><trkpt lat="45.4094183" lon="10.50378"><ele>134.0</ele><time>2026-03-22T11:40:28.822Z</time></trkpt><trkpt lat="45.4094567" lon="10.503925"><ele>134.2</ele><time>2026-03-22T11:40:30.825Z</time></trkpt><trkpt lat="45.4095" lon="10.5040417"><ele>134.4</ele><time>2026-03-22T11:40:32.831Z</time></trkpt><trkpt lat="45.409535" lon="10.5041733"><ele>134.6</ele><time>2026-03-22T11:40:34.82Z</time></trkpt><trkpt lat="45.4095683" lon="10.504295"><ele>134.8</ele><time>2026-03-22T11:40:36.827Z</time></trkpt><trkpt lat="45.40961" lon="10.5044067"><ele>135.0</ele><time>2026-03-22T11:40:38.829Z</time></trkpt><trkpt lat="45.4096683" lon="10.5045033"><ele>135.0</ele><time>2026-03-22T11:40:40.835Z</time></trkpt><trkpt lat="45.4097283" lon="10.5045717"><ele>135.0</ele><time>2026-03-22T11:40:42.818Z</time></trkpt><trkpt lat="45.4097933" lon="10.50466"><ele>135.0</ele><time>2026-03-22T11:40:44.824Z</time></trkpt><trkpt lat="45.4098533" lon="10.504755"><ele>135.0</ele><time>2026-03-22T11:40:46.828Z</time></trkpt><trkpt lat="45.40991" lon="10.50482"><ele>135.0</ele><time>2026-03-22T11:40:48.827Z</time></trkpt><trkpt lat="45.40996" lon="10.5048883"><ele>135.0</ele><time>2026-03-22T11:40:50.822Z</time></trkpt><trkpt lat="45.4100217" lon="10.5049833"><ele>135.0</ele><time>2026-03-22T11:40:53.821Z</time></trkpt><trkpt lat="45.4100767" lon="10.50508"><ele>135.0</ele><time>2026-03-22T11:40:56.83Z</time></trkpt><trkpt lat="45.4101433" lon="10.5051517"><ele>135.0</ele><time>2026-03-22T11:40:58.818Z</time></trkpt><trkpt lat="45.4102067" lon="10.5052267"><ele>135.0</ele><time>2026-03-22T11:41:00.824Z</time></trkpt><trkpt lat="45.4102633" lon="10.5053083"><ele>135.0</ele><time>2026-03-22T11:41:02.832Z</time></trkpt><trkpt lat="45.410335" lon="10.5054067"><ele>135.0</ele><time>2026-03-22T11:41:04.809Z</time></trkpt><trkpt lat="45.4104183" lon="10.5055317"><ele>135.0</ele><time>2026-03-22T11:41:06.818Z</time></trkpt><trkpt lat="45.41047" lon="10.5055917"><ele>135.0</ele><time>2026-03-22T11:41:07.826Z</time></trkpt><trkpt lat="45.4105767" lon="10.5057117"><ele>135.0</ele><time>2026-03-22T11:41:09.827Z</time></trkpt><trkpt lat="45.4106583" lon="10.5058333"><ele>135.0</ele><time>2026-03-22T11:41:11.823Z</time></trkpt><trkpt lat="45.410755" lon="10.505925"><ele>135.0</ele><time>2026-03-22T11:41:13.821Z</time></trkpt><trkpt lat="45.410855" lon="10.506015"><ele>135.4</ele><time>2026-03-22T11:41:15.821Z</time></trkpt><trkpt lat="45.4109" lon="10.5060833"><ele>135.8</ele><time>2026-03-22T11:41:16.823Z</time></trkpt><trkpt lat="45.4109533" lon="10.5061533"><ele>136.2</ele><time>2026-03-22T11:41:17.826Z</time></trkpt><trkpt lat="45.411" lon="10.506215"><ele>136.6</ele><time>2026-03-22T11:41:18.828Z</time></trkpt><trkpt lat="45.4110717" lon="10.506375"><ele>137.0</ele><time>2026-03-22T11:41:20.83Z</time></trkpt><trkpt lat="45.4111617" lon="10.5064767"><ele>134.6</ele><time>2026-03-22T11:41:22.825Z</time></trkpt><trkpt lat="45.4112517" lon="10.50656"><ele>132.2</ele><time>2026-03-22T11:41:24.828Z</time></trkpt><trkpt lat="45.4113233" lon="10.5066433"><ele>129.8</ele><time>2026-03-22T11:41:26.83Z</time></trkpt><trkpt lat="45.41137" lon="10.506745"><ele>127.4</ele><time>2026-03-22T11:41:28.82Z</time></trkpt><trkpt lat="45.4114183" lon="10.50687"><ele>125.0</ele><time>2026-03-22T11:41:30.828Z</time></trkpt><trkpt lat="45.4114383" lon="10.507025"><ele>125.0</ele><time>2026-03-22T11:41:32.827Z</time></trkpt><trkpt lat="45.4114417" lon="10.507155"><ele>125.0</ele><time>2026-03-22T11:41:34.821Z</time></trkpt><trkpt lat="45.411445" lon="10.5072733"><ele>125.0</ele><time>2026-03-22T11:41:36.817Z</time></trkpt><trkpt lat="45.4114533" lon="10.5074117"><ele>125.0</ele><time>2026-03-22T11:41:38.826Z</time></trkpt><trkpt lat="45.41147" lon="10.50757"><ele>125.0</ele><time>2026-03-22T11:41:40.817Z</time></trkpt><trkpt lat="45.41149" lon="10.5077267"><ele>125.0</ele><time>2026-03-22T11:41:42.817Z</time></trkpt><trkpt lat="45.4115067" lon="10.5078883"><ele>125.0</ele><time>2026-03-22T11:41:44.83Z</time></trkpt><trkpt lat="45.4115217" lon="10.5080483"><ele>125.0</ele><time>2026-03-22T11:41:46.826Z</time></trkpt><trkpt lat="45.41154" lon="10.5081917"><ele>125.0</ele><time>2026-03-22T11:41:48.82Z</time></trkpt><trkpt lat="45.411555" lon="10.508345"><ele>125.0</ele><time>2026-03-22T11:41:50.827Z</time></trkpt><trkpt lat="45.4115617" lon="10.508435"><ele>124.66666666666666</ele><time>2026-03-22T11:41:51.827Z</time></trkpt><trkpt lat="45.4115733" lon="10.5086083"><ele>124.33333333333333</ele><time>2026-03-22T11:41:53.819Z</time></trkpt><trkpt lat="45.4115817" lon="10.5087583"><ele>124.0</ele><time>2026-03-22T11:41:55.819Z</time></trkpt><trkpt lat="45.4115883" lon="10.5088583"><ele>123.66666666666666</ele><time>2026-03-22T11:41:57.818Z</time></trkpt><trkpt lat="45.41162" lon="10.50894"><ele>123.33333333333333</ele><time>2026-03-22T11:42:02.828Z</time></trkpt><trkpt lat="45.41167" lon="10.5090083"><ele>123.0</ele><time>2026-03-22T11:42:06.828Z</time></trkpt><trkpt lat="45.411735" lon="10.5090733"><ele>122.2857142857143</ele><time>2026-03-22T11:42:09.824Z</time></trkpt><trkpt lat="45.4118" lon="10.5090883"><ele>121.57142857142858</ele><time>2026-03-22T11:42:11.819Z</time></trkpt><trkpt lat="45.4118667" lon="10.509105"><ele>120.85714285714286</ele><time>2026-03-22T11:42:13.819Z</time></trkpt><trkpt lat="45.4119417" lon="10.509125"><ele>120.14285714285715</ele><time>2026-03-22T11:42:15.823Z</time></trkpt><trkpt lat="45.4120117" lon="10.5091417"><ele>119.42857142857144</ele><time>2026-03-22T11:42:17.818Z</time></trkpt><trkpt lat="45.412085" lon="10.50916"><ele>118.71428571428571</ele><time>2026-03-22T11:42:19.819Z</time></trkpt><trkpt lat="45.4121583" lon="10.509185"><ele>118.0</ele><time>2026-03-22T11:42:21.821Z</time></trkpt><trkpt lat="45.4122233" lon="10.5092433"><ele>118.00000000000001</ele><time>2026-03-22T11:42:23.826Z</time></trkpt><trkpt lat="45.4122733" lon="10.50934"><ele>118.0</ele><time>2026-03-22T11:42:25.824Z</time></trkpt><trkpt lat="45.4123083" lon="10.5094467"><ele>118.0</ele><time>2026-03-22T11:42:27.82Z</time></trkpt><trkpt lat="45.412335" lon="10.5095467"><ele>118.0</ele><time>2026-03-22T11:42:29.819Z</time></trkpt><trkpt lat="45.4123383" lon="10.5096583"><ele>118.00000000000001</ele><time>2026-03-22T11:42:32.829Z</time></trkpt><trkpt lat="45.4122967" lon="10.5097433"><ele>118.0</ele><time>2026-03-22T11:42:36.819Z</time></trkpt><trkpt lat="45.4122883" lon="10.50985"><ele>118.0</ele><time>2026-03-22T11:42:39.822Z</time></trkpt><trkpt lat="45.4122933" lon="10.509955"><ele>118.0</ele><time>2026-03-22T11:42:42.819Z</time></trkpt><trkpt lat="45.4122983" lon="10.510055"><ele>118.0</ele><time>2026-03-22T11:42:45.822Z</time></trkpt><trkpt lat="45.4123033" lon="10.5101583"><ele>118.0</ele><time>2026-03-22T11:42:48.824Z</time></trkpt><trkpt lat="45.4123133" lon="10.5102533"><ele>118.0</ele><time>2026-03-22T11:42:51.816Z</time></trkpt><trkpt lat="45.412315" lon="10.5103433"><ele>118.0</ele><time>2026-03-22T11:42:54.824Z</time></trkpt><trkpt lat="45.4123117" lon="10.51044"><ele>118.0</ele><time>2026-03-22T11:42:57.819Z</time></trkpt><trkpt lat="45.4123183" lon="10.5105433"><ele>118.0</ele><time>2026-03-22T11:43:00.825Z</time></trkpt><trkpt lat="45.4123267" lon="10.510635"><ele>118.0</ele><time>2026-03-22T11:43:03.825Z</time></trkpt><trkpt lat="45.4123417" lon="10.5107283"><ele>118.0</ele><time>2026-03-22T11:43:06.818Z</time></trkpt><trkpt lat="45.4123483" lon="10.51083"><ele>118.0</ele><time>2026-03-22T11:43:09.824Z</time></trkpt><trkpt lat="45.4123633" lon="10.510935"><ele>118.0</ele><time>2026-03-22T11:43:13.818Z</time></trkpt><trkpt lat="45.4123817" lon="10.51104"><ele>118.0</ele><time>2026-03-22T11:43:17.826Z</time></trkpt><trkpt lat="45.412385" lon="10.5111383"><ele>118.0</ele><time>2026-03-22T11:43:21.817Z</time></trkpt><trkpt lat="45.4123983" lon="10.5112417"><ele>118.28571428571428</ele><time>2026-03-22T11:43:25.825Z</time></trkpt><trkpt lat="45.4123783" lon="10.5113433"><ele>118.57142857142858</ele><time>2026-03-22T11:43:29.82Z</time></trkpt><trkpt lat="45.4123483" lon="10.5114233"><ele>118.85714285714286</ele><time>2026-03-22T11:43:32.827Z</time></trkpt><trkpt lat="45.4123217" lon="10.51151"><ele>119.14285714285714</ele><time>2026-03-22T11:43:35.818Z</time></trkpt><trkpt lat="45.412285" lon="10.5116133"><ele>119.42857142857142</ele><time>2026-03-22T11:43:39.821Z</time></trkpt><trkpt lat="45.412255" lon="10.511725"><ele>119.71428571428572</ele><time>2026-03-22T11:43:43.818Z</time></trkpt><trkpt lat="45.4122333" lon="10.5118133"><ele>120.0</ele><time>2026-03-22T11:43:45.818Z</time></trkpt><trkpt lat="45.4122067" lon="10.511935"><ele>120.0</ele><time>2026-03-22T11:43:47.825Z</time></trkpt><trkpt lat="45.4122133" lon="10.5120617"><ele>120.0</ele><time>2026-03-22T11:43:49.818Z</time></trkpt><trkpt lat="45.4122433" lon="10.5121617"><ele>120.0</ele><time>2026-03-22T11:43:51.816Z</time></trkpt><trkpt lat="45.4122733" lon="10.5122517"><ele>120.0</ele><time>2026-03-22T11:43:53.82Z</time></trkpt><trkpt lat="45.4123067" lon="10.51236"><ele>120.0</ele><time>2026-03-22T11:43:56.825Z</time></trkpt><trkpt lat="45.4123483" lon="10.5124733"><ele>120.0</ele><time>2026-03-22T11:43:59.819Z</time></trkpt><trkpt lat="45.4123717" lon="10.5125633"><ele>119.71428571428572</ele><time>2026-03-22T11:44:01.822Z</time></trkpt><trkpt lat="45.4123933" lon="10.5126517"><ele>119.42857142857142</ele><time>2026-03-22T11:44:03.825Z</time></trkpt><trkpt lat="45.4124067" lon="10.5127483"><ele>119.14285714285714</ele><time>2026-03-22T11:44:05.817Z</time></trkpt><trkpt lat="45.4124233" lon="10.5128433"><ele>118.85714285714286</ele><time>2026-03-22T11:44:07.818Z</time></trkpt><trkpt lat="45.412445" lon="10.512935"><ele>118.57142857142858</ele><time>2026-03-22T11:44:09.824Z</time></trkpt><trkpt lat="45.412465" lon="10.51303"><ele>118.28571428571428</ele><time>2026-03-22T11:44:11.825Z</time></trkpt><trkpt lat="45.4124983" lon="10.5131383"><ele>118.0</ele><time>2026-03-22T11:44:14.819Z</time></trkpt><trkpt lat="45.41252" lon="10.5132717"><ele>117.85714285714286</ele><time>2026-03-22T11:44:17.818Z</time></trkpt><trkpt lat="45.412545" lon="10.5133567"><ele>117.71428571428572</ele><time>2026-03-22T11:44:19.817Z</time></trkpt><trkpt lat="45.41258" lon="10.5134667"><ele>117.57142857142858</ele><time>2026-03-22T11:44:22.816Z</time></trkpt><trkpt lat="45.4125967" lon="10.513585"><ele>117.42857142857143</ele><time>2026-03-22T11:44:25.82Z</time></trkpt><trkpt lat="45.412595" lon="10.5136767"><ele>117.2857142857143</ele><time>2026-03-22T11:44:27.821Z</time></trkpt><trkpt lat="45.412595" lon="10.51377"><ele>117.14285714285715</ele><time>2026-03-22T11:44:29.819Z</time></trkpt><trkpt lat="45.4125933" lon="10.5138633"><ele>117.0</ele><time>2026-03-22T11:44:31.819Z</time></trkpt><trkpt lat="45.4125933" lon="10.513955"><ele>117.5</ele><time>2026-03-22T11:44:33.822Z</time></trkpt><trkpt lat="45.4125917" lon="10.5140783"><ele>118.0</ele><time>2026-03-22T11:44:36.828Z</time></trkpt><trkpt lat="45.412595" lon="10.5141867"><ele>118.5</ele><time>2026-03-22T11:44:39.823Z</time></trkpt><trkpt lat="45.4126033" lon="10.51428"><ele>119.0</ele><time>2026-03-22T11:44:42.825Z</time></trkpt><trkpt lat="45.4126817" lon="10.5143017"><ele>119.5</ele><time>2026-03-22T11:44:46.815Z</time></trkpt><trkpt lat="45.4127567" lon="10.5143167"><ele>120.0</ele><time>2026-03-22T11:44:49.822Z</time></trkpt><trkpt lat="45.4128267" lon="10.5143217"><ele>120.0</ele><time>2026-03-22T11:44:52.818Z</time></trkpt><trkpt lat="45.4128967" lon="10.5143283"><ele>120.0</ele><time>2026-03-22T11:44:55.822Z</time></trkpt><trkpt lat="45.412965" lon="10.51435"><ele>120.0</ele><time>2026-03-22T11:44:58.821Z</time></trkpt><trkpt lat="45.413045" lon="10.5143567"><ele>120.0</ele><time>2026-03-22T11:45:01.819Z</time></trkpt><trkpt lat="45.4131317" lon="10.5143617"><ele>120.0</ele><time>2026-03-22T11:45:04.824Z</time></trkpt><trkpt lat="45.41321" lon="10.5143567"><ele>120.0</ele><time>2026-03-22T11:45:07.818Z</time></trkpt><trkpt lat="45.4133017" lon="10.51435"><ele>119.66666666666667</ele><time>2026-03-22T11:45:10.827Z</time></trkpt><trkpt lat="45.41339" lon="10.5143767"><ele>119.33333333333334</ele><time>2026-03-22T11:45:13.821Z</time></trkpt><trkpt lat="45.4134433" lon="10.51448"><ele>119.0</ele><time>2026-03-22T11:45:16.815Z</time></trkpt><trkpt lat="45.4134267" lon="10.514595"><ele>118.66666666666667</ele><time>2026-03-22T11:45:19.823Z</time></trkpt><trkpt lat="45.4134067" lon="10.5147133"><ele>118.33333333333334</ele><time>2026-03-22T11:45:22.823Z</time></trkpt><trkpt lat="45.4133983" lon="10.5148117"><ele>118.0</ele><time>2026-03-22T11:45:24.82Z</time></trkpt><trkpt lat="45.4133817" lon="10.5149033"><ele>117.66666666666667</ele><time>2026-03-22T11:45:26.828Z</time></trkpt><trkpt lat="45.4133567" lon="10.5150317"><ele>117.33333333333334</ele><time>2026-03-22T11:45:29.829Z</time></trkpt><trkpt lat="45.413335" lon="10.5151267"><ele>117.0</ele><time>2026-03-22T11:45:31.818Z</time></trkpt><trkpt lat="45.41331" lon="10.5152283"><ele>116.66666666666666</ele><time>2026-03-22T11:45:33.824Z</time></trkpt><trkpt lat="45.413285" lon="10.515325"><ele>116.33333333333333</ele><time>2026-03-22T11:45:35.826Z</time></trkpt><trkpt lat="45.4132633" lon="10.5154183"><ele>116.0</ele><time>2026-03-22T11:45:37.825Z</time></trkpt><trkpt lat="45.4132333" lon="10.5155167"><ele>116.00000000000001</ele><time>2026-03-22T11:45:39.817Z</time></trkpt><trkpt lat="45.4132033" lon="10.5156133"><ele>116.0</ele><time>2026-03-22T11:45:41.821Z</time></trkpt><trkpt lat="45.413175" lon="10.5157117"><ele>116.00000000000001</ele><time>2026-03-22T11:45:43.824Z</time></trkpt><trkpt lat="45.413145" lon="10.5157967"><ele>116.00000000000001</ele><time>2026-03-22T11:45:45.82Z</time></trkpt><trkpt lat="45.4131167" lon="10.5158917"><ele>116.0</ele><time>2026-03-22T11:45:47.818Z</time></trkpt><trkpt lat="45.41309" lon="10.515995"><ele>116.00000000000001</ele><time>2026-03-22T11:45:49.827Z</time></trkpt><trkpt lat="45.4130533" lon="10.5160883"><ele>116.00000000000001</ele><time>2026-03-22T11:45:51.823Z</time></trkpt><trkpt lat="45.413015" lon="10.5161833"><ele>115.66666666666666</ele><time>2026-03-22T11:45:53.818Z</time></trkpt><trkpt lat="45.41298" lon="10.5162717"><ele>115.33333333333333</ele><time>2026-03-22T11:45:55.817Z</time></trkpt><trkpt lat="45.41294" lon="10.5164"><ele>115.0</ele><time>2026-03-22T11:45:58.821Z</time></trkpt><trkpt lat="45.4129067" lon="10.5164883"><ele>114.66666666666666</ele><time>2026-03-22T11:46:00.827Z</time></trkpt><trkpt lat="45.4128733" lon="10.51658"><ele>114.33333333333333</ele><time>2026-03-22T11:46:02.819Z</time></trkpt><trkpt lat="45.4128433" lon="10.5166683"><ele>114.0</ele><time>2026-03-22T11:46:04.814Z</time></trkpt><trkpt lat="45.4128133" lon="10.5167583"><ele>114.0</ele><time>2026-03-22T11:46:06.827Z</time></trkpt><trkpt lat="45.41278" lon="10.5168667"><ele>114.0</ele><time>2026-03-22T11:46:09.817Z</time></trkpt><trkpt lat="45.4127483" lon="10.5169667"><ele>114.0</ele><time>2026-03-22T11:46:12.823Z</time></trkpt><trkpt lat="45.4127317" lon="10.517055"><ele>114.0</ele><time>2026-03-22T11:46:16.811Z</time></trkpt><trkpt lat="45.4127033" lon="10.5171483"><ele>114.0</ele><time>2026-03-22T11:46:19.825Z</time></trkpt><trkpt lat="45.4126667" lon="10.5172467"><ele>114.0</ele><time>2026-03-22T11:46:22.817Z</time></trkpt><trkpt lat="45.412605" lon="10.517385"><ele>114.0</ele><time>2026-03-22T11:48:56.828Z</time></trkpt><trkpt lat="45.41257" lon="10.5174717"><ele>114.0</ele><time>2026-03-22T11:48:59.817Z</time></trkpt><trkpt lat="45.4125167" lon="10.51756"><ele>114.0</ele><time>2026-03-22T11:49:02.826Z</time></trkpt><trkpt lat="45.4124583" lon="10.5176333"><ele>114.0</ele><time>2026-03-22T11:49:05.82Z</time></trkpt><trkpt lat="45.412395" lon="10.517715"><ele>114.0</ele><time>2026-03-22T11:49:08.83Z</time></trkpt><trkpt lat="45.4123367" lon="10.5177967"><ele>114.0</ele><time>2026-03-22T11:49:11.825Z</time></trkpt><trkpt lat="45.4122767" lon="10.517875"><ele>114.16666666666667</ele><time>2026-03-22T11:49:14.819Z</time></trkpt><trkpt lat="45.412215" lon="10.517945"><ele>114.33333333333334</ele><time>2026-03-22T11:49:17.821Z</time></trkpt><trkpt lat="45.4121483" lon="10.5180117"><ele>114.5</ele><time>2026-03-22T11:49:20.811Z</time></trkpt><trkpt lat="45.4120767" lon="10.5180967"><ele>114.66666666666667</ele><time>2026-03-22T11:49:23.821Z</time></trkpt><trkpt lat="45.4120283" lon="10.518155"><ele>114.83333333333334</ele><time>2026-03-22T11:49:25.816Z</time></trkpt><trkpt lat="45.41198" lon="10.5182217"><ele>115.0</ele><time>2026-03-22T11:49:27.822Z</time></trkpt><trkpt lat="45.41193" lon="10.5183067"><ele>115.66666666666667</ele><time>2026-03-22T11:49:29.817Z</time></trkpt><trkpt lat="45.411885" lon="10.518395"><ele>116.33333333333334</ele><time>2026-03-22T11:49:31.825Z</time></trkpt><trkpt lat="45.4118383" lon="10.5184917"><ele>117.0</ele><time>2026-03-22T11:49:33.831Z</time></trkpt><trkpt lat="45.4117967" lon="10.51858"><ele>117.66666666666666</ele><time>2026-03-22T11:49:35.825Z</time></trkpt><trkpt lat="45.4117517" lon="10.51866"><ele>118.33333333333333</ele><time>2026-03-22T11:49:37.817Z</time></trkpt><trkpt lat="45.4117117" lon="10.5187417"><ele>119.0</ele><time>2026-03-22T11:49:39.826Z</time></trkpt><trkpt lat="45.4116567" lon="10.518845"><ele>118.99999999999999</ele><time>2026-03-22T11:49:42.824Z</time></trkpt><trkpt lat="45.411615" lon="10.5189167"><ele>119.0</ele><time>2026-03-22T11:49:44.819Z</time></trkpt><trkpt lat="45.4115733" lon="10.51899"><ele>119.0</ele><time>2026-03-22T11:49:46.826Z</time></trkpt><trkpt lat="45.4115183" lon="10.519085"><ele>119.0</ele><time>2026-03-22T11:49:49.819Z</time></trkpt><trkpt lat="45.4114617" lon="10.5191633"><ele>118.99999999999999</ele><time>2026-03-22T11:49:52.817Z</time></trkpt><trkpt lat="45.41141" lon="10.5192733"><ele>119.0</ele><time>2026-03-22T11:49:55.822Z</time></trkpt><trkpt lat="45.4114167" lon="10.51937"><ele>119.0</ele><time>2026-03-22T11:49:57.821Z</time></trkpt><trkpt lat="45.4114833" lon="10.519465"><ele>119.0</ele><time>2026-03-22T11:49:59.818Z</time></trkpt><trkpt lat="45.4115583" lon="10.519575"><ele>119.0</ele><time>2026-03-22T11:50:01.82Z</time></trkpt><trkpt lat="45.411595" lon="10.5197133"><ele>119.0</ele><time>2026-03-22T11:50:03.823Z</time></trkpt><trkpt lat="45.4116117" lon="10.5198667"><ele>119.0</ele><time>2026-03-22T11:50:05.826Z</time></trkpt><trkpt lat="45.4116167" lon="10.5200217"><ele>118.6</ele><time>2026-03-22T11:50:07.822Z</time></trkpt><trkpt lat="45.41161" lon="10.5201717"><ele>118.2</ele><time>2026-03-22T11:50:09.827Z</time></trkpt><trkpt lat="45.4116033" lon="10.52032"><ele>117.79999999999998</ele><time>2026-03-22T11:50:11.823Z</time></trkpt><trkpt lat="45.4116" lon="10.5204683"><ele>117.39999999999999</ele><time>2026-03-22T11:50:13.826Z</time></trkpt><trkpt lat="45.4115917" lon="10.5206233"><ele>117.0</ele><time>2026-03-22T11:50:15.826Z</time></trkpt><trkpt lat="45.4116017" lon="10.5207783"><ele>116.8</ele><time>2026-03-22T11:50:17.826Z</time></trkpt><trkpt lat="45.411635" lon="10.5209233"><ele>116.6</ele><time>2026-03-22T11:50:19.828Z</time></trkpt><trkpt lat="45.4117033" lon="10.5210233"><ele>116.39999999999999</ele><time>2026-03-22T11:50:21.824Z</time></trkpt><trkpt lat="45.4117917" lon="10.52109"><ele>116.19999999999999</ele><time>2026-03-22T11:50:23.827Z</time></trkpt><trkpt lat="45.4118833" lon="10.521145"><ele>116.0</ele><time>2026-03-22T11:50:25.826Z</time></trkpt><trkpt lat="45.411975" lon="10.52119"><ele>116.19999999999999</ele><time>2026-03-22T11:50:27.822Z</time></trkpt><trkpt lat="45.4120617" lon="10.5212533"><ele>116.39999999999999</ele><time>2026-03-22T11:50:29.818Z</time></trkpt><trkpt lat="45.4121283" lon="10.5213533"><ele>116.6</ele><time>2026-03-22T11:50:31.826Z</time></trkpt><trkpt lat="45.4121767" lon="10.5214867"><ele>116.8</ele><time>2026-03-22T11:50:33.823Z</time></trkpt><trkpt lat="45.41219" lon="10.5216367"><ele>117.0</ele><time>2026-03-22T11:50:35.826Z</time></trkpt><trkpt lat="45.4121783" lon="10.5217783"><ele>117.0</ele><time>2026-03-22T11:50:37.833Z</time></trkpt><trkpt lat="45.4121617" lon="10.5219117"><ele>117.0</ele><time>2026-03-22T11:50:39.82Z</time></trkpt><trkpt lat="45.4121317" lon="10.5220333"><ele>117.0</ele><time>2026-03-22T11:50:41.822Z</time></trkpt><trkpt lat="45.41209" lon="10.5221433"><ele>117.0</ele><time>2026-03-22T11:50:43.819Z</time></trkpt><trkpt lat="45.4120217" lon="10.5221917"><ele>117.0</ele><time>2026-03-22T11:50:45.826Z</time></trkpt><trkpt lat="45.4119383" lon="10.5221667"><ele>117.0</ele><time>2026-03-22T11:50:47.821Z</time></trkpt><trkpt lat="45.4118483" lon="10.5221133"><ele>117.0</ele><time>2026-03-22T11:50:49.818Z</time></trkpt><trkpt lat="45.4117583" lon="10.5220533"><ele>116.99999999999999</ele><time>2026-03-22T11:50:51.82Z</time></trkpt><trkpt lat="45.41165" lon="10.5220067"><ele>116.99999999999999</ele><time>2026-03-22T11:50:53.828Z</time></trkpt><trkpt lat="45.4115467" lon="10.5219833"><ele>117.0</ele><time>2026-03-22T11:50:55.825Z</time></trkpt><trkpt lat="45.4114417" lon="10.5219683"><ele>117.0</ele><time>2026-03-22T11:50:57.821Z</time></trkpt><trkpt lat="45.4113433" lon="10.5219683"><ele>117.0</ele><time>2026-03-22T11:50:59.818Z</time></trkpt><trkpt lat="45.411235" lon="10.5219667"><ele>116.99999999999999</ele><time>2026-03-22T11:51:01.822Z</time></trkpt><trkpt lat="45.411125" lon="10.52199"><ele>116.99999999999999</ele><time>2026-03-22T11:51:03.827Z</time></trkpt><trkpt lat="45.4110167" lon="10.5220283"><ele>117.0</ele><time>2026-03-22T11:51:05.822Z</time></trkpt><trkpt lat="45.410905" lon="10.522065"><ele>117.0</ele><time>2026-03-22T11:51:07.822Z</time></trkpt><trkpt lat="45.4107883" lon="10.522115"><ele>117.0</ele><time>2026-03-22T11:51:09.827Z</time></trkpt><trkpt lat="45.4106867" lon="10.5221583"><ele>116.99999999999999</ele><time>2026-03-22T11:51:11.827Z</time></trkpt><trkpt lat="45.4105883" lon="10.5222033"><ele>116.99999999999999</ele><time>2026-03-22T11:51:13.827Z</time></trkpt><trkpt lat="45.4104883" lon="10.52225"><ele>117.0</ele><time>2026-03-22T11:51:15.828Z</time></trkpt><trkpt lat="45.4103883" lon="10.522295"><ele>117.0</ele><time>2026-03-22T11:51:17.827Z</time></trkpt><trkpt lat="45.4102933" lon="10.5223333"><ele>117.6</ele><time>2026-03-22T11:51:19.821Z</time></trkpt><trkpt lat="45.4102017" lon="10.5223683"><ele>118.19999999999999</ele><time>2026-03-22T11:51:21.821Z</time></trkpt><trkpt lat="45.4101117" lon="10.5224033"><ele>118.8</ele><time>2026-03-22T11:51:23.827Z</time></trkpt><trkpt lat="45.4100233" lon="10.5224433"><ele>119.4</ele><time>2026-03-22T11:51:25.821Z</time></trkpt><trkpt lat="45.409935" lon="10.5224767"><ele>120.0</ele><time>2026-03-22T11:51:27.822Z</time></trkpt><trkpt lat="45.409845" lon="10.52251"><ele>120.0</ele><time>2026-03-22T11:51:29.82Z</time></trkpt><trkpt lat="45.4097633" lon="10.5225467"><ele>120.0</ele><time>2026-03-22T11:51:31.817Z</time></trkpt><trkpt lat="45.4096817" lon="10.522585"><ele>120.0</ele><time>2026-03-22T11:51:33.817Z</time></trkpt><trkpt lat="45.4095983" lon="10.5226183"><ele>120.0</ele><time>2026-03-22T11:51:35.819Z</time></trkpt><trkpt lat="45.4095217" lon="10.5226483"><ele>120.0</ele><time>2026-03-22T11:51:37.817Z</time></trkpt><trkpt lat="45.4094517" lon="10.5226783"><ele>120.0</ele><time>2026-03-22T11:51:39.817Z</time></trkpt><trkpt lat="45.4093883" lon="10.5227117"><ele>119.83333333333333</ele><time>2026-03-22T11:51:41.821Z</time></trkpt><trkpt lat="45.409325" lon="10.52274"><ele>119.66666666666666</ele><time>2026-03-22T11:51:43.821Z</time></trkpt><trkpt lat="45.4092483" lon="10.5227883"><ele>119.5</ele><time>2026-03-22T11:51:46.817Z</time></trkpt><trkpt lat="45.4091767" lon="10.522825"><ele>119.33333333333333</ele><time>2026-03-22T11:51:49.822Z</time></trkpt><trkpt lat="45.409095" lon="10.5228567"><ele>119.16666666666666</ele><time>2026-03-22T11:51:52.818Z</time></trkpt><trkpt lat="45.4090067" lon="10.5228917"><ele>119.0</ele><time>2026-03-22T11:51:55.818Z</time></trkpt><trkpt lat="45.4089367" lon="10.5229117"><ele>119.0</ele><time>2026-03-22T11:51:57.823Z</time></trkpt><trkpt lat="45.408845" lon="10.5229433"><ele>119.0</ele><time>2026-03-22T11:52:00.827Z</time></trkpt><trkpt lat="45.4087833" lon="10.522965"><ele>119.0</ele><time>2026-03-22T11:52:02.82Z</time></trkpt><trkpt lat="45.4087233" lon="10.5230033"><ele>119.0</ele><time>2026-03-22T11:52:04.816Z</time></trkpt><trkpt lat="45.4086633" lon="10.52304"><ele>119.0</ele><time>2026-03-22T11:52:06.827Z</time></trkpt><trkpt lat="45.4086083" lon="10.5231033"><ele>119.0</ele><time>2026-03-22T11:52:08.827Z</time></trkpt><trkpt lat="45.4085467" lon="10.523125"><ele>119.0</ele><time>2026-03-22T11:52:11.818Z</time></trkpt><trkpt lat="45.40848" lon="10.523125"><ele>120.14285714285714</ele><time>2026-03-22T11:52:14.827Z</time></trkpt><trkpt lat="45.4084083" lon="10.5231683"><ele>121.28571428571428</ele><time>2026-03-22T11:52:17.822Z</time></trkpt><trkpt lat="45.4083283" lon="10.52323"><ele>122.42857142857143</ele><time>2026-03-22T11:52:20.827Z</time></trkpt><trkpt lat="45.4082717" lon="10.5232717"><ele>123.57142857142857</ele><time>2026-03-22T11:52:22.825Z</time></trkpt><trkpt lat="45.4082133" lon="10.523315"><ele>124.71428571428571</ele><time>2026-03-22T11:52:24.823Z</time></trkpt><trkpt lat="45.4081583" lon="10.5233633"><ele>125.85714285714286</ele><time>2026-03-22T11:52:26.82Z</time></trkpt><trkpt lat="45.4080917" lon="10.5234"><ele>127.0</ele><time>2026-03-22T11:52:28.822Z</time></trkpt><trkpt lat="45.40802" lon="10.5234417"><ele>127.28571428571429</ele><time>2026-03-22T11:52:30.829Z</time></trkpt><trkpt lat="45.4079617" lon="10.5234983"><ele>127.57142857142856</ele><time>2026-03-22T11:52:32.831Z</time></trkpt><trkpt lat="45.4079067" lon="10.523545"><ele>127.85714285714285</ele><time>2026-03-22T11:52:34.821Z</time></trkpt><trkpt lat="45.4078467" lon="10.5235867"><ele>128.14285714285714</ele><time>2026-03-22T11:52:36.823Z</time></trkpt><trkpt lat="45.4077867" lon="10.5236283"><ele>128.42857142857142</ele><time>2026-03-22T11:52:38.827Z</time></trkpt><trkpt lat="45.4077283" lon="10.52367"><ele>128.7142857142857</ele><time>2026-03-22T11:52:40.827Z</time></trkpt><trkpt lat="45.4076467" lon="10.5237417"><ele>129.0</ele><time>2026-03-22T11:52:43.827Z</time></trkpt><trkpt lat="45.407595" lon="10.523795"><ele>129.14285714285714</ele><time>2026-03-22T11:52:45.824Z</time></trkpt><trkpt lat="45.4075417" lon="10.5238467"><ele>129.28571428571428</ele><time>2026-03-22T11:52:47.83Z</time></trkpt><trkpt lat="45.407485" lon="10.5238933"><ele>129.42857142857144</ele><time>2026-03-22T11:52:49.818Z</time></trkpt><trkpt lat="45.4074267" lon="10.52393"><ele>129.57142857142856</ele><time>2026-03-22T11:52:51.822Z</time></trkpt><trkpt lat="45.407365" lon="10.5239717"><ele>129.71428571428572</ele><time>2026-03-22T11:52:53.824Z</time></trkpt><trkpt lat="45.40729" lon="10.52405"><ele>129.85714285714286</ele><time>2026-03-22T11:52:56.82Z</time></trkpt><trkpt lat="45.40723" lon="10.5241033"><ele>130.0</ele><time>2026-03-22T11:52:58.82Z</time></trkpt><trkpt lat="45.4071533" lon="10.5241667"><ele>130.66666666666669</ele><time>2026-03-22T11:53:01.828Z</time></trkpt><trkpt lat="45.4070733" lon="10.5242217"><ele>131.33333333333334</ele><time>2026-03-22T11:53:04.819Z</time></trkpt><trkpt lat="45.4069883" lon="10.52426"><ele>132.0</ele><time>2026-03-22T11:53:07.829Z</time></trkpt><trkpt lat="45.40691" lon="10.5242883"><ele>132.66666666666666</ele><time>2026-03-22T11:53:09.82Z</time></trkpt><trkpt lat="45.4068367" lon="10.5243167"><ele>133.33333333333331</ele><time>2026-03-22T11:53:11.819Z</time></trkpt><trkpt lat="45.4067667" lon="10.5243533"><ele>134.0</ele><time>2026-03-22T11:53:13.822Z</time></trkpt><trkpt lat="45.4066967" lon="10.5244"><ele>134.0</ele><time>2026-03-22T11:53:15.822Z</time></trkpt><trkpt lat="45.40663" lon="10.5244467"><ele>134.0</ele><time>2026-03-22T11:53:17.825Z</time></trkpt><trkpt lat="45.4065733" lon="10.5244917"><ele>134.0</ele><time>2026-03-22T11:53:19.819Z</time></trkpt><trkpt lat="45.4065117" lon="10.5245433"><ele>134.0</ele><time>2026-03-22T11:53:21.821Z</time></trkpt><trkpt lat="45.40645" lon="10.5245933"><ele>134.0</ele><time>2026-03-22T11:53:23.829Z</time></trkpt><trkpt lat="45.4063817" lon="10.5246567"><ele>134.0</ele><time>2026-03-22T11:53:26.828Z</time></trkpt><trkpt lat="45.4063083" lon="10.5247483"><ele>133.33333333333331</ele><time>2026-03-22T11:53:29.821Z</time></trkpt><trkpt lat="45.4062467" lon="10.524855"><ele>132.66666666666666</ele><time>2026-03-22T11:53:31.828Z</time></trkpt><trkpt lat="45.40617" lon="10.524975"><ele>132.0</ele><time>2026-03-22T11:53:33.821Z</time></trkpt><trkpt lat="45.40612" lon="10.5250383"><ele>131.33333333333334</ele><time>2026-03-22T11:53:34.825Z</time></trkpt><trkpt lat="45.40607" lon="10.5251"><ele>130.66666666666669</ele><time>2026-03-22T11:53:35.826Z</time></trkpt><trkpt lat="45.4060167" lon="10.5251667"><ele>130.0</ele><time>2026-03-22T11:53:36.827Z</time></trkpt><trkpt lat="45.4059633" lon="10.5252267"><ele>130.0</ele><time>2026-03-22T11:53:37.831Z</time></trkpt><trkpt lat="45.4059133" lon="10.525285"><ele>130.0</ele><time>2026-03-22T11:53:38.833Z</time></trkpt><trkpt lat="45.4058183" lon="10.5253983"><ele>130.0</ele><time>2026-03-22T11:53:40.83Z</time></trkpt><trkpt lat="45.40573" lon="10.5255033"><ele>130.0</ele><time>2026-03-22T11:53:42.829Z</time></trkpt><trkpt lat="45.4056533" lon="10.5256033"><ele>130.0</ele><time>2026-03-22T11:53:44.83Z</time></trkpt><trkpt lat="45.4055983" lon="10.525695"><ele>130.16666666666669</ele><time>2026-03-22T11:53:46.819Z</time></trkpt><trkpt lat="45.4055433" lon="10.52578"><ele>130.33333333333334</ele><time>2026-03-22T11:53:48.829Z</time></trkpt><trkpt lat="45.4054817" lon="10.525865"><ele>130.5</ele><time>2026-03-22T11:53:50.831Z</time></trkpt><trkpt lat="45.40542" lon="10.5259433"><ele>130.66666666666666</ele><time>2026-03-22T11:53:52.819Z</time></trkpt><trkpt lat="45.40537" lon="10.526005"><ele>130.83333333333331</ele><time>2026-03-22T11:53:54.822Z</time></trkpt><trkpt lat="45.4053133" lon="10.526085"><ele>131.0</ele><time>2026-03-22T11:53:56.827Z</time></trkpt><trkpt lat="45.40525" lon="10.5261767"><ele>131.16666666666666</ele><time>2026-03-22T11:53:58.822Z</time></trkpt><trkpt lat="45.4051583" lon="10.5262733"><ele>131.33333333333331</ele><time>2026-03-22T11:54:00.823Z</time></trkpt><trkpt lat="45.4051067" lon="10.5263317"><ele>131.5</ele><time>2026-03-22T11:54:01.82Z</time></trkpt><trkpt lat="45.405055" lon="10.5263967"><ele>131.66666666666666</ele><time>2026-03-22T11:54:02.832Z</time></trkpt><trkpt lat="45.4050067" lon="10.5264633"><ele>131.83333333333334</ele><time>2026-03-22T11:54:03.827Z</time></trkpt><trkpt lat="45.40496" lon="10.52653"><ele>132.0</ele><time>2026-03-22T11:54:04.822Z</time></trkpt><trkpt lat="45.4048767" lon="10.526645"><ele>132.0</ele><time>2026-03-22T11:54:06.828Z</time></trkpt><trkpt lat="45.4047967" lon="10.526755"><ele>132.0</ele><time>2026-03-22T11:54:08.831Z</time></trkpt><trkpt lat="45.404715" lon="10.5268783"><ele>132.0</ele><time>2026-03-22T11:54:10.828Z</time></trkpt><trkpt lat="45.4046283" lon="10.5270017"><ele>132.0</ele><time>2026-03-22T11:54:12.832Z</time></trkpt><trkpt lat="45.4045533" lon="10.527125"><ele>132.2</ele><time>2026-03-22T11:54:14.83Z</time></trkpt><trkpt lat="45.4044883" lon="10.527235"><ele>132.39999999999998</ele><time>2026-03-22T11:54:16.822Z</time></trkpt><trkpt lat="45.4044183" lon="10.52734"><ele>132.60000000000002</ele><time>2026-03-22T11:54:18.823Z</time></trkpt><trkpt lat="45.4043467" lon="10.527445"><ele>132.8</ele><time>2026-03-22T11:54:20.828Z</time></trkpt><trkpt lat="45.4042733" lon="10.5275517"><ele>133.0</ele><time>2026-03-22T11:54:22.827Z</time></trkpt><trkpt lat="45.4042033" lon="10.5276483"><ele>133.0</ele><time>2026-03-22T11:54:24.823Z</time></trkpt><trkpt lat="45.4041333" lon="10.5277283"><ele>133.0</ele><time>2026-03-22T11:54:26.83Z</time></trkpt><trkpt lat="45.4040633" lon="10.527775"><ele>133.0</ele><time>2026-03-22T11:54:28.82Z</time></trkpt><trkpt lat="45.40399" lon="10.52779"><ele>133.0</ele><time>2026-03-22T11:54:30.828Z</time></trkpt><trkpt lat="45.4039167" lon="10.5277817"><ele>133.0</ele><time>2026-03-22T11:54:32.832Z</time></trkpt><trkpt lat="45.4038467" lon="10.5277667"><ele>133.0</ele><time>2026-03-22T11:54:34.819Z</time></trkpt><trkpt lat="45.4037817" lon="10.5277617"><ele>133.28571428571428</ele><time>2026-03-22T11:54:36.821Z</time></trkpt><trkpt lat="45.4037133" lon="10.5277633"><ele>133.57142857142856</ele><time>2026-03-22T11:54:38.829Z</time></trkpt><trkpt lat="45.40365" lon="10.5277867"><ele>133.85714285714286</ele><time>2026-03-22T11:54:40.821Z</time></trkpt><trkpt lat="45.40358" lon="10.5278167"><ele>134.14285714285714</ele><time>2026-03-22T11:54:42.821Z</time></trkpt><trkpt lat="45.40351" lon="10.5278433"><ele>134.42857142857142</ele><time>2026-03-22T11:54:44.821Z</time></trkpt><trkpt lat="45.4034367" lon="10.5278717"><ele>134.71428571428572</ele><time>2026-03-22T11:54:46.827Z</time></trkpt><trkpt lat="45.4033683" lon="10.527885"><ele>135.0</ele><time>2026-03-22T11:54:48.823Z</time></trkpt><trkpt lat="45.4033" lon="10.5279"><ele>135.4</ele><time>2026-03-22T11:54:50.821Z</time></trkpt><trkpt lat="45.4032267" lon="10.5279283"><ele>135.8</ele><time>2026-03-22T11:54:52.819Z</time></trkpt><trkpt lat="45.40314" lon="10.5279467"><ele>136.2</ele><time>2026-03-22T11:54:54.824Z</time></trkpt><trkpt lat="45.4030417" lon="10.5279583"><ele>136.6</ele><time>2026-03-22T11:54:56.827Z</time></trkpt><trkpt lat="45.4029533" lon="10.5279833"><ele>137.0</ele><time>2026-03-22T11:54:58.818Z</time></trkpt><trkpt lat="45.4028183" lon="10.52802"><ele>137.2</ele><time>2026-03-22T11:55:01.819Z</time></trkpt><trkpt lat="45.4027333" lon="10.5280717"><ele>137.39999999999998</ele><time>2026-03-22T11:55:03.821Z</time></trkpt><trkpt lat="45.4026467" lon="10.528145"><ele>137.60000000000002</ele><time>2026-03-22T11:55:05.814Z</time></trkpt><trkpt lat="45.4025733" lon="10.5282083"><ele>137.8</ele><time>2026-03-22T11:55:07.82Z</time></trkpt><trkpt lat="45.4024933" lon="10.528275"><ele>138.0</ele><time>2026-03-22T11:55:09.824Z</time></trkpt><trkpt lat="45.4024167" lon="10.5283333"><ele>138.0</ele><time>2026-03-22T11:55:11.821Z</time></trkpt><trkpt lat="45.402345" lon="10.5283917"><ele>138.0</ele><time>2026-03-22T11:55:13.822Z</time></trkpt><trkpt lat="45.40228" lon="10.52845"><ele>138.0</ele><time>2026-03-22T11:55:15.821Z</time></trkpt><trkpt lat="45.40221" lon="10.52851"><ele>138.0</ele><time>2026-03-22T11:55:17.817Z</time></trkpt><trkpt lat="45.4021317" lon="10.5285817"><ele>138.0</ele><time>2026-03-22T11:55:19.823Z</time></trkpt><trkpt lat="45.4020583" lon="10.52865"><ele>138.0</ele><time>2026-03-22T11:55:21.822Z</time></trkpt><trkpt lat="45.4019767" lon="10.5287167"><ele>137.8</ele><time>2026-03-22T11:55:23.827Z</time></trkpt><trkpt lat="45.4018883" lon="10.5287817"><ele>137.60000000000002</ele><time>2026-03-22T11:55:25.827Z</time></trkpt><trkpt lat="45.4018067" lon="10.5288567"><ele>137.39999999999998</ele><time>2026-03-22T11:55:27.821Z</time></trkpt><trkpt lat="45.4017233" lon="10.5289183"><ele>137.2</ele><time>2026-03-22T11:55:29.821Z</time></trkpt><trkpt lat="45.4016417" lon="10.5289783"><ele>137.0</ele><time>2026-03-22T11:55:31.824Z</time></trkpt><trkpt lat="45.4015717" lon="10.5290383"><ele>137.0</ele><time>2026-03-22T11:55:33.83Z</time></trkpt><trkpt lat="45.4015067" lon="10.5290833"><ele>137.0</ele><time>2026-03-22T11:55:35.826Z</time></trkpt><trkpt lat="45.4014467" lon="10.5291267"><ele>137.0</ele><time>2026-03-22T11:55:37.823Z</time></trkpt><trkpt lat="45.4013767" lon="10.5291883"><ele>137.0</ele><time>2026-03-22T11:55:39.826Z</time></trkpt><trkpt lat="45.4013083" lon="10.5292567"><ele>137.0</ele><time>2026-03-22T11:55:41.824Z</time></trkpt><trkpt lat="45.4012433" lon="10.5293067"><ele>137.0</ele><time>2026-03-22T11:55:43.824Z</time></trkpt><trkpt lat="45.4011633" lon="10.52936"><ele>136.85714285714286</ele><time>2026-03-22T11:55:46.821Z</time></trkpt><trkpt lat="45.40111" lon="10.5294083"><ele>136.71428571428572</ele><time>2026-03-22T11:55:48.824Z</time></trkpt><trkpt lat="45.401055" lon="10.5294583"><ele>136.57142857142856</ele><time>2026-03-22T11:55:50.831Z</time></trkpt><trkpt lat="45.400995" lon="10.5295133"><ele>136.42857142857144</ele><time>2026-03-22T11:55:52.819Z</time></trkpt><trkpt lat="45.4009283" lon="10.52957"><ele>136.28571428571428</ele><time>2026-03-22T11:55:54.82Z</time></trkpt><trkpt lat="45.400855" lon="10.5296267"><ele>136.14285714285714</ele><time>2026-03-22T11:55:56.827Z</time></trkpt><trkpt lat="45.4007883" lon="10.5296817"><ele>136.0</ele><time>2026-03-22T11:55:58.823Z</time></trkpt><trkpt lat="45.40075" lon="10.5297583"><ele>135.85714285714283</ele><time>2026-03-22T11:56:00.818Z</time></trkpt><trkpt lat="45.4007583" lon="10.5298517"><ele>135.71428571428572</ele><time>2026-03-22T11:56:02.829Z</time></trkpt><trkpt lat="45.4007833" lon="10.5299367"><ele>135.57142857142856</ele><time>2026-03-22T11:56:04.826Z</time></trkpt><trkpt lat="45.40081" lon="10.53003"><ele>135.42857142857142</ele><time>2026-03-22T11:56:06.828Z</time></trkpt><trkpt lat="45.4008383" lon="10.5301167"><ele>135.28571428571428</ele><time>2026-03-22T11:56:08.821Z</time></trkpt><trkpt lat="45.40086" lon="10.53021"><ele>135.14285714285714</ele><time>2026-03-22T11:56:10.823Z</time></trkpt><trkpt lat="45.400885" lon="10.5303017"><ele>135.0</ele><time>2026-03-22T11:56:12.825Z</time></trkpt><trkpt lat="45.4009183" lon="10.5303983"><ele>134.83333333333334</ele><time>2026-03-22T11:56:14.827Z</time></trkpt><trkpt lat="45.4009417" lon="10.5304967"><ele>134.66666666666666</ele><time>2026-03-22T11:56:16.82Z</time></trkpt><trkpt lat="45.4009667" lon="10.5305867"><ele>134.5</ele><time>2026-03-22T11:56:18.824Z</time></trkpt><trkpt lat="45.4009817" lon="10.5306767"><ele>134.33333333333331</ele><time>2026-03-22T11:56:20.83Z</time></trkpt><trkpt lat="45.400975" lon="10.5307833"><ele>134.16666666666666</ele><time>2026-03-22T11:56:22.828Z</time></trkpt><trkpt lat="45.40101" lon="10.530905"><ele>134.0</ele><time>2026-03-22T11:56:24.819Z</time></trkpt><trkpt lat="45.401045" lon="10.5310133"><ele>134.0</ele><time>2026-03-22T11:56:26.828Z</time></trkpt><trkpt lat="45.4010683" lon="10.5311183"><ele>134.0</ele><time>2026-03-22T11:56:28.819Z</time></trkpt><trkpt lat="45.401085" lon="10.5312333"><ele>134.0</ele><time>2026-03-22T11:56:30.819Z</time></trkpt><trkpt lat="45.4010917" lon="10.5313783"><ele>134.0</ele><time>2026-03-22T11:56:32.822Z</time></trkpt><trkpt lat="45.401095" lon="10.5315367"><ele>134.0</ele><time>2026-03-22T11:56:34.826Z</time></trkpt><trkpt lat="45.401105" lon="10.5316817"><ele>133.4</ele><time>2026-03-22T11:56:36.829Z</time></trkpt><trkpt lat="45.4011383" lon="10.5318117"><ele>132.8</ele><time>2026-03-22T11:56:38.832Z</time></trkpt><trkpt lat="45.4011917" lon="10.53193"><ele>132.2</ele><time>2026-03-22T11:56:40.821Z</time></trkpt><trkpt lat="45.40127" lon="10.5320483"><ele>131.6</ele><time>2026-03-22T11:56:42.83Z</time></trkpt><trkpt lat="45.4013633" lon="10.5321633"><ele>131.0</ele><time>2026-03-22T11:56:44.824Z</time></trkpt><trkpt lat="45.401415" lon="10.5322167"><ele>130.42857142857144</ele><time>2026-03-22T11:56:45.827Z</time></trkpt><trkpt lat="45.40147" lon="10.5322633"><ele>129.85714285714286</ele><time>2026-03-22T11:56:46.822Z</time></trkpt><trkpt lat="45.4015267" lon="10.5323083"><ele>129.28571428571428</ele><time>2026-03-22T11:56:47.828Z</time></trkpt><trkpt lat="45.401585" lon="10.5323517"><ele>128.71428571428572</ele><time>2026-03-22T11:56:48.831Z</time></trkpt><trkpt lat="45.4016467" lon="10.53239"><ele>128.14285714285714</ele><time>2026-03-22T11:56:49.829Z</time></trkpt><trkpt lat="45.4017067" lon="10.5324317"><ele>127.57142857142858</ele><time>2026-03-22T11:56:50.836Z</time></trkpt><trkpt lat="45.4017683" lon="10.53248"><ele>127.0</ele><time>2026-03-22T11:56:51.827Z</time></trkpt><trkpt lat="45.4018283" lon="10.5325283"><ele>127.0</ele><time>2026-03-22T11:56:52.827Z</time></trkpt><trkpt lat="45.4018917" lon="10.5325667"><ele>127.0</ele><time>2026-03-22T11:56:53.822Z</time></trkpt><trkpt lat="45.4019583" lon="10.5325967"><ele>127.0</ele><time>2026-03-22T11:56:54.835Z</time></trkpt><trkpt lat="45.4020283" lon="10.53262"><ele>127.0</ele><time>2026-03-22T11:56:55.828Z</time></trkpt><trkpt lat="45.4021" lon="10.5326417"><ele>127.0</ele><time>2026-03-22T11:56:56.83Z</time></trkpt><trkpt lat="45.40217" lon="10.5326617"><ele>127.0</ele><time>2026-03-22T11:56:57.826Z</time></trkpt><trkpt lat="45.4022383" lon="10.5326883"><ele>127.0</ele><time>2026-03-22T11:56:58.827Z</time></trkpt><trkpt lat="45.4023033" lon="10.5327017"><ele>126.83333333333334</ele><time>2026-03-22T11:56:59.829Z</time></trkpt><trkpt lat="45.4023917" lon="10.5327317"><ele>126.66666666666667</ele><time>2026-03-22T11:57:01.821Z</time></trkpt><trkpt lat="45.402465" lon="10.5327517"><ele>126.5</ele><time>2026-03-22T11:57:05.826Z</time></trkpt><trkpt lat="45.402525" lon="10.5328083"><ele>126.33333333333334</ele><time>2026-03-22T11:57:09.818Z</time></trkpt><trkpt lat="45.4025717" lon="10.5328883"><ele>126.16666666666667</ele><time>2026-03-22T11:57:12.827Z</time></trkpt><trkpt lat="45.4026283" lon="10.5329767"><ele>126.0</ele><time>2026-03-22T11:57:15.828Z</time></trkpt><trkpt lat="45.4026833" lon="10.53308"><ele>125.66666666666667</ele><time>2026-03-22T11:57:18.821Z</time></trkpt><trkpt lat="45.40273" lon="10.533185"><ele>125.33333333333334</ele><time>2026-03-22T11:57:21.822Z</time></trkpt><trkpt lat="45.4027767" lon="10.5332967"><ele>125.0</ele><time>2026-03-22T11:57:24.827Z</time></trkpt><trkpt lat="45.402825" lon="10.5333917"><ele>124.66666666666667</ele><time>2026-03-22T11:57:27.819Z</time></trkpt><trkpt lat="45.4028817" lon="10.5334583"><ele>124.33333333333334</ele><time>2026-03-22T11:57:30.826Z</time></trkpt><trkpt lat="45.402945" lon="10.5335217"><ele>124.0</ele><time>2026-03-22T11:57:33.82Z</time></trkpt><trkpt lat="45.403" lon="10.5335817"><ele>123.85714285714286</ele><time>2026-03-22T11:57:35.819Z</time></trkpt><trkpt lat="45.4030533" lon="10.53364"><ele>123.71428571428572</ele><time>2026-03-22T11:57:37.823Z</time></trkpt><trkpt lat="45.403105" lon="10.5337067"><ele>123.57142857142858</ele><time>2026-03-22T11:57:39.819Z</time></trkpt><trkpt lat="45.40316" lon="10.5337717"><ele>123.42857142857144</ele><time>2026-03-22T11:57:41.82Z</time></trkpt><trkpt lat="45.4032167" lon="10.5338517"><ele>123.28571428571429</ele><time>2026-03-22T11:57:43.825Z</time></trkpt><trkpt lat="45.4032733" lon="10.5339233"><ele>123.14285714285717</ele><time>2026-03-22T11:57:45.826Z</time></trkpt><trkpt lat="45.403335" lon="10.5339933"><ele>123.00000000000001</ele><time>2026-03-22T11:57:47.827Z</time></trkpt><trkpt lat="45.4033933" lon="10.5340467"><ele>122.66666666666667</ele><time>2026-03-22T11:57:49.816Z</time></trkpt><trkpt lat="45.4034617" lon="10.53408"><ele>122.33333333333334</ele><time>2026-03-22T11:57:51.822Z</time></trkpt><trkpt lat="45.4035367" lon="10.534095"><ele>122.0</ele><time>2026-03-22T11:57:53.827Z</time></trkpt><trkpt lat="45.4036233" lon="10.5341267"><ele>121.66666666666667</ele><time>2026-03-22T11:57:55.822Z</time></trkpt><trkpt lat="45.4037117" lon="10.53418"><ele>121.33333333333334</ele><time>2026-03-22T11:57:57.822Z</time></trkpt><trkpt lat="45.403815" lon="10.5342267"><ele>121.0</ele><time>2026-03-22T11:57:59.829Z</time></trkpt><trkpt lat="45.4039233" lon="10.5342717"><ele>120.25</ele><time>2026-03-22T11:58:01.824Z</time></trkpt><trkpt lat="45.4040383" lon="10.53432"><ele>119.5</ele><time>2026-03-22T11:58:03.824Z</time></trkpt><trkpt lat="45.4041533" lon="10.5343667"><ele>118.75</ele><time>2026-03-22T11:58:05.823Z</time></trkpt><trkpt lat="45.4042583" lon="10.5344"><ele>118.0</ele><time>2026-03-22T11:58:07.825Z</time></trkpt><trkpt lat="45.4043617" lon="10.5344333"><ele>118.0</ele><time>2026-03-22T11:58:09.828Z</time></trkpt><trkpt lat="45.4044733" lon="10.534475"><ele>118.0</ele><time>2026-03-22T11:58:11.827Z</time></trkpt><trkpt lat="45.4045917" lon="10.5345217"><ele>118.0</ele><time>2026-03-22T11:58:13.828Z</time></trkpt><trkpt lat="45.4047017" lon="10.5345683"><ele>118.0</ele><time>2026-03-22T11:58:15.828Z</time></trkpt><trkpt lat="45.404815" lon="10.5346233"><ele>117.16666666666667</ele><time>2026-03-22T11:58:17.828Z</time></trkpt><trkpt lat="45.4048783" lon="10.534655"><ele>116.33333333333334</ele><time>2026-03-22T11:58:18.826Z</time></trkpt><trkpt lat="45.404945" lon="10.5346983"><ele>115.5</ele><time>2026-03-22T11:58:19.828Z</time></trkpt><trkpt lat="45.4050083" lon="10.5347317"><ele>114.66666666666666</ele><time>2026-03-22T11:58:20.827Z</time></trkpt><trkpt lat="45.4051133" lon="10.5347817"><ele>113.83333333333333</ele><time>2026-03-22T11:58:22.824Z</time></trkpt><trkpt lat="45.4052233" lon="10.534835"><ele>113.0</ele><time>2026-03-22T11:58:24.83Z</time></trkpt><trkpt lat="45.4053383" lon="10.5348883"><ele>113.0</ele><time>2026-03-22T11:58:26.831Z</time></trkpt><trkpt lat="45.4054417" lon="10.53494"><ele>113.00000000000001</ele><time>2026-03-22T11:58:28.829Z</time></trkpt><trkpt lat="45.4055433" lon="10.53497"><ele>113.00000000000001</ele><time>2026-03-22T11:58:30.822Z</time></trkpt><trkpt lat="45.40564" lon="10.5349717"><ele>113.0</ele><time>2026-03-22T11:58:32.831Z</time></trkpt><trkpt lat="45.4057083" lon="10.5349783"><ele>113.0</ele><time>2026-03-22T11:58:34.819Z</time></trkpt><trkpt lat="45.40578" lon="10.535025"><ele>112.80000000000001</ele><time>2026-03-22T11:58:36.83Z</time></trkpt><trkpt lat="45.40586" lon="10.5350967"><ele>112.60000000000001</ele><time>2026-03-22T11:58:38.829Z</time></trkpt><trkpt lat="45.4059467" lon="10.535155"><ele>112.39999999999999</ele><time>2026-03-22T11:58:40.823Z</time></trkpt><trkpt lat="45.4060333" lon="10.5352117"><ele>112.19999999999999</ele><time>2026-03-22T11:58:42.822Z</time></trkpt><trkpt lat="45.4061183" lon="10.53527"><ele>112.0</ele><time>2026-03-22T11:58:44.831Z</time></trkpt><trkpt lat="45.4061933" lon="10.5353117"><ele>112.00000000000001</ele><time>2026-03-22T11:58:46.822Z</time></trkpt><trkpt lat="45.4062583" lon="10.5352817"><ele>112.0</ele><time>2026-03-22T11:58:48.827Z</time></trkpt><trkpt lat="45.4063433" lon="10.535215"><ele>112.0</ele><time>2026-03-22T11:58:50.823Z</time></trkpt><trkpt lat="45.4064217" lon="10.5351317"><ele>112.0</ele><time>2026-03-22T11:58:52.825Z</time></trkpt><trkpt lat="45.4064983" lon="10.535055"><ele>112.00000000000001</ele><time>2026-03-22T11:58:54.82Z</time></trkpt><trkpt lat="45.4065683" lon="10.53497"><ele>112.0</ele><time>2026-03-22T11:58:56.829Z</time></trkpt><trkpt lat="45.4066367" lon="10.5349"><ele>111.66666666666667</ele><time>2026-03-22T11:58:58.821Z</time></trkpt><trkpt lat="45.4067017" lon="10.5348917"><ele>111.33333333333334</ele><time>2026-03-22T11:59:00.826Z</time></trkpt><trkpt lat="45.4067567" lon="10.5349617"><ele>111.0</ele><time>2026-03-22T11:59:02.828Z</time></trkpt><trkpt lat="45.406795" lon="10.5350783"><ele>110.66666666666666</ele><time>2026-03-22T11:59:04.837Z</time></trkpt><trkpt lat="45.4068333" lon="10.5352017"><ele>110.33333333333333</ele><time>2026-03-22T11:59:06.824Z</time></trkpt><trkpt lat="45.40687" lon="10.5353267"><ele>110.0</ele><time>2026-03-22T11:59:08.828Z</time></trkpt><trkpt lat="45.4069017" lon="10.535455"><ele>110.0</ele><time>2026-03-22T11:59:10.821Z</time></trkpt><trkpt lat="45.4069317" lon="10.53558"><ele>110.0</ele><time>2026-03-22T11:59:12.828Z</time></trkpt><trkpt lat="45.40697" lon="10.5357133"><ele>110.0</ele><time>2026-03-22T11:59:14.828Z</time></trkpt><trkpt lat="45.4070017" lon="10.5358517"><ele>110.0</ele><time>2026-03-22T11:59:16.822Z</time></trkpt><trkpt lat="45.4070367" lon="10.5359867"><ele>110.0</ele><time>2026-03-22T11:59:18.827Z</time></trkpt><trkpt lat="45.4070733" lon="10.536115"><ele>110.2</ele><time>2026-03-22T11:59:20.832Z</time></trkpt><trkpt lat="45.4071117" lon="10.5362433"><ele>110.4</ele><time>2026-03-22T11:59:22.822Z</time></trkpt><trkpt lat="45.40715" lon="10.53637"><ele>110.6</ele><time>2026-03-22T11:59:24.825Z</time></trkpt><trkpt lat="45.40719" lon="10.53649"><ele>110.8</ele><time>2026-03-22T11:59:26.83Z</time></trkpt><trkpt lat="45.4072267" lon="10.5366183"><ele>111.0</ele><time>2026-03-22T11:59:28.828Z</time></trkpt><trkpt lat="45.4072633" lon="10.53674"><ele>111.0</ele><time>2026-03-22T11:59:30.827Z</time></trkpt><trkpt lat="45.4072983" lon="10.5368683"><ele>111.0</ele><time>2026-03-22T11:59:32.833Z</time></trkpt><trkpt lat="45.4073333" lon="10.5369983"><ele>111.0</ele><time>2026-03-22T11:59:34.822Z</time></trkpt><trkpt lat="45.4073667" lon="10.5371183"><ele>111.0</ele><time>2026-03-22T11:59:36.825Z</time></trkpt><trkpt lat="45.4074017" lon="10.537245"><ele>111.0</ele><time>2026-03-22T11:59:38.83Z</time></trkpt><trkpt lat="45.4074333" lon="10.5373783"><ele>111.5</ele><time>2026-03-22T11:59:40.829Z</time></trkpt><trkpt lat="45.407465" lon="10.5375067"><ele>112.0</ele><time>2026-03-22T11:59:42.823Z</time></trkpt><trkpt lat="45.4075017" lon="10.5376317"><ele>112.5</ele><time>2026-03-22T11:59:44.822Z</time></trkpt><trkpt lat="45.4075383" lon="10.5377433"><ele>113.0</ele><time>2026-03-22T11:59:46.828Z</time></trkpt><trkpt lat="45.4075917" lon="10.537805"><ele>113.5</ele><time>2026-03-22T11:59:48.821Z</time></trkpt><trkpt lat="45.4076783" lon="10.537795"><ele>114.0</ele><time>2026-03-22T11:59:51.824Z</time></trkpt><trkpt lat="45.4077483" lon="10.53776"><ele>114.0</ele><time>2026-03-22T11:59:53.826Z</time></trkpt><trkpt lat="45.4078283" lon="10.5377183"><ele>114.0</ele><time>2026-03-22T11:59:55.821Z</time></trkpt><trkpt lat="45.407915" lon="10.5376717"><ele>114.0</ele><time>2026-03-22T11:59:57.824Z</time></trkpt><trkpt lat="45.4080017" lon="10.5376267"><ele>114.0</ele><time>2026-03-22T11:59:59.825Z</time></trkpt><trkpt lat="45.40809" lon="10.5375683"><ele>114.0</ele><time>2026-03-22T12:00:01.82Z</time></trkpt><trkpt lat="45.4081817" lon="10.5375117"><ele>114.4</ele><time>2026-03-22T12:00:03.832Z</time></trkpt><trkpt lat="45.4082717" lon="10.5374617"><ele>114.80000000000001</ele><time>2026-03-22T12:00:05.82Z</time></trkpt><trkpt lat="45.4083583" lon="10.5374117"><ele>115.19999999999999</ele><time>2026-03-22T12:00:07.827Z</time></trkpt><trkpt lat="45.408455" lon="10.5373583"><ele>115.6</ele><time>2026-03-22T12:00:09.829Z</time></trkpt><trkpt lat="45.4085517" lon="10.537305"><ele>116.0</ele><time>2026-03-22T12:00:11.829Z</time></trkpt><trkpt lat="45.408635" lon="10.5372617"><ele>116.00000000000001</ele><time>2026-03-22T12:00:13.83Z</time></trkpt><trkpt lat="45.4087083" lon="10.5372433"><ele>116.0</ele><time>2026-03-22T12:00:15.82Z</time></trkpt><trkpt lat="45.4087717" lon="10.5372783"><ele>116.00000000000001</ele><time>2026-03-22T12:00:17.825Z</time></trkpt><trkpt lat="45.408795" lon="10.5373817"><ele>116.00000000000001</ele><time>2026-03-22T12:00:19.822Z</time></trkpt><trkpt lat="45.4087933" lon="10.5374817"><ele>116.0</ele><time>2026-03-22T12:00:21.813Z</time></trkpt><trkpt lat="45.4087883" lon="10.53758"><ele>116.00000000000001</ele><time>2026-03-22T12:00:23.818Z</time></trkpt><trkpt lat="45.408785" lon="10.53767"><ele>116.00000000000001</ele><time>2026-03-22T12:00:25.824Z</time></trkpt><trkpt lat="45.40879" lon="10.5377767"><ele>116.42857142857144</ele><time>2026-03-22T12:00:28.824Z</time></trkpt><trkpt lat="45.4088" lon="10.5378983"><ele>116.85714285714286</ele><time>2026-03-22T12:00:31.82Z</time></trkpt><trkpt lat="45.4088017" lon="10.537995"><ele>117.28571428571429</ele><time>2026-03-22T12:00:33.827Z</time></trkpt><trkpt lat="45.4088" lon="10.5381"><ele>117.71428571428572</ele><time>2026-03-22T12:00:35.818Z</time></trkpt><trkpt lat="45.408805" lon="10.5381933"><ele>118.14285714285714</ele><time>2026-03-22T12:00:37.816Z</time></trkpt><trkpt lat="45.408805" lon="10.5382917"><ele>118.57142857142857</ele><time>2026-03-22T12:00:39.82Z</time></trkpt><trkpt lat="45.4088083" lon="10.5383883"><ele>119.0</ele><time>2026-03-22T12:00:41.826Z</time></trkpt><trkpt lat="45.4088167" lon="10.538515"><ele>119.0</ele><time>2026-03-22T12:00:44.82Z</time></trkpt><trkpt lat="45.408815" lon="10.5386083"><ele>119.0</ele><time>2026-03-22T12:00:46.822Z</time></trkpt><trkpt lat="45.4088183" lon="10.5387367"><ele>119.0</ele><time>2026-03-22T12:00:49.826Z</time></trkpt><trkpt lat="45.40883" lon="10.5388417"><ele>119.0</ele><time>2026-03-22T12:00:52.813Z</time></trkpt><trkpt lat="45.4088417" lon="10.5389367"><ele>119.0</ele><time>2026-03-22T12:00:55.823Z</time></trkpt><trkpt lat="45.4088817" lon="10.539015"><ele>119.0</ele><time>2026-03-22T12:00:59.823Z</time></trkpt><trkpt lat="45.4088483" lon="10.5391017"><ele>119.0</ele><time>2026-03-22T12:01:04.824Z</time></trkpt><trkpt lat="45.4088267" lon="10.5391867"><ele>121.0</ele><time>2026-03-22T12:01:09.821Z</time></trkpt><trkpt lat="45.4088367" lon="10.5393283"><ele>123.0</ele><time>2026-03-22T12:01:46.827Z</time></trkpt><trkpt lat="45.4089133" lon="10.5394433"><ele>125.0</ele><time>2026-03-22T12:02:02.818Z</time></trkpt><trkpt lat="45.4088767" lon="10.5395917"><ele>127.0</ele><time>2026-03-22T12:02:14.825Z</time></trkpt><trkpt lat="45.4088333" lon="10.5397567"><ele>129.0</ele><time>2026-03-22T12:02:26.817Z</time></trkpt><trkpt lat="45.4092633" lon="10.5406383"><ele>130.0</ele><time>2026-03-22T12:05:26.865Z</time></trkpt><trkpt lat="45.4092833" lon="10.540505"><ele>131.0</ele><time>2026-03-22T12:05:34.86Z</time></trkpt><trkpt lat="45.4092497" lon="10.5403331"><ele>132.0</ele><time>2026-03-22T12:05:40.857Z</time></trkpt><trkpt lat="45.4092359" lon="10.5402259"><ele>133.0</ele><time>2026-03-22T12:05:42.853Z</time></trkpt><trkpt lat="45.4091356" lon="10.5400117"><ele>133.0</ele><time>2026-03-22T12:05:45.855Z</time></trkpt><trkpt lat="45.409079" lon="10.5399138"><ele>133.0</ele><time>2026-03-22T12:05:46.86Z</time></trkpt><trkpt lat="45.4090151" lon="10.5398144"><ele>133.0</ele><time>2026-03-22T12:05:47.858Z</time></trkpt><trkpt lat="45.408972" lon="10.5397471"><ele>133.0</ele><time>2026-03-22T12:05:48.861Z</time></trkpt><trkpt lat="45.4089001" lon="10.5396528"><ele>133.0</ele><time>2026-03-22T12:05:51.856Z</time></trkpt><trkpt lat="45.4088477" lon="10.5395922"><ele>133.0</ele><time>2026-03-22T12:05:54.856Z</time></trkpt><trkpt lat="45.4089144" lon="10.5396657"><ele>133.0</ele><time>2026-03-22T12:06:30.858Z</time></trkpt><trkpt lat="45.40898" lon="10.5397435"><ele>133.0</ele><time>2026-03-22T12:07:03.861Z</time></trkpt><trkpt lat="45.4090672" lon="10.539846"><ele>133.0</ele><time>2026-03-22T12:07:37.86Z</time></trkpt><trkpt lat="45.4091178" lon="10.5397867"><ele>133.0</ele><time>2026-03-22T12:09:23.855Z</time></trkpt></trkseg></trk></gpx>